Wetterdaten: Montag, 29.05.2017
Datum Zeit Temp. A. Temp. A. max Feuchte A. Luftdruck Regen Wind Richtung Richtung Sonnenschein ET UV Solar Taupunkt Windchill Windböen
29.05.2017 00:00 14,0 °C 14,0 °C 77 % 1016,7 hPa 0,0 mm 0,0 km/h (0 Bft) SO 142 ° 0 min 0,000 mm 0,0 UV-I 0 W/m² 10,0 °C 14,0 °C 0,0 km/h (0 Bft)
29.05.2017 00:01 14,0 °C 14,0 °C 77 % 1016,7 hPa 0,0 mm 0,0 km/h (0 Bft) SO 142 ° 0 min 0,000 mm 0,0 UV-I 0 W/m² 10,0 °C 14,0 °C 0,0 km/h (0 Bft)
29.05.2017 00:03 14,0 °C 14,0 °C 77 % 1016,6 hPa 0,0 mm 0,0 km/h (0 Bft) SO 142 ° 0 min 0,000 mm 0,0 UV-I 0 W/m² 10,0 °C 14,0 °C 0,0 km/h (0 Bft)
29.05.2017 00:04 14,0 °C 14,1 °C 77 % 1016,6 hPa 0,0 mm 0,0 km/h (0 Bft) SO 142 ° 0 min 0,000 mm 0,0 UV-I 0 W/m² 10,0 °C 14,0 °C 0,0 km/h (0 Bft)
29.05.2017 00:05 14,0 °C 14,0 °C 77 % 1016,7 hPa 0,0 mm 0,0 km/h (0 Bft) SO 142 ° 0 min 0,000 mm 0,0 UV-I 0 W/m² 10,0 °C 14,0 °C 0,0 km/h (0 Bft)
29.05.2017 00:06 13,9 °C 14,0 °C 77 % 1016,7 hPa 0,0 mm 0,5 km/h (0 Bft) O-NO 71 ° 0 min 0,000 mm 0,0 UV-I 0 W/m² 9,9 °C 13,9 °C 3,2 km/h (1 Bft)
29.05.2017 00:07 13,9 °C 13,9 °C 77 % 1016,7 hPa 0,0 mm 0,1 km/h (0 Bft) O-NO 71 ° 0 min 0,000 mm 0,0 UV-I 0 W/m² 9,9 °C 13,9 °C 1,6 km/h (1 Bft)
29.05.2017 00:08 13,9 °C 13,9 °C 78 % 1016,6 hPa 0,0 mm 0,0 km/h (0 Bft) O-NO 71 ° 0 min 0,000 mm 0,0 UV-I 0 W/m² 10,1 °C 13,9 °C 0,0 km/h (0 Bft)
29.05.2017 00:09 14,0 °C 14,0 °C 77 % 1016,7 hPa 0,0 mm 0,0 km/h (0 Bft) O-NO 71 ° 0 min 0,000 mm 0,0 UV-I 0 W/m² 10,0 °C 14,0 °C 0,0 km/h (0 Bft)
29.05.2017 00:10 14,0 °C 14,0 °C 77 % 1016,6 hPa 0,0 mm 0,0 km/h (0 Bft) O-NO 71 ° 0 min 0,000 mm 0,0 UV-I 0 W/m² 10,0 °C 14,0 °C 0,0 km/h (0 Bft)
29.05.2017 00:11 14,0 °C 14,0 °C 77 % 1016,6 hPa 0,0 mm 0,1 km/h (0 Bft) O-NO 71 ° 0 min 0,000 mm 0,0 UV-I 0 W/m² 10,0 °C 14,0 °C 1,6 km/h (1 Bft)
29.05.2017 00:12 14,0 °C 14,1 °C 77 % 1016,6 hPa 0,0 mm 0,0 km/h (0 Bft) O-NO 71 ° 0 min 0,000 mm 0,0 UV-I 0 W/m² 10,0 °C 14,0 °C 0,0 km/h (0 Bft)
29.05.2017 00:13 14,1 °C 14,1 °C 76 % 1016,6 hPa 0,0 mm 0,0 km/h (0 Bft) O-NO 71 ° 0 min 0,000 mm 0,0 UV-I 0 W/m² 9,9 °C 14,1 °C 0,0 km/h (0 Bft)
29.05.2017 00:14 14,1 °C 14,1 °C 76 % 1016,6 hPa 0,0 mm 0,1 km/h (0 Bft) O-NO 71 ° 0 min 0,000 mm 0,0 UV-I 0 W/m² 9,9 °C 14,1 °C 1,6 km/h (1 Bft)
29.05.2017 00:15 14,1 °C 14,2 °C 75 % 1016,5 hPa 0,0 mm 0,0 km/h (0 Bft) O-NO 71 ° 0 min 0,000 mm 0,0 UV-I 0 W/m² 9,7 °C 14,1 °C 0,0 km/h (0 Bft)
29.05.2017 00:16 14,2 °C 14,2 °C 76 % 1016,5 hPa 0,0 mm 0,0 km/h (0 Bft) O-NO 71 ° 0 min 0,000 mm 0,0 UV-I 0 W/m² 10,0 °C 14,2 °C 0,0 km/h (0 Bft)
29.05.2017 00:17 14,2 °C 14,2 °C 75 % 1016,5 hPa 0,0 mm 0,5 km/h (0 Bft) O-NO 71 ° 0 min 0,000 mm 0,0 UV-I 0 W/m² 9,8 °C 14,2 °C 3,2 km/h (1 Bft)
29.05.2017 00:18 14,2 °C 14,2 °C 76 % 1016,5 hPa 0,0 mm 0,0 km/h (0 Bft) O-NO 71 ° 0 min 0,000 mm 0,0 UV-I 0 W/m² 10,0 °C 14,2 °C 0,0 km/h (0 Bft)
29.05.2017 00:19 14,1 °C 14,2 °C 76 % 1016,5 hPa 0,0 mm 0,0 km/h (0 Bft) O-NO 71 ° 0 min 0,000 mm 0,0 UV-I 0 W/m² 9,9 °C 14,1 °C 0,0 km/h (0 Bft)
29.05.2017 00:20 13,9 °C 14,1 °C 76 % 1016,5 hPa 0,0 mm 0,0 km/h (0 Bft) O-NO 71 ° 0 min 0,000 mm 0,0 UV-I 0 W/m² 9,7 °C 13,9 °C 0,0 km/h (0 Bft)
29.05.2017 00:21 13,9 °C 13,9 °C 77 % 1016,5 hPa 0,0 mm 0,2 km/h (0 Bft) O-NO 71 ° 0 min 0,000 mm 0,0 UV-I 0 W/m² 9,9 °C 13,9 °C 1,6 km/h (1 Bft)
29.05.2017 00:22 13,9 °C 13,9 °C 76 % 1016,5 hPa 0,0 mm 0,0 km/h (0 Bft) O-NO 71 ° 0 min 0,000 mm 0,0 UV-I 0 W/m² 9,7 °C 13,9 °C 0,0 km/h (0 Bft)
29.05.2017 00:23 13,9 °C 13,9 °C 77 % 1016,5 hPa 0,0 mm 0,0 km/h (0 Bft) O-NO 71 ° 0 min 0,000 mm 0,0 UV-I 0 W/m² 9,9 °C 13,9 °C 0,0 km/h (0 Bft)
29.05.2017 00:24 14,0 °C 14,0 °C 76 % 1016,4 hPa 0,0 mm 0,0 km/h (0 Bft) O-NO 71 ° 0 min 0,000 mm 0,0 UV-I 0 W/m² 9,8 °C 14,0 °C 0,0 km/h (0 Bft)
29.05.2017 00:25 14,1 °C 14,1 °C 75 % 1016,4 hPa 0,0 mm 0,0 km/h (0 Bft) O-NO 71 ° 0 min 0,000 mm 0,0 UV-I 0 W/m² 9,7 °C 14,1 °C 0,0 km/h (0 Bft)
29.05.2017 00:26 14,1 °C 14,1 °C 75 % 1016,4 hPa 0,0 mm 0,0 km/h (0 Bft) O-NO 71 ° 0 min 0,000 mm 0,0 UV-I 0 W/m² 9,7 °C 14,1 °C 0,0 km/h (0 Bft)
29.05.2017 00:27 14,1 °C 14,1 °C 75 % 1016,4 hPa 0,0 mm 0,0 km/h (0 Bft) O-NO 71 ° 0 min 0,000 mm 0,0 UV-I 0 W/m² 9,7 °C 14,1 °C 0,0 km/h (0 Bft)
29.05.2017 00:28 14,2 °C 14,2 °C 75 % 1016,4 hPa 0,0 mm 0,0 km/h (0 Bft) O-NO 71 ° 0 min 0,000 mm 0,0 UV-I 0 W/m² 9,8 °C 14,2 °C 0,0 km/h (0 Bft)
29.05.2017 00:29 14,3 °C 14,3 °C 75 % 1016,4 hPa 0,0 mm 0,0 km/h (0 Bft) O-NO 71 ° 0 min 0,000 mm 0,0 UV-I 0 W/m² 9,9 °C 14,3 °C 0,0 km/h (0 Bft)
29.05.2017 00:30 14,3 °C 14,3 °C 74 % 1016,4 hPa 0,0 mm 0,0 km/h (0 Bft) O-NO 71 ° 0 min 0,000 mm 0,0 UV-I 0 W/m² 9,7 °C 14,3 °C 0,0 km/h (0 Bft)
29.05.2017 00:31 14,4 °C 14,4 °C 74 % 1016,3 hPa 0,0 mm 0,0 km/h (0 Bft) O-NO 71 ° 0 min 0,000 mm 0,0 UV-I 0 W/m² 9,8 °C 14,4 °C 0,0 km/h (0 Bft)
29.05.2017 00:32 14,4 °C 14,5 °C 74 % 1016,3 hPa 0,0 mm 0,0 km/h (0 Bft) O-NO 71 ° 0 min 0,000 mm 0,0 UV-I 0 W/m² 9,8 °C 14,4 °C 0,0 km/h (0 Bft)
29.05.2017 00:33 14,6 °C 14,6 °C 73 % 1016,3 hPa 0,0 mm 0,4 km/h (0 Bft) O-NO 69 ° 0 min 0,000 mm 0,0 UV-I 0 W/m² 9,8 °C 14,6 °C 1,6 km/h (1 Bft)
29.05.2017 00:34 14,6 °C 14,6 °C 73 % 1016,3 hPa 0,0 mm 0,0 km/h (0 Bft) O-NO 69 ° 0 min 0,000 mm 0,0 UV-I 0 W/m² 9,8 °C 14,6 °C 0,0 km/h (0 Bft)
29.05.2017 00:35 14,7 °C 14,7 °C 73 % 1016,3 hPa 0,0 mm 0,0 km/h (0 Bft) O-NO 69 ° 0 min 0,000 mm 0,0 UV-I 0 W/m² 9,9 °C 14,7 °C 0,0 km/h (0 Bft)
29.05.2017 00:36 14,7 °C 14,7 °C 73 % 1016,3 hPa 0,0 mm 0,0 km/h (0 Bft) O-NO 69 ° 0 min 0,000 mm 0,0 UV-I 0 W/m² 9,9 °C 14,7 °C 0,0 km/h (0 Bft)
29.05.2017 00:37 14,7 °C 14,7 °C 72 % 1016,3 hPa 0,0 mm 0,0 km/h (0 Bft) O-NO 69 ° 0 min 0,000 mm 0,0 UV-I 0 W/m² 9,7 °C 14,7 °C 0,0 km/h (0 Bft)
29.05.2017 00:38 14,7 °C 14,7 °C 72 % 1016,3 hPa 0,0 mm 0,0 km/h (0 Bft) O-NO 69 ° 0 min 0,000 mm 0,0 UV-I 0 W/m² 9,7 °C 14,7 °C 0,0 km/h (0 Bft)
29.05.2017 00:39 14,8 °C 14,8 °C 72 % 1016,3 hPa 0,0 mm 1,3 km/h (1 Bft) O-NO 69 ° 0 min 0,000 mm 0,0 UV-I 0 W/m² 9,8 °C 14,8 °C 3,2 km/h (1 Bft)
29.05.2017 00:40 14,8 °C 14,8 °C 72 % 1016,3 hPa 0,0 mm 0,7 km/h (0 Bft) O-NO 69 ° 0 min 0,000 mm 0,0 UV-I 0 W/m² 9,8 °C 14,8 °C 1,6 km/h (1 Bft)
29.05.2017 00:41 14,8 °C 14,8 °C 72 % 1016,2 hPa 0,0 mm 0,0 km/h (0 Bft) O-NO 69 ° 0 min 0,000 mm 0,0 UV-I 0 W/m² 9,8 °C 14,8 °C 0,0 km/h (0 Bft)
29.05.2017 00:42 14,8 °C 14,8 °C 73 % 1016,2 hPa 0,0 mm 0,0 km/h (0 Bft) O-NO 69 ° 0 min 0,000 mm 0,0 UV-I 0 W/m² 10,0 °C 14,8 °C 0,0 km/h (0 Bft)
29.05.2017 00:43 14,7 °C 14,8 °C 73 % 1016,2 hPa 0,0 mm 0,0 km/h (0 Bft) O-NO 69 ° 0 min 0,000 mm 0,0 UV-I 0 W/m² 9,9 °C 14,7 °C 0,0 km/h (0 Bft)
29.05.2017 00:44 14,6 °C 14,7 °C 73 % 1016,2 hPa 0,0 mm 0,3 km/h (0 Bft) O-NO 69 ° 0 min 0,000 mm 0,0 UV-I 0 W/m² 9,8 °C 14,6 °C 1,6 km/h (1 Bft)
29.05.2017 00:45 14,6 °C 14,6 °C 74 % 1016,2 hPa 0,0 mm 0,0 km/h (0 Bft) O-NO 69 ° 0 min 0,000 mm 0,0 UV-I 0 W/m² 10,0 °C 14,6 °C 0,0 km/h (0 Bft)
29.05.2017 00:46 14,5 °C 14,6 °C 74 % 1016,2 hPa 0,0 mm 0,0 km/h (0 Bft) O-NO 69 ° 0 min 0,000 mm 0,0 UV-I 0 W/m² 9,9 °C 14,5 °C 0,0 km/h (0 Bft)
29.05.2017 00:47 14,4 °C 14,5 °C 74 % 1016,2 hPa 0,0 mm 0,5 km/h (0 Bft) O-NO 69 ° 0 min 0,000 mm 0,0 UV-I 0 W/m² 9,8 °C 14,4 °C 1,6 km/h (1 Bft)
29.05.2017 00:48 14,4 °C 14,4 °C 74 % 1016,2 hPa 0,0 mm 0,4 km/h (0 Bft) O-NO 69 ° 0 min 0,000 mm 0,0 UV-I 0 W/m² 9,8 °C 14,4 °C 1,6 km/h (1 Bft)
29.05.2017 00:49 14,5 °C 14,5 °C 74 % 1016,2 hPa 0,0 mm 0,5 km/h (0 Bft) O-NO 69 ° 0 min 0,000 mm 0,0 UV-I 0 W/m² 9,9 °C 14,5 °C 1,6 km/h (1 Bft)
29.05.2017 00:50 14,4 °C 14,5 °C 74 % 1016,2 hPa 0,0 mm 0,1 km/h (0 Bft) O-NO 69 ° 0 min 0,000 mm 0,0 UV-I 0 W/m² 9,8 °C 14,4 °C 1,6 km/h (1 Bft)
29.05.2017 00:51 14,4 °C 14,4 °C 74 % 1016,2 hPa 0,0 mm 0,0 km/h (0 Bft) O-NO 69 ° 0 min 0,000 mm 0,0 UV-I 0 W/m² 9,8 °C 14,4 °C 0,0 km/h (0 Bft)
29.05.2017 00:52 14,4 °C 14,4 °C 74 % 1016,2 hPa 0,0 mm 0,0 km/h (0 Bft) O-NO 69 ° 0 min 0,000 mm 0,0 UV-I 0 W/m² 9,8 °C 14,4 °C 0,0 km/h (0 Bft)
29.05.2017 00:53 14,3 °C 14,4 °C 75 % 1016,1 hPa 0,0 mm 0,0 km/h (0 Bft) O-NO 69 ° 0 min 0,000 mm 0,0 UV-I 0 W/m² 9,9 °C 14,3 °C 0,0 km/h (0 Bft)
29.05.2017 00:54 14,3 °C 14,3 °C 75 % 1016,1 hPa 0,0 mm 0,0 km/h (0 Bft) O-NO 69 ° 0 min 0,000 mm 0,0 UV-I 0 W/m² 9,9 °C 14,3 °C 0,0 km/h (0 Bft)
29.05.2017 00:55 14,2 °C 14,3 °C 75 % 1016,1 hPa 0,0 mm 0,0 km/h (0 Bft) O-NO 69 ° 0 min 0,000 mm 0,0 UV-I 0 W/m² 9,8 °C 14,2 °C 0,0 km/h (0 Bft)
29.05.2017 00:56 14,2 °C 14,2 °C 75 % 1016,1 hPa 0,0 mm 0,0 km/h (0 Bft) O-NO 69 ° 0 min 0,000 mm 0,0 UV-I 0 W/m² 9,8 °C 14,2 °C 0,0 km/h (0 Bft)
29.05.2017 00:57 14,2 °C 14,2 °C 75 % 1016,1 hPa 0,0 mm 0,0 km/h (0 Bft) O-NO 69 ° 0 min 0,000 mm 0,0 UV-I 0 W/m² 9,8 °C 14,2 °C 0,0 km/h (0 Bft)
29.05.2017 00:58 14,1 °C 14,2 °C 76 % 1016,1 hPa 0,0 mm 0,0 km/h (0 Bft) O-NO 69 ° 0 min 0,000 mm 0,0 UV-I 0 W/m² 9,9 °C 14,1 °C 0,0 km/h (0 Bft)
29.05.2017 00:59 14,1 °C 14,1 °C 76 % 1016,1 hPa 0,0 mm 0,0 km/h (0 Bft) O-NO 69 ° 0 min 0,000 mm 0,0 UV-I 0 W/m² 9,9 °C 14,1 °C 0,0 km/h (0 Bft)
29.05.2017 01:00 14,1 °C 14,1 °C 76 % 1016,0 hPa 0,0 mm 0,0 km/h (0 Bft) O-NO 69 ° 0 min 0,000 mm 0,0 UV-I 0 W/m² 9,9 °C 14,1 °C 0,0 km/h (0 Bft)
29.05.2017 01:01 14,0 °C 14,1 °C 76 % 1016,0 hPa 0,0 mm 0,0 km/h (0 Bft) O-NO 69 ° 0 min 0,025 mm 0,0 UV-I 0 W/m² 9,8 °C 14,0 °C 0,0 km/h (0 Bft)
29.05.2017 01:02 14,0 °C 14,0 °C 76 % 1016,0 hPa 0,0 mm 0,0 km/h (0 Bft) O-NO 69 ° 0 min 0,000 mm 0,0 UV-I 0 W/m² 9,8 °C 14,0 °C 0,0 km/h (0 Bft)
29.05.2017 01:03 13,9 °C 14,0 °C 77 % 1016,0 hPa 0,0 mm 0,0 km/h (0 Bft) O-NO 69 ° 0 min 0,000 mm 0,0 UV-I 0 W/m² 9,9 °C 13,9 °C 0,0 km/h (0 Bft)
29.05.2017 01:04 13,8 °C 13,9 °C 77 % 1016,0 hPa 0,0 mm 0,0 km/h (0 Bft) O-NO 69 ° 0 min 0,000 mm 0,0 UV-I 0 W/m² 9,8 °C 13,8 °C 0,0 km/h (0 Bft)
29.05.2017 01:05 13,8 °C 13,8 °C 78 % 1016,0 hPa 0,0 mm 0,0 km/h (0 Bft) O-NO 69 ° 0 min 0,000 mm 0,0 UV-I 0 W/m² 10,0 °C 13,8 °C 0,0 km/h (0 Bft)
29.05.2017 01:06 13,7 °C 13,8 °C 78 % 1016,0 hPa 0,0 mm 0,0 km/h (0 Bft) O-NO 69 ° 0 min 0,000 mm 0,0 UV-I 0 W/m² 9,9 °C 13,7 °C 0,0 km/h (0 Bft)
29.05.2017 01:07 13,7 °C 13,7 °C 78 % 1015,9 hPa 0,0 mm 0,0 km/h (0 Bft) O-NO 69 ° 0 min 0,000 mm 0,0 UV-I 0 W/m² 9,9 °C 13,7 °C 0,0 km/h (0 Bft)
29.05.2017 01:08 13,6 °C 13,7 °C 78 % 1015,9 hPa 0,0 mm 0,0 km/h (0 Bft) O-NO 69 ° 0 min 0,000 mm 0,0 UV-I 0 W/m² 9,8 °C 13,6 °C 0,0 km/h (0 Bft)
29.05.2017 01:09 13,6 °C 13,6 °C 78 % 1015,9 hPa 0,0 mm 0,0 km/h (0 Bft) O-NO 69 ° 0 min 0,000 mm 0,0 UV-I 0 W/m² 9,8 °C 13,6 °C 0,0 km/h (0 Bft)
29.05.2017 01:10 13,6 °C 13,6 °C 78 % 1015,9 hPa 0,0 mm 0,0 km/h (0 Bft) O-NO 69 ° 0 min 0,000 mm 0,0 UV-I 0 W/m² 9,8 °C 13,6 °C 0,0 km/h (0 Bft)
29.05.2017 01:11 13,6 °C 13,6 °C 78 % 1015,9 hPa 0,0 mm 0,0 km/h (0 Bft) O-NO 69 ° 0 min 0,000 mm 0,0 UV-I 0 W/m² 9,8 °C 13,6 °C 0,0 km/h (0 Bft)
29.05.2017 01:12 13,6 °C 13,6 °C 78 % 1015,9 hPa 0,0 mm 0,0 km/h (0 Bft) O-NO 69 ° 0 min 0,000 mm 0,0 UV-I 0 W/m² 9,8 °C 13,6 °C 0,0 km/h (0 Bft)
29.05.2017 01:13 13,5 °C 13,6 °C 78 % 1015,9 hPa 0,0 mm 0,0 km/h (0 Bft) O-NO 69 ° 0 min 0,000 mm 0,0 UV-I 0 W/m² 9,7 °C 13,5 °C 0,0 km/h (0 Bft)
29.05.2017 01:14 13,4 °C 13,5 °C 78 % 1015,9 hPa 0,0 mm 0,0 km/h (0 Bft) O-NO 69 ° 0 min 0,000 mm 0,0 UV-I 0 W/m² 9,6 °C 13,4 °C 0,0 km/h (0 Bft)
29.05.2017 01:15 13,3 °C 13,4 °C 78 % 1015,9 hPa 0,0 mm 0,0 km/h (0 Bft) O-NO 69 ° 0 min 0,000 mm 0,0 UV-I 0 W/m² 9,5 °C 13,3 °C 0,0 km/h (0 Bft)
29.05.2017 01:16 13,3 °C 13,3 °C 78 % 1015,9 hPa 0,0 mm 0,0 km/h (0 Bft) O-NO 69 ° 0 min 0,000 mm 0,0 UV-I 0 W/m² 9,5 °C 13,3 °C 0,0 km/h (0 Bft)
29.05.2017 01:17 13,2 °C 13,3 °C 78 % 1015,9 hPa 0,0 mm 0,0 km/h (0 Bft) O-NO 69 ° 0 min 0,000 mm 0,0 UV-I 0 W/m² 9,4 °C 13,2 °C 0,0 km/h (0 Bft)
29.05.2017 01:18 13,2 °C 13,2 °C 79 % 1015,9 hPa 0,0 mm 0,0 km/h (0 Bft) O-NO 69 ° 0 min 0,000 mm 0,0 UV-I 0 W/m² 9,6 °C 13,2 °C 0,0 km/h (0 Bft)
29.05.2017 01:19 13,1 °C 13,2 °C 79 % 1015,8 hPa 0,0 mm 0,0 km/h (0 Bft) O-NO 69 ° 0 min 0,000 mm 0,0 UV-I 0 W/m² 9,5 °C 13,1 °C 0,0 km/h (0 Bft)
29.05.2017 01:20 13,1 °C 13,1 °C 79 % 1015,8 hPa 0,0 mm 0,0 km/h (0 Bft) O-NO 69 ° 0 min 0,000 mm 0,0 UV-I 0 W/m² 9,5 °C 13,1 °C 0,0 km/h (0 Bft)
29.05.2017 01:21 13,1 °C 13,1 °C 79 % 1015,8 hPa 0,0 mm 0,0 km/h (0 Bft) O-NO 69 ° 0 min 0,000 mm 0,0 UV-I 0 W/m² 9,5 °C 13,1 °C 0,0 km/h (0 Bft)
29.05.2017 01:22 13,2 °C 13,2 °C 79 % 1015,7 hPa 0,0 mm 0,0 km/h (0 Bft) O-NO 69 ° 0 min 0,000 mm 0,0 UV-I 0 W/m² 9,6 °C 13,2 °C 0,0 km/h (0 Bft)
29.05.2017 01:23 13,2 °C 13,2 °C 79 % 1015,7 hPa 0,0 mm 0,0 km/h (0 Bft) O-NO 69 ° 0 min 0,000 mm 0,0 UV-I 0 W/m² 9,6 °C 13,2 °C 0,0 km/h (0 Bft)
29.05.2017 01:24 13,2 °C 13,2 °C 79 % 1015,7 hPa 0,0 mm 0,0 km/h (0 Bft) O-NO 69 ° 0 min 0,000 mm 0,0 UV-I 0 W/m² 9,6 °C 13,2 °C 0,0 km/h (0 Bft)
29.05.2017 01:25 13,2 °C 13,2 °C 78 % 1015,8 hPa 0,0 mm 0,0 km/h (0 Bft) O-NO 69 ° 0 min 0,000 mm 0,0 UV-I 0 W/m² 9,4 °C 13,2 °C 0,0 km/h (0 Bft)
29.05.2017 01:26 13,3 °C 13,3 °C 78 % 1015,7 hPa 0,0 mm 0,0 km/h (0 Bft) O-NO 69 ° 0 min 0,000 mm 0,0 UV-I 0 W/m² 9,5 °C 13,3 °C 0,0 km/h (0 Bft)
29.05.2017 01:27 13,3 °C 13,3 °C 78 % 1015,7 hPa 0,0 mm 0,0 km/h (0 Bft) O-NO 69 ° 0 min 0,000 mm 0,0 UV-I 0 W/m² 9,5 °C 13,3 °C 0,0 km/h (0 Bft)
29.05.2017 01:28 13,3 °C 13,3 °C 78 % 1015,8 hPa 0,0 mm 0,0 km/h (0 Bft) O-NO 69 ° 0 min 0,000 mm 0,0 UV-I 0 W/m² 9,5 °C 13,3 °C 0,0 km/h (0 Bft)
29.05.2017 01:29 13,3 °C 13,3 °C 79 % 1015,7 hPa 0,0 mm 0,0 km/h (0 Bft) O-NO 69 ° 0 min 0,000 mm 0,0 UV-I 0 W/m² 9,7 °C 13,3 °C 0,0 km/h (0 Bft)
29.05.2017 01:30 13,3 °C 13,3 °C 78 % 1015,7 hPa 0,0 mm 0,0 km/h (0 Bft) O-NO 69 ° 0 min 0,000 mm 0,0 UV-I 0 W/m² 9,5 °C 13,3 °C 0,0 km/h (0 Bft)
29.05.2017 01:31 13,3 °C 13,3 °C 78 % 1015,7 hPa 0,0 mm 0,0 km/h (0 Bft) O-NO 69 ° 0 min 0,000 mm 0,0 UV-I 0 W/m² 9,5 °C 13,3 °C 0,0 km/h (0 Bft)
29.05.2017 01:32 13,3 °C 13,4 °C 78 % 1015,7 hPa 0,0 mm 0,0 km/h (0 Bft) O-NO 69 ° 0 min 0,000 mm 0,0 UV-I 0 W/m² 9,5 °C 13,3 °C 0,0 km/h (0 Bft)
29.05.2017 01:33 13,4 °C 13,4 °C 78 % 1015,7 hPa 0,0 mm 0,0 km/h (0 Bft) O-NO 69 ° 0 min 0,000 mm 0,0 UV-I 0 W/m² 9,6 °C 13,4 °C 0,0 km/h (0 Bft)
29.05.2017 01:34 13,4 °C 13,4 °C 78 % 1015,7 hPa 0,0 mm 0,0 km/h (0 Bft) O-NO 69 ° 0 min 0,000 mm 0,0 UV-I 0 W/m² 9,6 °C 13,4 °C 0,0 km/h (0 Bft)
29.05.2017 01:35 13,4 °C 13,4 °C 77 % 1015,6 hPa 0,0 mm 0,0 km/h (0 Bft) O-NO 69 ° 0 min 0,000 mm 0,0 UV-I 0 W/m² 9,5 °C 13,4 °C 0,0 km/h (0 Bft)
29.05.2017 01:36 13,4 °C 13,4 °C 77 % 1015,6 hPa 0,0 mm 0,0 km/h (0 Bft) O-NO 69 ° 0 min 0,000 mm 0,0 UV-I 0 W/m² 9,5 °C 13,4 °C 0,0 km/h (0 Bft)
29.05.2017 01:37 13,4 °C 13,4 °C 77 % 1015,6 hPa 0,0 mm 0,0 km/h (0 Bft) O-NO 69 ° 0 min 0,000 mm 0,0 UV-I 0 W/m² 9,5 °C 13,4 °C 0,0 km/h (0 Bft)
29.05.2017 01:38 13,4 °C 13,4 °C 77 % 1015,6 hPa 0,0 mm 0,0 km/h (0 Bft) O-NO 69 ° 0 min 0,000 mm 0,0 UV-I 0 W/m² 9,5 °C 13,4 °C 0,0 km/h (0 Bft)
29.05.2017 01:39 13,5 °C 13,5 °C 77 % 1015,6 hPa 0,0 mm 0,0 km/h (0 Bft) O-NO 69 ° 0 min 0,000 mm 0,0 UV-I 0 W/m² 9,5 °C 13,5 °C 0,0 km/h (0 Bft)
29.05.2017 01:40 13,6 °C 13,6 °C 77 % 1015,6 hPa 0,0 mm 0,0 km/h (0 Bft) O-NO 69 ° 0 min 0,000 mm 0,0 UV-I 0 W/m² 9,6 °C 13,6 °C 0,0 km/h (0 Bft)
29.05.2017 01:41 13,6 °C 13,6 °C 77 % 1015,6 hPa 0,0 mm 0,0 km/h (0 Bft) O-NO 69 ° 0 min 0,000 mm 0,0 UV-I 0 W/m² 9,6 °C 13,6 °C 0,0 km/h (0 Bft)
29.05.2017 01:42 13,6 °C 13,6 °C 77 % 1015,6 hPa 0,0 mm 0,0 km/h (0 Bft) O-NO 69 ° 0 min 0,000 mm 0,0 UV-I 0 W/m² 9,6 °C 13,6 °C 0,0 km/h (0 Bft)
29.05.2017 01:43 13,5 °C 13,6 °C 77 % 1015,6 hPa 0,0 mm 0,0 km/h (0 Bft) O-NO 69 ° 0 min 0,000 mm 0,0 UV-I 0 W/m² 9,5 °C 13,5 °C 0,0 km/h (0 Bft)
29.05.2017 01:44 13,4 °C 13,5 °C 77 % 1015,6 hPa 0,0 mm 0,0 km/h (0 Bft) O-NO 69 ° 0 min 0,000 mm 0,0 UV-I 0 W/m² 9,5 °C 13,4 °C 0,0 km/h (0 Bft)
29.05.2017 01:45 13,4 °C 13,4 °C 77 % 1015,5 hPa 0,0 mm 0,0 km/h (0 Bft) O-NO 69 ° 0 min 0,000 mm 0,0 UV-I 0 W/m² 9,5 °C 13,4 °C 0,0 km/h (0 Bft)
29.05.2017 01:46 13,4 °C 13,4 °C 77 % 1015,5 hPa 0,0 mm 0,0 km/h (0 Bft) O-NO 69 ° 0 min 0,000 mm 0,0 UV-I 0 W/m² 9,5 °C 13,4 °C 0,0 km/h (0 Bft)
29.05.2017 01:47 13,4 °C 13,4 °C 77 % 1015,6 hPa 0,0 mm 0,0 km/h (0 Bft) O-NO 69 ° 0 min 0,000 mm 0,0 UV-I 0 W/m² 9,5 °C 13,4 °C 0,0 km/h (0 Bft)
29.05.2017 01:48 13,4 °C 13,4 °C 77 % 1015,6 hPa 0,0 mm 0,0 km/h (0 Bft) O-NO 69 ° 0 min 0,000 mm 0,0 UV-I 0 W/m² 9,5 °C 13,4 °C 0,0 km/h (0 Bft)
29.05.2017 01:49 13,4 °C 13,4 °C 77 % 1015,5 hPa 0,0 mm 0,0 km/h (0 Bft) O-NO 69 ° 0 min 0,000 mm 0,0 UV-I 0 W/m² 9,5 °C 13,4 °C 0,0 km/h (0 Bft)
29.05.2017 01:50 13,4 °C 13,4 °C 77 % 1015,5 hPa 0,0 mm 0,0 km/h (0 Bft) O-NO 69 ° 0 min 0,000 mm 0,0 UV-I 0 W/m² 9,5 °C 13,4 °C 0,0 km/h (0 Bft)
29.05.2017 01:51 13,4 °C 13,4 °C 77 % 1015,5 hPa 0,0 mm 0,0 km/h (0 Bft) O-NO 69 ° 0 min 0,000 mm 0,0 UV-I 0 W/m² 9,5 °C 13,4 °C 0,0 km/h (0 Bft)
29.05.2017 01:52 13,5 °C 13,5 °C 77 % 1015,5 hPa 0,0 mm 0,0 km/h (0 Bft) O-NO 69 ° 0 min 0,000 mm 0,0 UV-I 0 W/m² 9,5 °C 13,5 °C 0,0 km/h (0 Bft)
29.05.2017 01:53 13,5 °C 13,5 °C 77 % 1015,5 hPa 0,0 mm 0,0 km/h (0 Bft) O-NO 69 ° 0 min 0,000 mm 0,0 UV-I 0 W/m² 9,5 °C 13,5 °C 0,0 km/h (0 Bft)
29.05.2017 01:54 13,5 °C 13,5 °C 77 % 1015,5 hPa 0,0 mm 0,0 km/h (0 Bft) O-NO 69 ° 0 min 0,000 mm 0,0 UV-I 0 W/m² 9,5 °C 13,5 °C 0,0 km/h (0 Bft)
29.05.2017 01:55 13,5 °C 13,5 °C 77 % 1015,5 hPa 0,0 mm 0,0 km/h (0 Bft) O-NO 69 ° 0 min 0,000 mm 0,0 UV-I 0 W/m² 9,5 °C 13,5 °C 0,0 km/h (0 Bft)
29.05.2017 01:56 13,5 °C 13,5 °C 77 % 1015,5 hPa 0,0 mm 0,0 km/h (0 Bft) O-NO 69 ° 0 min 0,000 mm 0,0 UV-I 0 W/m² 9,5 °C 13,5 °C 0,0 km/h (0 Bft)
29.05.2017 01:57 13,5 °C 13,5 °C 77 % 1015,5 hPa 0,0 mm 0,0 km/h (0 Bft) O-NO 69 ° 0 min 0,000 mm 0,0 UV-I 0 W/m² 9,5 °C 13,5 °C 0,0 km/h (0 Bft)
29.05.2017 01:58 13,6 °C 13,6 °C 77 % 1015,5 hPa 0,0 mm 0,0 km/h (0 Bft) O-NO 69 ° 0 min 0,000 mm 0,0 UV-I 0 W/m² 9,6 °C 13,6 °C 0,0 km/h (0 Bft)
29.05.2017 01:59 13,6 °C 13,6 °C 77 % 1015,4 hPa 0,0 mm 0,0 km/h (0 Bft) O-NO 69 ° 0 min 0,000 mm 0,0 UV-I 0 W/m² 9,6 °C 13,6 °C 0,0 km/h (0 Bft)
29.05.2017 02:00 13,6 °C 13,6 °C 77 % 1015,4 hPa 0,0 mm 0,0 km/h (0 Bft) O-NO 69 ° 0 min 0,026 mm 0,0 UV-I 0 W/m² 9,6 °C 13,6 °C 0,0 km/h (0 Bft)
29.05.2017 02:01 13,6 °C 13,6 °C 77 % 1015,4 hPa 0,0 mm 0,0 km/h (0 Bft) O-NO 69 ° 0 min 0,000 mm 0,0 UV-I 0 W/m² 9,6 °C 13,6 °C 0,0 km/h (0 Bft)
29.05.2017 02:02 13,7 °C 13,7 °C 77 % 1015,3 hPa 0,0 mm 0,0 km/h (0 Bft) O-NO 69 ° 0 min 0,000 mm 0,0 UV-I 0 W/m² 9,7 °C 13,7 °C 0,0 km/h (0 Bft)
29.05.2017 02:03 13,7 °C 13,7 °C 76 % 1015,3 hPa 0,0 mm 0,0 km/h (0 Bft) O-NO 69 ° 0 min 0,000 mm 0,0 UV-I 0 W/m² 9,5 °C 13,7 °C 0,0 km/h (0 Bft)
29.05.2017 02:04 13,8 °C 13,8 °C 76 % 1015,4 hPa 0,0 mm 0,0 km/h (0 Bft) O-NO 69 ° 0 min 0,000 mm 0,0 UV-I 0 W/m² 9,6 °C 13,8 °C 0,0 km/h (0 Bft)
29.05.2017 02:05 13,7 °C 13,8 °C 76 % 1015,4 hPa 0,0 mm 0,0 km/h (0 Bft) O-NO 69 ° 0 min 0,000 mm 0,0 UV-I 0 W/m² 9,5 °C 13,7 °C 0,0 km/h (0 Bft)
29.05.2017 02:06 13,7 °C 13,8 °C 76 % 1015,3 hPa 0,0 mm 0,0 km/h (0 Bft) O-NO 69 ° 0 min 0,000 mm 0,0 UV-I 0 W/m² 9,5 °C 13,7 °C 0,0 km/h (0 Bft)
29.05.2017 02:07 13,7 °C 13,7 °C 76 % 1015,3 hPa 0,0 mm 0,0 km/h (0 Bft) O-NO 69 ° 0 min 0,000 mm 0,0 UV-I 0 W/m² 9,5 °C 13,7 °C 0,0 km/h (0 Bft)
29.05.2017 02:08 13,7 °C 13,7 °C 76 % 1015,3 hPa 0,0 mm 0,0 km/h (0 Bft) O-NO 69 ° 0 min 0,000 mm 0,0 UV-I 0 W/m² 9,5 °C 13,7 °C 0,0 km/h (0 Bft)
29.05.2017 02:09 13,7 °C 13,7 °C 76 % 1015,3 hPa 0,0 mm 0,0 km/h (0 Bft) O-NO 69 ° 0 min 0,000 mm 0,0 UV-I 0 W/m² 9,5 °C 13,7 °C 0,0 km/h (0 Bft)
29.05.2017 02:10 13,7 °C 13,7 °C 76 % 1015,3 hPa 0,0 mm 0,0 km/h (0 Bft) O-NO 69 ° 0 min 0,000 mm 0,0 UV-I 0 W/m² 9,5 °C 13,7 °C 0,0 km/h (0 Bft)
29.05.2017 02:11 13,7 °C 13,7 °C 76 % 1015,3 hPa 0,0 mm 0,0 km/h (0 Bft) O-NO 69 ° 0 min 0,000 mm 0,0 UV-I 0 W/m² 9,5 °C 13,7 °C 0,0 km/h (0 Bft)
29.05.2017 02:12 13,6 °C 13,7 °C 76 % 1015,3 hPa 0,0 mm 0,0 km/h (0 Bft) O-NO 69 ° 0 min 0,000 mm 0,0 UV-I 0 W/m² 9,4 °C 13,6 °C 0,0 km/h (0 Bft)
29.05.2017 02:13 13,5 °C 13,6 °C 76 % 1015,3 hPa 0,0 mm 0,0 km/h (0 Bft) O-NO 69 ° 0 min 0,000 mm 0,0 UV-I 0 W/m² 9,4 °C 13,5 °C 0,0 km/h (0 Bft)
29.05.2017 02:14 13,4 °C 13,5 °C 76 % 1015,3 hPa 0,0 mm 0,0 km/h (0 Bft) O-NO 69 ° 0 min 0,000 mm 0,0 UV-I 0 W/m² 9,3 °C 13,4 °C 0,0 km/h (0 Bft)
29.05.2017 02:15 13,4 °C 13,4 °C 77 % 1015,4 hPa 0,0 mm 0,0 km/h (0 Bft) O-NO 69 ° 0 min 0,000 mm 0,0 UV-I 0 W/m² 9,5 °C 13,4 °C 0,0 km/h (0 Bft)
29.05.2017 02:16 13,4 °C 13,4 °C 77 % 1015,3 hPa 0,0 mm 0,0 km/h (0 Bft) O-NO 69 ° 0 min 0,000 mm 0,0 UV-I 0 W/m² 9,5 °C 13,4 °C 0,0 km/h (0 Bft)
29.05.2017 02:17 13,3 °C 13,4 °C 77 % 1015,3 hPa 0,0 mm 0,0 km/h (0 Bft) O-NO 69 ° 0 min 0,000 mm 0,0 UV-I 0 W/m² 9,4 °C 13,3 °C 0,0 km/h (0 Bft)
29.05.2017 02:18 13,3 °C 13,4 °C 78 % 1015,3 hPa 0,0 mm 0,0 km/h (0 Bft) O-NO 69 ° 0 min 0,000 mm 0,0 UV-I 0 W/m² 9,5 °C 13,3 °C 0,0 km/h (0 Bft)
29.05.2017 02:19 13,3 °C 13,3 °C 78 % 1015,3 hPa 0,0 mm 0,0 km/h (0 Bft) O-NO 69 ° 0 min 0,000 mm 0,0 UV-I 0 W/m² 9,5 °C 13,3 °C 0,0 km/h (0 Bft)
29.05.2017 02:20 13,3 °C 13,3 °C 78 % 1015,3 hPa 0,0 mm 0,0 km/h (0 Bft) O-NO 69 ° 0 min 0,000 mm 0,0 UV-I 0 W/m² 9,5 °C 13,3 °C 0,0 km/h (0 Bft)
29.05.2017 02:21 13,3 °C 13,3 °C 78 % 1015,3 hPa 0,0 mm 0,0 km/h (0 Bft) O-NO 69 ° 0 min 0,000 mm 0,0 UV-I 0 W/m² 9,5 °C 13,3 °C 0,0 km/h (0 Bft)
29.05.2017 02:22 13,3 °C 13,3 °C 77 % 1015,3 hPa 0,0 mm 0,0 km/h (0 Bft) O-NO 69 ° 0 min 0,000 mm 0,0 UV-I 0 W/m² 9,4 °C 13,3 °C 0,0 km/h (0 Bft)
29.05.2017 02:23 13,3 °C 13,3 °C 77 % 1015,3 hPa 0,0 mm 0,0 km/h (0 Bft) O-NO 69 ° 0 min 0,000 mm 0,0 UV-I 0 W/m² 9,4 °C 13,3 °C 0,0 km/h (0 Bft)
29.05.2017 02:24 13,4 °C 13,4 °C 77 % 1015,3 hPa 0,0 mm 0,0 km/h (0 Bft) O-NO 69 ° 0 min 0,000 mm 0,0 UV-I 0 W/m² 9,5 °C 13,4 °C 0,0 km/h (0 Bft)
29.05.2017 02:25 13,4 °C 13,4 °C 77 % 1015,3 hPa 0,0 mm 0,0 km/h (0 Bft) O-NO 69 ° 0 min 0,000 mm 0,0 UV-I 0 W/m² 9,5 °C 13,4 °C 0,0 km/h (0 Bft)
29.05.2017 02:26 13,5 °C 13,5 °C 77 % 1015,3 hPa 0,0 mm 0,0 km/h (0 Bft) O-NO 69 ° 0 min 0,000 mm 0,0 UV-I 0 W/m² 9,5 °C 13,5 °C 0,0 km/h (0 Bft)
29.05.2017 02:27 13,6 °C 13,6 °C 76 % 1015,2 hPa 0,0 mm 0,0 km/h (0 Bft) O-NO 69 ° 0 min 0,000 mm 0,0 UV-I 0 W/m² 9,4 °C 13,6 °C 0,0 km/h (0 Bft)
29.05.2017 02:28 13,6 °C 13,6 °C 76 % 1015,2 hPa 0,0 mm 0,0 km/h (0 Bft) O-NO 69 ° 0 min 0,000 mm 0,0 UV-I 0 W/m² 9,4 °C 13,6 °C 0,0 km/h (0 Bft)
29.05.2017 02:29 13,6 °C 13,6 °C 76 % 1015,2 hPa 0,0 mm 0,0 km/h (0 Bft) O-NO 69 ° 0 min 0,000 mm 0,0 UV-I 0 W/m² 9,4 °C 13,6 °C 0,0 km/h (0 Bft)
29.05.2017 02:30 13,6 °C 13,6 °C 76 % 1015,2 hPa 0,0 mm 0,0 km/h (0 Bft) O-NO 69 ° 0 min 0,000 mm 0,0 UV-I 0 W/m² 9,4 °C 13,6 °C 0,0 km/h (0 Bft)
29.05.2017 02:31 13,5 °C 13,6 °C 76 % 1015,2 hPa 0,0 mm 0,0 km/h (0 Bft) O-NO 69 ° 0 min 0,000 mm 0,0 UV-I 0 W/m² 9,4 °C 13,5 °C 0,0 km/h (0 Bft)
29.05.2017 02:32 13,5 °C 13,5 °C 77 % 1015,2 hPa 0,0 mm 0,0 km/h (0 Bft) O-NO 69 ° 0 min 0,000 mm 0,0 UV-I 0 W/m² 9,5 °C 13,5 °C 0,0 km/h (0 Bft)
29.05.2017 02:33 13,4 °C 13,5 °C 77 % 1015,2 hPa 0,0 mm 0,0 km/h (0 Bft) O-NO 69 ° 0 min 0,000 mm 0,0 UV-I 0 W/m² 9,5 °C 13,4 °C 0,0 km/h (0 Bft)
29.05.2017 02:34 13,3 °C 13,4 °C 77 % 1015,2 hPa 0,0 mm 0,0 km/h (0 Bft) O-NO 69 ° 0 min 0,000 mm 0,0 UV-I 0 W/m² 9,4 °C 13,3 °C 0,0 km/h (0 Bft)
29.05.2017 02:35 13,3 °C 13,3 °C 78 % 1015,2 hPa 0,0 mm 0,0 km/h (0 Bft) O-NO 69 ° 0 min 0,000 mm 0,0 UV-I 0 W/m² 9,5 °C 13,3 °C 0,0 km/h (0 Bft)
29.05.2017 02:36 13,3 °C 13,3 °C 78 % 1015,1 hPa 0,0 mm 0,0 km/h (0 Bft) O-NO 69 ° 0 min 0,000 mm 0,0 UV-I 0 W/m² 9,5 °C 13,3 °C 0,0 km/h (0 Bft)
29.05.2017 02:37 13,3 °C 13,3 °C 78 % 1015,1 hPa 0,0 mm 0,0 km/h (0 Bft) O-NO 69 ° 0 min 0,000 mm 0,0 UV-I 0 W/m² 9,5 °C 13,3 °C 0,0 km/h (0 Bft)
29.05.2017 02:38 13,3 °C 13,3 °C 78 % 1015,1 hPa 0,0 mm 0,0 km/h (0 Bft) O-NO 69 ° 0 min 0,000 mm 0,0 UV-I 0 W/m² 9,5 °C 13,3 °C 0,0 km/h (0 Bft)
29.05.2017 02:39 13,4 °C 13,4 °C 78 % 1015,1 hPa 0,0 mm 0,0 km/h (0 Bft) O-NO 69 ° 0 min 0,000 mm 0,0 UV-I 0 W/m² 9,6 °C 13,4 °C 0,0 km/h (0 Bft)
29.05.2017 02:40 13,3 °C 13,4 °C 78 % 1015,1 hPa 0,0 mm 0,0 km/h (0 Bft) O-NO 69 ° 0 min 0,000 mm 0,0 UV-I 0 W/m² 9,5 °C 13,3 °C 0,0 km/h (0 Bft)
29.05.2017 02:41 13,2 °C 13,3 °C 78 % 1015,1 hPa 0,0 mm 0,0 km/h (0 Bft) O-NO 69 ° 0 min 0,000 mm 0,0 UV-I 0 W/m² 9,4 °C 13,2 °C 0,0 km/h (0 Bft)
29.05.2017 02:42 13,2 °C 13,2 °C 78 % 1015,1 hPa 0,0 mm 0,0 km/h (0 Bft) O-NO 69 ° 0 min 0,000 mm 0,0 UV-I 0 W/m² 9,4 °C 13,2 °C 0,0 km/h (0 Bft)
29.05.2017 02:43 13,1 °C 13,2 °C 78 % 1015,1 hPa 0,0 mm 0,0 km/h (0 Bft) O-NO 69 ° 0 min 0,000 mm 0,0 UV-I 0 W/m² 9,4 °C 13,1 °C 0,0 km/h (0 Bft)
29.05.2017 02:44 13,0 °C 13,1 °C 79 % 1015,1 hPa 0,0 mm 0,3 km/h (0 Bft) O-NO 69 ° 0 min 0,000 mm 0,0 UV-I 0 W/m² 9,4 °C 13,0 °C 1,6 km/h (1 Bft)
29.05.2017 02:45 13,0 °C 13,0 °C 80 % 1015,1 hPa 0,0 mm 0,0 km/h (0 Bft) O-NO 69 ° 0 min 0,000 mm 0,0 UV-I 0 W/m² 9,6 °C 13,0 °C 0,0 km/h (0 Bft)
29.05.2017 02:46 13,0 °C 13,1 °C 80 % 1015,1 hPa 0,0 mm 0,0 km/h (0 Bft) O-NO 69 ° 0 min 0,000 mm 0,0 UV-I 0 W/m² 9,6 °C 13,0 °C 0,0 km/h (0 Bft)
29.05.2017 02:47 13,1 °C 13,1 °C 79 % 1015,1 hPa 0,0 mm 0,1 km/h (0 Bft) O-NO 69 ° 0 min 0,000 mm 0,0 UV-I 0 W/m² 9,5 °C 13,1 °C 1,6 km/h (1 Bft)
29.05.2017 02:48 13,2 °C 13,2 °C 79 % 1015,1 hPa 0,0 mm 0,1 km/h (0 Bft) O-NO 69 ° 0 min 0,000 mm 0,0 UV-I 0 W/m² 9,6 °C 13,2 °C 1,6 km/h (1 Bft)
29.05.2017 02:49 13,3 °C 13,3 °C 78 % 1015,1 hPa 0,0 mm 0,3 km/h (0 Bft) O-NO 69 ° 0 min 0,000 mm 0,0 UV-I 0 W/m² 9,5 °C 13,3 °C 1,6 km/h (1 Bft)
29.05.2017 02:50 13,3 °C 13,3 °C 78 % 1015,0 hPa 0,0 mm 0,0 km/h (0 Bft) O-NO 69 ° 0 min 0,000 mm 0,0 UV-I 0 W/m² 9,5 °C 13,3 °C 0,0 km/h (0 Bft)
29.05.2017 02:51 13,3 °C 13,3 °C 78 % 1015,0 hPa 0,0 mm 0,1 km/h (0 Bft) O-NO 69 ° 0 min 0,000 mm 0,0 UV-I 0 W/m² 9,5 °C 13,3 °C 1,6 km/h (1 Bft)
29.05.2017 02:52 13,3 °C 13,3 °C 78 % 1015,0 hPa 0,0 mm 0,1 km/h (0 Bft) O-NO 69 ° 0 min 0,000 mm 0,0 UV-I 0 W/m² 9,5 °C 13,3 °C 1,6 km/h (1 Bft)
29.05.2017 02:53 13,3 °C 13,3 °C 78 % 1015,0 hPa 0,0 mm 0,0 km/h (0 Bft) O-NO 69 ° 0 min 0,000 mm 0,0 UV-I 0 W/m² 9,5 °C 13,3 °C 0,0 km/h (0 Bft)
29.05.2017 02:54 13,3 °C 13,3 °C 79 % 1015,0 hPa 0,0 mm 0,0 km/h (0 Bft) O-NO 69 ° 0 min 0,000 mm 0,0 UV-I 0 W/m² 9,7 °C 13,3 °C 0,0 km/h (0 Bft)
29.05.2017 02:55 13,4 °C 13,4 °C 79 % 1015,0 hPa 0,0 mm 0,0 km/h (0 Bft) O-NO 69 ° 0 min 0,000 mm 0,0 UV-I 0 W/m² 9,8 °C 13,4 °C 0,0 km/h (0 Bft)
29.05.2017 02:56 13,5 °C 13,5 °C 78 % 1015,0 hPa 0,0 mm 0,0 km/h (0 Bft) O-NO 69 ° 0 min 0,000 mm 0,0 UV-I 0 W/m² 9,7 °C 13,5 °C 0,0 km/h (0 Bft)
29.05.2017 02:57 13,4 °C 13,5 °C 78 % 1015,0 hPa 0,0 mm 0,0 km/h (0 Bft) O-NO 69 ° 0 min 0,000 mm 0,0 UV-I 0 W/m² 9,6 °C 13,4 °C 0,0 km/h (0 Bft)
29.05.2017 02:58 13,3 °C 13,4 °C 78 % 1014,9 hPa 0,0 mm 0,0 km/h (0 Bft) O-NO 69 ° 0 min 0,000 mm 0,0 UV-I 0 W/m² 9,5 °C 13,3 °C 0,0 km/h (0 Bft)
29.05.2017 02:59 13,3 °C 13,3 °C 79 % 1015,0 hPa 0,0 mm 0,0 km/h (0 Bft) O-NO 69 ° 0 min 0,000 mm 0,0 UV-I 0 W/m² 9,7 °C 13,3 °C 0,0 km/h (0 Bft)
29.05.2017 03:00 13,3 °C 13,3 °C 79 % 1014,9 hPa 0,0 mm 0,0 km/h (0 Bft) O-NO 69 ° 0 min 0,025 mm 0,0 UV-I 0 W/m² 9,7 °C 13,3 °C 0,0 km/h (0 Bft)
29.05.2017 03:01 13,2 °C 13,3 °C 79 % 1014,9 hPa 0,0 mm 0,0 km/h (0 Bft) O-NO 69 ° 0 min 0,000 mm 0,0 UV-I 0 W/m² 9,6 °C 13,2 °C 0,0 km/h (0 Bft)
29.05.2017 03:02 13,2 °C 13,2 °C 80 % 1014,9 hPa 0,0 mm 0,0 km/h (0 Bft) O-NO 69 ° 0 min 0,000 mm 0,0 UV-I 0 W/m² 9,8 °C 13,2 °C 0,0 km/h (0 Bft)
29.05.2017 03:03 13,2 °C 13,2 °C 81 % 1014,9 hPa 0,0 mm 0,0 km/h (0 Bft) O-NO 69 ° 0 min 0,000 mm 0,0 UV-I 0 W/m² 10,0 °C 13,2 °C 0,0 km/h (0 Bft)
29.05.2017 03:04 13,2 °C 13,2 °C 81 % 1014,9 hPa 0,0 mm 0,0 km/h (0 Bft) O-NO 69 ° 0 min 0,000 mm 0,0 UV-I 0 W/m² 10,0 °C 13,2 °C 0,0 km/h (0 Bft)
29.05.2017 03:05 13,2 °C 13,2 °C 81 % 1014,9 hPa 0,0 mm 0,0 km/h (0 Bft) O-NO 69 ° 0 min 0,000 mm 0,0 UV-I 0 W/m² 10,0 °C 13,2 °C 0,0 km/h (0 Bft)
29.05.2017 03:06 13,1 °C 13,2 °C 81 % 1014,9 hPa 0,0 mm 0,0 km/h (0 Bft) O-NO 69 ° 0 min 0,000 mm 0,0 UV-I 0 W/m² 9,9 °C 13,1 °C 0,0 km/h (0 Bft)
29.05.2017 03:07 13,1 °C 13,2 °C 81 % 1014,9 hPa 0,0 mm 0,2 km/h (0 Bft) O-NO 69 ° 0 min 0,000 mm 0,0 UV-I 0 W/m² 9,9 °C 13,1 °C 1,6 km/h (1 Bft)
29.05.2017 03:08 13,1 °C 13,1 °C 81 % 1014,9 hPa 0,0 mm 0,1 km/h (0 Bft) O-NO 69 ° 0 min 0,000 mm 0,0 UV-I 0 W/m² 9,9 °C 13,1 °C 1,6 km/h (1 Bft)
29.05.2017 03:09 13,1 °C 13,1 °C 81 % 1014,9 hPa 0,0 mm 0,0 km/h (0 Bft) O-NO 69 ° 0 min 0,000 mm 0,0 UV-I 0 W/m² 9,9 °C 13,1 °C 0,0 km/h (0 Bft)
29.05.2017 03:10 13,1 °C 13,1 °C 81 % 1014,9 hPa 0,0 mm 0,0 km/h (0 Bft) O-NO 69 ° 0 min 0,000 mm 0,0 UV-I 0 W/m² 9,9 °C 13,1 °C 0,0 km/h (0 Bft)
29.05.2017 03:11 13,1 °C 13,1 °C 81 % 1014,9 hPa 0,0 mm 0,0 km/h (0 Bft) O-NO 69 ° 0 min 0,000 mm 0,0 UV-I 0 W/m² 9,9 °C 13,1 °C 0,0 km/h (0 Bft)
29.05.2017 03:12 13,0 °C 13,1 °C 82 % 1014,9 hPa 0,0 mm 0,0 km/h (0 Bft) O-NO 69 ° 0 min 0,000 mm 0,0 UV-I 0 W/m² 10,0 °C 13,0 °C 0,0 km/h (0 Bft)
29.05.2017 03:13 12,9 °C 13,0 °C 82 % 1014,9 hPa 0,0 mm 0,0 km/h (0 Bft) O-NO 69 ° 0 min 0,000 mm 0,0 UV-I 0 W/m² 9,9 °C 12,9 °C 0,0 km/h (0 Bft)
29.05.2017 03:14 12,9 °C 12,9 °C 82 % 1014,9 hPa 0,0 mm 0,0 km/h (0 Bft) O-NO 69 ° 0 min 0,000 mm 0,0 UV-I 0 W/m² 9,9 °C 12,9 °C 0,0 km/h (0 Bft)
29.05.2017 03:15 12,8 °C 12,9 °C 82 % 1014,9 hPa 0,0 mm 0,0 km/h (0 Bft) O-NO 69 ° 0 min 0,000 mm 0,0 UV-I 0 W/m² 9,8 °C 12,8 °C 0,0 km/h (0 Bft)
29.05.2017 03:16 12,8 °C 12,8 °C 82 % 1014,9 hPa 0,0 mm 0,0 km/h (0 Bft) O-NO 69 ° 0 min 0,000 mm 0,0 UV-I 0 W/m² 9,8 °C 12,8 °C 0,0 km/h (0 Bft)
29.05.2017 03:17 12,8 °C 12,8 °C 82 % 1014,9 hPa 0,0 mm 0,0 km/h (0 Bft) O-NO 69 ° 0 min 0,000 mm 0,0 UV-I 0 W/m² 9,8 °C 12,8 °C 0,0 km/h (0 Bft)
29.05.2017 03:18 12,7 °C 12,8 °C 82 % 1014,9 hPa 0,0 mm 0,0 km/h (0 Bft) O-NO 69 ° 0 min 0,000 mm 0,0 UV-I 0 W/m² 9,7 °C 12,7 °C 0,0 km/h (0 Bft)
29.05.2017 03:19 12,7 °C 12,7 °C 83 % 1014,9 hPa 0,0 mm 0,0 km/h (0 Bft) O-NO 69 ° 0 min 0,000 mm 0,0 UV-I 0 W/m² 9,9 °C 12,7 °C 0,0 km/h (0 Bft)
29.05.2017 03:20 12,7 °C 12,7 °C 82 % 1014,9 hPa 0,0 mm 0,0 km/h (0 Bft) O-NO 69 ° 0 min 0,000 mm 0,0 UV-I 0 W/m² 9,7 °C 12,7 °C 0,0 km/h (0 Bft)
29.05.2017 03:21 12,7 °C 12,7 °C 83 % 1014,8 hPa 0,0 mm 0,0 km/h (0 Bft) O-NO 69 ° 0 min 0,000 mm 0,0 UV-I 0 W/m² 9,9 °C 12,7 °C 0,0 km/h (0 Bft)
29.05.2017 03:22 12,7 °C 12,7 °C 83 % 1014,8 hPa 0,0 mm 0,0 km/h (0 Bft) O-NO 69 ° 0 min 0,000 mm 0,0 UV-I 0 W/m² 9,9 °C 12,7 °C 0,0 km/h (0 Bft)
29.05.2017 03:23 12,7 °C 12,8 °C 83 % 1014,8 hPa 0,0 mm 0,0 km/h (0 Bft) O-NO 69 ° 0 min 0,000 mm 0,0 UV-I 0 W/m² 9,9 °C 12,7 °C 0,0 km/h (0 Bft)
29.05.2017 03:24 12,7 °C 12,8 °C 82 % 1014,8 hPa 0,0 mm 0,0 km/h (0 Bft) O-NO 69 ° 0 min 0,000 mm 0,0 UV-I 0 W/m² 9,7 °C 12,7 °C 0,0 km/h (0 Bft)
29.05.2017 03:25 12,8 °C 12,8 °C 81 % 1014,7 hPa 0,0 mm 0,0 km/h (0 Bft) O-NO 69 ° 0 min 0,000 mm 0,0 UV-I 0 W/m² 9,6 °C 12,8 °C 0,0 km/h (0 Bft)
29.05.2017 03:26 12,8 °C 12,8 °C 81 % 1014,7 hPa 0,0 mm 0,0 km/h (0 Bft) O-NO 69 ° 0 min 0,000 mm 0,0 UV-I 0 W/m² 9,6 °C 12,8 °C 0,0 km/h (0 Bft)
29.05.2017 03:27 12,9 °C 12,9 °C 81 % 1014,7 hPa 0,0 mm 0,0 km/h (0 Bft) O-NO 69 ° 0 min 0,000 mm 0,0 UV-I 0 W/m² 9,7 °C 12,9 °C 0,0 km/h (0 Bft)
29.05.2017 03:28 12,9 °C 12,9 °C 81 % 1014,7 hPa 0,0 mm 0,0 km/h (0 Bft) O-NO 69 ° 0 min 0,000 mm 0,0 UV-I 0 W/m² 9,7 °C 12,9 °C 0,0 km/h (0 Bft)
29.05.2017 03:29 12,9 °C 12,9 °C 80 % 1014,7 hPa 0,0 mm 0,0 km/h (0 Bft) O-NO 69 ° 0 min 0,000 mm 0,0 UV-I 0 W/m² 9,5 °C 12,9 °C 0,0 km/h (0 Bft)
29.05.2017 03:30 12,9 °C 12,9 °C 81 % 1014,7 hPa 0,0 mm 0,0 km/h (0 Bft) O-NO 69 ° 0 min 0,000 mm 0,0 UV-I 0 W/m² 9,7 °C 12,9 °C 0,0 km/h (0 Bft)
29.05.2017 03:31 12,8 °C 12,9 °C 81 % 1014,7 hPa 0,0 mm 0,0 km/h (0 Bft) O-NO 69 ° 0 min 0,000 mm 0,0 UV-I 0 W/m² 9,6 °C 12,8 °C 0,0 km/h (0 Bft)
29.05.2017 03:32 12,8 °C 12,8 °C 81 % 1014,7 hPa 0,0 mm 0,0 km/h (0 Bft) O-NO 69 ° 0 min 0,000 mm 0,0 UV-I 0 W/m² 9,6 °C 12,8 °C 0,0 km/h (0 Bft)
29.05.2017 03:33 12,7 °C 12,8 °C 82 % 1014,7 hPa 0,0 mm 0,0 km/h (0 Bft) O-NO 69 ° 0 min 0,000 mm 0,0 UV-I 0 W/m² 9,7 °C 12,7 °C 0,0 km/h (0 Bft)
29.05.2017 03:34 12,7 °C 12,7 °C 82 % 1014,7 hPa 0,0 mm 0,0 km/h (0 Bft) O-NO 69 ° 0 min 0,000 mm 0,0 UV-I 0 W/m² 9,7 °C 12,7 °C 0,0 km/h (0 Bft)
29.05.2017 03:35 12,8 °C 12,8 °C 82 % 1014,7 hPa 0,0 mm 0,0 km/h (0 Bft) O-NO 69 ° 0 min 0,000 mm 0,0 UV-I 0 W/m² 9,8 °C 12,8 °C 0,0 km/h (0 Bft)
29.05.2017 03:36 12,8 °C 12,8 °C 81 % 1014,6 hPa 0,0 mm 0,0 km/h (0 Bft) O-NO 69 ° 0 min 0,000 mm 0,0 UV-I 0 W/m² 9,6 °C 12,8 °C 0,0 km/h (0 Bft)
29.05.2017 03:37 12,8 °C 12,8 °C 81 % 1014,6 hPa 0,0 mm 0,0 km/h (0 Bft) O-NO 69 ° 0 min 0,000 mm 0,0 UV-I 0 W/m² 9,6 °C 12,8 °C 0,0 km/h (0 Bft)
29.05.2017 03:38 12,9 °C 12,9 °C 80 % 1014,6 hPa 0,0 mm 0,0 km/h (0 Bft) O-NO 69 ° 0 min 0,000 mm 0,0 UV-I 0 W/m² 9,5 °C 12,9 °C 0,0 km/h (0 Bft)
29.05.2017 03:39 12,9 °C 12,9 °C 80 % 1014,6 hPa 0,0 mm 0,0 km/h (0 Bft) O-NO 69 ° 0 min 0,000 mm 0,0 UV-I 0 W/m² 9,5 °C 12,9 °C 0,0 km/h (0 Bft)
29.05.2017 03:40 13,0 °C 13,0 °C 80 % 1014,6 hPa 0,0 mm 0,0 km/h (0 Bft) O-NO 69 ° 0 min 0,000 mm 0,0 UV-I 0 W/m² 9,6 °C 13,0 °C 0,0 km/h (0 Bft)
29.05.2017 03:41 12,9 °C 13,0 °C 80 % 1014,6 hPa 0,0 mm 0,0 km/h (0 Bft) O-NO 69 ° 0 min 0,000 mm 0,0 UV-I 0 W/m² 9,5 °C 12,9 °C 0,0 km/h (0 Bft)
29.05.2017 03:42 13,0 °C 13,0 °C 80 % 1014,6 hPa 0,0 mm 0,0 km/h (0 Bft) O-NO 69 ° 0 min 0,000 mm 0,0 UV-I 0 W/m² 9,6 °C 13,0 °C 0,0 km/h (0 Bft)
29.05.2017 03:43 13,0 °C 13,0 °C 80 % 1014,6 hPa 0,0 mm 0,0 km/h (0 Bft) O-NO 69 ° 0 min 0,000 mm 0,0 UV-I 0 W/m² 9,6 °C 13,0 °C 0,0 km/h (0 Bft)
29.05.2017 03:44 13,0 °C 13,0 °C 80 % 1014,6 hPa 0,0 mm 0,5 km/h (0 Bft) O-NO 69 ° 0 min 0,000 mm 0,0 UV-I 0 W/m² 9,6 °C 13,0 °C 1,6 km/h (1 Bft)
29.05.2017 03:45 13,1 °C 13,1 °C 80 % 1014,6 hPa 0,0 mm 0,0 km/h (0 Bft) O-NO 69 ° 0 min 0,000 mm 0,0 UV-I 0 W/m² 9,7 °C 13,1 °C 0,0 km/h (0 Bft)
29.05.2017 03:46 13,0 °C 13,1 °C 80 % 1014,6 hPa 0,0 mm 0,0 km/h (0 Bft) O-NO 69 ° 0 min 0,000 mm 0,0 UV-I 0 W/m² 9,6 °C 13,0 °C 0,0 km/h (0 Bft)
29.05.2017 03:47 13,0 °C 13,0 °C 79 % 1014,6 hPa 0,0 mm 0,0 km/h (0 Bft) O-NO 69 ° 0 min 0,000 mm 0,0 UV-I 0 W/m² 9,4 °C 13,0 °C 0,0 km/h (0 Bft)
29.05.2017 03:48 12,9 °C 13,0 °C 79 % 1014,5 hPa 0,0 mm 0,0 km/h (0 Bft) O-NO 69 ° 0 min 0,000 mm 0,0 UV-I 0 W/m² 9,3 °C 12,9 °C 0,0 km/h (0 Bft)
29.05.2017 03:49 12,9 °C 12,9 °C 81 % 1014,6 hPa 0,0 mm 0,0 km/h (0 Bft) O-NO 69 ° 0 min 0,000 mm 0,0 UV-I 0 W/m² 9,7 °C 12,9 °C 0,0 km/h (0 Bft)
29.05.2017 03:50 12,9 °C 12,9 °C 81 % 1014,6 hPa 0,0 mm 0,0 km/h (0 Bft) O-NO 69 ° 0 min 0,000 mm 0,0 UV-I 0 W/m² 9,7 °C 12,9 °C 0,0 km/h (0 Bft)
29.05.2017 03:51 12,9 °C 12,9 °C 81 % 1014,6 hPa 0,0 mm 0,0 km/h (0 Bft) O-NO 69 ° 0 min 0,000 mm 0,0 UV-I 0 W/m² 9,7 °C 12,9 °C 0,0 km/h (0 Bft)
29.05.2017 03:52 12,9 °C 12,9 °C 81 % 1014,6 hPa 0,0 mm 0,0 km/h (0 Bft) O-NO 69 ° 0 min 0,000 mm 0,0 UV-I 0 W/m² 9,7 °C 12,9 °C 0,0 km/h (0 Bft)
29.05.2017 03:53 12,9 °C 12,9 °C 81 % 1014,5 hPa 0,0 mm 0,0 km/h (0 Bft) O-NO 69 ° 0 min 0,000 mm 0,0 UV-I 0 W/m² 9,7 °C 12,9 °C 0,0 km/h (0 Bft)
29.05.2017 03:54 12,9 °C 12,9 °C 80 % 1014,6 hPa 0,0 mm 0,0 km/h (0 Bft) O-NO 69 ° 0 min 0,000 mm 0,0 UV-I 0 W/m² 9,5 °C 12,9 °C 0,0 km/h (0 Bft)
29.05.2017 03:55 12,9 °C 12,9 °C 80 % 1014,6 hPa 0,0 mm 0,0 km/h (0 Bft) O-NO 69 ° 0 min 0,000 mm 0,0 UV-I 0 W/m² 9,5 °C 12,9 °C 0,0 km/h (0 Bft)
29.05.2017 03:56 12,9 °C 12,9 °C 80 % 1014,5 hPa 0,0 mm 0,0 km/h (0 Bft) O-NO 69 ° 0 min 0,000 mm 0,0 UV-I 0 W/m² 9,5 °C 12,9 °C 0,0 km/h (0 Bft)
29.05.2017 03:57 12,9 °C 12,9 °C 79 % 1014,6 hPa 0,0 mm 0,0 km/h (0 Bft) O-NO 69 ° 0 min 0,000 mm 0,0 UV-I 0 W/m² 9,3 °C 12,9 °C 0,0 km/h (0 Bft)
29.05.2017 03:58 12,9 °C 12,9 °C 79 % 1014,5 hPa 0,0 mm 0,0 km/h (0 Bft) O-NO 69 ° 0 min 0,000 mm 0,0 UV-I 0 W/m² 9,3 °C 12,9 °C 0,0 km/h (0 Bft)
29.05.2017 03:59 13,0 °C 13,0 °C 79 % 1014,6 hPa 0,0 mm 0,0 km/h (0 Bft) O-NO 69 ° 0 min 0,000 mm 0,0 UV-I 0 W/m² 9,4 °C 13,0 °C 0,0 km/h (0 Bft)
29.05.2017 04:00 12,9 °C 13,0 °C 79 % 1014,5 hPa 0,0 mm 0,0 km/h (0 Bft) O-NO 69 ° 0 min 0,026 mm 0,0 UV-I 0 W/m² 9,3 °C 12,9 °C 0,0 km/h (0 Bft)
29.05.2017 04:01 12,9 °C 12,9 °C 79 % 1014,5 hPa 0,0 mm 0,0 km/h (0 Bft) O-NO 69 ° 0 min 0,000 mm 0,0 UV-I 0 W/m² 9,3 °C 12,9 °C 0,0 km/h (0 Bft)
29.05.2017 04:02 12,9 °C 12,9 °C 79 % 1014,6 hPa 0,0 mm 0,0 km/h (0 Bft) O-NO 69 ° 0 min 0,000 mm 0,0 UV-I 0 W/m² 9,3 °C 12,9 °C 0,0 km/h (0 Bft)
29.05.2017 04:03 13,0 °C 13,0 °C 79 % 1014,6 hPa 0,0 mm 0,0 km/h (0 Bft) O-NO 69 ° 0 min 0,000 mm 0,0 UV-I 0 W/m² 9,4 °C 13,0 °C 0,0 km/h (0 Bft)
29.05.2017 04:04 13,0 °C 13,0 °C 79 % 1014,6 hPa 0,0 mm 0,0 km/h (0 Bft) O-NO 69 ° 0 min 0,000 mm 0,0 UV-I 0 W/m² 9,4 °C 13,0 °C 0,0 km/h (0 Bft)
29.05.2017 04:05 13,0 °C 13,0 °C 79 % 1014,6 hPa 0,0 mm 0,0 km/h (0 Bft) O-NO 69 ° 0 min 0,000 mm 0,0 UV-I 0 W/m² 9,4 °C 13,0 °C 0,0 km/h (0 Bft)
29.05.2017 04:06 13,0 °C 13,1 °C 78 % 1014,6 hPa 0,0 mm 0,0 km/h (0 Bft) O-NO 69 ° 0 min 0,000 mm 0,0 UV-I 0 W/m² 9,3 °C 13,0 °C 0,0 km/h (0 Bft)
29.05.2017 04:07 13,1 °C 13,1 °C 78 % 1014,6 hPa 0,0 mm 0,0 km/h (0 Bft) O-NO 69 ° 0 min 0,000 mm 0,0 UV-I 0 W/m² 9,4 °C 13,1 °C 0,0 km/h (0 Bft)
29.05.2017 04:08 13,1 °C 13,1 °C 77 % 1014,6 hPa 0,0 mm 0,0 km/h (0 Bft) O-NO 69 ° 0 min 0,000 mm 0,0 UV-I 0 W/m² 9,2 °C 13,1 °C 0,0 km/h (0 Bft)
29.05.2017 04:09 13,2 °C 13,2 °C 77 % 1014,5 hPa 0,0 mm 0,0 km/h (0 Bft) O-NO 69 ° 0 min 0,000 mm 0,0 UV-I 0 W/m² 9,3 °C 13,2 °C 0,0 km/h (0 Bft)
29.05.2017 04:10 13,2 °C 13,2 °C 77 % 1014,5 hPa 0,0 mm 0,0 km/h (0 Bft) O-NO 69 ° 0 min 0,000 mm 0,0 UV-I 0 W/m² 9,3 °C 13,2 °C 0,0 km/h (0 Bft)
29.05.2017 04:11 13,3 °C 13,3 °C 77 % 1014,5 hPa 0,0 mm 0,0 km/h (0 Bft) O-NO 69 ° 0 min 0,000 mm 0,0 UV-I 0 W/m² 9,4 °C 13,3 °C 0,0 km/h (0 Bft)
29.05.2017 04:12 13,3 °C 13,3 °C 77 % 1014,5 hPa 0,0 mm 0,0 km/h (0 Bft) O-NO 69 ° 0 min 0,000 mm 0,0 UV-I 0 W/m² 9,4 °C 13,3 °C 0,0 km/h (0 Bft)
29.05.2017 04:13 13,2 °C 13,3 °C 78 % 1014,5 hPa 0,0 mm 0,0 km/h (0 Bft) O-NO 69 ° 0 min 0,000 mm 0,0 UV-I 0 W/m² 9,4 °C 13,2 °C 0,0 km/h (0 Bft)
29.05.2017 04:14 13,2 °C 13,2 °C 78 % 1014,5 hPa 0,0 mm 0,0 km/h (0 Bft) O-NO 69 ° 0 min 0,000 mm 0,0 UV-I 0 W/m² 9,4 °C 13,2 °C 0,0 km/h (0 Bft)
29.05.2017 04:15 13,1 °C 13,2 °C 78 % 1014,5 hPa 0,0 mm 0,0 km/h (0 Bft) O-NO 69 ° 0 min 0,000 mm 0,0 UV-I 0 W/m² 9,4 °C 13,1 °C 0,0 km/h (0 Bft)
29.05.2017 04:16 13,1 °C 13,1 °C 78 % 1014,5 hPa 0,0 mm 0,0 km/h (0 Bft) O-NO 69 ° 0 min 0,000 mm 0,0 UV-I 0 W/m² 9,4 °C 13,1 °C 0,0 km/h (0 Bft)
29.05.2017 04:17 13,1 °C 13,1 °C 78 % 1014,4 hPa 0,0 mm 0,0 km/h (0 Bft) O-NO 69 ° 0 min 0,000 mm 0,0 UV-I 0 W/m² 9,4 °C 13,1 °C 0,0 km/h (0 Bft)
29.05.2017 04:18 13,1 °C 13,1 °C 79 % 1014,4 hPa 0,0 mm 0,0 km/h (0 Bft) O-NO 69 ° 0 min 0,000 mm 0,0 UV-I 0 W/m² 9,5 °C 13,1 °C 0,0 km/h (0 Bft)
29.05.2017 04:19 13,1 °C 13,1 °C 79 % 1014,5 hPa 0,0 mm 0,0 km/h (0 Bft) O-NO 69 ° 0 min 0,000 mm 0,0 UV-I 0 W/m² 9,5 °C 13,1 °C 0,0 km/h (0 Bft)
29.05.2017 04:20 13,1 °C 13,1 °C 79 % 1014,4 hPa 0,0 mm 0,0 km/h (0 Bft) O-NO 69 ° 0 min 0,000 mm 0,0 UV-I 0 W/m² 9,5 °C 13,1 °C 0,0 km/h (0 Bft)
29.05.2017 04:21 13,1 °C 13,1 °C 79 % 1014,4 hPa 0,0 mm 0,0 km/h (0 Bft) O-NO 69 ° 0 min 0,000 mm 0,0 UV-I 0 W/m² 9,5 °C 13,1 °C 0,0 km/h (0 Bft)
29.05.2017 04:22 13,1 °C 13,1 °C 79 % 1014,4 hPa 0,0 mm 0,0 km/h (0 Bft) O-NO 69 ° 0 min 0,000 mm 0,0 UV-I 0 W/m² 9,5 °C 13,1 °C 0,0 km/h (0 Bft)
29.05.2017 04:23 13,1 °C 13,1 °C 79 % 1014,4 hPa 0,0 mm 0,0 km/h (0 Bft) O-NO 69 ° 0 min 0,000 mm 0,0 UV-I 0 W/m² 9,5 °C 13,1 °C 0,0 km/h (0 Bft)
29.05.2017 04:24 13,0 °C 13,1 °C 79 % 1014,4 hPa 0,0 mm 0,0 km/h (0 Bft) O-NO 69 ° 0 min 0,000 mm 0,0 UV-I 0 W/m² 9,4 °C 13,0 °C 0,0 km/h (0 Bft)
29.05.2017 04:25 13,0 °C 13,0 °C 79 % 1014,4 hPa 0,0 mm 0,0 km/h (0 Bft) O-NO 69 ° 0 min 0,000 mm 0,0 UV-I 0 W/m² 9,4 °C 13,0 °C 0,0 km/h (0 Bft)
29.05.2017 04:26 12,9 °C 13,0 °C 79 % 1014,4 hPa 0,0 mm 0,0 km/h (0 Bft) O-NO 69 ° 0 min 0,000 mm 0,0 UV-I 0 W/m² 9,3 °C 12,9 °C 0,0 km/h (0 Bft)
29.05.2017 04:27 12,9 °C 12,9 °C 79 % 1014,3 hPa 0,0 mm 0,0 km/h (0 Bft) O-NO 69 ° 0 min 0,000 mm 0,0 UV-I 0 W/m² 9,3 °C 12,9 °C 0,0 km/h (0 Bft)
29.05.2017 04:28 12,9 °C 12,9 °C 79 % 1014,3 hPa 0,0 mm 0,0 km/h (0 Bft) O-NO 69 ° 0 min 0,000 mm 0,0 UV-I 0 W/m² 9,3 °C 12,9 °C 0,0 km/h (0 Bft)
29.05.2017 04:29 12,9 °C 12,9 °C 79 % 1014,4 hPa 0,0 mm 0,0 km/h (0 Bft) O-NO 69 ° 0 min 0,000 mm 0,0 UV-I 0 W/m² 9,3 °C 12,9 °C 0,0 km/h (0 Bft)
29.05.2017 04:30 13,0 °C 13,0 °C 79 % 1014,3 hPa 0,0 mm 0,0 km/h (0 Bft) O-NO 69 ° 0 min 0,000 mm 0,0 UV-I 0 W/m² 9,4 °C 13,0 °C 0,0 km/h (0 Bft)
29.05.2017 04:31 13,0 °C 13,0 °C 79 % 1014,3 hPa 0,0 mm 0,0 km/h (0 Bft) O-NO 69 ° 0 min 0,000 mm 0,0 UV-I 0 W/m² 9,4 °C 13,0 °C 0,0 km/h (0 Bft)
29.05.2017 04:32 12,9 °C 13,0 °C 79 % 1014,3 hPa 0,0 mm 0,0 km/h (0 Bft) O-NO 69 ° 0 min 0,000 mm 0,0 UV-I 0 W/m² 9,3 °C 12,9 °C 0,0 km/h (0 Bft)
29.05.2017 04:33 12,9 °C 12,9 °C 79 % 1014,3 hPa 0,0 mm 0,0 km/h (0 Bft) O-NO 69 ° 0 min 0,000 mm 0,0 UV-I 0 W/m² 9,3 °C 12,9 °C 0,0 km/h (0 Bft)
29.05.2017 04:34 12,9 °C 12,9 °C 79 % 1014,3 hPa 0,0 mm 0,0 km/h (0 Bft) O-NO 69 ° 0 min 0,000 mm 0,0 UV-I 0 W/m² 9,3 °C 12,9 °C 0,0 km/h (0 Bft)
29.05.2017 04:35 12,9 °C 12,9 °C 79 % 1014,3 hPa 0,0 mm 0,0 km/h (0 Bft) O-NO 69 ° 0 min 0,000 mm 0,0 UV-I 0 W/m² 9,3 °C 12,9 °C 0,0 km/h (0 Bft)
29.05.2017 04:36 12,8 °C 12,9 °C 80 % 1014,3 hPa 0,0 mm 0,0 km/h (0 Bft) O-NO 69 ° 0 min 0,000 mm 0,0 UV-I 0 W/m² 9,4 °C 12,8 °C 0,0 km/h (0 Bft)
29.05.2017 04:37 12,8 °C 12,8 °C 80 % 1014,3 hPa 0,0 mm 0,0 km/h (0 Bft) O-NO 69 ° 0 min 0,000 mm 0,0 UV-I 0 W/m² 9,4 °C 12,8 °C 0,0 km/h (0 Bft)
29.05.2017 04:38 12,8 °C 12,8 °C 80 % 1014,3 hPa 0,0 mm 0,0 km/h (0 Bft) O-NO 69 ° 0 min 0,000 mm 0,0 UV-I 0 W/m² 9,4 °C 12,8 °C 0,0 km/h (0 Bft)
29.05.2017 04:39 12,8 °C 12,8 °C 80 % 1014,3 hPa 0,0 mm 0,0 km/h (0 Bft) O-NO 69 ° 0 min 0,000 mm 0,0 UV-I 0 W/m² 9,4 °C 12,8 °C 0,0 km/h (0 Bft)
29.05.2017 04:40 12,8 °C 12,8 °C 80 % 1014,3 hPa 0,0 mm 0,0 km/h (0 Bft) O-NO 69 ° 0 min 0,000 mm 0,0 UV-I 0 W/m² 9,4 °C 12,8 °C 0,0 km/h (0 Bft)
29.05.2017 04:41 12,8 °C 12,8 °C 80 % 1014,3 hPa 0,0 mm 0,0 km/h (0 Bft) O-NO 69 ° 0 min 0,000 mm 0,0 UV-I 0 W/m² 9,4 °C 12,8 °C 0,0 km/h (0 Bft)
29.05.2017 04:42 12,8 °C 12,8 °C 79 % 1014,3 hPa 0,0 mm 0,0 km/h (0 Bft) O-NO 69 ° 0 min 0,000 mm 0,0 UV-I 0 W/m² 9,2 °C 12,8 °C 0,0 km/h (0 Bft)
29.05.2017 04:43 12,9 °C 12,9 °C 79 % 1014,3 hPa 0,0 mm 0,0 km/h (0 Bft) O-NO 69 ° 0 min 0,000 mm 0,0 UV-I 0 W/m² 9,3 °C 12,9 °C 0,0 km/h (0 Bft)
29.05.2017 04:44 13,1 °C 13,1 °C 79 % 1014,3 hPa 0,0 mm 0,0 km/h (0 Bft) O-NO 69 ° 0 min 0,000 mm 0,0 UV-I 0 W/m² 9,5 °C 13,1 °C 0,0 km/h (0 Bft)
29.05.2017 04:45 13,0 °C 13,1 °C 78 % 1014,3 hPa 0,0 mm 0,0 km/h (0 Bft) O-NO 69 ° 0 min 0,000 mm 0,0 UV-I 0 W/m² 9,3 °C 13,0 °C 0,0 km/h (0 Bft)
29.05.2017 04:46 12,9 °C 13,0 °C 79 % 1014,3 hPa 0,0 mm 0,0 km/h (0 Bft) O-NO 69 ° 0 min 0,000 mm 0,0 UV-I 0 W/m² 9,3 °C 12,9 °C 0,0 km/h (0 Bft)
29.05.2017 04:47 12,9 °C 12,9 °C 79 % 1014,3 hPa 0,0 mm 0,0 km/h (0 Bft) O-NO 69 ° 0 min 0,000 mm 0,0 UV-I 0 W/m² 9,3 °C 12,9 °C 0,0 km/h (0 Bft)
29.05.2017 04:48 12,9 °C 12,9 °C 79 % 1014,3 hPa 0,0 mm 0,0 km/h (0 Bft) O-NO 69 ° 0 min 0,000 mm 0,0 UV-I 0 W/m² 9,3 °C 12,9 °C 0,0 km/h (0 Bft)
29.05.2017 04:49 12,8 °C 12,9 °C 79 % 1014,3 hPa 0,0 mm 0,0 km/h (0 Bft) O-NO 69 ° 0 min 0,000 mm 0,0 UV-I 0 W/m² 9,2 °C 12,8 °C 0,0 km/h (0 Bft)
29.05.2017 04:50 12,8 °C 12,8 °C 80 % 1014,2 hPa 0,0 mm 0,0 km/h (0 Bft) O-NO 69 ° 0 min 0,000 mm 0,0 UV-I 0 W/m² 9,4 °C 12,8 °C 0,0 km/h (0 Bft)
29.05.2017 04:51 12,7 °C 12,8 °C 80 % 1014,3 hPa 0,0 mm 0,0 km/h (0 Bft) O-NO 69 ° 0 min 0,000 mm 0,0 UV-I 0 W/m² 9,3 °C 12,7 °C 0,0 km/h (0 Bft)
29.05.2017 04:52 12,7 °C 12,7 °C 81 % 1014,3 hPa 0,0 mm 0,0 km/h (0 Bft) O-NO 69 ° 0 min 0,000 mm 0,0 UV-I 0 W/m² 9,5 °C 12,7 °C 0,0 km/h (0 Bft)
29.05.2017 04:53 12,7 °C 12,7 °C 81 % 1014,2 hPa 0,0 mm 0,0 km/h (0 Bft) O-NO 69 ° 0 min 0,000 mm 0,0 UV-I 0 W/m² 9,5 °C 12,7 °C 0,0 km/h (0 Bft)
29.05.2017 04:54 12,6 °C 12,7 °C 81 % 1014,2 hPa 0,0 mm 0,0 km/h (0 Bft) O-NO 69 ° 0 min 0,000 mm 0,0 UV-I 0 W/m² 9,4 °C 12,6 °C 0,0 km/h (0 Bft)
29.05.2017 04:55 12,6 °C 12,6 °C 81 % 1014,2 hPa 0,0 mm 0,0 km/h (0 Bft) O-NO 69 ° 0 min 0,000 mm 0,0 UV-I 0 W/m² 9,4 °C 12,6 °C 0,0 km/h (0 Bft)
29.05.2017 04:56 12,5 °C 12,6 °C 82 % 1014,2 hPa 0,0 mm 0,0 km/h (0 Bft) O-NO 69 ° 0 min 0,000 mm 0,0 UV-I 0 W/m² 9,5 °C 12,5 °C 0,0 km/h (0 Bft)
29.05.2017 04:57 12,5 °C 12,5 °C 82 % 1014,2 hPa 0,0 mm 0,0 km/h (0 Bft) O-NO 69 ° 0 min 0,000 mm 0,0 UV-I 0 W/m² 9,5 °C 12,5 °C 0,0 km/h (0 Bft)
29.05.2017 04:58 12,4 °C 12,5 °C 82 % 1014,2 hPa 0,0 mm 0,0 km/h (0 Bft) O-NO 69 ° 0 min 0,000 mm 0,0 UV-I 0 W/m² 9,4 °C 12,4 °C 0,0 km/h (0 Bft)
29.05.2017 04:59 12,4 °C 12,4 °C 82 % 1014,2 hPa 0,0 mm 0,0 km/h (0 Bft) O-NO 69 ° 0 min 0,000 mm 0,0 UV-I 0 W/m² 9,4 °C 12,4 °C 0,0 km/h (0 Bft)
29.05.2017 05:00 12,4 °C 12,4 °C 82 % 1014,2 hPa 0,0 mm 0,0 km/h (0 Bft) O-NO 69 ° 0 min 0,025 mm 0,0 UV-I 0 W/m² 9,4 °C 12,4 °C 0,0 km/h (0 Bft)
29.05.2017 05:01 12,5 °C 12,5 °C 82 % 1014,2 hPa 0,0 mm 0,0 km/h (0 Bft) O-NO 69 ° 0 min 0,000 mm 0,0 UV-I 0 W/m² 9,5 °C 12,5 °C 0,0 km/h (0 Bft)
29.05.2017 05:02 12,6 °C 12,6 °C 81 % 1014,2 hPa 0,0 mm 0,0 km/h (0 Bft) O-NO 69 ° 0 min 0,000 mm 0,0 UV-I 0 W/m² 9,4 °C 12,6 °C 0,0 km/h (0 Bft)
29.05.2017 05:03 12,6 °C 12,6 °C 81 % 1014,2 hPa 0,0 mm 0,0 km/h (0 Bft) O-NO 69 ° 0 min 0,000 mm 0,0 UV-I 0 W/m² 9,4 °C 12,6 °C 0,0 km/h (0 Bft)
29.05.2017 05:04 12,7 °C 12,7 °C 80 % 1014,2 hPa 0,0 mm 0,0 km/h (0 Bft) O-NO 69 ° 0 min 0,000 mm 0,0 UV-I 0 W/m² 9,3 °C 12,7 °C 0,0 km/h (0 Bft)
29.05.2017 05:05 12,7 °C 12,7 °C 80 % 1014,2 hPa 0,0 mm 0,0 km/h (0 Bft) O-NO 69 ° 0 min 0,000 mm 0,0 UV-I 0 W/m² 9,3 °C 12,7 °C 0,0 km/h (0 Bft)
29.05.2017 05:06 12,7 °C 12,7 °C 80 % 1014,2 hPa 0,0 mm 0,0 km/h (0 Bft) O-NO 69 ° 0 min 0,000 mm 0,0 UV-I 0 W/m² 9,3 °C 12,7 °C 0,0 km/h (0 Bft)
29.05.2017 05:07 12,6 °C 12,7 °C 80 % 1014,2 hPa 0,0 mm 0,0 km/h (0 Bft) O-NO 69 ° 0 min 0,000 mm 0,0 UV-I 0 W/m² 9,2 °C 12,6 °C 0,0 km/h (0 Bft)
29.05.2017 05:08 12,7 °C 12,7 °C 80 % 1014,2 hPa 0,0 mm 0,0 km/h (0 Bft) O-NO 69 ° 0 min 0,000 mm 0,0 UV-I 0 W/m² 9,3 °C 12,7 °C 0,0 km/h (0 Bft)
29.05.2017 05:09 12,7 °C 12,7 °C 80 % 1014,2 hPa 0,0 mm 0,0 km/h (0 Bft) O-NO 69 ° 0 min 0,000 mm 0,0 UV-I 0 W/m² 9,3 °C 12,7 °C 0,0 km/h (0 Bft)
29.05.2017 05:10 12,7 °C 12,7 °C 80 % 1014,2 hPa 0,0 mm 0,0 km/h (0 Bft) O-NO 69 ° 0 min 0,000 mm 0,0 UV-I 0 W/m² 9,3 °C 12,7 °C 0,0 km/h (0 Bft)
29.05.2017 05:11 12,7 °C 12,7 °C 80 % 1014,2 hPa 0,0 mm 0,0 km/h (0 Bft) O-NO 69 ° 0 min 0,000 mm 0,0 UV-I 0 W/m² 9,3 °C 12,7 °C 0,0 km/h (0 Bft)
29.05.2017 05:12 12,7 °C 12,7 °C 80 % 1014,2 hPa 0,0 mm 0,0 km/h (0 Bft) O-NO 69 ° 0 min 0,000 mm 0,0 UV-I 0 W/m² 9,3 °C 12,7 °C 0,0 km/h (0 Bft)
29.05.2017 05:13 12,7 °C 12,7 °C 80 % 1014,3 hPa 0,0 mm 0,0 km/h (0 Bft) O-NO 69 ° 0 min 0,000 mm 0,0 UV-I 0 W/m² 9,3 °C 12,7 °C 0,0 km/h (0 Bft)
29.05.2017 05:14 12,7 °C 12,7 °C 80 % 1014,3 hPa 0,0 mm 0,0 km/h (0 Bft) O-NO 69 ° 0 min 0,000 mm 0,0 UV-I 0 W/m² 9,3 °C 12,7 °C 0,0 km/h (0 Bft)
29.05.2017 05:15 12,6 °C 12,7 °C 80 % 1014,3 hPa 0,0 mm 0,0 km/h (0 Bft) O-NO 69 ° 0 min 0,000 mm 0,0 UV-I 0 W/m² 9,2 °C 12,6 °C 0,0 km/h (0 Bft)
29.05.2017 05:16 12,6 °C 12,6 °C 80 % 1014,3 hPa 0,0 mm 0,0 km/h (0 Bft) O-NO 69 ° 0 min 0,000 mm 0,0 UV-I 0 W/m² 9,2 °C 12,6 °C 0,0 km/h (0 Bft)
29.05.2017 05:17 12,5 °C 12,6 °C 81 % 1014,2 hPa 0,0 mm 0,0 km/h (0 Bft) O-NO 69 ° 0 min 0,000 mm 0,0 UV-I 0 W/m² 9,3 °C 12,5 °C 0,0 km/h (0 Bft)
29.05.2017 05:18 12,4 °C 12,5 °C 81 % 1014,2 hPa 0,0 mm 0,0 km/h (0 Bft) O-NO 69 ° 0 min 0,000 mm 0,0 UV-I 0 W/m² 9,2 °C 12,4 °C 0,0 km/h (0 Bft)
29.05.2017 05:19 12,4 °C 12,4 °C 81 % 1014,3 hPa 0,0 mm 0,0 km/h (0 Bft) O-NO 69 ° 0 min 0,000 mm 0,0 UV-I 0 W/m² 9,2 °C 12,4 °C 0,0 km/h (0 Bft)
29.05.2017 05:20 12,4 °C 12,4 °C 82 % 1014,2 hPa 0,0 mm 0,0 km/h (0 Bft) O-NO 69 ° 0 min 0,000 mm 0,0 UV-I 0 W/m² 9,4 °C 12,4 °C 0,0 km/h (0 Bft)
29.05.2017 05:21 12,4 °C 12,4 °C 82 % 1014,3 hPa 0,0 mm 0,0 km/h (0 Bft) O-NO 69 ° 0 min 0,000 mm 0,0 UV-I 0 W/m² 9,4 °C 12,4 °C 0,0 km/h (0 Bft)
29.05.2017 05:22 12,3 °C 12,4 °C 82 % 1014,2 hPa 0,0 mm 0,0 km/h (0 Bft) O-NO 69 ° 0 min 0,000 mm 0,0 UV-I 0 W/m² 9,3 °C 12,3 °C 0,0 km/h (0 Bft)
29.05.2017 05:23 12,3 °C 12,4 °C 82 % 1014,2 hPa 0,0 mm 0,0 km/h (0 Bft) O-NO 69 ° 0 min 0,000 mm 0,0 UV-I 0 W/m² 9,3 °C 12,3 °C 0,0 km/h (0 Bft)
29.05.2017 05:24 12,3 °C 12,3 °C 82 % 1014,2 hPa 0,0 mm 0,0 km/h (0 Bft) O-NO 69 ° 0 min 0,000 mm 0,0 UV-I 0 W/m² 9,3 °C 12,3 °C 0,0 km/h (0 Bft)
29.05.2017 05:25 12,3 °C 12,3 °C 82 % 1014,2 hPa 0,0 mm 0,0 km/h (0 Bft) O-NO 69 ° 0 min 0,000 mm 0,0 UV-I 0 W/m² 9,3 °C 12,3 °C 0,0 km/h (0 Bft)
29.05.2017 05:26 12,3 °C 12,3 °C 82 % 1014,2 hPa 0,0 mm 0,0 km/h (0 Bft) O-NO 69 ° 0 min 0,000 mm 0,0 UV-I 0 W/m² 9,3 °C 12,3 °C 0,0 km/h (0 Bft)
29.05.2017 05:27 12,3 °C 12,3 °C 82 % 1014,2 hPa 0,0 mm 0,0 km/h (0 Bft) O-NO 69 ° 0 min 0,000 mm 0,0 UV-I 5 W/m² 9,3 °C 12,3 °C 0,0 km/h (0 Bft)
29.05.2017 05:28 12,2 °C 12,3 °C 83 % 1014,2 hPa 0,0 mm 0,0 km/h (0 Bft) O-NO 69 ° 0 min 0,000 mm 0,0 UV-I 5 W/m² 9,4 °C 12,2 °C 0,0 km/h (0 Bft)
29.05.2017 05:29 12,2 °C 12,2 °C 83 % 1014,2 hPa 0,0 mm 0,0 km/h (0 Bft) O-NO 69 ° 0 min 0,000 mm 0,0 UV-I 5 W/m² 9,4 °C 12,2 °C 0,0 km/h (0 Bft)
29.05.2017 05:30 12,2 °C 12,2 °C 83 % 1014,2 hPa 0,0 mm 0,0 km/h (0 Bft) O-NO 69 ° 0 min 0,000 mm 0,0 UV-I 5 W/m² 9,4 °C 12,2 °C 0,0 km/h (0 Bft)
29.05.2017 05:31 12,1 °C 12,2 °C 83 % 1014,2 hPa 0,0 mm 0,0 km/h (0 Bft) O-NO 69 ° 0 min 0,000 mm 0,0 UV-I 7 W/m² 9,3 °C 12,1 °C 0,0 km/h (0 Bft)
29.05.2017 05:32 12,1 °C 12,1 °C 83 % 1014,2 hPa 0,0 mm 0,0 km/h (0 Bft) O-NO 69 ° 0 min 0,000 mm 0,0 UV-I 7 W/m² 9,3 °C 12,1 °C 0,0 km/h (0 Bft)
29.05.2017 05:33 12,1 °C 12,1 °C 84 % 1014,2 hPa 0,0 mm 0,0 km/h (0 Bft) O-NO 69 ° 0 min 0,000 mm 0,0 UV-I 7 W/m² 9,5 °C 12,1 °C 0,0 km/h (0 Bft)
29.05.2017 05:34 12,1 °C 12,1 °C 84 % 1014,2 hPa 0,0 mm 0,0 km/h (0 Bft) O-NO 69 ° 0 min 0,000 mm 0,0 UV-I 7 W/m² 9,5 °C 12,1 °C 0,0 km/h (0 Bft)
29.05.2017 05:35 11,9 °C 12,1 °C 84 % 1014,3 hPa 0,0 mm 0,0 km/h (0 Bft) O-NO 69 ° 0 min 0,000 mm 0,0 UV-I 9 W/m² 9,3 °C 11,9 °C 0,0 km/h (0 Bft)
29.05.2017 05:36 12,0 °C 12,0 °C 83 % 1014,3 hPa 0,0 mm 0,0 km/h (0 Bft) O-NO 69 ° 0 min 0,000 mm 0,0 UV-I 9 W/m² 9,2 °C 12,0 °C 0,0 km/h (0 Bft)
29.05.2017 05:37 12,1 °C 12,1 °C 83 % 1014,3 hPa 0,0 mm 0,0 km/h (0 Bft) O-NO 69 ° 0 min 0,000 mm 0,0 UV-I 9 W/m² 9,3 °C 12,1 °C 0,0 km/h (0 Bft)
29.05.2017 05:38 12,3 °C 12,3 °C 82 % 1014,2 hPa 0,0 mm 0,0 km/h (0 Bft) O-NO 69 ° 0 min 0,000 mm 0,0 UV-I 11 W/m² 9,3 °C 12,3 °C 0,0 km/h (0 Bft)
29.05.2017 05:39 12,4 °C 12,4 °C 81 % 1014,2 hPa 0,0 mm 0,0 km/h (0 Bft) O-NO 69 ° 0 min 0,000 mm 0,0 UV-I 11 W/m² 9,2 °C 12,4 °C 0,0 km/h (0 Bft)
29.05.2017 05:40 12,5 °C 12,6 °C 81 % 1014,2 hPa 0,0 mm 0,0 km/h (0 Bft) O-NO 69 ° 0 min 0,000 mm 0,0 UV-I 11 W/m² 9,3 °C 12,5 °C 0,0 km/h (0 Bft)
29.05.2017 05:41 12,6 °C 12,6 °C 80 % 1014,3 hPa 0,0 mm 0,0 km/h (0 Bft) O-NO 69 ° 0 min 0,000 mm 0,0 UV-I 11 W/m² 9,2 °C 12,6 °C 0,0 km/h (0 Bft)
29.05.2017 05:42 12,7 °C 12,7 °C 80 % 1014,2 hPa 0,0 mm 0,0 km/h (0 Bft) O-NO 69 ° 0 min 0,000 mm 0,0 UV-I 12 W/m² 9,3 °C 12,7 °C 0,0 km/h (0 Bft)
29.05.2017 05:43 12,7 °C 12,7 °C 80 % 1014,2 hPa 0,0 mm 0,0 km/h (0 Bft) O-NO 69 ° 0 min 0,000 mm 0,0 UV-I 12 W/m² 9,3 °C 12,7 °C 0,0 km/h (0 Bft)
29.05.2017 05:44 12,7 °C 12,7 °C 80 % 1014,2 hPa 0,0 mm 0,0 km/h (0 Bft) O-NO 69 ° 0 min 0,000 mm 0,0 UV-I 12 W/m² 9,3 °C 12,7 °C 0,0 km/h (0 Bft)
29.05.2017 05:45 12,7 °C 12,7 °C 80 % 1014,2 hPa 0,0 mm 0,0 km/h (0 Bft) O-NO 69 ° 0 min 0,000 mm 0,0 UV-I 12 W/m² 9,3 °C 12,7 °C 0,0 km/h (0 Bft)
29.05.2017 05:46 12,7 °C 12,7 °C 80 % 1014,2 hPa 0,0 mm 0,0 km/h (0 Bft) O-NO 69 ° 0 min 0,000 mm 0,0 UV-I 14 W/m² 9,3 °C 12,7 °C 0,0 km/h (0 Bft)
29.05.2017 05:47 12,6 °C 12,7 °C 80 % 1014,2 hPa 0,0 mm 0,0 km/h (0 Bft) O-NO 69 ° 0 min 0,000 mm 0,0 UV-I 14 W/m² 9,2 °C 12,6 °C 0,0 km/h (0 Bft)
29.05.2017 05:48 12,5 °C 12,6 °C 80 % 1014,2 hPa 0,0 mm 0,0 km/h (0 Bft) O-NO 69 ° 0 min 0,000 mm 0,0 UV-I 14 W/m² 9,1 °C 12,5 °C 0,0 km/h (0 Bft)
29.05.2017 05:49 12,4 °C 12,5 °C 81 % 1014,2 hPa 0,0 mm 0,0 km/h (0 Bft) O-NO 69 ° 0 min 0,000 mm 0,0 UV-I 16 W/m² 9,2 °C 12,4 °C 0,0 km/h (0 Bft)
29.05.2017 05:50 12,3 °C 12,4 °C 81 % 1014,1 hPa 0,0 mm 0,0 km/h (0 Bft) O-NO 69 ° 0 min 0,000 mm 0,0 UV-I 16 W/m² 9,1 °C 12,3 °C 0,0 km/h (0 Bft)
29.05.2017 05:51 12,3 °C 12,3 °C 81 % 1014,2 hPa 0,0 mm 0,0 km/h (0 Bft) O-NO 69 ° 0 min 0,000 mm 0,0 UV-I 16 W/m² 9,1 °C 12,3 °C 0,0 km/h (0 Bft)
29.05.2017 05:52 12,2 °C 12,3 °C 82 % 1014,2 hPa 0,0 mm 0,0 km/h (0 Bft) O-NO 69 ° 0 min 0,000 mm 0,0 UV-I 18 W/m² 9,2 °C 12,2 °C 0,0 km/h (0 Bft)
29.05.2017 05:53 12,3 °C 12,3 °C 82 % 1014,2 hPa 0,0 mm 0,0 km/h (0 Bft) O-NO 69 ° 0 min 0,000 mm 0,0 UV-I 18 W/m² 9,3 °C 12,3 °C 0,0 km/h (0 Bft)
29.05.2017 05:54 12,3 °C 12,3 °C 82 % 1014,2 hPa 0,0 mm 0,0 km/h (0 Bft) O-NO 69 ° 0 min 0,000 mm 0,0 UV-I 19 W/m² 9,3 °C 12,3 °C 0,0 km/h (0 Bft)
29.05.2017 05:55 12,3 °C 12,3 °C 81 % 1014,2 hPa 0,0 mm 0,0 km/h (0 Bft) O-NO 69 ° 0 min 0,000 mm 0,0 UV-I 19 W/m² 9,1 °C 12,3 °C 0,0 km/h (0 Bft)
29.05.2017 05:56 12,4 °C 12,4 °C 81 % 1014,2 hPa 0,0 mm 0,0 km/h (0 Bft) O-NO 69 ° 0 min 0,000 mm 0,0 UV-I 19 W/m² 9,2 °C 12,4 °C 0,0 km/h (0 Bft)
29.05.2017 05:57 12,4 °C 12,4 °C 81 % 1014,2 hPa 0,0 mm 0,0 km/h (0 Bft) O-NO 69 ° 0 min 0,000 mm 0,0 UV-I 21 W/m² 9,2 °C 12,4 °C 0,0 km/h (0 Bft)
29.05.2017 05:58 12,4 °C 12,4 °C 81 % 1014,2 hPa 0,0 mm 0,0 km/h (0 Bft) O-NO 69 ° 0 min 0,000 mm 0,0 UV-I 21 W/m² 9,2 °C 12,4 °C 0,0 km/h (0 Bft)
29.05.2017 05:59 12,4 °C 12,4 °C 81 % 1014,2 hPa 0,0 mm 0,0 km/h (0 Bft) O-NO 69 ° 0 min 0,000 mm 0,0 UV-I 23 W/m² 9,2 °C 12,4 °C 0,0 km/h (0 Bft)
29.05.2017 06:00 12,4 °C 12,4 °C 81 % 1014,2 hPa 0,0 mm 0,0 km/h (0 Bft) O-NO 69 ° 0 min 0,000 mm 0,0 UV-I 25 W/m² 9,2 °C 12,4 °C 0,0 km/h (0 Bft)
29.05.2017 06:01 12,5 °C 12,5 °C 81 % 1014,2 hPa 0,0 mm 0,0 km/h (0 Bft) O-NO 69 ° 0 min 0,000 mm 0,0 UV-I 26 W/m² 9,3 °C 12,5 °C 0,0 km/h (0 Bft)
29.05.2017 06:02 12,6 °C 12,6 °C 80 % 1014,3 hPa 0,0 mm 0,0 km/h (0 Bft) O-NO 69 ° 0 min 0,000 mm 0,0 UV-I 28 W/m² 9,2 °C 12,6 °C 0,0 km/h (0 Bft)
29.05.2017 06:03 12,6 °C 12,6 °C 80 % 1014,3 hPa 0,0 mm 0,0 km/h (0 Bft) O-NO 69 ° 0 min 0,000 mm 0,0 UV-I 28 W/m² 9,2 °C 12,6 °C 0,0 km/h (0 Bft)
29.05.2017 06:04 12,6 °C 12,6 °C 80 % 1014,3 hPa 0,0 mm 0,0 km/h (0 Bft) O-NO 69 ° 0 min 0,000 mm 0,0 UV-I 30 W/m² 9,2 °C 12,6 °C 0,0 km/h (0 Bft)
29.05.2017 06:05 12,6 °C 12,7 °C 80 % 1014,3 hPa 0,0 mm 0,0 km/h (0 Bft) O-NO 69 ° 0 min 0,000 mm 0,0 UV-I 30 W/m² 9,2 °C 12,6 °C 0,0 km/h (0 Bft)
29.05.2017 06:06 12,7 °C 12,7 °C 80 % 1014,3 hPa 0,0 mm 0,0 km/h (0 Bft) O-NO 69 ° 0 min 0,000 mm 0,0 UV-I 32 W/m² 9,3 °C 12,7 °C 0,0 km/h (0 Bft)
29.05.2017 06:07 12,8 °C 12,8 °C 80 % 1014,3 hPa 0,0 mm 0,0 km/h (0 Bft) O-NO 69 ° 0 min 0,000 mm 0,0 UV-I 32 W/m² 9,4 °C 12,8 °C 0,0 km/h (0 Bft)
29.05.2017 06:08 12,8 °C 12,8 °C 80 % 1014,3 hPa 0,0 mm 0,0 km/h (0 Bft) O-NO 69 ° 0 min 0,000 mm 0,0 UV-I 33 W/m² 9,4 °C 12,8 °C 0,0 km/h (0 Bft)
29.05.2017 06:09 12,8 °C 12,8 °C 80 % 1014,3 hPa 0,0 mm 0,0 km/h (0 Bft) O-NO 69 ° 0 min 0,000 mm 0,0 UV-I 33 W/m² 9,4 °C 12,8 °C 0,0 km/h (0 Bft)
29.05.2017 06:10 12,9 °C 12,9 °C 79 % 1014,3 hPa 0,0 mm 0,0 km/h (0 Bft) O-NO 69 ° 0 min 0,000 mm 0,0 UV-I 35 W/m² 9,3 °C 12,9 °C 0,0 km/h (0 Bft)
29.05.2017 06:11 12,9 °C 12,9 °C 79 % 1014,3 hPa 0,0 mm 0,0 km/h (0 Bft) O-NO 69 ° 0 min 0,000 mm 0,0 UV-I 37 W/m² 9,3 °C 12,9 °C 0,0 km/h (0 Bft)
29.05.2017 06:12 13,0 °C 13,1 °C 79 % 1014,3 hPa 0,0 mm 0,0 km/h (0 Bft) O-NO 69 ° 0 min 0,000 mm 0,0 UV-I 39 W/m² 9,4 °C 13,0 °C 0,0 km/h (0 Bft)
29.05.2017 06:13 13,1 °C 13,1 °C 79 % 1014,4 hPa 0,0 mm 0,0 km/h (0 Bft) O-NO 69 ° 0 min 0,000 mm 0,0 UV-I 40 W/m² 9,5 °C 13,1 °C 0,0 km/h (0 Bft)
29.05.2017 06:14 13,2 °C 13,2 °C 79 % 1014,4 hPa 0,0 mm 0,0 km/h (0 Bft) O-NO 69 ° 0 min 0,000 mm 0,0 UV-I 42 W/m² 9,6 °C 13,2 °C 0,0 km/h (0 Bft)
29.05.2017 06:15 13,2 °C 13,2 °C 79 % 1014,4 hPa 0,0 mm 0,0 km/h (0 Bft) O-NO 69 ° 0 min 0,000 mm 0,0 UV-I 44 W/m² 9,6 °C 13,2 °C 0,0 km/h (0 Bft)
29.05.2017 06:16 13,2 °C 13,2 °C 79 % 1014,4 hPa 0,0 mm 0,6 km/h (0 Bft) O-NO 69 ° 0 min 0,000 mm 0,0 UV-I 44 W/m² 9,6 °C 13,2 °C 3,2 km/h (1 Bft)
29.05.2017 06:17 13,2 °C 13,2 °C 78 % 1014,3 hPa 0,0 mm 0,0 km/h (0 Bft) O-NO 69 ° 0 min 0,000 mm 0,0 UV-I 47 W/m² 9,4 °C 13,2 °C 0,0 km/h (0 Bft)
29.05.2017 06:18 13,3 °C 13,3 °C 78 % 1014,3 hPa 0,0 mm 0,0 km/h (0 Bft) O-NO 69 ° 0 min 0,000 mm 0,0 UV-I 51 W/m² 9,5 °C 13,3 °C 0,0 km/h (0 Bft)
29.05.2017 06:19 13,4 °C 13,4 °C 78 % 1014,3 hPa 0,0 mm 0,0 km/h (0 Bft) O-NO 69 ° 0 min 0,000 mm 0,0 UV-I 53 W/m² 9,6 °C 13,4 °C 0,0 km/h (0 Bft)
29.05.2017 06:20 13,5 °C 13,5 °C 77 % 1014,3 hPa 0,0 mm 0,0 km/h (0 Bft) O-NO 69 ° 0 min 0,000 mm 0,0 UV-I 54 W/m² 9,5 °C 13,5 °C 0,0 km/h (0 Bft)
29.05.2017 06:21 13,6 °C 13,6 °C 77 % 1014,4 hPa 0,0 mm 0,0 km/h (0 Bft) O-NO 69 ° 0 min 0,000 mm 0,0 UV-I 58 W/m² 9,6 °C 13,6 °C 0,0 km/h (0 Bft)
29.05.2017 06:22 13,7 °C 13,7 °C 77 % 1014,4 hPa 0,0 mm 0,0 km/h (0 Bft) O-NO 69 ° 0 min 0,000 mm 0,0 UV-I 60 W/m² 9,7 °C 13,7 °C 0,0 km/h (0 Bft)
29.05.2017 06:23 13,7 °C 13,8 °C 77 % 1014,4 hPa 0,0 mm 0,0 km/h (0 Bft) O-NO 69 ° 0 min 0,000 mm 0,0 UV-I 60 W/m² 9,7 °C 13,7 °C 0,0 km/h (0 Bft)
29.05.2017 06:24 13,8 °C 13,8 °C 77 % 1014,4 hPa 0,0 mm 0,0 km/h (0 Bft) O-NO 69 ° 0 min 0,000 mm 0,0 UV-I 63 W/m² 9,8 °C 13,8 °C 0,0 km/h (0 Bft)
29.05.2017 06:25 13,8 °C 13,8 °C 78 % 1014,4 hPa 0,0 mm 0,0 km/h (0 Bft) O-NO 69 ° 0 min 0,000 mm 0,0 UV-I 65 W/m² 10,0 °C 13,8 °C 0,0 km/h (0 Bft)
29.05.2017 06:26 13,9 °C 13,9 °C 77 % 1014,4 hPa 0,0 mm 0,0 km/h (0 Bft) O-NO 69 ° 0 min 0,000 mm 0,0 UV-I 69 W/m² 9,9 °C 13,9 °C 0,0 km/h (0 Bft)
29.05.2017 06:27 13,9 °C 13,9 °C 77 % 1014,4 hPa 0,0 mm 0,0 km/h (0 Bft) O-NO 69 ° 0 min 0,000 mm 0,0 UV-I 67 W/m² 9,9 °C 13,9 °C 0,0 km/h (0 Bft)
29.05.2017 06:28 14,0 °C 14,0 °C 76 % 1014,4 hPa 0,0 mm 0,0 km/h (0 Bft) O-NO 69 ° 0 min 0,000 mm 0,0 UV-I 65 W/m² 9,8 °C 14,0 °C 0,0 km/h (0 Bft)
29.05.2017 06:29 14,1 °C 14,1 °C 76 % 1014,4 hPa 0,0 mm 0,0 km/h (0 Bft) O-NO 69 ° 0 min 0,000 mm 0,0 UV-I 65 W/m² 9,9 °C 14,1 °C 0,0 km/h (0 Bft)
29.05.2017 06:30 14,2 °C 14,2 °C 75 % 1014,4 hPa 0,0 mm 0,0 km/h (0 Bft) O-NO 69 ° 0 min 0,000 mm 0,0 UV-I 69 W/m² 9,8 °C 14,2 °C 0,0 km/h (0 Bft)
29.05.2017 06:31 14,2 °C 14,2 °C 75 % 1014,5 hPa 0,0 mm 0,0 km/h (0 Bft) O-NO 69 ° 0 min 0,000 mm 0,0 UV-I 72 W/m² 9,8 °C 14,2 °C 0,0 km/h (0 Bft)
29.05.2017 06:32 14,2 °C 14,2 °C 76 % 1014,4 hPa 0,0 mm 0,0 km/h (0 Bft) O-NO 69 ° 0 min 0,000 mm 0,0 UV-I 77 W/m² 10,0 °C 14,2 °C 0,0 km/h (0 Bft)
29.05.2017 06:33 14,1 °C 14,2 °C 76 % 1014,5 hPa 0,0 mm 0,0 km/h (0 Bft) O-NO 69 ° 0 min 0,000 mm 0,0 UV-I 83 W/m² 9,9 °C 14,1 °C 0,0 km/h (0 Bft)
29.05.2017 06:34 14,1 °C 14,1 °C 77 % 1014,5 hPa 0,0 mm 0,0 km/h (0 Bft) O-NO 69 ° 0 min 0,000 mm 0,0 UV-I 84 W/m² 10,1 °C 14,1 °C 0,0 km/h (0 Bft)
29.05.2017 06:35 14,1 °C 14,1 °C 77 % 1014,4 hPa 0,0 mm 0,0 km/h (0 Bft) O-NO 69 ° 0 min 0,000 mm 0,0 UV-I 88 W/m² 10,1 °C 14,1 °C 0,0 km/h (0 Bft)
29.05.2017 06:36 14,1 °C 14,1 °C 76 % 1014,4 hPa 0,0 mm 0,0 km/h (0 Bft) O-NO 69 ° 0 min 0,000 mm 0,0 UV-I 90 W/m² 9,9 °C 14,1 °C 0,0 km/h (0 Bft)
29.05.2017 06:37 14,1 °C 14,1 °C 76 % 1014,4 hPa 0,0 mm 0,0 km/h (0 Bft) O-NO 69 ° 0 min 0,000 mm 0,0 UV-I 93 W/m² 9,9 °C 14,1 °C 0,0 km/h (0 Bft)
29.05.2017 06:38 14,1 °C 14,1 °C 76 % 1014,4 hPa 0,0 mm 0,0 km/h (0 Bft) O-NO 69 ° 0 min 0,000 mm 0,0 UV-I 95 W/m² 9,9 °C 14,1 °C 0,0 km/h (0 Bft)
29.05.2017 06:39 14,2 °C 14,2 °C 76 % 1014,5 hPa 0,0 mm 0,0 km/h (0 Bft) O-NO 69 ° 0 min 0,000 mm 0,0 UV-I 97 W/m² 10,0 °C 14,2 °C 0,0 km/h (0 Bft)
29.05.2017 06:40 14,2 °C 14,2 °C 76 % 1014,4 hPa 0,0 mm 0,0 km/h (0 Bft) O-NO 69 ° 0 min 0,000 mm 0,5 UV-I 98 W/m² 10,0 °C 14,2 °C 0,0 km/h (0 Bft)
29.05.2017 06:41 14,3 °C 14,3 °C 76 % 1014,4 hPa 0,0 mm 0,0 km/h (0 Bft) O-NO 69 ° 0 min 0,000 mm 0,5 UV-I 104 W/m² 10,1 °C 14,3 °C 0,0 km/h (0 Bft)
29.05.2017 06:42 14,3 °C 14,3 °C 76 % 1014,4 hPa 0,0 mm 0,0 km/h (0 Bft) O-NO 69 ° 0 min 0,000 mm 0,5 UV-I 105 W/m² 10,1 °C 14,3 °C 0,0 km/h (0 Bft)
29.05.2017 06:43 14,4 °C 14,4 °C 76 % 1014,4 hPa 0,0 mm 0,0 km/h (0 Bft) O-NO 69 ° 0 min 0,000 mm 0,5 UV-I 107 W/m² 10,2 °C 14,4 °C 0,0 km/h (0 Bft)
29.05.2017 06:44 14,5 °C 14,5 °C 76 % 1014,4 hPa 0,0 mm 0,0 km/h (0 Bft) O-NO 69 ° 0 min 0,000 mm 0,5 UV-I 111 W/m² 10,3 °C 14,5 °C 0,0 km/h (0 Bft)
29.05.2017 06:45 14,6 °C 14,6 °C 76 % 1014,4 hPa 0,0 mm 0,0 km/h (0 Bft) O-NO 69 ° 0 min 0,000 mm 0,5 UV-I 113 W/m² 10,4 °C 14,6 °C 0,0 km/h (0 Bft)
29.05.2017 06:46 14,6 °C 14,6 °C 75 % 1014,4 hPa 0,0 mm 0,0 km/h (0 Bft) O-NO 69 ° 0 min 0,000 mm 0,5 UV-I 114 W/m² 10,2 °C 14,6 °C 0,0 km/h (0 Bft)
29.05.2017 06:47 14,7 °C 14,7 °C 75 % 1014,4 hPa 0,0 mm 0,0 km/h (0 Bft) O-NO 69 ° 0 min 0,000 mm 0,5 UV-I 120 W/m² 10,3 °C 14,7 °C 0,0 km/h (0 Bft)
29.05.2017 06:48 14,7 °C 14,7 °C 75 % 1014,4 hPa 0,0 mm 0,0 km/h (0 Bft) O-NO 69 ° 0 min 0,000 mm 0,6 UV-I 121 W/m² 10,3 °C 14,7 °C 0,0 km/h (0 Bft)
29.05.2017 06:49 14,7 °C 14,7 °C 75 % 1014,4 hPa 0,0 mm 0,0 km/h (0 Bft) O-NO 69 ° 0 min 0,000 mm 0,6 UV-I 123 W/m² 10,3 °C 14,7 °C 0,0 km/h (0 Bft)
29.05.2017 06:50 14,7 °C 14,7 °C 76 % 1014,4 hPa 0,0 mm 0,0 km/h (0 Bft) O-NO 69 ° 0 min 0,000 mm 0,6 UV-I 123 W/m² 10,5 °C 14,7 °C 0,0 km/h (0 Bft)
29.05.2017 06:51 14,8 °C 14,8 °C 75 % 1014,4 hPa 0,0 mm 0,0 km/h (0 Bft) O-NO 69 ° 0 min 0,000 mm 0,6 UV-I 125 W/m² 10,4 °C 14,8 °C 0,0 km/h (0 Bft)
29.05.2017 06:52 14,9 °C 14,9 °C 76 % 1014,4 hPa 0,0 mm 0,0 km/h (0 Bft) O-NO 69 ° 0 min 0,000 mm 0,6 UV-I 125 W/m² 10,7 °C 14,9 °C 0,0 km/h (0 Bft)
29.05.2017 06:53 15,0 °C 15,0 °C 76 % 1014,4 hPa 0,0 mm 2,1 km/h (1 Bft) O-NO 69 ° 0 min 0,000 mm 0,6 UV-I 127 W/m² 10,8 °C 15,0 °C 3,2 km/h (1 Bft)
29.05.2017 06:54 15,1 °C 15,1 °C 75 % 1014,4 hPa 0,0 mm 0,0 km/h (0 Bft) O-NO 69 ° 0 min 0,000 mm 0,6 UV-I 128 W/m² 10,7 °C 15,1 °C 0,0 km/h (0 Bft)
29.05.2017 06:55 15,3 °C 15,3 °C 74 % 1014,4 hPa 0,0 mm 0,0 km/h (0 Bft) O-NO 69 ° 0 min 0,000 mm 0,6 UV-I 128 W/m² 10,7 °C 15,3 °C 0,0 km/h (0 Bft)
29.05.2017 06:56 15,4 °C 15,4 °C 75 % 1014,4 hPa 0,0 mm 0,0 km/h (0 Bft) O-NO 69 ° 0 min 0,000 mm 0,6 UV-I 128 W/m² 11,0 °C 15,4 °C 0,0 km/h (0 Bft)
29.05.2017 06:57 15,5 °C 15,5 °C 73 % 1014,4 hPa 0,0 mm 0,0 km/h (0 Bft) O-NO 69 ° 0 min 0,000 mm 0,7 UV-I 130 W/m² 10,7 °C 15,5 °C 0,0 km/h (0 Bft)
29.05.2017 06:58 15,6 °C 15,6 °C 73 % 1014,4 hPa 0,0 mm 0,0 km/h (0 Bft) O-NO 69 ° 0 min 0,000 mm 0,7 UV-I 130 W/m² 10,8 °C 15,6 °C 0,0 km/h (0 Bft)
29.05.2017 06:59 15,7 °C 15,7 °C 74 % 1014,4 hPa 0,0 mm 0,0 km/h (0 Bft) O-NO 69 ° 0 min 0,000 mm 0,7 UV-I 132 W/m² 11,1 °C 15,7 °C 0,0 km/h (0 Bft)
29.05.2017 07:00 15,8 °C 15,8 °C 74 % 1014,4 hPa 0,0 mm 0,0 km/h (0 Bft) O-NO 69 ° 0 min 0,000 mm 0,7 UV-I 132 W/m² 11,2 °C 15,8 °C 0,0 km/h (0 Bft)
29.05.2017 07:01 15,9 °C 15,9 °C 73 % 1014,4 hPa 0,0 mm 0,0 km/h (0 Bft) O-NO 69 ° 0 min 0,051 mm 0,7 UV-I 134 W/m² 11,1 °C 15,9 °C 0,0 km/h (0 Bft)
29.05.2017 07:02 16,0 °C 16,0 °C 74 % 1014,4 hPa 0,0 mm 0,0 km/h (0 Bft) O-NO 69 ° 0 min 0,000 mm 0,7 UV-I 135 W/m² 11,4 °C 16,0 °C 0,0 km/h (0 Bft)
29.05.2017 07:03 16,2 °C 16,2 °C 75 % 1014,4 hPa 0,0 mm 0,0 km/h (0 Bft) O-NO 69 ° 0 min 0,000 mm 0,7 UV-I 137 W/m² 11,8 °C 16,2 °C 0,0 km/h (0 Bft)
29.05.2017 07:04 16,3 °C 16,3 °C 77 % 1014,3 hPa 0,0 mm 0,0 km/h (0 Bft) O-NO 69 ° 0 min 0,000 mm 0,7 UV-I 139 W/m² 12,3 °C 16,3 °C 0,0 km/h (0 Bft)
29.05.2017 07:05 16,3 °C 16,3 °C 77 % 1014,4 hPa 0,0 mm 0,0 km/h (0 Bft) O-NO 69 ° 0 min 0,000 mm 0,8 UV-I 142 W/m² 12,3 °C 16,3 °C 0,0 km/h (0 Bft)
29.05.2017 07:06 16,4 °C 16,4 °C 75 % 1014,3 hPa 0,0 mm 0,0 km/h (0 Bft) O-NO 69 ° 0 min 0,000 mm 0,8 UV-I 146 W/m² 12,0 °C 16,4 °C 0,0 km/h (0 Bft)
29.05.2017 07:07 16,4 °C 16,4 °C 77 % 1014,4 hPa 0,0 mm 0,0 km/h (0 Bft) O-NO 69 ° 0 min 0,000 mm 0,8 UV-I 149 W/m² 12,4 °C 16,4 °C 0,0 km/h (0 Bft)
29.05.2017 07:08 16,5 °C 16,5 °C 78 % 1014,3 hPa 0,0 mm 0,0 km/h (0 Bft) O-NO 69 ° 0 min 0,000 mm 0,8 UV-I 153 W/m² 12,6 °C 16,5 °C 0,0 km/h (0 Bft)
29.05.2017 07:09 16,6 °C 16,6 °C 75 % 1014,4 hPa 0,0 mm 0,0 km/h (0 Bft) O-NO 69 ° 0 min 0,000 mm 0,8 UV-I 156 W/m² 12,1 °C 16,6 °C 0,0 km/h (0 Bft)
29.05.2017 07:10 16,6 °C 16,6 °C 76 % 1014,4 hPa 0,0 mm 0,0 km/h (0 Bft) O-NO 69 ° 0 min 0,000 mm 0,8 UV-I 165 W/m² 12,3 °C 16,6 °C 0,0 km/h (0 Bft)
29.05.2017 07:11 16,5 °C 16,6 °C 74 % 1014,4 hPa 0,0 mm 0,0 km/h (0 Bft) O-NO 69 ° 0 min 0,000 mm 0,9 UV-I 169 W/m² 11,8 °C 16,5 °C 0,0 km/h (0 Bft)
29.05.2017 07:12 16,5 °C 16,6 °C 74 % 1014,4 hPa 0,0 mm 0,0 km/h (0 Bft) O-NO 69 ° 0 min 0,000 mm 0,9 UV-I 174 W/m² 11,8 °C 16,5 °C 0,0 km/h (0 Bft)
29.05.2017 07:13 16,6 °C 16,6 °C 77 % 1014,4 hPa 0,0 mm 0,0 km/h (0 Bft) O-NO 69 ° 0 min 0,000 mm 0,9 UV-I 179 W/m² 12,5 °C 16,6 °C 0,0 km/h (0 Bft)
29.05.2017 07:14 16,6 °C 16,6 °C 77 % 1014,4 hPa 0,0 mm 0,0 km/h (0 Bft) O-NO 69 ° 0 min 0,000 mm 0,9 UV-I 183 W/m² 12,5 °C 16,6 °C 0,0 km/h (0 Bft)
29.05.2017 07:15 16,6 °C 16,6 °C 75 % 1014,4 hPa 0,0 mm 0,0 km/h (0 Bft) O-NO 69 ° 0 min 0,000 mm 0,9 UV-I 188 W/m² 12,1 °C 16,6 °C 0,0 km/h (0 Bft)
29.05.2017 07:16 16,6 °C 16,6 °C 73 % 1014,4 hPa 0,0 mm 0,0 km/h (0 Bft) O-NO 69 ° 0 min 0,000 mm 0,9 UV-I 197 W/m² 11,7 °C 16,6 °C 0,0 km/h (0 Bft)
29.05.2017 07:17 16,7 °C 16,7 °C 73 % 1014,4 hPa 0,0 mm 0,0 km/h (0 Bft) O-NO 69 ° 0 min 0,000 mm 0,9 UV-I 200 W/m² 11,8 °C 16,7 °C 0,0 km/h (0 Bft)
29.05.2017 07:18 16,8 °C 16,8 °C 76 % 1014,4 hPa 0,0 mm 0,0 km/h (0 Bft) O-NO 69 ° 0 min 0,000 mm 1,0 UV-I 204 W/m² 12,5 °C 16,8 °C 0,0 km/h (0 Bft)
29.05.2017 07:19 16,8 °C 16,8 °C 77 % 1014,4 hPa 0,0 mm 0,0 km/h (0 Bft) O-NO 69 ° 0 min 0,000 mm 1,0 UV-I 207 W/m² 12,7 °C 16,8 °C 0,0 km/h (0 Bft)
29.05.2017 07:20 16,8 °C 16,8 °C 76 % 1014,4 hPa 0,0 mm 0,0 km/h (0 Bft) O-NO 69 ° 0 min 0,000 mm 1,0 UV-I 209 W/m² 12,5 °C 16,8 °C 0,0 km/h (0 Bft)
29.05.2017 07:21 16,8 °C 16,8 °C 76 % 1014,4 hPa 0,0 mm 0,0 km/h (0 Bft) O-NO 69 ° 0 min 0,000 mm 1,0 UV-I 211 W/m² 12,5 °C 16,8 °C 0,0 km/h (0 Bft)
29.05.2017 07:22 16,8 °C 16,8 °C 76 % 1014,5 hPa 0,0 mm 0,0 km/h (0 Bft) O-NO 69 ° 0 min 0,000 mm 1,0 UV-I 214 W/m² 12,5 °C 16,8 °C 0,0 km/h (0 Bft)
29.05.2017 07:23 16,8 °C 16,8 °C 74 % 1014,5 hPa 0,0 mm 0,0 km/h (0 Bft) O-NO 69 ° 0 min 0,000 mm 1,0 UV-I 216 W/m² 12,1 °C 16,8 °C 0,0 km/h (0 Bft)
29.05.2017 07:24 16,9 °C 16,9 °C 77 % 1014,5 hPa 0,0 mm 0,0 km/h (0 Bft) O-NO 69 ° 0 min 0,000 mm 1,1 UV-I 218 W/m² 12,8 °C 16,9 °C 0,0 km/h (0 Bft)
29.05.2017 07:25 16,9 °C 16,9 °C 75 % 1014,5 hPa 0,0 mm 0,0 km/h (0 Bft) O-NO 69 ° 0 min 0,000 mm 1,1 UV-I 218 W/m² 12,4 °C 16,9 °C 0,0 km/h (0 Bft)
29.05.2017 07:26 17,0 °C 17,0 °C 76 % 1014,5 hPa 0,0 mm 0,0 km/h (0 Bft) O-NO 69 ° 0 min 0,000 mm 1,1 UV-I 220 W/m² 12,7 °C 17,0 °C 0,0 km/h (0 Bft)
29.05.2017 07:27 17,1 °C 17,1 °C 75 % 1014,4 hPa 0,0 mm 0,0 km/h (0 Bft) O-NO 69 ° 0 min 0,000 mm 1,1 UV-I 220 W/m² 12,6 °C 17,1 °C 0,0 km/h (0 Bft)
29.05.2017 07:28 17,2 °C 17,2 °C 77 % 1014,4 hPa 0,0 mm 0,0 km/h (0 Bft) O-NO 69 ° 0 min 0,000 mm 1,1 UV-I 221 W/m² 13,1 °C 17,2 °C 0,0 km/h (0 Bft)
29.05.2017 07:29 17,3 °C 17,3 °C 76 % 1014,4 hPa 0,0 mm 0,0 km/h (0 Bft) O-NO 69 ° 0 min 0,000 mm 1,1 UV-I 221 W/m² 13,0 °C 17,3 °C 0,0 km/h (0 Bft)
29.05.2017 07:30 17,3 °C 17,3 °C 77 % 1014,4 hPa 0,0 mm 0,0 km/h (0 Bft) O-NO 69 ° 0 min 0,000 mm 1,2 UV-I 221 W/m² 13,2 °C 17,3 °C 0,0 km/h (0 Bft)
29.05.2017 07:31 17,2 °C 17,3 °C 76 % 1014,4 hPa 0,0 mm 0,0 km/h (0 Bft) O-NO 69 ° 0 min 0,000 mm 1,2 UV-I 221 W/m² 12,9 °C 17,2 °C 0,0 km/h (0 Bft)
29.05.2017 07:32 17,3 °C 17,3 °C 77 % 1014,4 hPa 0,0 mm 0,0 km/h (0 Bft) O-NO 69 ° 0 min 0,000 mm 1,2 UV-I 221 W/m² 13,2 °C 17,3 °C 0,0 km/h (0 Bft)
29.05.2017 07:33 17,3 °C 17,3 °C 75 % 1014,4 hPa 0,0 mm 0,0 km/h (0 Bft) O-NO 69 ° 0 min 0,000 mm 1,2 UV-I 221 W/m² 12,8 °C 17,3 °C 0,0 km/h (0 Bft)
29.05.2017 07:34 17,3 °C 17,3 °C 76 % 1014,4 hPa 0,0 mm 0,0 km/h (0 Bft) O-NO 69 ° 0 min 0,000 mm 1,2 UV-I 221 W/m² 13,0 °C 17,3 °C 0,0 km/h (0 Bft)
29.05.2017 07:35 17,4 °C 17,4 °C 74 % 1014,4 hPa 0,0 mm 0,0 km/h (0 Bft) O-NO 69 ° 0 min 0,000 mm 1,2 UV-I 223 W/m² 12,7 °C 17,4 °C 0,0 km/h (0 Bft)
29.05.2017 07:36 17,4 °C 17,4 °C 75 % 1014,4 hPa 0,0 mm 0,0 km/h (0 Bft) O-NO 69 ° 0 min 0,000 mm 1,3 UV-I 223 W/m² 12,9 °C 17,4 °C 0,0 km/h (0 Bft)
29.05.2017 07:37 17,5 °C 17,5 °C 76 % 1014,4 hPa 0,0 mm 0,0 km/h (0 Bft) O-NO 69 ° 0 min 0,000 mm 1,3 UV-I 225 W/m² 13,2 °C 17,5 °C 0,0 km/h (0 Bft)
29.05.2017 07:38 17,6 °C 17,6 °C 76 % 1014,4 hPa 0,0 mm 0,0 km/h (0 Bft) O-NO 69 ° 0 min 0,000 mm 1,3 UV-I 227 W/m² 13,3 °C 17,6 °C 0,0 km/h (0 Bft)
29.05.2017 07:39 17,6 °C 17,6 °C 77 % 1014,4 hPa 0,0 mm 0,0 km/h (0 Bft) O-NO 69 ° 0 min 0,000 mm 1,3 UV-I 227 W/m² 13,5 °C 17,6 °C 0,0 km/h (0 Bft)
29.05.2017 07:40 17,7 °C 17,7 °C 76 % 1014,3 hPa 0,0 mm 0,0 km/h (0 Bft) O-NO 69 ° 0 min 0,000 mm 1,3 UV-I 225 W/m² 13,4 °C 17,7 °C 0,0 km/h (0 Bft)
29.05.2017 07:41 17,7 °C 17,7 °C 77 % 1014,4 hPa 0,0 mm 0,0 km/h (0 Bft) O-NO 69 ° 0 min 0,000 mm 1,3 UV-I 221 W/m² 13,6 °C 17,7 °C 0,0 km/h (0 Bft)
29.05.2017 07:42 17,7 °C 17,7 °C 74 % 1014,3 hPa 0,0 mm 0,0 km/h (0 Bft) O-NO 69 ° 0 min 0,000 mm 1,3 UV-I 218 W/m² 13,0 °C 17,7 °C 0,0 km/h (0 Bft)
29.05.2017 07:43 17,7 °C 17,8 °C 74 % 1014,4 hPa 0,0 mm 0,0 km/h (0 Bft) O-NO 69 ° 0 min 0,000 mm 1,4 UV-I 216 W/m² 13,0 °C 17,7 °C 0,0 km/h (0 Bft)
29.05.2017 07:44 17,8 °C 17,8 °C 73 % 1014,4 hPa 0,0 mm 0,0 km/h (0 Bft) O-NO 69 ° 0 min 0,000 mm 1,4 UV-I 213 W/m² 12,9 °C 17,8 °C 0,0 km/h (0 Bft)
29.05.2017 07:45 17,8 °C 17,8 °C 72 % 1014,4 hPa 0,0 mm 0,0 km/h (0 Bft) O-NO 69 ° 0 min 0,000 mm 1,4 UV-I 211 W/m² 12,7 °C 17,8 °C 0,0 km/h (0 Bft)
29.05.2017 07:46 17,9 °C 17,9 °C 73 % 1014,4 hPa 0,0 mm 0,0 km/h (0 Bft) O-NO 69 ° 0 min 0,000 mm 1,4 UV-I 204 W/m² 13,0 °C 17,9 °C 0,0 km/h (0 Bft)
29.05.2017 07:47 18,1 °C 18,1 °C 73 % 1014,4 hPa 0,0 mm 0,0 km/h (0 Bft) O-NO 69 ° 0 min 0,000 mm 1,4 UV-I 202 W/m² 13,2 °C 18,1 °C 0,0 km/h (0 Bft)
29.05.2017 07:48 18,3 °C 18,3 °C 75 % 1014,3 hPa 0,0 mm 0,0 km/h (0 Bft) O-NO 69 ° 0 min 0,000 mm 1,5 UV-I 199 W/m² 13,8 °C 18,3 °C 0,0 km/h (0 Bft)
29.05.2017 07:49 18,5 °C 18,5 °C 73 % 1014,3 hPa 0,0 mm 0,0 km/h (0 Bft) O-NO 69 ° 0 min 0,000 mm 1,5 UV-I 197 W/m² 13,6 °C 18,5 °C 0,0 km/h (0 Bft)
29.05.2017 07:50 18,6 °C 18,6 °C 73 % 1014,3 hPa 0,0 mm 0,0 km/h (0 Bft) O-NO 69 ° 0 min 0,000 mm 1,5 UV-I 193 W/m² 13,7 °C 18,6 °C 0,0 km/h (0 Bft)
29.05.2017 07:51 18,6 °C 18,6 °C 75 % 1014,3 hPa 0,0 mm 0,0 km/h (0 Bft) O-NO 69 ° 0 min 0,000 mm 1,5 UV-I 193 W/m² 14,1 °C 18,6 °C 0,0 km/h (0 Bft)
29.05.2017 07:52 18,6 °C 18,6 °C 75 % 1014,4 hPa 0,0 mm 0,0 km/h (0 Bft) O-NO 69 ° 0 min 0,000 mm 1,5 UV-I 192 W/m² 14,1 °C 18,6 °C 0,0 km/h (0 Bft)
29.05.2017 07:53 18,6 °C 18,6 °C 74 % 1014,4 hPa 0,0 mm 0,0 km/h (0 Bft) O-NO 69 ° 0 min 0,000 mm 1,6 UV-I 193 W/m² 13,9 °C 18,6 °C 0,0 km/h (0 Bft)
29.05.2017 07:54 18,6 °C 18,6 °C 74 % 1014,4 hPa 0,0 mm 0,0 km/h (0 Bft) O-NO 69 ° 0 min 0,000 mm 1,6 UV-I 197 W/m² 13,9 °C 18,6 °C 0,0 km/h (0 Bft)
29.05.2017 07:55 18,6 °C 18,6 °C 72 % 1014,3 hPa 0,0 mm 0,0 km/h (0 Bft) O-NO 69 ° 0 min 0,000 mm 1,6 UV-I 202 W/m² 13,4 °C 18,6 °C 0,0 km/h (0 Bft)
29.05.2017 07:56 18,6 °C 18,6 °C 74 % 1014,4 hPa 0,0 mm 0,0 km/h (0 Bft) O-NO 69 ° 0 min 0,000 mm 1,6 UV-I 207 W/m² 13,9 °C 18,6 °C 0,0 km/h (0 Bft)
29.05.2017 07:57 18,6 °C 18,6 °C 74 % 1014,3 hPa 0,0 mm 0,0 km/h (0 Bft) O-NO 69 ° 0 min 0,000 mm 1,6 UV-I 213 W/m² 13,9 °C 18,6 °C 0,0 km/h (0 Bft)
29.05.2017 07:58 18,7 °C 18,7 °C 72 % 1014,3 hPa 0,0 mm 0,0 km/h (0 Bft) O-NO 69 ° 0 min 0,000 mm 1,7 UV-I 223 W/m² 13,5 °C 18,7 °C 0,0 km/h (0 Bft)
29.05.2017 07:59 18,7 °C 18,7 °C 73 % 1014,3 hPa 0,0 mm 0,0 km/h (0 Bft) O-NO 69 ° 0 min 0,000 mm 1,7 UV-I 230 W/m² 13,8 °C 18,7 °C 0,0 km/h (0 Bft)
29.05.2017 08:00 18,8 °C 18,8 °C 71 % 1014,3 hPa 0,0 mm 0,0 km/h (0 Bft) O-NO 69 ° 0 min 0,000 mm 1,7 UV-I 237 W/m² 13,4 °C 18,8 °C 0,0 km/h (0 Bft)
29.05.2017 08:01 18,8 °C 18,8 °C 73 % 1014,3 hPa 0,0 mm 0,0 km/h (0 Bft) O-NO 69 ° 0 min 0,101 mm 1,7 UV-I 243 W/m² 13,9 °C 18,8 °C 0,0 km/h (0 Bft)
29.05.2017 08:02 18,9 °C 18,9 °C 71 % 1014,2 hPa 0,0 mm 0,0 km/h (0 Bft) O-NO 69 ° 0 min 0,000 mm 1,7 UV-I 248 W/m² 13,5 °C 18,9 °C 0,0 km/h (0 Bft)
29.05.2017 08:03 19,1 °C 19,1 °C 75 % 1014,3 hPa 0,0 mm 0,0 km/h (0 Bft) O-NO 69 ° 0 min 0,000 mm 1,8 UV-I 264 W/m² 14,6 °C 19,1 °C 0,0 km/h (0 Bft)
29.05.2017 08:04 19,2 °C 19,2 °C 73 % 1014,3 hPa 0,0 mm 0,0 km/h (0 Bft) O-NO 69 ° 0 min 0,000 mm 1,8 UV-I 271 W/m² 14,2 °C 19,2 °C 0,0 km/h (0 Bft)
29.05.2017 08:05 19,3 °C 19,3 °C 69 % 1014,3 hPa 0,0 mm 0,0 km/h (0 Bft) O-NO 69 ° 0 min 0,000 mm 1,8 UV-I 276 W/m² 13,5 °C 19,3 °C 0,0 km/h (0 Bft)
29.05.2017 08:06 19,3 °C 19,3 °C 68 % 1014,3 hPa 0,0 mm 0,0 km/h (0 Bft) O-NO 69 ° 0 min 0,000 mm 1,8 UV-I 283 W/m² 13,2 °C 19,3 °C 0,0 km/h (0 Bft)
29.05.2017 08:07 19,4 °C 19,4 °C 70 % 1014,3 hPa 0,0 mm 0,0 km/h (0 Bft) O-NO 69 ° 1 min 0,000 mm 1,9 UV-I 290 W/m² 13,8 °C 19,4 °C 0,0 km/h (0 Bft)
29.05.2017 08:08 19,6 °C 19,6 °C 68 % 1014,3 hPa 0,0 mm 0,0 km/h (0 Bft) O-NO 69 ° 1 min 0,000 mm 1,9 UV-I 295 W/m² 13,5 °C 19,6 °C 0,0 km/h (0 Bft)
29.05.2017 08:09 19,7 °C 19,7 °C 68 % 1014,3 hPa 0,0 mm 0,0 km/h (0 Bft) O-NO 69 ° 1 min 0,000 mm 1,9 UV-I 308 W/m² 13,6 °C 19,7 °C 0,0 km/h (0 Bft)
29.05.2017 08:10 19,7 °C 19,7 °C 66 % 1014,3 hPa 0,0 mm 0,0 km/h (0 Bft) O-NO 69 ° 1 min 0,000 mm 1,9 UV-I 313 W/m² 13,2 °C 19,7 °C 0,0 km/h (0 Bft)
29.05.2017 08:11 19,7 °C 19,7 °C 72 % 1014,2 hPa 0,0 mm 0,0 km/h (0 Bft) O-NO 69 ° 1 min 0,000 mm 2,0 UV-I 316 W/m² 14,5 °C 19,7 °C 0,0 km/h (0 Bft)
29.05.2017 08:12 19,8 °C 19,8 °C 70 % 1014,2 hPa 0,0 mm 0,0 km/h (0 Bft) O-NO 69 ° 1 min 0,000 mm 2,0 UV-I 322 W/m² 14,2 °C 19,8 °C 0,0 km/h (0 Bft)
29.05.2017 08:13 19,8 °C 19,8 °C 66 % 1014,2 hPa 0,0 mm 0,0 km/h (0 Bft) O-NO 69 ° 1 min 0,000 mm 2,0 UV-I 327 W/m² 13,3 °C 19,8 °C 0,0 km/h (0 Bft)
29.05.2017 08:14 19,9 °C 19,9 °C 66 % 1014,2 hPa 0,0 mm 0,0 km/h (0 Bft) O-NO 69 ° 1 min 0,000 mm 2,0 UV-I 332 W/m² 13,4 °C 19,9 °C 0,0 km/h (0 Bft)
29.05.2017 08:15 19,9 °C 19,9 °C 67 % 1014,2 hPa 0,0 mm 0,0 km/h (0 Bft) O-NO 69 ° 1 min 0,000 mm 2,0 UV-I 343 W/m² 13,6 °C 19,9 °C 0,0 km/h (0 Bft)
29.05.2017 08:16 20,0 °C 20,0 °C 68 % 1014,2 hPa 0,0 mm 0,0 km/h (0 Bft) O-NO 69 ° 1 min 0,000 mm 2,1 UV-I 348 W/m² 13,9 °C 20,0 °C 0,0 km/h (0 Bft)
29.05.2017 08:17 20,1 °C 20,1 °C 66 % 1014,2 hPa 0,0 mm 0,0 km/h (0 Bft) O-NO 69 ° 1 min 0,000 mm 2,1 UV-I 352 W/m² 13,5 °C 20,1 °C 0,0 km/h (0 Bft)
29.05.2017 08:18 20,1 °C 20,1 °C 66 % 1014,1 hPa 0,0 mm 0,0 km/h (0 Bft) O-NO 69 ° 1 min 0,000 mm 2,1 UV-I 357 W/m² 13,5 °C 20,1 °C 0,0 km/h (0 Bft)
29.05.2017 08:19 20,2 °C 20,2 °C 65 % 1014,2 hPa 0,0 mm 0,0 km/h (0 Bft) O-NO 69 ° 1 min 0,000 mm 2,1 UV-I 362 W/m² 13,4 °C 20,2 °C 0,0 km/h (0 Bft)
29.05.2017 08:20 20,2 °C 20,2 °C 62 % 1014,1 hPa 0,0 mm 0,0 km/h (0 Bft) O-NO 69 ° 1 min 0,000 mm 2,2 UV-I 366 W/m² 12,7 °C 20,2 °C 0,0 km/h (0 Bft)
29.05.2017 08:21 20,2 °C 20,2 °C 62 % 1014,1 hPa 0,0 mm 0,0 km/h (0 Bft) O-NO 69 ° 1 min 0,000 mm 2,2 UV-I 376 W/m² 12,7 °C 20,2 °C 0,0 km/h (0 Bft)
29.05.2017 08:22 20,3 °C 20,3 °C 63 % 1014,1 hPa 0,0 mm 0,0 km/h (0 Bft) O-NO 69 ° 1 min 0,000 mm 2,2 UV-I 380 W/m² 13,0 °C 20,3 °C 0,0 km/h (0 Bft)
29.05.2017 08:23 20,4 °C 20,4 °C 69 % 1014,1 hPa 0,0 mm 0,0 km/h (0 Bft) O-NO 69 ° 1 min 0,000 mm 2,2 UV-I 385 W/m² 14,5 °C 20,4 °C 0,0 km/h (0 Bft)
29.05.2017 08:24 20,5 °C 20,5 °C 65 % 1014,1 hPa 0,0 mm 0,0 km/h (0 Bft) O-NO 69 ° 1 min 0,000 mm 2,2 UV-I 388 W/m² 13,7 °C 20,5 °C 0,0 km/h (0 Bft)
29.05.2017 08:25 20,6 °C 20,6 °C 67 % 1014,1 hPa 0,0 mm 0,0 km/h (0 Bft) O-NO 69 ° 1 min 0,000 mm 2,3 UV-I 392 W/m² 14,3 °C 20,6 °C 0,0 km/h (0 Bft)
29.05.2017 08:26 20,6 °C 20,6 °C 66 % 1014,1 hPa 0,0 mm 0,0 km/h (0 Bft) O-NO 69 ° 1 min 0,000 mm 2,3 UV-I 396 W/m² 14,0 °C 20,6 °C 0,0 km/h (0 Bft)
29.05.2017 08:27 20,6 °C 20,6 °C 62 % 1014,1 hPa 0,0 mm 0,0 km/h (0 Bft) O-NO 69 ° 1 min 0,000 mm 2,3 UV-I 403 W/m² 13,1 °C 20,6 °C 0,0 km/h (0 Bft)
29.05.2017 08:28 20,6 °C 20,6 °C 60 % 1014,0 hPa 0,0 mm 0,0 km/h (0 Bft) O-NO 69 ° 1 min 0,000 mm 2,3 UV-I 406 W/m² 12,6 °C 20,6 °C 0,0 km/h (0 Bft)
29.05.2017 08:29 20,7 °C 20,7 °C 61 % 1014,1 hPa 0,0 mm 0,0 km/h (0 Bft) O-NO 69 ° 1 min 0,000 mm 2,4 UV-I 410 W/m² 12,9 °C 20,7 °C 0,0 km/h (0 Bft)
29.05.2017 08:30 20,8 °C 20,8 °C 65 % 1014,1 hPa 0,0 mm 0,0 km/h (0 Bft) O-NO 69 ° 1 min 0,000 mm 2,4 UV-I 411 W/m² 14,0 °C 20,8 °C 0,0 km/h (0 Bft)
29.05.2017 08:31 20,9 °C 20,9 °C 62 % 1014,1 hPa 0,0 mm 0,0 km/h (0 Bft) O-NO 69 ° 1 min 0,000 mm 2,4 UV-I 415 W/m² 13,3 °C 20,9 °C 0,0 km/h (0 Bft)
29.05.2017 08:32 20,9 °C 20,9 °C 63 % 1014,0 hPa 0,0 mm 0,1 km/h (0 Bft) O-NO 69 ° 1 min 0,000 mm 2,4 UV-I 417 W/m² 13,6 °C 20,9 °C 1,6 km/h (1 Bft)
29.05.2017 08:33 21,1 °C 21,1 °C 61 % 1014,0 hPa 0,0 mm 0,0 km/h (0 Bft) O-NO 69 ° 1 min 0,000 mm 2,4 UV-I 422 W/m² 13,3 °C 21,1 °C 0,0 km/h (0 Bft)
29.05.2017 08:34 21,1 °C 21,1 °C 65 % 1014,0 hPa 0,0 mm 0,0 km/h (0 Bft) O-NO 69 ° 1 min 0,000 mm 2,5 UV-I 424 W/m² 14,3 °C 21,1 °C 0,0 km/h (0 Bft)
29.05.2017 08:35 21,2 °C 21,2 °C 64 % 1014,0 hPa 0,0 mm 0,1 km/h (0 Bft) O-NO 69 ° 1 min 0,000 mm 2,5 UV-I 427 W/m² 14,1 °C 21,2 °C 1,6 km/h (1 Bft)
29.05.2017 08:36 21,3 °C 21,3 °C 61 % 1014,0 hPa 0,0 mm 0,0 km/h (0 Bft) O-NO 69 ° 1 min 0,000 mm 2,5 UV-I 429 W/m² 13,5 °C 21,3 °C 0,0 km/h (0 Bft)
29.05.2017 08:37 21,3 °C 21,3 °C 60 % 1014,0 hPa 0,0 mm 0,0 km/h (0 Bft) O-NO 69 ° 1 min 0,000 mm 2,6 UV-I 432 W/m² 13,2 °C 21,3 °C 0,0 km/h (0 Bft)
29.05.2017 08:38 21,4 °C 21,4 °C 64 % 1014,0 hPa 0,0 mm 0,0 km/h (0 Bft) O-NO 69 ° 1 min 0,000 mm 2,6 UV-I 438 W/m² 14,3 °C 21,4 °C 0,0 km/h (0 Bft)
29.05.2017 08:39 21,5 °C 21,5 °C 60 % 1014,0 hPa 0,0 mm 0,0 km/h (0 Bft) O-NO 69 ° 1 min 0,000 mm 2,6 UV-I 439 W/m² 13,4 °C 21,5 °C 0,0 km/h (0 Bft)
29.05.2017 08:40 21,6 °C 21,6 °C 57 % 1014,0 hPa 0,0 mm 0,0 km/h (0 Bft) O-NO 69 ° 1 min 0,000 mm 2,6 UV-I 441 W/m² 12,7 °C 21,6 °C 0,0 km/h (0 Bft)
29.05.2017 08:41 21,7 °C 21,7 °C 58 % 1014,0 hPa 0,0 mm 0,0 km/h (0 Bft) O-NO 69 ° 1 min 0,000 mm 2,6 UV-I 445 W/m² 13,1 °C 21,7 °C 0,0 km/h (0 Bft)
29.05.2017 08:42 21,7 °C 21,7 °C 61 % 1014,0 hPa 0,0 mm 0,0 km/h (0 Bft) O-NO 69 ° 1 min 0,000 mm 2,7 UV-I 446 W/m² 13,8 °C 21,7 °C 0,0 km/h (0 Bft)
29.05.2017 08:43 21,7 °C 21,7 °C 57 % 1014,0 hPa 0,0 mm 0,0 km/h (0 Bft) O-NO 69 ° 1 min 0,000 mm 2,7 UV-I 448 W/m² 12,8 °C 21,7 °C 0,0 km/h (0 Bft)
29.05.2017 08:44 21,7 °C 21,7 °C 58 % 1014,0 hPa 0,0 mm 0,0 km/h (0 Bft) O-NO 69 ° 1 min 0,000 mm 2,7 UV-I 455 W/m² 13,1 °C 21,7 °C 0,0 km/h (0 Bft)
29.05.2017 08:45 21,7 °C 21,7 °C 56 % 1014,0 hPa 0,0 mm 0,3 km/h (0 Bft) O-NO 69 ° 1 min 0,000 mm 2,7 UV-I 457 W/m² 12,5 °C 21,7 °C 1,6 km/h (1 Bft)
29.05.2017 08:46 21,7 °C 21,7 °C 59 % 1014,0 hPa 0,0 mm 0,0 km/h (0 Bft) O-NO 69 ° 1 min 0,000 mm 2,8 UV-I 459 W/m² 13,3 °C 21,7 °C 0,0 km/h (0 Bft)
29.05.2017 08:47 21,8 °C 21,8 °C 66 % 1014,0 hPa 0,0 mm 0,1 km/h (0 Bft) O-NO 69 ° 1 min 0,000 mm 2,8 UV-I 461 W/m² 15,2 °C 21,8 °C 1,6 km/h (1 Bft)
29.05.2017 08:48 21,9 °C 21,9 °C 63 % 1014,1 hPa 0,0 mm 0,0 km/h (0 Bft) O-NO 69 ° 1 min 0,000 mm 2,8 UV-I 464 W/m² 14,5 °C 21,9 °C 0,0 km/h (0 Bft)
29.05.2017 08:49 22,0 °C 22,0 °C 62 % 1014,0 hPa 0,0 mm 0,0 km/h (0 Bft) O-NO 69 ° 1 min 0,000 mm 2,8 UV-I 466 W/m² 14,4 °C 22,0 °C 0,0 km/h (0 Bft)
29.05.2017 08:50 22,0 °C 22,1 °C 61 % 1014,0 hPa 0,0 mm 0,0 km/h (0 Bft) O-NO 69 ° 1 min 0,000 mm 2,8 UV-I 471 W/m² 14,1 °C 22,0 °C 0,0 km/h (0 Bft)
29.05.2017 08:51 22,1 °C 22,1 °C 64 % 1014,0 hPa 0,0 mm 0,0 km/h (0 Bft) O-NO 69 ° 1 min 0,000 mm 2,9 UV-I 473 W/m² 15,0 °C 22,1 °C 0,0 km/h (0 Bft)
29.05.2017 08:52 22,2 °C 22,2 °C 59 % 1014,0 hPa 0,0 mm 0,0 km/h (0 Bft) O-NO 69 ° 1 min 0,000 mm 2,9 UV-I 476 W/m² 13,8 °C 22,2 °C 0,0 km/h (0 Bft)
29.05.2017 08:53 22,3 °C 22,3 °C 60 % 1014,0 hPa 0,0 mm 0,0 km/h (0 Bft) O-NO 69 ° 1 min 0,000 mm 2,9 UV-I 478 W/m² 14,2 °C 22,3 °C 0,0 km/h (0 Bft)
29.05.2017 08:54 22,4 °C 22,4 °C 60 % 1014,0 hPa 0,0 mm 0,0 km/h (0 Bft) O-NO 69 ° 1 min 0,000 mm 2,9 UV-I 480 W/m² 14,2 °C 22,4 °C 0,0 km/h (0 Bft)
29.05.2017 08:55 22,6 °C 22,6 °C 55 % 1014,0 hPa 0,0 mm 0,0 km/h (0 Bft) O-NO 69 ° 1 min 0,000 mm 3,0 UV-I 483 W/m² 13,1 °C 22,6 °C 0,0 km/h (0 Bft)
29.05.2017 08:56 22,6 °C 22,6 °C 59 % 1013,9 hPa 0,0 mm 0,0 km/h (0 Bft) O-NO 69 ° 1 min 0,000 mm 3,0 UV-I 487 W/m² 14,2 °C 22,6 °C 0,0 km/h (0 Bft)
29.05.2017 08:57 22,5 °C 22,6 °C 55 % 1013,9 hPa 0,0 mm 0,0 km/h (0 Bft) O-NO 69 ° 1 min 0,000 mm 3,0 UV-I 490 W/m² 13,0 °C 22,5 °C 0,0 km/h (0 Bft)
29.05.2017 08:58 22,4 °C 22,5 °C 59 % 1013,9 hPa 0,0 mm 0,0 km/h (0 Bft) O-NO 69 ° 1 min 0,000 mm 3,1 UV-I 492 W/m² 14,0 °C 22,4 °C 0,0 km/h (0 Bft)
29.05.2017 08:59 22,4 °C 22,4 °C 58 % 1013,9 hPa 0,0 mm 0,0 km/h (0 Bft) O-NO 69 ° 1 min 0,000 mm 3,1 UV-I 496 W/m² 13,7 °C 22,4 °C 0,0 km/h (0 Bft)
29.05.2017 09:00 22,4 °C 22,4 °C 55 % 1013,9 hPa 0,0 mm 0,0 km/h (0 Bft) O-NO 69 ° 1 min 0,000 mm 3,1 UV-I 497 W/m² 12,9 °C 22,4 °C 0,0 km/h (0 Bft)
29.05.2017 09:01 22,4 °C 22,4 °C 55 % 1013,9 hPa 0,0 mm 0,0 km/h (0 Bft) O-NO 69 ° 1 min 0,229 mm 3,1 UV-I 501 W/m² 12,9 °C 22,4 °C 0,0 km/h (0 Bft)
29.05.2017 09:03 22,6 °C 22,6 °C 54 % 1013,8 hPa 0,0 mm 0,0 km/h (0 Bft) O-NO 69 ° 2 min 0,000 mm 3,2 UV-I 506 W/m² 12,8 °C 22,6 °C 0,0 km/h (0 Bft)
29.05.2017 09:04 22,6 °C 22,6 °C 56 % 1013,9 hPa 0,0 mm 0,0 km/h (0 Bft) O-NO 69 ° 1 min 0,000 mm 3,2 UV-I 510 W/m² 13,4 °C 22,6 °C 0,0 km/h (0 Bft)
29.05.2017 09:05 22,6 °C 22,6 °C 55 % 1013,8 hPa 0,0 mm 0,0 km/h (0 Bft) O-NO 69 ° 1 min 0,000 mm 3,2 UV-I 512 W/m² 13,1 °C 22,6 °C 0,0 km/h (0 Bft)
29.05.2017 09:06 22,6 °C 22,6 °C 54 % 1013,8 hPa 0,0 mm 0,0 km/h (0 Bft) O-NO 69 ° 1 min 0,000 mm 3,2 UV-I 515 W/m² 12,8 °C 22,6 °C 0,0 km/h (0 Bft)
29.05.2017 09:07 22,8 °C 22,8 °C 59 % 1013,8 hPa 0,0 mm 0,0 km/h (0 Bft) O-NO 69 ° 1 min 0,000 mm 3,3 UV-I 519 W/m² 14,4 °C 22,8 °C 0,0 km/h (0 Bft)
29.05.2017 09:08 22,9 °C 22,9 °C 59 % 1013,8 hPa 0,0 mm 0,0 km/h (0 Bft) O-NO 69 ° 1 min 0,000 mm 3,3 UV-I 520 W/m² 14,5 °C 22,9 °C 0,0 km/h (0 Bft)
29.05.2017 09:09 23,1 °C 23,1 °C 58 % 1013,8 hPa 0,0 mm 0,7 km/h (0 Bft) O-NO 69 ° 1 min 0,000 mm 3,3 UV-I 522 W/m² 14,4 °C 23,1 °C 3,2 km/h (1 Bft)
29.05.2017 09:10 23,3 °C 23,3 °C 54 % 1013,8 hPa 0,0 mm 0,7 km/h (0 Bft) O-NO 69 ° 1 min 0,000 mm 3,3 UV-I 526 W/m² 13,5 °C 23,3 °C 3,2 km/h (1 Bft)
29.05.2017 09:11 23,3 °C 23,3 °C 54 % 1013,8 hPa 0,0 mm 0,0 km/h (0 Bft) O-NO 69 ° 1 min 0,000 mm 3,4 UV-I 527 W/m² 13,5 °C 23,3 °C 0,0 km/h (0 Bft)
29.05.2017 09:12 23,3 °C 23,3 °C 56 % 1013,7 hPa 0,0 mm 1,0 km/h (0 Bft) O-NO 69 ° 1 min 0,000 mm 3,4 UV-I 529 W/m² 14,0 °C 23,3 °C 3,2 km/h (1 Bft)
29.05.2017 09:13 23,2 °C 23,3 °C 56 % 1013,8 hPa 0,0 mm 1,8 km/h (1 Bft) O-NO 69 ° 1 min 0,000 mm 3,4 UV-I 531 W/m² 13,9 °C 23,2 °C 3,2 km/h (1 Bft)
29.05.2017 09:14 23,2 °C 23,2 °C 53 % 1013,8 hPa 0,0 mm 0,3 km/h (0 Bft) O-NO 69 ° 1 min 0,000 mm 3,4 UV-I 536 W/m² 13,1 °C 23,2 °C 1,6 km/h (1 Bft)
29.05.2017 09:15 23,3 °C 23,3 °C 59 % 1013,8 hPa 0,0 mm 0,0 km/h (0 Bft) O-NO 69 ° 1 min 0,000 mm 3,5 UV-I 538 W/m² 14,8 °C 23,3 °C 0,0 km/h (0 Bft)
29.05.2017 09:16 23,4 °C 23,4 °C 57 % 1013,8 hPa 0,0 mm 1,3 km/h (1 Bft) O-NO 69 ° 1 min 0,000 mm 3,5 UV-I 541 W/m² 14,4 °C 23,4 °C 3,2 km/h (1 Bft)
29.05.2017 09:17 23,3 °C 23,4 °C 56 % 1013,8 hPa 0,0 mm 2,1 km/h (1 Bft) O-NO 69 ° 1 min 0,000 mm 3,5 UV-I 543 W/m² 14,0 °C 23,3 °C 3,2 km/h (1 Bft)
29.05.2017 09:18 23,3 °C 23,3 °C 57 % 1013,8 hPa 0,0 mm 2,4 km/h (1 Bft) O-NO 69 ° 1 min 0,000 mm 3,5 UV-I 547 W/m² 14,3 °C 23,3 °C 3,2 km/h (1 Bft)
29.05.2017 09:19 23,3 °C 23,3 °C 60 % 1013,8 hPa 0,0 mm 1,8 km/h (1 Bft) O-NO 69 ° 1 min 0,000 mm 3,6 UV-I 550 W/m² 15,1 °C 23,3 °C 3,2 km/h (1 Bft)
29.05.2017 09:20 23,3 °C 23,3 °C 55 % 1013,7 hPa 0,0 mm 0,5 km/h (0 Bft) O-NO 69 ° 1 min 0,000 mm 3,6 UV-I 552 W/m² 13,7 °C 23,3 °C 1,6 km/h (1 Bft)
29.05.2017 09:21 23,2 °C 23,3 °C 59 % 1013,8 hPa 0,0 mm 1,4 km/h (1 Bft) O-NO 69 ° 1 min 0,000 mm 3,6 UV-I 555 W/m² 14,7 °C 23,2 °C 3,2 km/h (1 Bft)
29.05.2017 09:22 23,3 °C 23,3 °C 59 % 1013,8 hPa 0,0 mm 0,9 km/h (0 Bft) O-NO 69 ° 1 min 0,000 mm 3,7 UV-I 557 W/m² 14,8 °C 23,3 °C 3,2 km/h (1 Bft)
29.05.2017 09:23 23,3 °C 23,3 °C 66 % 1013,7 hPa 0,0 mm 0,4 km/h (0 Bft) O-NO 69 ° 1 min 0,000 mm 3,7 UV-I 561 W/m² 16,6 °C 23,3 °C 1,6 km/h (1 Bft)
29.05.2017 09:24 23,3 °C 23,3 °C 52 % 1013,7 hPa 0,0 mm 1,3 km/h (1 Bft) O-NO 69 ° 1 min 0,000 mm 3,7 UV-I 563 W/m² 12,9 °C 23,3 °C 3,2 km/h (1 Bft)
29.05.2017 09:25 23,3 °C 23,3 °C 55 % 1013,8 hPa 0,0 mm 1,1 km/h (1 Bft) O-NO 69 ° 1 min 0,000 mm 3,7 UV-I 568 W/m² 13,7 °C 23,3 °C 1,6 km/h (1 Bft)
29.05.2017 09:26 23,4 °C 23,4 °C 52 % 1013,7 hPa 0,0 mm 0,4 km/h (0 Bft) O-NO 69 ° 1 min 0,000 mm 3,8 UV-I 568 W/m² 13,0 °C 23,4 °C 1,6 km/h (1 Bft)
29.05.2017 09:27 23,4 °C 23,5 °C 62 % 1013,8 hPa 0,0 mm 1,8 km/h (1 Bft) O-NO 67 ° 1 min 0,000 mm 3,8 UV-I 571 W/m² 15,7 °C 23,4 °C 3,2 km/h (1 Bft)
29.05.2017 09:28 23,6 °C 23,6 °C 59 % 1013,8 hPa 0,0 mm 2,1 km/h (1 Bft) O-NO 67 ° 1 min 0,000 mm 3,8 UV-I 571 W/m² 15,1 °C 23,6 °C 3,2 km/h (1 Bft)
29.05.2017 09:29 23,6 °C 23,6 °C 59 % 1013,7 hPa 0,0 mm 1,5 km/h (1 Bft) O-NO 67 ° 1 min 0,000 mm 3,8 UV-I 571 W/m² 15,1 °C 23,6 °C 3,2 km/h (1 Bft)
29.05.2017 09:30 23,7 °C 23,7 °C 52 % 1013,7 hPa 0,0 mm 2,1 km/h (1 Bft) O-NO 67 ° 1 min 0,000 mm 3,8 UV-I 578 W/m² 13,2 °C 23,7 °C 3,2 km/h (1 Bft)
29.05.2017 09:31 23,8 °C 23,8 °C 51 % 1013,8 hPa 0,0 mm 1,1 km/h (1 Bft) O-NO 67 ° 1 min 0,000 mm 3,9 UV-I 582 W/m² 13,0 °C 23,8 °C 3,2 km/h (1 Bft)
29.05.2017 09:32 24,0 °C 24,0 °C 56 % 1013,8 hPa 0,0 mm 2,0 km/h (1 Bft) O-NO 67 ° 1 min 0,000 mm 3,9 UV-I 584 W/m² 14,7 °C 24,0 °C 3,2 km/h (1 Bft)
29.05.2017 09:33 24,1 °C 24,1 °C 51 % 1013,8 hPa 0,0 mm 4,8 km/h (1 Bft) N 9 ° 1 min 0,000 mm 3,9 UV-I 585 W/m² 13,3 °C 24,1 °C 6,4 km/h (2 Bft)
29.05.2017 09:34 24,2 °C 24,2 °C 48 % 1013,8 hPa 0,0 mm 2,7 km/h (1 Bft) N 9 ° 1 min 0,000 mm 4,0 UV-I 587 W/m² 12,5 °C 24,2 °C 3,2 km/h (1 Bft)
29.05.2017 09:35 24,3 °C 24,3 °C 54 % 1013,7 hPa 0,0 mm 1,3 km/h (1 Bft) N 9 ° 1 min 0,000 mm 4,0 UV-I 591 W/m² 14,4 °C 24,3 °C 3,2 km/h (1 Bft)
29.05.2017 09:36 24,3 °C 24,3 °C 51 % 1013,7 hPa 0,0 mm 0,1 km/h (0 Bft) N 9 ° 1 min 0,000 mm 4,0 UV-I 592 W/m² 13,5 °C 24,3 °C 1,6 km/h (1 Bft)
29.05.2017 09:37 24,4 °C 24,4 °C 50 % 1013,7 hPa 0,0 mm 0,7 km/h (0 Bft) N 9 ° 1 min 0,000 mm 4,0 UV-I 596 W/m² 13,3 °C 24,4 °C 1,6 km/h (1 Bft)
29.05.2017 09:38 24,5 °C 24,5 °C 48 % 1013,7 hPa 0,0 mm 1,5 km/h (1 Bft) N 9 ° 1 min 0,000 mm 4,0 UV-I 598 W/m² 12,8 °C 24,5 °C 3,2 km/h (1 Bft)
29.05.2017 09:39 24,6 °C 24,6 °C 50 % 1013,7 hPa 0,0 mm 1,5 km/h (1 Bft) N 9 ° 1 min 0,000 mm 4,1 UV-I 601 W/m² 13,5 °C 24,6 °C 1,6 km/h (1 Bft)
29.05.2017 09:40 24,6 °C 24,6 °C 47 % 1013,7 hPa 0,0 mm 1,5 km/h (1 Bft) N 9 ° 1 min 0,000 mm 4,1 UV-I 601 W/m² 12,5 °C 24,6 °C 3,2 km/h (1 Bft)
29.05.2017 09:41 24,4 °C 24,6 °C 46 % 1013,7 hPa 0,0 mm 0,8 km/h (0 Bft) N 9 ° 1 min 0,000 mm 4,1 UV-I 605 W/m² 12,0 °C 24,4 °C 1,6 km/h (1 Bft)
29.05.2017 09:42 24,3 °C 24,4 °C 55 % 1013,7 hPa 0,0 mm 3,4 km/h (1 Bft) N 9 ° 1 min 0,000 mm 4,1 UV-I 606 W/m² 14,7 °C 24,3 °C 4,8 km/h (1 Bft)
29.05.2017 09:43 24,3 °C 24,3 °C 46 % 1013,7 hPa 0,0 mm 1,9 km/h (1 Bft) NO 50 ° 1 min 0,000 mm 4,2 UV-I 612 W/m² 11,9 °C 24,3 °C 3,2 km/h (1 Bft)
29.05.2017 09:44 24,4 °C 24,4 °C 47 % 1013,7 hPa 0,0 mm 5,5 km/h (1 Bft) NO 40 ° 1 min 0,000 mm 4,2 UV-I 613 W/m² 12,3 °C 24,4 °C 8,0 km/h (2 Bft)
29.05.2017 09:45 24,6 °C 24,6 °C 51 % 1013,7 hPa 0,0 mm 2,1 km/h (1 Bft) NO 55 ° 1 min 0,000 mm 4,2 UV-I 615 W/m² 13,8 °C 24,6 °C 4,8 km/h (1 Bft)
29.05.2017 09:46 24,6 °C 24,6 °C 51 % 1013,7 hPa 0,0 mm 3,3 km/h (1 Bft) NO 56 ° 1 min 0,000 mm 4,2 UV-I 617 W/m² 13,8 °C 24,6 °C 4,8 km/h (1 Bft)
29.05.2017 09:47 24,5 °C 24,6 °C 49 % 1013,7 hPa 0,0 mm 4,6 km/h (1 Bft) O 81 ° 1 min 0,000 mm 4,2 UV-I 621 W/m² 13,1 °C 24,5 °C 6,4 km/h (2 Bft)
29.05.2017 09:48 24,4 °C 24,5 °C 49 % 1013,7 hPa 0,0 mm 3,6 km/h (1 Bft) N-NO 30 ° 1 min 0,000 mm 4,3 UV-I 621 W/m² 13,0 °C 24,4 °C 4,8 km/h (1 Bft)
29.05.2017 09:49 24,4 °C 24,4 °C 47 % 1013,7 hPa 0,0 mm 5,8 km/h (2 Bft) N 355 ° 1 min 0,000 mm 4,3 UV-I 624 W/m² 12,3 °C 24,4 °C 8,0 km/h (2 Bft)
29.05.2017 09:50 24,5 °C 24,5 °C 45 % 1013,7 hPa 0,0 mm 3,5 km/h (1 Bft) N 355 ° 1 min 0,000 mm 4,3 UV-I 628 W/m² 11,8 °C 24,5 °C 4,8 km/h (1 Bft)
29.05.2017 09:51 24,6 °C 24,6 °C 51 % 1013,7 hPa 0,0 mm 0,7 km/h (0 Bft) N 355 ° 1 min 0,000 mm 4,4 UV-I 629 W/m² 13,8 °C 24,6 °C 3,2 km/h (1 Bft)
29.05.2017 09:52 24,7 °C 24,7 °C 50 % 1013,6 hPa 0,0 mm 2,2 km/h (1 Bft) NO 53 ° 1 min 0,000 mm 4,4 UV-I 631 W/m² 13,6 °C 24,7 °C 6,4 km/h (2 Bft)
29.05.2017 09:53 24,8 °C 24,8 °C 45 % 1013,6 hPa 0,0 mm 4,2 km/h (1 Bft) NO 44 ° 1 min 0,000 mm 4,4 UV-I 633 W/m² 12,0 °C 24,8 °C 6,4 km/h (2 Bft)
29.05.2017 09:54 24,8 °C 24,8 °C 46 % 1013,6 hPa 0,0 mm 1,7 km/h (1 Bft) NO 44 ° 1 min 0,000 mm 4,4 UV-I 635 W/m² 12,4 °C 24,8 °C 3,2 km/h (1 Bft)
29.05.2017 09:55 24,7 °C 24,8 °C 48 % 1013,7 hPa 0,0 mm 2,0 km/h (1 Bft) N-NO 24 ° 1 min 0,000 mm 4,4 UV-I 640 W/m² 12,9 °C 24,7 °C 4,8 km/h (1 Bft)
29.05.2017 09:56 24,7 °C 24,7 °C 46 % 1013,6 hPa 0,0 mm 0,7 km/h (0 Bft) N-NO 24 ° 1 min 0,000 mm 4,5 UV-I 642 W/m² 12,3 °C 24,7 °C 3,2 km/h (1 Bft)
29.05.2017 09:57 24,8 °C 24,8 °C 53 % 1013,6 hPa 0,0 mm 2,8 km/h (1 Bft) N-NO 24 ° 1 min 0,000 mm 4,5 UV-I 643 W/m² 14,6 °C 24,8 °C 3,2 km/h (1 Bft)
29.05.2017 09:58 24,8 °C 24,8 °C 45 % 1013,6 hPa 0,0 mm 2,4 km/h (1 Bft) N-NO 24 ° 1 min 0,000 mm 4,5 UV-I 643 W/m² 12,0 °C 24,8 °C 3,2 km/h (1 Bft)
29.05.2017 09:59 24,9 °C 24,9 °C 45 % 1013,6 hPa 0,0 mm 1,0 km/h (0 Bft) N-NO 24 ° 1 min 0,000 mm 4,5 UV-I 645 W/m² 12,1 °C 24,9 °C 3,2 km/h (1 Bft)
29.05.2017 10:00 24,9 °C 24,9 °C 46 % 1013,6 hPa 0,0 mm 3,7 km/h (1 Bft) O-NO 59 ° 1 min 0,381 mm 4,6 UV-I 649 W/m² 12,5 °C 24,9 °C 8,0 km/h (2 Bft)
29.05.2017 10:01 25,0 °C 25,0 °C 49 % 1013,7 hPa 0,0 mm 5,6 km/h (1 Bft) O-SO 105 ° 1 min 0,000 mm 4,6 UV-I 650 W/m² 13,5 °C 25,0 °C 8,0 km/h (2 Bft)
29.05.2017 10:02 24,9 °C 25,0 °C 46 % 1013,6 hPa 0,0 mm 3,1 km/h (1 Bft) O-NO 71 ° 1 min 0,000 mm 4,6 UV-I 654 W/m² 12,5 °C 24,9 °C 6,4 km/h (2 Bft)
29.05.2017 10:03 24,8 °C 24,9 °C 45 % 1013,6 hPa 0,0 mm 4,5 km/h (1 Bft) NO 42 ° 1 min 0,000 mm 4,6 UV-I 656 W/m² 12,0 °C 24,8 °C 6,4 km/h (2 Bft)
29.05.2017 10:04 24,9 °C 24,9 °C 45 % 1013,6 hPa 0,0 mm 4,0 km/h (1 Bft) O-NO 67 ° 1 min 0,000 mm 4,7 UV-I 659 W/m² 12,1 °C 24,9 °C 6,4 km/h (2 Bft)
29.05.2017 10:05 24,9 °C 24,9 °C 47 % 1013,6 hPa 0,0 mm 2,3 km/h (1 Bft) O-NO 67 ° 1 min 0,000 mm 4,7 UV-I 661 W/m² 12,8 °C 24,9 °C 4,8 km/h (1 Bft)
29.05.2017 10:06 24,8 °C 24,9 °C 48 % 1013,6 hPa 0,0 mm 0,7 km/h (0 Bft) O-NO 67 ° 1 min 0,000 mm 4,7 UV-I 664 W/m² 13,0 °C 24,8 °C 4,8 km/h (1 Bft)
29.05.2017 10:07 24,8 °C 24,8 °C 52 % 1013,6 hPa 0,0 mm 2,2 km/h (1 Bft) O-NO 67 ° 1 min 0,000 mm 4,8 UV-I 668 W/m² 14,3 °C 24,8 °C 4,8 km/h (1 Bft)
29.05.2017 10:08 24,8 °C 24,8 °C 51 % 1013,7 hPa 0,0 mm 0,5 km/h (0 Bft) O-NO 67 ° 1 min 0,000 mm 4,8 UV-I 668 W/m² 14,0 °C 24,8 °C 1,6 km/h (1 Bft)
29.05.2017 10:09 24,8 °C 24,8 °C 46 % 1013,6 hPa 0,0 mm 0,0 km/h (0 Bft) O-NO 67 ° 1 min 0,000 mm 4,8 UV-I 671 W/m² 12,4 °C 24,8 °C 0,0 km/h (0 Bft)
29.05.2017 10:10 24,7 °C 24,8 °C 49 % 1013,6 hPa 0,0 mm 1,7 km/h (1 Bft) O-NO 67 ° 1 min 0,000 mm 4,8 UV-I 673 W/m² 13,3 °C 24,7 °C 3,2 km/h (1 Bft)
29.05.2017 10:11 24,7 °C 24,8 °C 48 % 1013,7 hPa 0,0 mm 0,9 km/h (0 Bft) O-NO 67 ° 1 min 0,000 mm 4,8 UV-I 675 W/m² 12,9 °C 24,7 °C 3,2 km/h (1 Bft)
29.05.2017 10:12 24,7 °C 24,7 °C 48 % 1013,7 hPa 0,0 mm 0,2 km/h (0 Bft) O-NO 67 ° 1 min 0,000 mm 4,9 UV-I 679 W/m² 12,9 °C 24,7 °C 1,6 km/h (1 Bft)
29.05.2017 10:13 24,7 °C 24,7 °C 49 % 1013,7 hPa 0,0 mm 3,0 km/h (1 Bft) O-NO 70 ° 1 min 0,000 mm 4,9 UV-I 682 W/m² 13,3 °C 24,7 °C 6,4 km/h (2 Bft)
29.05.2017 10:14 24,8 °C 24,8 °C 50 % 1013,7 hPa 0,0 mm 3,6 km/h (1 Bft) O 92 ° 1 min 0,000 mm 4,9 UV-I 682 W/m² 13,7 °C 24,8 °C 6,4 km/h (2 Bft)
29.05.2017 10:15 24,8 °C 24,8 °C 48 % 1013,7 hPa 0,0 mm 1,5 km/h (1 Bft) O 92 ° 1 min 0,000 mm 4,9 UV-I 684 W/m² 13,0 °C 24,8 °C 3,2 km/h (1 Bft)
29.05.2017 10:16 24,8 °C 24,8 °C 45 % 1013,6 hPa 0,0 mm 2,2 km/h (1 Bft) NO 47 ° 1 min 0,000 mm 4,9 UV-I 687 W/m² 12,0 °C 24,8 °C 4,8 km/h (1 Bft)
29.05.2017 10:17 24,7 °C 24,8 °C 45 % 1013,7 hPa 0,0 mm 4,8 km/h (1 Bft) N-NO 19 ° 1 min 0,000 mm 5,0 UV-I 687 W/m² 12,0 °C 24,7 °C 6,4 km/h (2 Bft)
29.05.2017 10:18 24,8 °C 24,8 °C 48 % 1013,6 hPa 0,0 mm 6,8 km/h (2 Bft) NO 53 ° 1 min 0,000 mm 5,0 UV-I 691 W/m² 13,0 °C 24,8 °C 9,7 km/h (2 Bft)
29.05.2017 10:19 24,9 °C 24,9 °C 49 % 1013,6 hPa 0,0 mm 8,2 km/h (2 Bft) NO 40 ° 1 min 0,000 mm 5,0 UV-I 694 W/m² 13,4 °C 24,9 °C 11,3 km/h (2 Bft)
29.05.2017 10:20 24,9 °C 24,9 °C 48 % 1013,7 hPa 0,0 mm 4,8 km/h (1 Bft) O 88 ° 1 min 0,000 mm 5,0 UV-I 698 W/m² 13,1 °C 24,9 °C 11,3 km/h (2 Bft)
29.05.2017 10:21 24,9 °C 25,0 °C 49 % 1013,7 hPa 0,0 mm 4,4 km/h (1 Bft) O-NO 61 ° 1 min 0,000 mm 5,1 UV-I 700 W/m² 13,4 °C 24,9 °C 9,7 km/h (2 Bft)
29.05.2017 10:22 25,0 °C 25,0 °C 46 % 1013,6 hPa 0,0 mm 2,9 km/h (1 Bft) O-NO 71 ° 1 min 0,000 mm 5,1 UV-I 701 W/m² 12,6 °C 25,0 °C 4,8 km/h (1 Bft)
29.05.2017 10:23 25,0 °C 25,0 °C 47 % 1013,6 hPa 0,0 mm 2,7 km/h (1 Bft) O-NO 69 ° 1 min 0,000 mm 5,1 UV-I 701 W/m² 12,9 °C 25,0 °C 3,2 km/h (1 Bft)
29.05.2017 10:24 25,1 °C 25,1 °C 49 % 1013,6 hPa 0,0 mm 6,0 km/h (2 Bft) NO 40 ° 1 min 0,000 mm 5,1 UV-I 707 W/m² 13,6 °C 25,1 °C 9,7 km/h (2 Bft)
29.05.2017 10:25 25,1 °C 25,1 °C 49 % 1013,7 hPa 0,0 mm 5,8 km/h (2 Bft) O-NO 65 ° 1 min 0,000 mm 5,2 UV-I 708 W/m² 13,6 °C 25,1 °C 8,0 km/h (2 Bft)
29.05.2017 10:26 25,1 °C 25,1 °C 47 % 1013,7 hPa 0,0 mm 4,0 km/h (1 Bft) NO 50 ° 1 min 0,000 mm 5,2 UV-I 708 W/m² 13,0 °C 25,1 °C 6,4 km/h (2 Bft)
29.05.2017 10:27 25,1 °C 25,1 °C 48 % 1013,7 hPa 0,0 mm 5,6 km/h (1 Bft) O-NO 70 ° 1 min 0,000 mm 5,2 UV-I 712 W/m² 13,3 °C 25,1 °C 9,7 km/h (2 Bft)
29.05.2017 10:28 24,9 °C 25,1 °C 50 % 1013,6 hPa 0,0 mm 2,9 km/h (1 Bft) NO 56 ° 1 min 0,000 mm 5,2 UV-I 714 W/m² 13,7 °C 24,9 °C 8,0 km/h (2 Bft)
29.05.2017 10:29 24,9 °C 24,9 °C 49 % 1013,7 hPa 0,0 mm 6,3 km/h (2 Bft) O-SO 115 ° 1 min 0,000 mm 5,2 UV-I 715 W/m² 13,4 °C 24,9 °C 11,3 km/h (2 Bft)
29.05.2017 10:30 24,9 °C 24,9 °C 48 % 1013,7 hPa 0,0 mm 5,6 km/h (1 Bft) O-SO 113 ° 1 min 0,000 mm 5,3 UV-I 719 W/m² 13,1 °C 24,9 °C 6,4 km/h (2 Bft)
29.05.2017 10:31 24,8 °C 24,9 °C 50 % 1013,6 hPa 0,0 mm 4,7 km/h (1 Bft) SO 136 ° 1 min 0,000 mm 5,3 UV-I 721 W/m² 13,7 °C 24,8 °C 8,0 km/h (2 Bft)
29.05.2017 10:32 24,7 °C 24,8 °C 47 % 1013,6 hPa 0,0 mm 6,0 km/h (2 Bft) O-NO 65 ° 1 min 0,000 mm 5,3 UV-I 722 W/m² 12,6 °C 24,7 °C 11,3 km/h (2 Bft)
29.05.2017 10:33 24,7 °C 24,7 °C 46 % 1013,6 hPa 0,0 mm 7,7 km/h (2 Bft) O 90 ° 1 min 0,000 mm 5,3 UV-I 724 W/m² 12,3 °C 24,7 °C 11,3 km/h (2 Bft)
29.05.2017 10:34 24,7 °C 24,7 °C 47 % 1013,6 hPa 0,0 mm 8,0 km/h (2 Bft) NO 47 ° 1 min 0,000 mm 5,4 UV-I 728 W/m² 12,6 °C 24,7 °C 12,9 km/h (3 Bft)
29.05.2017 10:35 24,7 °C 24,7 °C 47 % 1013,6 hPa 0,0 mm 3,6 km/h (1 Bft) O 89 ° 1 min 0,000 mm 5,4 UV-I 729 W/m² 12,6 °C 24,7 °C 4,8 km/h (1 Bft)
29.05.2017 10:36 24,8 °C 24,8 °C 52 % 1013,6 hPa 0,0 mm 1,6 km/h (1 Bft) SO 129 ° 1 min 0,000 mm 5,4 UV-I 733 W/m² 14,3 °C 24,8 °C 4,8 km/h (1 Bft)
29.05.2017 10:37 24,8 °C 24,8 °C 47 % 1013,6 hPa 0,0 mm 4,1 km/h (1 Bft) N-NO 28 ° 1 min 0,000 mm 5,5 UV-I 735 W/m² 12,7 °C 24,8 °C 9,7 km/h (2 Bft)
29.05.2017 10:38 24,8 °C 24,8 °C 46 % 1013,6 hPa 0,0 mm 6,9 km/h (2 Bft) NO 53 ° 1 min 0,000 mm 5,5 UV-I 737 W/m² 12,4 °C 24,8 °C 11,3 km/h (2 Bft)
29.05.2017 10:39 24,8 °C 24,8 °C 46 % 1013,6 hPa 0,0 mm 3,6 km/h (1 Bft) O 92 ° 1 min 0,000 mm 5,5 UV-I 738 W/m² 12,4 °C 24,8 °C 6,4 km/h (2 Bft)
29.05.2017 10:40 24,7 °C 24,8 °C 45 % 1013,7 hPa 0,0 mm 6,5 km/h (2 Bft) SO 146 ° 1 min 0,000 mm 5,5 UV-I 742 W/m² 12,0 °C 24,7 °C 11,3 km/h (2 Bft)
29.05.2017 10:41 24,6 °C 24,7 °C 44 % 1013,6 hPa 0,0 mm 3,7 km/h (1 Bft) SO 145 ° 1 min 0,000 mm 5,5 UV-I 744 W/m² 11,5 °C 24,6 °C 4,8 km/h (1 Bft)
29.05.2017 10:42 24,6 °C 24,6 °C 44 % 1013,6 hPa 0,0 mm 4,1 km/h (1 Bft) NO 49 ° 1 min 0,000 mm 5,6 UV-I 745 W/m² 11,5 °C 24,6 °C 6,4 km/h (2 Bft)
29.05.2017 10:43 24,6 °C 24,6 °C 50 % 1013,6 hPa 0,0 mm 2,7 km/h (1 Bft) O-NO 57 ° 1 min 0,000 mm 5,6 UV-I 745 W/m² 13,5 °C 24,6 °C 4,8 km/h (1 Bft)
29.05.2017 10:44 24,7 °C 24,7 °C 46 % 1013,6 hPa 0,0 mm 5,2 km/h (1 Bft) NO 47 ° 1 min 0,000 mm 5,6 UV-I 747 W/m² 12,3 °C 24,7 °C 9,7 km/h (2 Bft)
29.05.2017 10:45 24,8 °C 24,8 °C 47 % 1013,6 hPa 0,0 mm 5,8 km/h (2 Bft) NO 55 ° 1 min 0,000 mm 5,6 UV-I 751 W/m² 12,7 °C 24,8 °C 8,0 km/h (2 Bft)
29.05.2017 10:46 24,9 °C 24,9 °C 44 % 1013,6 hPa 0,0 mm 5,0 km/h (1 Bft) O-SO 120 ° 1 min 0,000 mm 5,6 UV-I 751 W/m² 11,8 °C 24,9 °C 8,0 km/h (2 Bft)
29.05.2017 10:47 25,1 °C 25,1 °C 45 % 1013,6 hPa 0,0 mm 3,7 km/h (1 Bft) O-NO 69 ° 1 min 0,000 mm 5,6 UV-I 752 W/m² 12,3 °C 25,1 °C 6,4 km/h (2 Bft)
29.05.2017 10:48 25,0 °C 25,1 °C 44 % 1013,6 hPa 0,0 mm 2,7 km/h (1 Bft) O 83 ° 1 min 0,000 mm 5,7 UV-I 754 W/m² 11,9 °C 25,0 °C 6,4 km/h (2 Bft)
29.05.2017 10:49 25,0 °C 25,0 °C 43 % 1013,6 hPa 0,0 mm 4,8 km/h (1 Bft) O-NO 59 ° 1 min 0,000 mm 5,7 UV-I 756 W/m² 11,5 °C 25,0 °C 8,0 km/h (2 Bft)
29.05.2017 10:50 25,1 °C 25,1 °C 44 % 1013,6 hPa 0,0 mm 3,6 km/h (1 Bft) O 100 ° 1 min 0,000 mm 5,7 UV-I 758 W/m² 12,0 °C 25,1 °C 4,8 km/h (1 Bft)
29.05.2017 10:51 25,1 °C 25,1 °C 47 % 1013,6 hPa 0,0 mm 4,5 km/h (1 Bft) N-NO 30 ° 1 min 0,000 mm 5,7 UV-I 759 W/m² 13,0 °C 25,1 °C 4,8 km/h (1 Bft)
29.05.2017 10:52 25,1 °C 25,1 °C 46 % 1013,6 hPa 0,0 mm 6,4 km/h (2 Bft) N-NO 16 ° 1 min 0,000 mm 5,8 UV-I 761 W/m² 12,7 °C 25,1 °C 11,3 km/h (2 Bft)
29.05.2017 10:53 25,2 °C 25,2 °C 45 % 1013,6 hPa 0,0 mm 6,1 km/h (2 Bft) O-NO 62 ° 1 min 0,000 mm 5,8 UV-I 766 W/m² 12,4 °C 25,2 °C 9,7 km/h (2 Bft)
29.05.2017 10:54 25,1 °C 25,2 °C 44 % 1013,6 hPa 0,0 mm 3,6 km/h (1 Bft) NO 43 ° 1 min 0,000 mm 5,8 UV-I 768 W/m² 12,0 °C 25,1 °C 6,4 km/h (2 Bft)
29.05.2017 10:55 25,2 °C 25,2 °C 44 % 1013,6 hPa 0,0 mm 5,5 km/h (1 Bft) O-NO 78 ° 1 min 0,000 mm 5,8 UV-I 770 W/m² 12,1 °C 25,2 °C 11,3 km/h (2 Bft)
29.05.2017 10:56 25,1 °C 25,2 °C 42 % 1013,6 hPa 0,0 mm 3,7 km/h (1 Bft) O 79 ° 1 min 0,000 mm 5,9 UV-I 770 W/m² 11,3 °C 25,1 °C 8,0 km/h (2 Bft)
29.05.2017 10:57 25,0 °C 25,1 °C 45 % 1013,6 hPa 0,0 mm 6,0 km/h (2 Bft) NO 56 ° 1 min 0,000 mm 5,9 UV-I 772 W/m² 12,2 °C 25,0 °C 9,7 km/h (2 Bft)
29.05.2017 10:58 24,9 °C 25,0 °C 44 % 1013,6 hPa 0,0 mm 2,2 km/h (1 Bft) O-NO 73 ° 1 min 0,000 mm 5,9 UV-I 773 W/m² 11,8 °C 24,9 °C 3,2 km/h (1 Bft)
29.05.2017 10:59 25,0 °C 25,0 °C 45 % 1013,6 hPa 0,0 mm 2,6 km/h (1 Bft) O-NO 61 ° 1 min 0,000 mm 5,9 UV-I 777 W/m² 12,2 °C 25,0 °C 6,4 km/h (2 Bft)
29.05.2017 11:00 25,1 °C 25,1 °C 48 % 1013,7 hPa 0,0 mm 4,2 km/h (1 Bft) O-NO 76 ° 1 min 0,000 mm 6,0 UV-I 779 W/m² 13,3 °C 25,1 °C 8,0 km/h (2 Bft)
29.05.2017 11:01 25,0 °C 25,1 °C 43 % 1013,7 hPa 0,0 mm 4,4 km/h (1 Bft) O 82 ° 1 min 0,483 mm 6,0 UV-I 780 W/m² 11,5 °C 25,0 °C 6,4 km/h (2 Bft)
29.05.2017 11:02 24,9 °C 25,0 °C 43 % 1013,7 hPa 0,0 mm 4,1 km/h (1 Bft) O 93 ° 1 min 0,000 mm 6,0 UV-I 782 W/m² 11,4 °C 24,9 °C 6,4 km/h (2 Bft)
29.05.2017 11:03 24,9 °C 24,9 °C 43 % 1013,7 hPa 0,0 mm 0,2 km/h (0 Bft) O 93 ° 1 min 0,000 mm 6,0 UV-I 784 W/m² 11,4 °C 24,9 °C 1,6 km/h (1 Bft)
29.05.2017 11:04 24,9 °C 24,9 °C 46 % 1013,7 hPa 0,0 mm 0,8 km/h (0 Bft) O-NO 61 ° 1 min 0,000 mm 6,0 UV-I 784 W/m² 12,5 °C 24,9 °C 9,7 km/h (2 Bft)
29.05.2017 11:05 24,9 °C 25,0 °C 45 % 1013,7 hPa 0,0 mm 8,1 km/h (2 Bft) O 89 ° 1 min 0,000 mm 6,1 UV-I 788 W/m² 12,1 °C 24,9 °C 11,3 km/h (2 Bft)
29.05.2017 11:06 24,9 °C 25,0 °C 44 % 1013,7 hPa 0,0 mm 6,5 km/h (2 Bft) O 95 ° 1 min 0,000 mm 6,1 UV-I 789 W/m² 11,8 °C 24,9 °C 11,3 km/h (2 Bft)
29.05.2017 11:07 24,9 °C 25,0 °C 47 % 1013,7 hPa 0,0 mm 6,2 km/h (2 Bft) O 80 ° 1 min 0,000 mm 6,1 UV-I 791 W/m² 12,8 °C 24,9 °C 9,7 km/h (2 Bft)
29.05.2017 11:08 24,9 °C 24,9 °C 45 % 1013,7 hPa 0,0 mm 1,2 km/h (1 Bft) O 90 ° 1 min 0,000 mm 6,1 UV-I 791 W/m² 12,1 °C 24,9 °C 3,2 km/h (1 Bft)
29.05.2017 11:09 24,9 °C 24,9 °C 48 % 1013,7 hPa 0,0 mm 4,3 km/h (1 Bft) O 81 ° 1 min 0,000 mm 6,1 UV-I 793 W/m² 13,1 °C 24,9 °C 11,3 km/h (2 Bft)
29.05.2017 11:10 24,9 °C 25,0 °C 43 % 1013,6 hPa 0,0 mm 7,7 km/h (2 Bft) O-NO 65 ° 1 min 0,000 mm 6,2 UV-I 796 W/m² 11,4 °C 24,9 °C 11,3 km/h (2 Bft)
29.05.2017 11:11 25,1 °C 25,1 °C 51 % 1013,7 hPa 0,0 mm 5,7 km/h (1 Bft) O-NO 65 ° 1 min 0,000 mm 6,2 UV-I 798 W/m² 14,2 °C 25,1 °C 8,0 km/h (2 Bft)
29.05.2017 11:12 25,1 °C 25,1 °C 43 % 1013,6 hPa 0,0 mm 2,0 km/h (1 Bft) O 85 ° 1 min 0,000 mm 6,2 UV-I 800 W/m² 11,6 °C 25,1 °C 4,8 km/h (1 Bft)
29.05.2017 11:13 25,0 °C 25,1 °C 44 % 1013,6 hPa 0,0 mm 4,3 km/h (1 Bft) O 81 ° 1 min 0,000 mm 6,2 UV-I 802 W/m² 11,9 °C 25,0 °C 4,8 km/h (1 Bft)
29.05.2017 11:14 25,0 °C 25,1 °C 47 % 1013,6 hPa 0,0 mm 3,9 km/h (1 Bft) O-NO 71 ° 1 min 0,000 mm 6,3 UV-I 802 W/m² 12,9 °C 25,0 °C 6,4 km/h (2 Bft)
29.05.2017 11:15 25,0 °C 25,0 °C 46 % 1013,7 hPa 0,0 mm 4,3 km/h (1 Bft) N 355 ° 1 min 0,000 mm 6,3 UV-I 803 W/m² 12,6 °C 25,0 °C 6,4 km/h (2 Bft)
29.05.2017 11:16 25,1 °C 25,1 °C 49 % 1013,7 hPa 0,0 mm 3,1 km/h (1 Bft) N 355 ° 1 min 0,000 mm 6,3 UV-I 807 W/m² 13,6 °C 25,1 °C 8,0 km/h (2 Bft)
29.05.2017 11:17 25,2 °C 25,2 °C 48 % 1013,6 hPa 0,0 mm 6,1 km/h (2 Bft) O 89 ° 1 min 0,000 mm 6,3 UV-I 809 W/m² 13,4 °C 25,2 °C 8,0 km/h (2 Bft)
29.05.2017 11:18 25,2 °C 25,2 °C 46 % 1013,7 hPa 0,0 mm 2,4 km/h (1 Bft) N-NO 29 ° 1 min 0,000 mm 6,3 UV-I 807 W/m² 12,7 °C 25,2 °C 4,8 km/h (1 Bft)
29.05.2017 11:19 25,2 °C 25,3 °C 45 % 1013,6 hPa 0,0 mm 2,3 km/h (1 Bft) NO 34 ° 1 min 0,000 mm 6,3 UV-I 810 W/m² 12,4 °C 25,2 °C 3,2 km/h (1 Bft)
29.05.2017 11:20 25,2 °C 25,3 °C 44 % 1013,6 hPa 0,0 mm 1,1 km/h (1 Bft) NO 34 ° 1 min 0,000 mm 6,4 UV-I 810 W/m² 12,1 °C 25,2 °C 3,2 km/h (1 Bft)
29.05.2017 11:21 25,2 °C 25,2 °C 45 % 1013,6 hPa 0,0 mm 3,4 km/h (1 Bft) SO 142 ° 1 min 0,000 mm 6,4 UV-I 812 W/m² 12,4 °C 25,2 °C 8,0 km/h (2 Bft)
29.05.2017 11:22 25,3 °C 25,3 °C 45 % 1013,6 hPa 0,0 mm 2,7 km/h (1 Bft) O 93 ° 1 min 0,000 mm 6,4 UV-I 814 W/m² 12,5 °C 25,3 °C 6,4 km/h (2 Bft)
29.05.2017 11:23 25,3 °C 25,3 °C 48 % 1013,6 hPa 0,0 mm 5,8 km/h (2 Bft) O 92 ° 1 min 0,000 mm 6,4 UV-I 814 W/m² 13,5 °C 25,3 °C 12,9 km/h (3 Bft)
29.05.2017 11:24 25,3 °C 25,3 °C 45 % 1013,6 hPa 0,0 mm 6,1 km/h (2 Bft) O-NO 77 ° 1 min 0,000 mm 6,4 UV-I 816 W/m² 12,5 °C 25,3 °C 11,3 km/h (2 Bft)
29.05.2017 11:25 25,4 °C 25,4 °C 46 % 1013,6 hPa 0,0 mm 4,6 km/h (1 Bft) O 84 ° 1 min 0,000 mm 6,5 UV-I 817 W/m² 12,9 °C 25,4 °C 8,0 km/h (2 Bft)
29.05.2017 11:26 25,4 °C 25,4 °C 44 % 1013,6 hPa 0,0 mm 6,4 km/h (2 Bft) O 88 ° 1 min 0,000 mm 6,5 UV-I 819 W/m² 12,2 °C 25,4 °C 11,3 km/h (2 Bft)
29.05.2017 11:27 25,2 °C 25,4 °C 46 % 1013,6 hPa 0,0 mm 3,3 km/h (1 Bft) N-NO 29 ° 1 min 0,000 mm 6,5 UV-I 819 W/m² 12,7 °C 25,2 °C 4,8 km/h (1 Bft)
29.05.2017 11:28 25,3 °C 25,3 °C 47 % 1013,6 hPa 0,0 mm 2,7 km/h (1 Bft) O-SO 119 ° 1 min 0,000 mm 6,5 UV-I 823 W/m² 13,2 °C 25,3 °C 6,4 km/h (2 Bft)
29.05.2017 11:29 25,2 °C 25,3 °C 45 % 1013,6 hPa 0,0 mm 6,2 km/h (2 Bft) O 85 ° 1 min 0,000 mm 6,5 UV-I 823 W/m² 12,4 °C 25,2 °C 9,7 km/h (2 Bft)
29.05.2017 11:30 25,1 °C 25,2 °C 44 % 1013,6 hPa 0,0 mm 7,6 km/h (2 Bft) S-SO 153 ° 1 min 0,000 mm 6,5 UV-I 824 W/m² 12,0 °C 25,1 °C 11,3 km/h (2 Bft)
29.05.2017 11:31 25,1 °C 25,1 °C 44 % 1013,6 hPa 0,0 mm 4,7 km/h (1 Bft) O-NO 66 ° 1 min 0,000 mm 6,6 UV-I 826 W/m² 12,0 °C 25,1 °C 8,0 km/h (2 Bft)
29.05.2017 11:32 25,3 °C 25,3 °C 48 % 1013,6 hPa 0,0 mm 6,9 km/h (2 Bft) O-SO 117 ° 1 min 0,000 mm 6,6 UV-I 826 W/m² 13,5 °C 25,3 °C 9,7 km/h (2 Bft)
29.05.2017 11:33 25,4 °C 25,4 °C 51 % 1013,6 hPa 0,0 mm 4,0 km/h (1 Bft) O-SO 117 ° 1 min 0,000 mm 6,6 UV-I 830 W/m² 14,5 °C 25,4 °C 9,7 km/h (2 Bft)
29.05.2017 11:34 25,3 °C 25,4 °C 44 % 1013,6 hPa 0,0 mm 6,2 km/h (2 Bft) O-SO 114 ° 1 min 0,000 mm 6,6 UV-I 828 W/m² 12,2 °C 25,3 °C 11,3 km/h (2 Bft)
29.05.2017 11:35 25,3 °C 25,3 °C 43 % 1013,6 hPa 0,0 mm 6,5 km/h (2 Bft) NO 51 ° 1 min 0,000 mm 6,6 UV-I 830 W/m² 11,8 °C 25,3 °C 11,3 km/h (2 Bft)
29.05.2017 11:36 25,3 °C 25,3 °C 46 % 1013,6 hPa 0,0 mm 6,1 km/h (2 Bft) O-NO 78 ° 1 min 0,000 mm 6,6 UV-I 830 W/m² 12,8 °C 25,3 °C 8,0 km/h (2 Bft)
29.05.2017 11:37 25,4 °C 25,4 °C 47 % 1013,6 hPa 0,0 mm 4,2 km/h (1 Bft) NO 40 ° 1 min 0,000 mm 6,6 UV-I 830 W/m² 13,3 °C 25,4 °C 8,0 km/h (2 Bft)
29.05.2017 11:38 25,4 °C 25,5 °C 51 % 1013,6 hPa 0,0 mm 6,5 km/h (2 Bft) O-NO 66 ° 1 min 0,000 mm 6,6 UV-I 831 W/m² 14,5 °C 25,4 °C 9,7 km/h (2 Bft)
29.05.2017 11:39 25,4 °C 25,5 °C 45 % 1013,6 hPa 0,0 mm 3,7 km/h (1 Bft) NO 35 ° 1 min 0,000 mm 6,6 UV-I 831 W/m² 12,6 °C 25,4 °C 8,0 km/h (2 Bft)
29.05.2017 11:40 25,6 °C 25,6 °C 43 % 1013,5 hPa 0,0 mm 4,1 km/h (1 Bft) N-NO 23 ° 1 min 0,000 mm 6,7 UV-I 838 W/m² 12,1 °C 25,6 °C 6,4 km/h (2 Bft)
29.05.2017 11:41 25,8 °C 25,8 °C 45 % 1013,5 hPa 0,0 mm 0,8 km/h (0 Bft) O-NO 64 ° 1 min 0,000 mm 6,7 UV-I 837 W/m² 13,0 °C 25,8 °C 4,8 km/h (1 Bft)
29.05.2017 11:42 25,8 °C 25,8 °C 44 % 1013,6 hPa 0,0 mm 2,0 km/h (1 Bft) N 11 ° 1 min 0,000 mm 6,7 UV-I 840 W/m² 12,6 °C 25,8 °C 3,2 km/h (1 Bft)
29.05.2017 11:43 25,7 °C 25,8 °C 43 % 1013,5 hPa 0,0 mm 6,8 km/h (2 Bft) O-SO 105 ° 1 min 0,000 mm 6,7 UV-I 840 W/m² 12,2 °C 25,7 °C 12,9 km/h (3 Bft)
29.05.2017 11:44 25,6 °C 25,7 °C 43 % 1013,6 hPa 0,0 mm 7,1 km/h (2 Bft) O-NO 78 ° 1 min 0,000 mm 6,7 UV-I 842 W/m² 12,1 °C 25,6 °C 9,7 km/h (2 Bft)
29.05.2017 11:45 25,4 °C 25,6 °C 43 % 1013,5 hPa 0,0 mm 6,8 km/h (2 Bft) O-NO 78 ° 1 min 0,000 mm 6,8 UV-I 842 W/m² 11,9 °C 25,4 °C 9,7 km/h (2 Bft)
29.05.2017 11:46 25,4 °C 25,4 °C 45 % 1013,5 hPa 0,0 mm 5,1 km/h (1 Bft) O-NO 67 ° 1 min 0,000 mm 6,8 UV-I 844 W/m² 12,6 °C 25,4 °C 9,7 km/h (2 Bft)
29.05.2017 11:47 25,4 °C 25,4 °C 47 % 1013,5 hPa 0,0 mm 4,6 km/h (1 Bft) NO 37 ° 1 min 0,000 mm 6,8 UV-I 844 W/m² 13,3 °C 25,4 °C 8,0 km/h (2 Bft)
29.05.2017 11:48 25,6 °C 25,6 °C 46 % 1013,6 hPa 0,0 mm 6,9 km/h (2 Bft) O-NO 63 ° 1 min 0,000 mm 6,8 UV-I 846 W/m² 13,1 °C 25,6 °C 9,7 km/h (2 Bft)
29.05.2017 11:49 25,7 °C 25,7 °C 45 % 1013,5 hPa 0,0 mm 8,2 km/h (2 Bft) O-NO 61 ° 1 min 0,000 mm 6,8 UV-I 846 W/m² 12,9 °C 25,7 °C 14,5 km/h (3 Bft)
29.05.2017 11:50 25,8 °C 25,8 °C 43 % 1013,5 hPa 0,0 mm 6,6 km/h (2 Bft) O 94 ° 1 min 0,000 mm 6,8 UV-I 847 W/m² 12,3 °C 25,8 °C 12,9 km/h (3 Bft)
29.05.2017 11:51 25,6 °C 25,8 °C 44 % 1013,5 hPa 0,0 mm 8,5 km/h (2 Bft) O 86 ° 1 min 0,000 mm 6,8 UV-I 847 W/m² 12,4 °C 25,6 °C 12,9 km/h (3 Bft)
29.05.2017 11:52 25,5 °C 25,6 °C 43 % 1013,5 hPa 0,0 mm 7,7 km/h (2 Bft) O 97 ° 1 min 0,000 mm 6,8 UV-I 849 W/m² 12,0 °C 25,5 °C 12,9 km/h (3 Bft)
29.05.2017 11:53 25,4 °C 25,5 °C 42 % 1013,5 hPa 0,0 mm 3,6 km/h (1 Bft) NO 40 ° 1 min 0,000 mm 6,8 UV-I 847 W/m² 11,5 °C 25,4 °C 6,4 km/h (2 Bft)
29.05.2017 11:54 25,4 °C 25,4 °C 42 % 1013,6 hPa 0,0 mm 5,3 km/h (1 Bft) N-NO 24 ° 1 min 0,000 mm 6,9 UV-I 849 W/m² 11,5 °C 25,4 °C 8,0 km/h (2 Bft)
29.05.2017 11:55 25,5 °C 25,5 °C 46 % 1013,5 hPa 0,0 mm 3,9 km/h (1 Bft) O-SO 104 ° 1 min 0,000 mm 6,9 UV-I 854 W/m² 13,0 °C 25,5 °C 8,0 km/h (2 Bft)
29.05.2017 11:56 25,6 °C 25,6 °C 46 % 1013,5 hPa 0,0 mm 7,1 km/h (2 Bft) N-NO 19 ° 1 min 0,000 mm 6,9 UV-I 856 W/m² 13,1 °C 25,6 °C 11,3 km/h (2 Bft)
29.05.2017 11:57 25,8 °C 25,8 °C 45 % 1013,6 hPa 0,0 mm 4,4 km/h (1 Bft) N-NO 24 ° 1 min 0,000 mm 6,9 UV-I 858 W/m² 13,0 °C 25,8 °C 6,4 km/h (2 Bft)
29.05.2017 11:58 25,8 °C 25,8 °C 43 % 1013,5 hPa 0,0 mm 3,3 km/h (1 Bft) NO 46 ° 1 min 0,000 mm 6,9 UV-I 858 W/m² 12,3 °C 25,8 °C 8,0 km/h (2 Bft)
29.05.2017 11:59 25,7 °C 25,8 °C 42 % 1013,5 hPa 0,0 mm 5,2 km/h (1 Bft) NO 53 ° 1 min 0,000 mm 6,9 UV-I 858 W/m² 11,8 °C 25,7 °C 11,3 km/h (2 Bft)
29.05.2017 12:00 25,7 °C 25,7 °C 41 % 1013,5 hPa 0,0 mm 2,1 km/h (1 Bft) O 94 ° 1 min 0,000 mm 6,9 UV-I 860 W/m² 11,4 °C 25,7 °C 4,8 km/h (1 Bft)
29.05.2017 12:01 25,6 °C 25,7 °C 43 % 1013,5 hPa 0,0 mm 3,8 km/h (1 Bft) N 5 ° 1 min 0,558 mm 6,9 UV-I 856 W/m² 12,1 °C 25,6 °C 6,4 km/h (2 Bft)
29.05.2017 12:02 25,8 °C 25,8 °C 45 % 1013,5 hPa 0,0 mm 5,9 km/h (2 Bft) N-NO 16 ° 1 min 0,000 mm 6,9 UV-I 858 W/m² 13,0 °C 25,8 °C 8,0 km/h (2 Bft)
29.05.2017 12:03 25,8 °C 25,8 °C 47 % 1013,5 hPa 0,0 mm 6,2 km/h (2 Bft) N-NW 327 ° 1 min 0,000 mm 7,0 UV-I 858 W/m² 13,6 °C 25,8 °C 9,7 km/h (2 Bft)
29.05.2017 12:04 25,8 °C 25,9 °C 43 % 1013,4 hPa 0,0 mm 11,6 km/h (2 Bft) N-NO 22 ° 1 min 0,000 mm 7,0 UV-I 856 W/m² 12,3 °C 25,8 °C 16,1 km/h (3 Bft)
29.05.2017 12:05 25,9 °C 25,9 °C 44 % 1013,5 hPa 0,0 mm 9,9 km/h (2 Bft) N-NO 24 ° 1 min 0,000 mm 7,0 UV-I 858 W/m² 12,7 °C 25,9 °C 14,5 km/h (3 Bft)
29.05.2017 12:06 26,1 °C 26,1 °C 47 % 1013,5 hPa 0,0 mm 8,5 km/h (2 Bft) N-NO 26 ° 1 min 0,000 mm 7,0 UV-I 858 W/m² 13,9 °C 26,1 °C 12,9 km/h (3 Bft)
29.05.2017 12:07 26,1 °C 26,1 °C 42 % 1013,5 hPa 0,0 mm 8,3 km/h (2 Bft) N-NO 30 ° 1 min 0,000 mm 7,0 UV-I 860 W/m² 12,2 °C 26,1 °C 12,9 km/h (3 Bft)
29.05.2017 12:08 26,1 °C 26,1 °C 43 % 1013,4 hPa 0,0 mm 4,8 km/h (1 Bft) NO 40 ° 1 min 0,000 mm 7,0 UV-I 860 W/m² 12,5 °C 26,1 °C 6,4 km/h (2 Bft)
29.05.2017 12:09 26,1 °C 26,1 °C 39 % 1013,5 hPa 0,0 mm 4,5 km/h (1 Bft) O-NO 76 ° 1 min 0,000 mm 7,0 UV-I 860 W/m² 11,0 °C 26,1 °C 6,4 km/h (2 Bft)
29.05.2017 12:10 25,9 °C 26,1 °C 40 % 1013,4 hPa 0,0 mm 2,6 km/h (1 Bft) O-NO 76 ° 1 min 0,000 mm 7,1 UV-I 865 W/m² 11,3 °C 25,9 °C 4,8 km/h (1 Bft)
29.05.2017 12:11 25,9 °C 25,9 °C 47 % 1013,4 hPa 0,0 mm 8,2 km/h (2 Bft) N-NO 28 ° 1 min 0,000 mm 7,1 UV-I 868 W/m² 13,7 °C 25,9 °C 12,9 km/h (3 Bft)
29.05.2017 12:12 25,9 °C 25,9 °C 42 % 1013,4 hPa 0,0 mm 6,2 km/h (2 Bft) N-NO 22 ° 1 min 0,000 mm 7,1 UV-I 870 W/m² 12,0 °C 25,9 °C 8,0 km/h (2 Bft)
29.05.2017 12:13 25,9 °C 25,9 °C 42 % 1013,4 hPa 0,0 mm 5,8 km/h (2 Bft) NO 36 ° 1 min 0,000 mm 7,1 UV-I 872 W/m² 12,0 °C 25,9 °C 8,0 km/h (2 Bft)
29.05.2017 12:14 26,1 °C 26,1 °C 47 % 1013,4 hPa 0,0 mm 4,8 km/h (1 Bft) O-NO 65 ° 1 min 0,000 mm 7,2 UV-I 874 W/m² 13,9 °C 26,1 °C 9,7 km/h (2 Bft)
29.05.2017 12:15 26,1 °C 26,1 °C 43 % 1013,4 hPa 0,0 mm 4,3 km/h (1 Bft) O-NO 76 ° 1 min 0,000 mm 7,2 UV-I 875 W/m² 12,5 °C 26,1 °C 6,4 km/h (2 Bft)
29.05.2017 12:16 26,1 °C 26,1 °C 42 % 1013,4 hPa 0,0 mm 5,8 km/h (2 Bft) O-SO 106 ° 1 min 0,000 mm 7,2 UV-I 874 W/m² 12,2 °C 26,1 °C 9,7 km/h (2 Bft)
29.05.2017 12:17 25,8 °C 26,1 °C 37 % 1013,4 hPa 0,0 mm 3,8 km/h (1 Bft) NO 38 ° 1 min 0,000 mm 7,2 UV-I 875 W/m² 10,0 °C 25,8 °C 6,4 km/h (2 Bft)
29.05.2017 12:18 25,8 °C 25,8 °C 43 % 1013,4 hPa 0,0 mm 5,1 km/h (1 Bft) NO 34 ° 1 min 0,000 mm 7,2 UV-I 875 W/m² 12,3 °C 25,8 °C 6,4 km/h (2 Bft)
29.05.2017 12:19 25,9 °C 25,9 °C 39 % 1013,4 hPa 0,0 mm 2,9 km/h (1 Bft) N-NO 19 ° 1 min 0,000 mm 7,2 UV-I 877 W/m² 10,9 °C 25,9 °C 4,8 km/h (1 Bft)
29.05.2017 12:20 26,1 °C 26,1 °C 41 % 1013,4 hPa 0,0 mm 4,5 km/h (1 Bft) NO 49 ° 1 min 0,000 mm 7,2 UV-I 877 W/m² 11,8 °C 26,1 °C 8,0 km/h (2 Bft)
29.05.2017 12:21 26,1 °C 26,1 °C 45 % 1013,3 hPa 0,0 mm 3,6 km/h (1 Bft) O 96 ° 1 min 0,000 mm 7,2 UV-I 879 W/m² 13,2 °C 26,1 °C 6,4 km/h (2 Bft)
29.05.2017 12:22 25,9 °C 26,1 °C 43 % 1013,3 hPa 0,0 mm 1,6 km/h (1 Bft) O 96 ° 1 min 0,000 mm 7,2 UV-I 877 W/m² 12,3 °C 25,9 °C 4,8 km/h (1 Bft)
29.05.2017 12:23 25,7 °C 25,9 °C 40 % 1013,3 hPa 0,0 mm 0,2 km/h (0 Bft) NO 50 ° 1 min 0,000 mm 7,2 UV-I 879 W/m² 11,1 °C 25,7 °C 3,2 km/h (1 Bft)
29.05.2017 12:24 25,6 °C 25,7 °C 41 % 1013,2 hPa 0,0 mm 0,4 km/h (0 Bft) NO 51 ° 1 min 0,000 mm 7,2 UV-I 877 W/m² 11,4 °C 25,6 °C 1,6 km/h (1 Bft)
29.05.2017 12:25 25,7 °C 25,7 °C 48 % 1013,3 hPa 0,0 mm 3,1 km/h (1 Bft) NW 325 ° 1 min 0,000 mm 7,2 UV-I 877 W/m² 13,9 °C 25,7 °C 9,7 km/h (2 Bft)
29.05.2017 12:26 25,8 °C 25,8 °C 43 % 1013,3 hPa 0,0 mm 6,4 km/h (2 Bft) W-NW 300 ° 1 min 0,000 mm 7,2 UV-I 879 W/m² 12,3 °C 25,8 °C 11,3 km/h (2 Bft)
29.05.2017 12:27 26,0 °C 26,0 °C 42 % 1013,3 hPa 0,0 mm 8,6 km/h (2 Bft) N-NW 340 ° 1 min 0,000 mm 7,2 UV-I 879 W/m² 12,1 °C 26,0 °C 12,9 km/h (3 Bft)
29.05.2017 12:28 26,0 °C 26,0 °C 39 % 1013,3 hPa 0,0 mm 5,0 km/h (1 Bft) NW 320 ° 1 min 0,000 mm 7,3 UV-I 881 W/m² 11,0 °C 26,0 °C 6,4 km/h (2 Bft)
29.05.2017 12:29 25,9 °C 26,0 °C 39 % 1013,3 hPa 0,0 mm 0,9 km/h (0 Bft) NW 320 ° 1 min 0,000 mm 7,3 UV-I 881 W/m² 10,9 °C 25,9 °C 3,2 km/h (1 Bft)
29.05.2017 12:30 25,9 °C 25,9 °C 44 % 1013,3 hPa 0,0 mm 2,1 km/h (1 Bft) NW 319 ° 1 min 0,000 mm 7,3 UV-I 884 W/m² 12,7 °C 25,9 °C 3,2 km/h (1 Bft)
29.05.2017 12:31 26,1 °C 26,1 °C 45 % 1013,3 hPa 0,0 mm 3,6 km/h (1 Bft) W-NW 298 ° 1 min 0,000 mm 7,3 UV-I 882 W/m² 13,2 °C 26,1 °C 4,8 km/h (1 Bft)
29.05.2017 12:32 26,2 °C 26,2 °C 45 % 1013,3 hPa 0,0 mm 3,2 km/h (1 Bft) N-NO 33 ° 1 min 0,000 mm 7,3 UV-I 884 W/m² 13,3 °C 26,2 °C 4,8 km/h (1 Bft)
29.05.2017 12:33 26,1 °C 26,2 °C 41 % 1013,3 hPa 0,0 mm 1,1 km/h (1 Bft) N-NO 33 ° 1 min 0,000 mm 7,3 UV-I 886 W/m² 11,8 °C 26,1 °C 4,8 km/h (1 Bft)
29.05.2017 12:34 26,1 °C 26,1 °C 46 % 1013,3 hPa 0,0 mm 1,9 km/h (1 Bft) N 355 ° 1 min 0,000 mm 7,3 UV-I 884 W/m² 13,6 °C 26,1 °C 4,8 km/h (1 Bft)
29.05.2017 12:35 26,3 °C 26,3 °C 47 % 1013,3 hPa 0,0 mm 2,6 km/h (1 Bft) NW 311 ° 1 min 0,000 mm 7,4 UV-I 884 W/m² 14,1 °C 26,3 °C 4,8 km/h (1 Bft)
29.05.2017 12:36 26,3 °C 26,3 °C 50 % 1013,3 hPa 0,0 mm 3,4 km/h (1 Bft) N-NW 346 ° 1 min 0,000 mm 7,4 UV-I 884 W/m² 15,0 °C 26,3 °C 4,8 km/h (1 Bft)
29.05.2017 12:37 26,3 °C 26,3 °C 41 % 1013,2 hPa 0,0 mm 2,7 km/h (1 Bft) N-NW 342 ° 1 min 0,000 mm 7,4 UV-I 888 W/m² 12,0 °C 26,3 °C 4,8 km/h (1 Bft)
29.05.2017 12:38 26,3 °C 26,3 °C 43 % 1013,2 hPa 0,0 mm 3,5 km/h (1 Bft) N 5 ° 1 min 0,000 mm 7,4 UV-I 889 W/m² 12,7 °C 26,3 °C 4,8 km/h (1 Bft)
29.05.2017 12:39 26,4 °C 26,4 °C 41 % 1013,2 hPa 0,0 mm 3,2 km/h (1 Bft) N 360 ° 1 min 0,000 mm 7,4 UV-I 888 W/m² 12,1 °C 26,4 °C 4,8 km/h (1 Bft)
29.05.2017 12:40 26,4 °C 26,4 °C 41 % 1013,2 hPa 0,0 mm 5,0 km/h (1 Bft) N-NO 22 ° 1 min 0,000 mm 7,4 UV-I 889 W/m² 12,1 °C 26,4 °C 8,0 km/h (2 Bft)
29.05.2017 12:41 26,3 °C 26,4 °C 39 % 1013,2 hPa 0,0 mm 4,8 km/h (1 Bft) NO 44 ° 1 min 0,000 mm 7,4 UV-I 888 W/m² 11,2 °C 26,3 °C 8,0 km/h (2 Bft)
29.05.2017 12:42 26,2 °C 26,3 °C 39 % 1013,2 hPa 0,0 mm 4,0 km/h (1 Bft) N-NO 32 ° 1 min 0,000 mm 7,4 UV-I 886 W/m² 11,1 °C 26,2 °C 9,7 km/h (2 Bft)
29.05.2017 12:43 26,1 °C 26,2 °C 48 % 1013,2 hPa 0,0 mm 3,8 km/h (1 Bft) N 355 ° 1 min 0,000 mm 7,4 UV-I 888 W/m² 14,2 °C 26,1 °C 8,0 km/h (2 Bft)
29.05.2017 12:44 26,1 °C 26,1 °C 51 % 1013,2 hPa 0,0 mm 2,2 km/h (1 Bft) NO 42 ° 1 min 0,000 mm 7,4 UV-I 888 W/m² 15,2 °C 26,1 °C 6,4 km/h (2 Bft)
29.05.2017 12:45 26,2 °C 26,2 °C 43 % 1013,1 hPa 0,0 mm 5,5 km/h (1 Bft) NO 55 ° 1 min 0,000 mm 7,4 UV-I 888 W/m² 12,6 °C 26,2 °C 8,0 km/h (2 Bft)
29.05.2017 12:46 26,3 °C 26,3 °C 42 % 1013,2 hPa 0,0 mm 5,6 km/h (1 Bft) O 87 ° 1 min 0,000 mm 7,4 UV-I 888 W/m² 12,3 °C 26,3 °C 9,7 km/h (2 Bft)
29.05.2017 12:47 26,3 °C 26,3 °C 41 % 1013,1 hPa 0,0 mm 5,7 km/h (1 Bft) O 101 ° 1 min 0,000 mm 7,4 UV-I 888 W/m² 12,0 °C 26,3 °C 9,7 km/h (2 Bft)
29.05.2017 12:48 26,4 °C 26,4 °C 42 % 1013,1 hPa 0,0 mm 5,2 km/h (1 Bft) O-NO 63 ° 1 min 0,000 mm 7,4 UV-I 888 W/m² 12,4 °C 26,4 °C 8,0 km/h (2 Bft)
29.05.2017 12:49 26,4 °C 26,4 °C 40 % 1013,1 hPa 0,0 mm 8,9 km/h (2 Bft) O-NO 78 ° 1 min 0,000 mm 7,4 UV-I 891 W/m² 11,7 °C 26,4 °C 12,9 km/h (3 Bft)
29.05.2017 12:50 26,4 °C 26,5 °C 37 % 1013,2 hPa 0,0 mm 8,9 km/h (2 Bft) O-SO 102 ° 1 min 0,000 mm 7,4 UV-I 893 W/m² 10,5 °C 26,4 °C 12,9 km/h (3 Bft)
29.05.2017 12:51 26,3 °C 26,4 °C 37 % 1013,1 hPa 0,0 mm 3,0 km/h (1 Bft) S 182 ° 1 min 0,000 mm 7,4 UV-I 891 W/m² 10,4 °C 26,3 °C 6,4 km/h (2 Bft)
29.05.2017 12:52 26,1 °C 26,3 °C 39 % 1013,1 hPa 0,0 mm 2,7 km/h (1 Bft) S 182 ° 1 min 0,000 mm 7,4 UV-I 891 W/m² 11,0 °C 26,1 °C 4,8 km/h (1 Bft)
29.05.2017 12:53 26,1 °C 26,1 °C 46 % 1013,1 hPa 0,0 mm 0,9 km/h (0 Bft) S-SO 162 ° 1 min 0,000 mm 7,4 UV-I 893 W/m² 13,6 °C 26,1 °C 3,2 km/h (1 Bft)
29.05.2017 12:54 26,1 °C 26,1 °C 43 % 1013,1 hPa 0,0 mm 0,5 km/h (0 Bft) S-SO 160 ° 1 min 0,000 mm 7,4 UV-I 893 W/m² 12,5 °C 26,1 °C 1,6 km/h (1 Bft)
29.05.2017 12:55 26,0 °C 26,1 °C 38 % 1013,0 hPa 0,0 mm 1,2 km/h (1 Bft) S 181 ° 1 min 0,000 mm 7,5 UV-I 895 W/m² 10,6 °C 26,0 °C 3,2 km/h (1 Bft)
29.05.2017 12:56 25,9 °C 26,0 °C 44 % 1013,1 hPa 0,0 mm 0,2 km/h (0 Bft) S 181 ° 1 min 0,000 mm 7,5 UV-I 895 W/m² 12,7 °C 25,9 °C 1,6 km/h (1 Bft)
29.05.2017 12:57 26,1 °C 26,1 °C 42 % 1013,0 hPa 0,0 mm 2,4 km/h (1 Bft) S-SW 194 ° 1 min 0,000 mm 7,5 UV-I 896 W/m² 12,2 °C 26,1 °C 3,2 km/h (1 Bft)
29.05.2017 12:58 26,2 °C 26,2 °C 43 % 1013,0 hPa 0,0 mm 0,9 km/h (0 Bft) S-SW 194 ° 1 min 0,000 mm 7,4 UV-I 893 W/m² 12,6 °C 26,2 °C 3,2 km/h (1 Bft)
29.05.2017 12:59 26,3 °C 26,3 °C 42 % 1013,1 hPa 0,0 mm 2,6 km/h (1 Bft) O 79 ° 1 min 0,000 mm 7,5 UV-I 891 W/m² 12,3 °C 26,3 °C 4,8 km/h (1 Bft)
29.05.2017 13:00 26,3 °C 26,3 °C 45 % 1013,1 hPa 0,0 mm 1,7 km/h (1 Bft) O 79 ° 1 min 0,000 mm 7,5 UV-I 891 W/m² 13,4 °C 26,3 °C 3,2 km/h (1 Bft)
29.05.2017 13:01 26,2 °C 26,3 °C 40 % 1013,1 hPa 0,0 mm 2,2 km/h (1 Bft) O-NO 73 ° 1 min 0,610 mm 6,7 UV-I 891 W/m² 11,5 °C 26,2 °C 3,2 km/h (1 Bft)
29.05.2017 13:02 26,3 °C 26,3 °C 42 % 1013,1 hPa 0,0 mm 4,0 km/h (1 Bft) O-NO 63 ° 1 min 0,000 mm 7,4 UV-I 893 W/m² 12,3 °C 26,3 °C 6,4 km/h (2 Bft)
29.05.2017 13:03 26,4 °C 26,4 °C 40 % 1013,1 hPa 0,0 mm 9,2 km/h (2 Bft) NO 54 ° 1 min 0,000 mm 7,5 UV-I 891 W/m² 11,7 °C 26,4 °C 14,5 km/h (3 Bft)
29.05.2017 13:04 26,2 °C 26,4 °C 42 % 1013,1 hPa 0,0 mm 2,1 km/h (1 Bft) NO 38 ° 1 min 0,000 mm 7,4 UV-I 893 W/m² 12,3 °C 26,2 °C 3,2 km/h (1 Bft)
29.05.2017 13:05 26,1 °C 26,2 °C 39 % 1013,1 hPa 0,0 mm 0,5 km/h (0 Bft) O 92 ° 1 min 0,000 mm 7,4 UV-I 893 W/m² 11,0 °C 26,1 °C 1,6 km/h (1 Bft)
29.05.2017 13:06 25,9 °C 26,1 °C 39 % 1013,1 hPa 0,0 mm 2,4 km/h (1 Bft) O 92 ° 1 min 0,000 mm 7,4 UV-I 891 W/m² 10,9 °C 25,9 °C 4,8 km/h (1 Bft)
29.05.2017 13:07 25,9 °C 25,9 °C 41 % 1013,1 hPa 0,0 mm 1,3 km/h (1 Bft) O 89 ° 1 min 0,000 mm 7,4 UV-I 891 W/m² 11,6 °C 25,9 °C 3,2 km/h (1 Bft)
29.05.2017 13:08 26,0 °C 26,0 °C 44 % 1013,1 hPa 0,0 mm 3,5 km/h (1 Bft) NO 53 ° 1 min 0,000 mm 7,4 UV-I 889 W/m² 12,8 °C 26,0 °C 11,3 km/h (2 Bft)
29.05.2017 13:09 26,2 °C 26,2 °C 39 % 1013,1 hPa 0,0 mm 8,2 km/h (2 Bft) O-NO 67 ° 1 min 0,000 mm 7,4 UV-I 888 W/m² 11,1 °C 26,2 °C 12,9 km/h (3 Bft)
29.05.2017 13:10 26,2 °C 26,2 °C 41 % 1013,1 hPa 0,0 mm 6,1 km/h (2 Bft) O-NO 64 ° 1 min 0,000 mm 7,4 UV-I 886 W/m² 11,9 °C 26,2 °C 12,9 km/h (3 Bft)
29.05.2017 13:11 26,2 °C 26,3 °C 35 % 1013,1 hPa 0,0 mm 3,6 km/h (1 Bft) W 269 ° 1 min 0,000 mm 7,4 UV-I 891 W/m² 9,5 °C 26,2 °C 4,8 km/h (1 Bft)
29.05.2017 13:12 26,2 °C 26,2 °C 40 % 1013,0 hPa 0,0 mm 2,8 km/h (1 Bft) W-SW 243 ° 1 min 0,000 mm 7,5 UV-I 888 W/m² 11,5 °C 26,2 °C 6,4 km/h (2 Bft)
29.05.2017 13:13 26,2 °C 26,2 °C 48 % 1013,0 hPa 0,0 mm 1,5 km/h (1 Bft) O-NO 71 ° 1 min 0,000 mm 7,4 UV-I 893 W/m² 14,3 °C 26,2 °C 4,8 km/h (1 Bft)
29.05.2017 13:14 26,2 °C 26,2 °C 39 % 1012,9 hPa 0,0 mm 4,8 km/h (1 Bft) O 80 ° 1 min 0,000 mm 7,5 UV-I 896 W/m² 11,1 °C 26,2 °C 9,7 km/h (2 Bft)
29.05.2017 13:15 26,2 °C 26,2 °C 38 % 1012,9 hPa 0,0 mm 5,6 km/h (1 Bft) O-NO 57 ° 1 min 0,000 mm 7,5 UV-I 896 W/m² 10,7 °C 26,2 °C 8,0 km/h (2 Bft)
29.05.2017 13:16 26,3 °C 26,3 °C 38 % 1012,9 hPa 0,0 mm 3,0 km/h (1 Bft) NO 45 ° 1 min 0,000 mm 7,4 UV-I 895 W/m² 10,8 °C 26,3 °C 4,8 km/h (1 Bft)
29.05.2017 13:17 26,4 °C 26,4 °C 37 % 1012,9 hPa 0,0 mm 2,6 km/h (1 Bft) N-NO 21 ° 1 min 0,000 mm 7,4 UV-I 891 W/m² 10,5 °C 26,4 °C 4,8 km/h (1 Bft)
29.05.2017 13:18 26,6 °C 26,6 °C 39 % 1012,9 hPa 0,0 mm 4,4 km/h (1 Bft) O-SO 109 ° 1 min 0,000 mm 7,4 UV-I 895 W/m² 11,5 °C 26,6 °C 9,7 km/h (2 Bft)
29.05.2017 13:19 26,6 °C 26,6 °C 42 % 1012,9 hPa 0,0 mm 4,5 km/h (1 Bft) O 100 ° 1 min 0,000 mm 7,4 UV-I 893 W/m² 12,6 °C 26,6 °C 6,4 km/h (2 Bft)
29.05.2017 13:20 26,6 °C 26,6 °C 44 % 1012,9 hPa 0,0 mm 4,7 km/h (1 Bft) N-NO 30 ° 1 min 0,000 mm 7,3 UV-I 895 W/m² 13,3 °C 26,6 °C 8,0 km/h (2 Bft)
29.05.2017 13:21 26,7 °C 26,7 °C 37 % 1012,9 hPa 0,0 mm 7,8 km/h (2 Bft) O-NO 76 ° 1 min 0,000 mm 7,3 UV-I 889 W/m² 10,8 °C 26,7 °C 11,3 km/h (2 Bft)
29.05.2017 13:22 26,8 °C 26,8 °C 38 % 1012,9 hPa 0,0 mm 6,8 km/h (2 Bft) NO 55 ° 1 min 0,000 mm 7,3 UV-I 889 W/m² 11,3 °C 26,8 °C 11,3 km/h (2 Bft)
29.05.2017 13:23 26,7 °C 26,8 °C 39 % 1012,9 hPa 0,0 mm 8,2 km/h (2 Bft) O 79 ° 1 min 0,000 mm 7,3 UV-I 889 W/m² 11,6 °C 26,7 °C 12,9 km/h (3 Bft)
29.05.2017 13:24 26,7 °C 26,7 °C 42 % 1012,9 hPa 0,0 mm 8,7 km/h (2 Bft) N-NO 23 ° 1 min 0,000 mm 7,3 UV-I 891 W/m² 12,7 °C 26,7 °C 14,5 km/h (3 Bft)
29.05.2017 13:25 26,7 °C 26,7 °C 34 % 1012,9 hPa 0,0 mm 4,9 km/h (1 Bft) N-NO 14 ° 1 min 0,000 mm 7,3 UV-I 891 W/m² 9,5 °C 26,7 °C 8,0 km/h (2 Bft)
29.05.2017 13:26 26,8 °C 26,8 °C 35 % 1012,8 hPa 0,0 mm 4,1 km/h (1 Bft) O-NO 65 ° 1 min 0,000 mm 7,4 UV-I 896 W/m² 10,0 °C 26,8 °C 6,4 km/h (2 Bft)
29.05.2017 13:27 26,8 °C 26,8 °C 37 % 1012,8 hPa 0,0 mm 4,0 km/h (1 Bft) NO 54 ° 1 min 0,000 mm 7,4 UV-I 895 W/m² 10,9 °C 26,8 °C 8,0 km/h (2 Bft)
29.05.2017 13:28 26,7 °C 26,8 °C 36 % 1012,8 hPa 0,0 mm 4,6 km/h (1 Bft) NO 40 ° 1 min 0,000 mm 7,5 UV-I 898 W/m² 10,4 °C 26,7 °C 8,0 km/h (2 Bft)
29.05.2017 13:29 26,8 °C 26,8 °C 38 % 1012,8 hPa 0,0 mm 1,0 km/h (0 Bft) NO 41 ° 1 min 0,000 mm 7,4 UV-I 900 W/m² 11,3 °C 26,8 °C 3,2 km/h (1 Bft)
29.05.2017 13:30 26,8 °C 26,8 °C 45 % 1012,8 hPa 0,0 mm 5,2 km/h (1 Bft) O-NO 73 ° 1 min 0,000 mm 7,5 UV-I 902 W/m² 13,9 °C 26,8 °C 8,0 km/h (2 Bft)
29.05.2017 13:31 26,8 °C 26,8 °C 45 % 1012,8 hPa 0,0 mm 5,0 km/h (1 Bft) O 91 ° 1 min 0,000 mm 7,5 UV-I 902 W/m² 13,9 °C 26,8 °C 6,4 km/h (2 Bft)
29.05.2017 13:32 26,8 °C 26,8 °C 40 % 1012,8 hPa 0,0 mm 3,4 km/h (1 Bft) N-NO 25 ° 1 min 0,000 mm 7,5 UV-I 902 W/m² 12,1 °C 26,8 °C 4,8 km/h (1 Bft)
29.05.2017 13:33 26,8 °C 26,8 °C 44 % 1012,8 hPa 0,0 mm 5,4 km/h (1 Bft) N-NO 19 ° 1 min 0,000 mm 7,5 UV-I 902 W/m² 13,5 °C 26,8 °C 8,0 km/h (2 Bft)
29.05.2017 13:34 26,9 °C 26,9 °C 41 % 1012,8 hPa 0,0 mm 3,5 km/h (1 Bft) O 83 ° 1 min 0,000 mm 7,4 UV-I 898 W/m² 12,5 °C 26,9 °C 6,4 km/h (2 Bft)
29.05.2017 13:35 26,9 °C 27,0 °C 37 % 1012,8 hPa 0,0 mm 7,5 km/h (2 Bft) O-SO 117 ° 1 min 0,000 mm 7,5 UV-I 900 W/m² 11,0 °C 26,9 °C 11,3 km/h (2 Bft)
29.05.2017 13:36 26,7 °C 26,9 °C 37 % 1012,8 hPa 0,0 mm 2,3 km/h (1 Bft) SO 133 ° 1 min 0,000 mm 7,4 UV-I 900 W/m² 10,8 °C 26,7 °C 6,4 km/h (2 Bft)
29.05.2017 13:37 26,6 °C 26,7 °C 37 % 1012,7 hPa 0,0 mm 3,9 km/h (1 Bft) NO 51 ° 1 min 0,000 mm 7,4 UV-I 896 W/m² 10,7 °C 26,6 °C 6,4 km/h (2 Bft)
29.05.2017 13:38 26,6 °C 26,6 °C 36 % 1012,8 hPa 0,0 mm 3,0 km/h (1 Bft) NO 53 ° 1 min 0,000 mm 7,4 UV-I 895 W/m² 10,3 °C 26,6 °C 4,8 km/h (1 Bft)
29.05.2017 13:39 26,7 °C 26,7 °C 38 % 1012,8 hPa 0,0 mm 3,1 km/h (1 Bft) O 81 ° 1 min 0,000 mm 7,4 UV-I 896 W/m² 11,2 °C 26,7 °C 4,8 km/h (1 Bft)
29.05.2017 13:40 26,8 °C 26,8 °C 39 % 1012,7 hPa 0,0 mm 3,4 km/h (1 Bft) S-SW 204 ° 1 min 0,000 mm 7,4 UV-I 898 W/m² 11,7 °C 26,8 °C 4,8 km/h (1 Bft)
29.05.2017 13:41 26,8 °C 26,8 °C 38 % 1012,7 hPa 0,0 mm 1,2 km/h (1 Bft) O-SO 105 ° 1 min 0,000 mm 7,4 UV-I 898 W/m² 11,3 °C 26,8 °C 3,2 km/h (1 Bft)
29.05.2017 13:42 26,8 °C 26,8 °C 42 % 1012,7 hPa 0,0 mm 0,6 km/h (0 Bft) O-SO 104 ° 1 min 0,000 mm 7,4 UV-I 898 W/m² 12,8 °C 26,8 °C 1,6 km/h (1 Bft)
29.05.2017 13:43 26,9 °C 26,9 °C 45 % 1012,7 hPa 0,0 mm 0,7 km/h (0 Bft) NO 42 ° 1 min 0,000 mm 7,4 UV-I 896 W/m² 13,9 °C 26,9 °C 3,2 km/h (1 Bft)
29.05.2017 13:44 27,1 °C 27,1 °C 43 % 1012,7 hPa 0,0 mm 8,6 km/h (2 Bft) NO 36 ° 1 min 0,000 mm 7,4 UV-I 898 W/m² 13,4 °C 27,1 °C 11,3 km/h (2 Bft)
29.05.2017 13:45 27,1 °C 27,1 °C 35 % 1012,7 hPa 0,0 mm 6,2 km/h (2 Bft) N-NO 19 ° 1 min 0,000 mm 7,4 UV-I 895 W/m² 10,3 °C 27,1 °C 9,7 km/h (2 Bft)
29.05.2017 13:46 26,9 °C 27,1 °C 33 % 1012,7 hPa 0,0 mm 4,4 km/h (1 Bft) O 89 ° 1 min 0,000 mm 7,4 UV-I 896 W/m² 9,3 °C 26,9 °C 6,4 km/h (2 Bft)
29.05.2017 13:47 26,8 °C 26,9 °C 33 % 1012,7 hPa 0,0 mm 2,3 km/h (1 Bft) O 87 ° 1 min 0,000 mm 7,3 UV-I 895 W/m² 9,2 °C 26,8 °C 6,4 km/h (2 Bft)
29.05.2017 13:48 26,8 °C 26,8 °C 39 % 1012,7 hPa 0,0 mm 4,4 km/h (1 Bft) NO 51 ° 1 min 0,000 mm 7,3 UV-I 895 W/m² 11,7 °C 26,8 °C 6,4 km/h (2 Bft)
29.05.2017 13:49 26,8 °C 26,8 °C 34 % 1012,7 hPa 0,0 mm 4,1 km/h (1 Bft) O-SO 109 ° 1 min 0,000 mm 7,3 UV-I 895 W/m² 9,6 °C 26,8 °C 6,4 km/h (2 Bft)
29.05.2017 13:50 26,8 °C 26,8 °C 35 % 1012,7 hPa 0,0 mm 4,2 km/h (1 Bft) SO 141 ° 1 min 0,000 mm 7,3 UV-I 895 W/m² 10,0 °C 26,8 °C 6,4 km/h (2 Bft)
29.05.2017 13:51 26,8 °C 26,8 °C 34 % 1012,6 hPa 0,0 mm 3,1 km/h (1 Bft) NO 49 ° 1 min 0,000 mm 7,4 UV-I 896 W/m² 9,6 °C 26,8 °C 6,4 km/h (2 Bft)
29.05.2017 13:52 26,8 °C 26,8 °C 34 % 1012,6 hPa 0,0 mm 4,7 km/h (1 Bft) O-NO 61 ° 1 min 0,000 mm 7,4 UV-I 896 W/m² 9,6 °C 26,8 °C 9,7 km/h (2 Bft)
29.05.2017 13:53 26,9 °C 26,9 °C 43 % 1012,6 hPa 0,0 mm 3,1 km/h (1 Bft) N-NO 32 ° 1 min 0,000 mm 7,4 UV-I 896 W/m² 13,2 °C 26,9 °C 4,8 km/h (1 Bft)
29.05.2017 13:54 27,1 °C 27,1 °C 39 % 1012,6 hPa 0,0 mm 5,0 km/h (1 Bft) N-NO 33 ° 1 min 0,000 mm 7,4 UV-I 895 W/m² 11,9 °C 27,1 °C 9,7 km/h (2 Bft)
29.05.2017 13:55 27,1 °C 27,1 °C 35 % 1012,5 hPa 0,0 mm 6,7 km/h (2 Bft) S-SO 159 ° 1 min 0,000 mm 7,4 UV-I 898 W/m² 10,3 °C 27,1 °C 11,3 km/h (2 Bft)
29.05.2017 13:56 27,0 °C 27,1 °C 35 % 1012,5 hPa 0,0 mm 8,8 km/h (2 Bft) S 186 ° 1 min 0,000 mm 7,4 UV-I 898 W/m² 10,2 °C 27,0 °C 11,3 km/h (2 Bft)
29.05.2017 13:57 26,9 °C 27,0 °C 36 % 1012,6 hPa 0,0 mm 8,9 km/h (2 Bft) O-SO 116 ° 1 min 0,000 mm 7,4 UV-I 896 W/m² 10,6 °C 26,9 °C 12,9 km/h (3 Bft)
29.05.2017 13:58 26,8 °C 26,9 °C 36 % 1012,6 hPa 0,0 mm 1,5 km/h (1 Bft) SO 126 ° 1 min 0,000 mm 7,4 UV-I 896 W/m² 10,5 °C 26,8 °C 4,8 km/h (1 Bft)
29.05.2017 13:59 26,8 °C 26,9 °C 35 % 1012,5 hPa 0,0 mm 1,2 km/h (1 Bft) SO 126 ° 1 min 0,000 mm 7,4 UV-I 896 W/m² 10,0 °C 26,8 °C 3,2 km/h (1 Bft)
29.05.2017 14:00 26,8 °C 26,8 °C 34 % 1012,5 hPa 0,0 mm 0,5 km/h (0 Bft) SO 127 ° 1 min 0,000 mm 7,4 UV-I 895 W/m² 9,6 °C 26,8 °C 1,6 km/h (1 Bft)
29.05.2017 14:01 26,8 °C 26,8 °C 36 % 1012,5 hPa 0,0 mm 0,3 km/h (0 Bft) SO 127 ° 1 min 0,610 mm 7,4 UV-I 893 W/m² 10,5 °C 26,8 °C 1,6 km/h (1 Bft)
29.05.2017 14:02 26,8 °C 26,8 °C 38 % 1012,5 hPa 0,0 mm 1,3 km/h (1 Bft) O-NO 71 ° 1 min 0,000 mm 7,4 UV-I 891 W/m² 11,3 °C 26,8 °C 11,3 km/h (2 Bft)
29.05.2017 14:03 26,9 °C 26,9 °C 37 % 1012,5 hPa 0,0 mm 8,2 km/h (2 Bft) O-NO 76 ° 1 min 0,000 mm 7,3 UV-I 891 W/m² 11,0 °C 26,9 °C 12,9 km/h (3 Bft)
29.05.2017 14:04 26,9 °C 26,9 °C 39 % 1012,5 hPa 0,0 mm 4,4 km/h (1 Bft) O-NO 57 ° 1 min 0,000 mm 7,3 UV-I 891 W/m² 11,8 °C 26,9 °C 6,4 km/h (2 Bft)
29.05.2017 14:05 26,9 °C 26,9 °C 34 % 1012,4 hPa 0,0 mm 4,7 km/h (1 Bft) NO 34 ° 1 min 0,000 mm 7,3 UV-I 889 W/m² 9,7 °C 26,9 °C 8,0 km/h (2 Bft)
29.05.2017 14:06 27,1 °C 27,1 °C 37 % 1012,4 hPa 0,0 mm 6,4 km/h (2 Bft) N-NO 32 ° 1 min 0,000 mm 7,3 UV-I 889 W/m² 11,1 °C 27,1 °C 14,5 km/h (3 Bft)
29.05.2017 14:07 27,2 °C 27,2 °C 34 % 1012,4 hPa 0,0 mm 7,3 km/h (2 Bft) O-NO 76 ° 1 min 0,000 mm 7,3 UV-I 889 W/m² 10,0 °C 27,2 °C 11,3 km/h (2 Bft)
29.05.2017 14:08 27,4 °C 27,4 °C 37 % 1012,3 hPa 0,0 mm 5,5 km/h (1 Bft) N-NO 19 ° 1 min 0,000 mm 7,2 UV-I 888 W/m² 11,4 °C 27,4 °C 8,0 km/h (2 Bft)
29.05.2017 14:09 27,4 °C 27,4 °C 31 % 1012,4 hPa 0,0 mm 2,6 km/h (1 Bft) N 5 ° 1 min 0,000 mm 7,2 UV-I 886 W/m² 8,8 °C 27,4 °C 4,8 km/h (1 Bft)
29.05.2017 14:10 27,4 °C 27,4 °C 32 % 1012,3 hPa 0,0 mm 2,9 km/h (1 Bft) N-NW 346 ° 1 min 0,000 mm 7,2 UV-I 884 W/m² 9,2 °C 27,4 °C 4,8 km/h (1 Bft)
29.05.2017 14:11 27,3 °C 27,4 °C 37 % 1012,3 hPa 0,0 mm 2,7 km/h (1 Bft) N-NW 347 ° 1 min 0,000 mm 7,2 UV-I 886 W/m² 11,3 °C 27,3 °C 4,8 km/h (1 Bft)
29.05.2017 14:12 27,4 °C 27,4 °C 38 % 1012,3 hPa 0,0 mm 5,5 km/h (1 Bft) N-NW 341 ° 1 min 0,000 mm 7,2 UV-I 884 W/m² 11,8 °C 27,4 °C 9,7 km/h (2 Bft)
29.05.2017 14:13 27,4 °C 27,4 °C 39 % 1012,2 hPa 0,0 mm 3,9 km/h (1 Bft) O-NO 72 ° 1 min 0,000 mm 7,2 UV-I 882 W/m² 12,2 °C 27,4 °C 6,4 km/h (2 Bft)
29.05.2017 14:14 27,4 °C 27,4 °C 33 % 1012,3 hPa 0,0 mm 7,0 km/h (2 Bft) O-NO 67 ° 1 min 0,000 mm 7,2 UV-I 882 W/m² 9,7 °C 27,4 °C 11,3 km/h (2 Bft)
29.05.2017 14:15 27,3 °C 27,4 °C 36 % 1012,2 hPa 0,0 mm 9,1 km/h (2 Bft) O-NO 77 ° 1 min 0,000 mm 7,2 UV-I 881 W/m² 10,9 °C 27,3 °C 16,1 km/h (3 Bft)
29.05.2017 14:16 27,3 °C 27,3 °C 33 % 1012,2 hPa 0,0 mm 9,9 km/h (2 Bft) N-NO 32 ° 1 min 0,000 mm 7,1 UV-I 879 W/m² 9,6 °C 27,3 °C 14,5 km/h (3 Bft)
29.05.2017 14:17 27,2 °C 27,3 °C 34 % 1012,2 hPa 0,0 mm 4,9 km/h (1 Bft) N-NO 17 ° 1 min 0,000 mm 7,1 UV-I 879 W/m² 10,0 °C 27,2 °C 8,0 km/h (2 Bft)
29.05.2017 14:18 27,3 °C 27,3 °C 33 % 1012,2 hPa 0,0 mm 4,6 km/h (1 Bft) O-NO 69 ° 1 min 0,000 mm 7,1 UV-I 877 W/m² 9,6 °C 27,3 °C 8,0 km/h (2 Bft)
29.05.2017 14:19 27,3 °C 27,3 °C 32 % 1012,2 hPa 0,0 mm 2,1 km/h (1 Bft) O-NO 70 ° 1 min 0,000 mm 7,1 UV-I 877 W/m² 9,1 °C 27,3 °C 4,8 km/h (1 Bft)
29.05.2017 14:20 27,2 °C 27,3 °C 34 % 1012,2 hPa 0,0 mm 1,4 km/h (1 Bft) O-NO 69 ° 1 min 0,000 mm 7,1 UV-I 879 W/m² 10,0 °C 27,2 °C 4,8 km/h (1 Bft)
29.05.2017 14:21 27,2 °C 27,2 °C 33 % 1012,2 hPa 0,0 mm 3,6 km/h (1 Bft) O-SO 110 ° 1 min 0,000 mm 7,1 UV-I 879 W/m² 9,5 °C 27,2 °C 6,4 km/h (2 Bft)
29.05.2017 14:22 27,1 °C 27,2 °C 35 % 1012,2 hPa 0,0 mm 9,5 km/h (2 Bft) O-NO 57 ° 1 min 0,000 mm 7,1 UV-I 879 W/m² 10,3 °C 27,1 °C 16,1 km/h (3 Bft)
29.05.2017 14:23 27,1 °C 27,2 °C 34 % 1012,2 hPa 0,0 mm 10,3 km/h (2 Bft) NO 36 ° 1 min 0,000 mm 7,1 UV-I 879 W/m² 9,9 °C 27,1 °C 14,5 km/h (3 Bft)
29.05.2017 14:24 27,2 °C 27,2 °C 34 % 1012,2 hPa 0,0 mm 8,9 km/h (2 Bft) NO 42 ° 1 min 0,000 mm 7,1 UV-I 877 W/m² 10,0 °C 27,2 °C 12,9 km/h (3 Bft)
29.05.2017 14:25 27,2 °C 27,2 °C 32 % 1012,2 hPa 0,0 mm 9,3 km/h (2 Bft) NO 44 ° 1 min 0,000 mm 7,0 UV-I 875 W/m² 9,1 °C 27,2 °C 16,1 km/h (3 Bft)
29.05.2017 14:26 27,2 °C 27,2 °C 32 % 1012,2 hPa 0,0 mm 8,5 km/h (2 Bft) NO 38 ° 1 min 0,000 mm 7,0 UV-I 875 W/m² 9,1 °C 27,2 °C 14,5 km/h (3 Bft)
29.05.2017 14:27 27,2 °C 27,2 °C 33 % 1012,3 hPa 0,0 mm 7,7 km/h (2 Bft) NO 56 ° 1 min 0,000 mm 7,0 UV-I 874 W/m² 9,5 °C 27,2 °C 11,3 km/h (2 Bft)
29.05.2017 14:28 27,1 °C 27,2 °C 33 % 1012,2 hPa 0,0 mm 5,7 km/h (1 Bft) NO 55 ° 1 min 0,000 mm 7,0 UV-I 872 W/m² 9,4 °C 27,1 °C 9,7 km/h (2 Bft)
29.05.2017 14:29 27,1 °C 27,1 °C 31 % 1012,2 hPa 0,0 mm 3,6 km/h (1 Bft) O-NO 73 ° 1 min 0,000 mm 7,0 UV-I 870 W/m² 8,5 °C 27,1 °C 8,0 km/h (2 Bft)
29.05.2017 14:30 27,1 °C 27,1 °C 34 % 1012,1 hPa 0,0 mm 7,0 km/h (2 Bft) O 80 ° 1 min 0,000 mm 6,9 UV-I 868 W/m² 9,9 °C 27,1 °C 9,7 km/h (2 Bft)
29.05.2017 14:31 27,0 °C 27,1 °C 34 % 1012,1 hPa 0,0 mm 4,7 km/h (1 Bft) O-NO 57 ° 1 min 0,000 mm 6,9 UV-I 867 W/m² 9,8 °C 27,0 °C 11,3 km/h (2 Bft)
29.05.2017 14:32 26,9 °C 27,0 °C 33 % 1012,1 hPa 0,0 mm 1,9 km/h (1 Bft) O-NO 57 ° 1 min 0,000 mm 6,9 UV-I 865 W/m² 9,3 °C 26,9 °C 4,8 km/h (1 Bft)
29.05.2017 14:33 26,9 °C 26,9 °C 36 % 1012,0 hPa 0,0 mm 5,0 km/h (1 Bft) W 263 ° 1 min 0,000 mm 6,9 UV-I 865 W/m² 10,6 °C 26,9 °C 6,4 km/h (2 Bft)
29.05.2017 14:34 27,1 °C 27,1 °C 38 % 1012,1 hPa 0,0 mm 3,3 km/h (1 Bft) N 360 ° 1 min 0,000 mm 6,9 UV-I 865 W/m² 11,5 °C 27,1 °C 4,8 km/h (1 Bft)
29.05.2017 14:35 27,2 °C 27,2 °C 33 % 1012,0 hPa 0,0 mm 3,2 km/h (1 Bft) O-NO 58 ° 1 min 0,000 mm 6,9 UV-I 865 W/m² 9,5 °C 27,2 °C 4,8 km/h (1 Bft)
29.05.2017 14:36 27,3 °C 27,3 °C 30 % 1012,1 hPa 0,0 mm 6,6 km/h (2 Bft) O-NO 71 ° 1 min 0,000 mm 6,9 UV-I 863 W/m² 8,2 °C 27,3 °C 9,7 km/h (2 Bft)
29.05.2017 14:37 27,3 °C 27,3 °C 34 % 1012,1 hPa 0,0 mm 3,8 km/h (1 Bft) NO 44 ° 1 min 0,000 mm 6,8 UV-I 861 W/m² 10,0 °C 27,3 °C 6,4 km/h (2 Bft)
29.05.2017 14:38 27,4 °C 27,4 °C 32 % 1012,1 hPa 0,0 mm 6,5 km/h (2 Bft) O-NO 60 ° 1 min 0,000 mm 6,8 UV-I 860 W/m² 9,2 °C 27,4 °C 14,5 km/h (3 Bft)
29.05.2017 14:39 27,4 °C 27,4 °C 32 % 1012,1 hPa 0,0 mm 4,1 km/h (1 Bft) NO 37 ° 1 min 0,000 mm 6,8 UV-I 860 W/m² 9,2 °C 27,4 °C 11,3 km/h (2 Bft)
29.05.2017 14:40 27,4 °C 27,4 °C 31 % 1012,0 hPa 0,0 mm 7,1 km/h (2 Bft) N 360 ° 1 min 0,000 mm 6,8 UV-I 860 W/m² 8,8 °C 27,4 °C 14,5 km/h (3 Bft)
29.05.2017 14:41 27,4 °C 27,5 °C 34 % 1012,1 hPa 0,0 mm 8,4 km/h (2 Bft) NO 39 ° 1 min 0,000 mm 6,8 UV-I 860 W/m² 10,1 °C 27,4 °C 16,1 km/h (3 Bft)
29.05.2017 14:42 27,4 °C 27,5 °C 29 % 1012,1 hPa 0,0 mm 10,3 km/h (2 Bft) N-NO 17 ° 1 min 0,000 mm 6,8 UV-I 858 W/m² 7,8 °C 27,4 °C 16,1 km/h (3 Bft)
29.05.2017 14:43 27,4 °C 27,4 °C 31 % 1012,0 hPa 0,0 mm 7,6 km/h (2 Bft) N-NO 31 ° 1 min 0,000 mm 6,7 UV-I 856 W/m² 8,8 °C 27,4 °C 12,9 km/h (3 Bft)
29.05.2017 14:44 27,5 °C 27,5 °C 31 % 1012,0 hPa 0,0 mm 6,4 km/h (2 Bft) N-NW 346 ° 1 min 0,000 mm 6,7 UV-I 856 W/m² 8,8 °C 27,5 °C 11,3 km/h (2 Bft)
29.05.2017 14:45 27,6 °C 27,6 °C 33 % 1012,0 hPa 0,0 mm 5,1 km/h (1 Bft) N 355 ° 1 min 0,000 mm 6,7 UV-I 854 W/m² 9,9 °C 27,6 °C 8,0 km/h (2 Bft)
29.05.2017 14:46 27,7 °C 27,7 °C 31 % 1012,0 hPa 0,0 mm 7,0 km/h (2 Bft) N-NW 341 ° 1 min 0,000 mm 6,7 UV-I 854 W/m² 9,0 °C 27,7 °C 9,7 km/h (2 Bft)
29.05.2017 14:47 27,7 °C 27,7 °C 31 % 1012,0 hPa 0,0 mm 6,8 km/h (2 Bft) N 5 ° 1 min 0,000 mm 6,7 UV-I 854 W/m² 9,0 °C 27,7 °C 9,7 km/h (2 Bft)
29.05.2017 14:48 27,7 °C 27,7 °C 30 % 1012,0 hPa 0,0 mm 3,3 km/h (1 Bft) NO 44 ° 1 min 0,000 mm 6,7 UV-I 853 W/m² 8,5 °C 27,7 °C 4,8 km/h (1 Bft)
29.05.2017 14:49 27,6 °C 27,7 °C 32 % 1012,0 hPa 0,0 mm 6,5 km/h (2 Bft) O-NO 66 ° 1 min 0,000 mm 6,7 UV-I 851 W/m² 9,4 °C 27,6 °C 8,0 km/h (2 Bft)
29.05.2017 14:50 27,6 °C 27,6 °C 30 % 1011,9 hPa 0,0 mm 6,4 km/h (2 Bft) O-NO 63 ° 1 min 0,000 mm 6,7 UV-I 851 W/m² 8,4 °C 27,6 °C 12,9 km/h (3 Bft)
29.05.2017 14:51 27,5 °C 27,6 °C 33 % 1012,0 hPa 0,0 mm 7,8 km/h (2 Bft) NO 44 ° 1 min 0,000 mm 6,7 UV-I 851 W/m² 9,8 °C 27,5 °C 12,9 km/h (3 Bft)
29.05.2017 14:52 27,5 °C 27,5 °C 31 % 1012,0 hPa 0,0 mm 6,1 km/h (2 Bft) O 87 ° 1 min 0,000 mm 6,6 UV-I 849 W/m² 8,8 °C 27,5 °C 11,3 km/h (2 Bft)
29.05.2017 14:53 27,4 °C 27,5 °C 31 % 1012,0 hPa 0,0 mm 2,7 km/h (1 Bft) NO 36 ° 1 min 0,000 mm 6,6 UV-I 846 W/m² 8,8 °C 27,4 °C 4,8 km/h (1 Bft)
29.05.2017 14:54 27,5 °C 27,5 °C 32 % 1012,0 hPa 0,0 mm 5,8 km/h (2 Bft) O-NO 61 ° 1 min 0,000 mm 6,6 UV-I 844 W/m² 9,3 °C 27,5 °C 8,0 km/h (2 Bft)
29.05.2017 14:55 27,5 °C 27,5 °C 31 % 1012,0 hPa 0,0 mm 3,8 km/h (1 Bft) N-NO 18 ° 1 min 0,000 mm 6,5 UV-I 844 W/m² 8,8 °C 27,5 °C 6,4 km/h (2 Bft)
29.05.2017 14:56 27,5 °C 27,5 °C 32 % 1011,9 hPa 0,0 mm 3,6 km/h (1 Bft) N 355 ° 1 min 0,000 mm 6,5 UV-I 838 W/m² 9,3 °C 27,5 °C 6,4 km/h (2 Bft)
29.05.2017 14:57 27,6 °C 27,6 °C 35 % 1011,9 hPa 0,0 mm 3,0 km/h (1 Bft) N 5 ° 1 min 0,000 mm 6,5 UV-I 840 W/m² 10,7 °C 27,6 °C 6,4 km/h (2 Bft)
29.05.2017 14:58 27,7 °C 27,7 °C 34 % 1011,9 hPa 0,0 mm 3,0 km/h (1 Bft) O-NO 65 ° 1 min 0,000 mm 6,5 UV-I 837 W/m² 10,4 °C 27,7 °C 9,7 km/h (2 Bft)
29.05.2017 14:59 27,7 °C 27,7 °C 36 % 1011,9 hPa 0,0 mm 8,0 km/h (2 Bft) O 80 ° 1 min 0,000 mm 6,5 UV-I 835 W/m² 11,3 °C 27,7 °C 14,5 km/h (3 Bft)
29.05.2017 15:00 27,7 °C 27,7 °C 32 % 1011,9 hPa 0,0 mm 8,6 km/h (2 Bft) O-NO 69 ° 1 min 0,000 mm 6,4 UV-I 833 W/m² 9,5 °C 27,7 °C 12,9 km/h (3 Bft)
29.05.2017 15:01 27,6 °C 27,7 °C 33 % 1011,9 hPa 0,0 mm 8,2 km/h (2 Bft) O-NO 71 ° 1 min 0,635 mm 6,4 UV-I 833 W/m² 9,9 °C 27,6 °C 12,9 km/h (3 Bft)
29.05.2017 15:02 27,7 °C 27,7 °C 34 % 1011,9 hPa 0,0 mm 7,2 km/h (2 Bft) SO 130 ° 1 min 0,000 mm 6,4 UV-I 833 W/m² 10,4 °C 27,7 °C 11,3 km/h (2 Bft)
29.05.2017 15:03 27,6 °C 27,7 °C 28 % 1011,9 hPa 0,0 mm 4,8 km/h (1 Bft) NO 46 ° 1 min 0,000 mm 6,4 UV-I 833 W/m² 7,4 °C 27,6 °C 11,3 km/h (2 Bft)
29.05.2017 15:04 27,6 °C 27,7 °C 28 % 1011,9 hPa 0,0 mm 8,6 km/h (2 Bft) O-NO 74 ° 1 min 0,000 mm 6,4 UV-I 831 W/m² 7,4 °C 27,6 °C 12,9 km/h (3 Bft)
29.05.2017 15:05 27,6 °C 27,7 °C 28 % 1011,9 hPa 0,0 mm 8,9 km/h (2 Bft) O-NO 65 ° 1 min 0,000 mm 6,4 UV-I 831 W/m² 7,4 °C 27,6 °C 12,9 km/h (3 Bft)
29.05.2017 15:06 27,7 °C 27,7 °C 27 % 1011,9 hPa 0,0 mm 7,8 km/h (2 Bft) SO 128 ° 1 min 0,000 mm 6,4 UV-I 830 W/m² 7,0 °C 27,7 °C 11,3 km/h (2 Bft)
29.05.2017 15:07 27,6 °C 27,7 °C 31 % 1011,9 hPa 0,0 mm 5,5 km/h (1 Bft) O-SO 112 ° 1 min 0,000 mm 6,4 UV-I 830 W/m² 8,9 °C 27,6 °C 8,0 km/h (2 Bft)
29.05.2017 15:08 27,5 °C 27,7 °C 30 % 1011,9 hPa 0,0 mm 7,1 km/h (2 Bft) O 92 ° 1 min 0,000 mm 6,4 UV-I 826 W/m² 8,4 °C 27,5 °C 11,3 km/h (2 Bft)
29.05.2017 15:09 27,4 °C 27,5 °C 31 % 1011,9 hPa 0,0 mm 6,9 km/h (2 Bft) O-NO 74 ° 1 min 0,000 mm 6,3 UV-I 823 W/m² 8,8 °C 27,4 °C 9,7 km/h (2 Bft)
29.05.2017 15:10 27,5 °C 27,5 °C 31 % 1011,9 hPa 0,0 mm 5,9 km/h (2 Bft) SO 133 ° 1 min 0,000 mm 6,3 UV-I 823 W/m² 8,8 °C 27,5 °C 8,0 km/h (2 Bft)
29.05.2017 15:11 27,5 °C 27,5 °C 35 % 1011,9 hPa 0,0 mm 4,7 km/h (1 Bft) O-NO 65 ° 1 min 0,000 mm 6,2 UV-I 819 W/m² 10,7 °C 27,5 °C 9,7 km/h (2 Bft)
29.05.2017 15:12 27,6 °C 27,6 °C 31 % 1011,8 hPa 0,0 mm 8,2 km/h (2 Bft) O 87 ° 1 min 0,000 mm 6,2 UV-I 819 W/m² 8,9 °C 27,6 °C 16,1 km/h (3 Bft)
29.05.2017 15:13 27,5 °C 27,6 °C 31 % 1011,9 hPa 0,0 mm 7,2 km/h (2 Bft) N-NO 32 ° 1 min 0,000 mm 6,2 UV-I 816 W/m² 8,8 °C 27,5 °C 16,1 km/h (3 Bft)
29.05.2017 15:14 27,6 °C 27,6 °C 33 % 1011,8 hPa 0,0 mm 6,5 km/h (2 Bft) O-NO 68 ° 1 min 0,000 mm 6,2 UV-I 814 W/m² 9,9 °C 27,6 °C 12,9 km/h (3 Bft)
29.05.2017 15:15 27,6 °C 27,6 °C 34 % 1011,9 hPa 0,0 mm 9,5 km/h (2 Bft) NO 49 ° 1 min 0,000 mm 6,1 UV-I 812 W/m² 10,3 °C 27,6 °C 16,1 km/h (3 Bft)
29.05.2017 15:16 27,6 °C 27,6 °C 34 % 1011,9 hPa 0,0 mm 7,7 km/h (2 Bft) O-NO 64 ° 1 min 0,000 mm 6,1 UV-I 809 W/m² 10,3 °C 27,6 °C 9,7 km/h (2 Bft)
29.05.2017 15:17 27,6 °C 27,6 °C 34 % 1011,8 hPa 0,0 mm 9,1 km/h (2 Bft) O 91 ° 1 min 0,000 mm 6,1 UV-I 803 W/m² 10,3 °C 27,6 °C 14,5 km/h (3 Bft)
29.05.2017 15:18 27,6 °C 27,6 °C 31 % 1011,9 hPa 0,0 mm 2,6 km/h (1 Bft) S-SO 164 ° 1 min 0,000 mm 6,0 UV-I 803 W/m² 8,9 °C 27,6 °C 6,4 km/h (2 Bft)
29.05.2017 15:19 27,4 °C 27,6 °C 29 % 1011,8 hPa 0,0 mm 3,0 km/h (1 Bft) O 101 ° 1 min 0,000 mm 6,0 UV-I 800 W/m² 7,8 °C 27,4 °C 4,8 km/h (1 Bft)
29.05.2017 15:20 27,4 °C 27,4 °C 30 % 1011,8 hPa 0,0 mm 0,9 km/h (0 Bft) O-SO 103 ° 1 min 0,000 mm 6,0 UV-I 798 W/m² 8,3 °C 27,4 °C 3,2 km/h (1 Bft)
29.05.2017 15:21 27,4 °C 27,4 °C 31 % 1011,7 hPa 0,0 mm 4,1 km/h (1 Bft) NO 46 ° 1 min 0,000 mm 6,0 UV-I 796 W/m² 8,8 °C 27,4 °C 6,4 km/h (2 Bft)
29.05.2017 15:22 27,4 °C 27,4 °C 33 % 1011,8 hPa 0,0 mm 8,4 km/h (2 Bft) N-NO 26 ° 1 min 0,000 mm 5,9 UV-I 793 W/m² 9,7 °C 27,4 °C 14,5 km/h (3 Bft)
29.05.2017 15:23 27,6 °C 27,6 °C 32 % 1011,8 hPa 0,0 mm 5,1 km/h (1 Bft) NO 55 ° 1 min 0,000 mm 5,9 UV-I 788 W/m² 9,4 °C 27,6 °C 6,4 km/h (2 Bft)
29.05.2017 15:24 27,6 °C 27,6 °C 32 % 1011,8 hPa 0,0 mm 5,4 km/h (1 Bft) N 360 ° 1 min 0,000 mm 5,9 UV-I 788 W/m² 9,4 °C 27,6 °C 14,5 km/h (3 Bft)
29.05.2017 15:25 27,7 °C 27,7 °C 32 % 1011,8 hPa 0,0 mm 8,4 km/h (2 Bft) O-NO 67 ° 1 min 0,000 mm 5,9 UV-I 788 W/m² 9,5 °C 27,7 °C 12,9 km/h (3 Bft)
29.05.2017 15:26 27,6 °C 27,7 °C 32 % 1011,8 hPa 0,0 mm 5,9 km/h (2 Bft) NO 54 ° 1 min 0,000 mm 5,8 UV-I 788 W/m² 9,4 °C 27,6 °C 12,9 km/h (3 Bft)
29.05.2017 15:27 27,5 °C 27,6 °C 32 % 1011,8 hPa 0,0 mm 9,2 km/h (2 Bft) O 90 ° 1 min 0,000 mm 5,8 UV-I 784 W/m² 9,3 °C 27,5 °C 12,9 km/h (3 Bft)
29.05.2017 15:28 27,4 °C 27,5 °C 33 % 1011,8 hPa 0,0 mm 11,3 km/h (2 Bft) O-NO 76 ° 1 min 0,000 mm 5,8 UV-I 786 W/m² 9,7 °C 27,4 °C 16,1 km/h (3 Bft)
29.05.2017 15:29 27,3 °C 27,4 °C 33 % 1011,8 hPa 0,0 mm 9,4 km/h (2 Bft) O 98 ° 1 min 0,000 mm 5,8 UV-I 782 W/m² 9,6 °C 27,3 °C 17,7 km/h (3 Bft)
29.05.2017 15:30 27,3 °C 27,3 °C 33 % 1011,8 hPa 0,0 mm 5,0 km/h (1 Bft) N-NO 28 ° 1 min 0,000 mm 5,8 UV-I 780 W/m² 9,6 °C 27,3 °C 8,0 km/h (2 Bft)
29.05.2017 15:31 27,4 °C 27,4 °C 32 % 1011,7 hPa 0,0 mm 7,8 km/h (2 Bft) NO 54 ° 1 min 0,000 mm 5,7 UV-I 777 W/m² 9,2 °C 27,4 °C 11,3 km/h (2 Bft)
29.05.2017 15:32 27,5 °C 27,5 °C 32 % 1011,8 hPa 0,0 mm 6,7 km/h (2 Bft) O-SO 113 ° 1 min 0,000 mm 5,7 UV-I 777 W/m² 9,3 °C 27,5 °C 11,3 km/h (2 Bft)
29.05.2017 15:33 27,4 °C 27,5 °C 31 % 1011,7 hPa 0,0 mm 2,5 km/h (1 Bft) S-SO 151 ° 1 min 0,000 mm 5,7 UV-I 775 W/m² 8,8 °C 27,4 °C 6,4 km/h (2 Bft)
29.05.2017 15:34 27,4 °C 27,4 °C 31 % 1011,7 hPa 0,0 mm 3,8 km/h (1 Bft) S-SW 203 ° 1 min 0,000 mm 5,7 UV-I 772 W/m² 8,8 °C 27,4 °C 6,4 km/h (2 Bft)
29.05.2017 15:35 27,4 °C 27,4 °C 32 % 1011,7 hPa 0,0 mm 4,6 km/h (1 Bft) O 86 ° 1 min 0,000 mm 5,6 UV-I 770 W/m² 9,2 °C 27,4 °C 9,7 km/h (2 Bft)
29.05.2017 15:36 27,3 °C 27,4 °C 32 % 1011,7 hPa 0,0 mm 2,1 km/h (1 Bft) NO 53 ° 1 min 0,000 mm 5,6 UV-I 770 W/m² 9,1 °C 27,3 °C 8,0 km/h (2 Bft)
29.05.2017 15:37 27,3 °C 27,3 °C 31 % 1011,6 hPa 0,0 mm 1,3 km/h (1 Bft) NO 51 ° 1 min 0,000 mm 5,6 UV-I 766 W/m² 8,7 °C 27,3 °C 3,2 km/h (1 Bft)
29.05.2017 15:38 27,4 °C 27,4 °C 31 % 1011,6 hPa 0,0 mm 3,0 km/h (1 Bft) O-NO 67 ° 1 min 0,000 mm 5,6 UV-I 763 W/m² 8,8 °C 27,4 °C 6,4 km/h (2 Bft)
29.05.2017 15:39 27,6 °C 27,6 °C 38 % 1011,7 hPa 0,0 mm 3,8 km/h (1 Bft) O-NO 63 ° 1 min 0,000 mm 5,5 UV-I 761 W/m² 12,0 °C 27,6 °C 6,4 km/h (2 Bft)
29.05.2017 15:40 27,5 °C 27,6 °C 33 % 1011,6 hPa 0,0 mm 2,6 km/h (1 Bft) N 10 ° 1 min 0,000 mm 5,5 UV-I 761 W/m² 9,8 °C 27,5 °C 4,8 km/h (1 Bft)
29.05.2017 15:41 27,6 °C 27,6 °C 35 % 1011,6 hPa 0,0 mm 3,6 km/h (1 Bft) N-NO 18 ° 1 min 0,000 mm 5,5 UV-I 759 W/m² 10,7 °C 27,6 °C 8,0 km/h (2 Bft)
29.05.2017 15:42 27,7 °C 27,7 °C 36 % 1011,6 hPa 0,0 mm 1,5 km/h (1 Bft) N-NO 19 ° 1 min 0,000 mm 5,5 UV-I 759 W/m² 11,3 °C 27,7 °C 3,2 km/h (1 Bft)
29.05.2017 15:43 27,8 °C 27,8 °C 33 % 1011,6 hPa 0,0 mm 3,3 km/h (1 Bft) O-NO 74 ° 1 min 0,000 mm 5,5 UV-I 756 W/m² 10,0 °C 27,8 °C 6,4 km/h (2 Bft)
29.05.2017 15:44 27,8 °C 27,8 °C 33 % 1011,6 hPa 0,0 mm 8,3 km/h (2 Bft) NO 49 ° 1 min 0,000 mm 5,5 UV-I 754 W/m² 10,0 °C 27,8 °C 17,7 km/h (3 Bft)
29.05.2017 15:45 27,8 °C 27,8 °C 36 % 1011,6 hPa 0,0 mm 8,4 km/h (2 Bft) N-NO 28 ° 1 min 0,000 mm 5,4 UV-I 752 W/m² 11,3 °C 27,8 °C 14,5 km/h (3 Bft)
29.05.2017 15:46 27,7 °C 27,8 °C 32 % 1011,6 hPa 0,0 mm 3,5 km/h (1 Bft) N-NO 32 ° 1 min 0,000 mm 5,4 UV-I 751 W/m² 9,5 °C 27,7 °C 4,8 km/h (1 Bft)
29.05.2017 15:47 27,8 °C 27,8 °C 32 % 1011,6 hPa 0,0 mm 3,2 km/h (1 Bft) O-NO 76 ° 1 min 0,000 mm 5,4 UV-I 747 W/m² 9,6 °C 27,8 °C 6,4 km/h (2 Bft)
29.05.2017 15:48 27,7 °C 27,8 °C 31 % 1011,6 hPa 0,0 mm 6,2 km/h (2 Bft) NO 49 ° 1 min 0,000 mm 5,3 UV-I 745 W/m² 9,0 °C 27,7 °C 8,0 km/h (2 Bft)
29.05.2017 15:49 27,7 °C 27,8 °C 33 % 1011,6 hPa 0,0 mm 10,1 km/h (2 Bft) O-NO 71 ° 1 min 0,000 mm 5,3 UV-I 744 W/m² 9,9 °C 27,7 °C 16,1 km/h (3 Bft)
29.05.2017 15:50 27,7 °C 27,8 °C 31 % 1011,6 hPa 0,0 mm 5,8 km/h (2 Bft) O-NO 58 ° 1 min 0,000 mm 5,3 UV-I 740 W/m² 9,0 °C 27,7 °C 9,7 km/h (2 Bft)
29.05.2017 15:51 27,7 °C 27,7 °C 31 % 1011,6 hPa 0,0 mm 8,5 km/h (2 Bft) O 81 ° 1 min 0,000 mm 5,2 UV-I 737 W/m² 9,0 °C 27,7 °C 11,3 km/h (2 Bft)
29.05.2017 15:52 27,7 °C 27,7 °C 30 % 1011,6 hPa 0,0 mm 4,6 km/h (1 Bft) O 86 ° 1 min 0,000 mm 5,2 UV-I 735 W/m² 8,5 °C 27,7 °C 8,0 km/h (2 Bft)
29.05.2017 15:53 27,7 °C 27,7 °C 37 % 1011,6 hPa 0,0 mm 3,4 km/h (1 Bft) O 95 ° 1 min 0,000 mm 5,2 UV-I 729 W/m² 11,7 °C 27,7 °C 6,4 km/h (2 Bft)
29.05.2017 15:54 27,6 °C 27,7 °C 31 % 1011,6 hPa 0,0 mm 3,1 km/h (1 Bft) SW 225 ° 1 min 0,000 mm 5,1 UV-I 728 W/m² 8,9 °C 27,6 °C 4,8 km/h (1 Bft)
29.05.2017 15:55 27,5 °C 27,6 °C 33 % 1011,5 hPa 0,0 mm 4,0 km/h (1 Bft) O-NO 76 ° 1 min 0,000 mm 5,1 UV-I 728 W/m² 9,8 °C 27,5 °C 8,0 km/h (2 Bft)
29.05.2017 15:56 27,5 °C 27,5 °C 38 % 1011,6 hPa 0,0 mm 8,1 km/h (2 Bft) SO 140 ° 1 min 0,000 mm 5,1 UV-I 726 W/m² 11,9 °C 27,5 °C 11,3 km/h (2 Bft)
29.05.2017 15:57 27,4 °C 27,5 °C 38 % 1011,6 hPa 0,0 mm 9,7 km/h (2 Bft) O 82 ° 1 min 0,000 mm 5,1 UV-I 724 W/m² 11,8 °C 27,4 °C 17,7 km/h (3 Bft)
29.05.2017 15:58 27,4 °C 27,4 °C 29 % 1011,5 hPa 0,0 mm 2,6 km/h (1 Bft) S 181 ° 1 min 0,000 mm 5,1 UV-I 722 W/m² 7,8 °C 27,4 °C 4,8 km/h (1 Bft)
29.05.2017 15:59 27,3 °C 27,4 °C 28 % 1011,4 hPa 0,0 mm 2,7 km/h (1 Bft) NO 51 ° 1 min 0,000 mm 5,0 UV-I 719 W/m² 7,2 °C 27,3 °C 4,8 km/h (1 Bft)
29.05.2017 16:00 27,3 °C 27,3 °C 33 % 1011,5 hPa 0,0 mm 4,6 km/h (1 Bft) O-NO 69 ° 1 min 0,000 mm 5,0 UV-I 717 W/m² 9,6 °C 27,3 °C 12,9 km/h (3 Bft)
29.05.2017 16:01 27,3 °C 27,3 °C 33 % 1011,5 hPa 0,0 mm 5,2 km/h (1 Bft) O 86 ° 1 min 0,584 mm 5,0 UV-I 717 W/m² 9,6 °C 27,3 °C 9,7 km/h (2 Bft)
29.05.2017 16:02 27,4 °C 27,4 °C 32 % 1011,5 hPa 0,0 mm 7,8 km/h (2 Bft) NO 34 ° 1 min 0,000 mm 5,0 UV-I 715 W/m² 9,2 °C 27,4 °C 12,9 km/h (3 Bft)
29.05.2017 16:03 27,5 °C 27,5 °C 32 % 1011,5 hPa 0,0 mm 10,0 km/h (2 Bft) NO 52 ° 1 min 0,000 mm 5,0 UV-I 714 W/m² 9,3 °C 27,5 °C 14,5 km/h (3 Bft)
29.05.2017 16:04 27,6 °C 27,6 °C 33 % 1011,5 hPa 0,0 mm 8,8 km/h (2 Bft) N-NO 15 ° 1 min 0,000 mm 5,0 UV-I 712 W/m² 9,9 °C 27,6 °C 12,9 km/h (3 Bft)
29.05.2017 16:05 27,7 °C 27,7 °C 32 % 1011,5 hPa 0,0 mm 9,5 km/h (2 Bft) N-NO 13 ° 1 min 0,000 mm 4,9 UV-I 707 W/m² 9,5 °C 27,7 °C 16,1 km/h (3 Bft)
29.05.2017 16:06 27,8 °C 27,8 °C 32 % 1011,5 hPa 0,0 mm 9,0 km/h (2 Bft) NO 54 ° 1 min 0,000 mm 4,9 UV-I 707 W/m² 9,6 °C 27,8 °C 14,5 km/h (3 Bft)
29.05.2017 16:07 27,7 °C 27,8 °C 31 % 1011,5 hPa 0,0 mm 10,1 km/h (2 Bft) O-NO 70 ° 1 min 0,000 mm 4,9 UV-I 705 W/m² 9,0 °C 27,7 °C 12,9 km/h (3 Bft)
29.05.2017 16:08 27,7 °C 27,7 °C 31 % 1011,4 hPa 0,0 mm 7,8 km/h (2 Bft) O 88 ° 1 min 0,000 mm 4,9 UV-I 701 W/m² 9,0 °C 27,7 °C 12,9 km/h (3 Bft)
29.05.2017 16:09 27,6 °C 27,7 °C 30 % 1011,5 hPa 0,0 mm 10,3 km/h (2 Bft) O-SO 117 ° 1 min 0,000 mm 4,8 UV-I 615 W/m² 8,4 °C 27,6 °C 14,5 km/h (3 Bft)
29.05.2017 16:10 27,4 °C 27,6 °C 33 % 1011,4 hPa 0,0 mm 6,0 km/h (2 Bft) NO 44 ° 0 min 0,000 mm 3,3 UV-I 70 W/m² 9,7 °C 27,4 °C 12,9 km/h (3 Bft)
29.05.2017 16:11 27,4 °C 27,4 °C 31 % 1011,4 hPa 0,0 mm 3,8 km/h (1 Bft) NO 49 ° 0 min 0,000 mm 2,3 UV-I 67 W/m² 8,8 °C 27,4 °C 8,0 km/h (2 Bft)
29.05.2017 16:12 27,3 °C 27,4 °C 31 % 1011,4 hPa 0,0 mm 5,9 km/h (2 Bft) O-NO 59 ° 0 min 0,000 mm 2,2 UV-I 63 W/m² 8,7 °C 27,3 °C 11,3 km/h (2 Bft)
29.05.2017 16:13 27,3 °C 27,3 °C 35 % 1011,4 hPa 0,0 mm 7,0 km/h (2 Bft) N-NO 28 ° 0 min 0,000 mm 2,2 UV-I 63 W/m² 10,5 °C 27,3 °C 14,5 km/h (3 Bft)
29.05.2017 16:14 27,4 °C 27,4 °C 34 % 1011,4 hPa 0,0 mm 4,1 km/h (1 Bft) NO 52 ° 0 min 0,000 mm 2,2 UV-I 63 W/m² 10,1 °C 27,4 °C 6,4 km/h (2 Bft)
29.05.2017 16:15 27,5 °C 27,5 °C 30 % 1011,4 hPa 0,0 mm 3,4 km/h (1 Bft) NO 54 ° 0 min 0,000 mm 2,2 UV-I 63 W/m² 8,4 °C 27,5 °C 6,4 km/h (2 Bft)
29.05.2017 16:16 27,6 °C 27,6 °C 34 % 1011,4 hPa 0,0 mm 3,4 km/h (1 Bft) N-NW 346 ° 0 min 0,000 mm 2,2 UV-I 63 W/m² 10,3 °C 27,6 °C 4,8 km/h (1 Bft)
29.05.2017 16:17 27,5 °C 27,6 °C 28 % 1011,4 hPa 0,0 mm 3,8 km/h (1 Bft) NO 40 ° 0 min 0,000 mm 2,2 UV-I 63 W/m² 7,3 °C 27,5 °C 6,4 km/h (2 Bft)
29.05.2017 16:18 27,5 °C 27,6 °C 28 % 1011,4 hPa 0,0 mm 4,4 km/h (1 Bft) NO 39 ° 0 min 0,000 mm 2,2 UV-I 69 W/m² 7,3 °C 27,5 °C 11,3 km/h (2 Bft)
29.05.2017 16:19 27,6 °C 27,6 °C 29 % 1011,4 hPa 0,0 mm 8,0 km/h (2 Bft) N-NW 340 ° 0 min 0,000 mm 2,2 UV-I 62 W/m² 7,9 °C 27,6 °C 16,1 km/h (3 Bft)
29.05.2017 16:20 27,5 °C 27,6 °C 29 % 1011,4 hPa 0,0 mm 6,2 km/h (2 Bft) N-NO 32 ° 0 min 0,000 mm 2,2 UV-I 62 W/m² 7,9 °C 27,5 °C 9,7 km/h (2 Bft)
29.05.2017 16:21 27,5 °C 27,6 °C 30 % 1011,4 hPa 0,0 mm 7,6 km/h (2 Bft) NO 34 ° 0 min 0,000 mm 2,2 UV-I 63 W/m² 8,4 °C 27,5 °C 12,9 km/h (3 Bft)
29.05.2017 16:22 27,6 °C 27,6 °C 29 % 1011,4 hPa 0,0 mm 4,4 km/h (1 Bft) N-NO 15 ° 0 min 0,000 mm 2,2 UV-I 63 W/m² 7,9 °C 27,6 °C 8,0 km/h (2 Bft)
29.05.2017 16:23 27,6 °C 27,6 °C 29 % 1011,3 hPa 0,0 mm 3,2 km/h (1 Bft) N-NO 13 ° 0 min 0,000 mm 2,2 UV-I 91 W/m² 7,9 °C 27,6 °C 4,8 km/h (1 Bft)
29.05.2017 16:24 27,6 °C 27,6 °C 29 % 1011,3 hPa 0,0 mm 2,9 km/h (1 Bft) N-NW 347 ° 0 min 0,000 mm 2,2 UV-I 86 W/m² 7,9 °C 27,6 °C 4,8 km/h (1 Bft)
29.05.2017 16:25 27,4 °C 27,6 °C 30 % 1011,3 hPa 0,0 mm 4,4 km/h (1 Bft) N 9 ° 0 min 0,000 mm 2,2 UV-I 65 W/m² 8,3 °C 27,4 °C 8,0 km/h (2 Bft)
29.05.2017 16:26 27,5 °C 27,5 °C 33 % 1011,3 hPa 0,0 mm 2,9 km/h (1 Bft) O 82 ° 0 min 0,000 mm 2,2 UV-I 63 W/m² 9,8 °C 27,5 °C 4,8 km/h (1 Bft)
29.05.2017 16:27 27,6 °C 27,6 °C 31 % 1011,3 hPa 0,0 mm 10,8 km/h (2 Bft) O-NO 65 ° 0 min 0,000 mm 2,1 UV-I 62 W/m² 8,9 °C 27,6 °C 16,1 km/h (3 Bft)
29.05.2017 16:28 27,5 °C 27,6 °C 31 % 1011,3 hPa 0,0 mm 8,8 km/h (2 Bft) NO 47 ° 0 min 0,000 mm 2,1 UV-I 62 W/m² 8,8 °C 27,5 °C 16,1 km/h (3 Bft)
29.05.2017 16:29 27,4 °C 27,5 °C 31 % 1011,3 hPa 0,0 mm 8,6 km/h (2 Bft) O 88 ° 0 min 0,000 mm 2,1 UV-I 63 W/m² 8,8 °C 27,4 °C 14,5 km/h (3 Bft)
29.05.2017 16:30 27,4 °C 27,5 °C 32 % 1011,3 hPa 0,0 mm 6,1 km/h (2 Bft) NO 49 ° 0 min 0,000 mm 2,1 UV-I 65 W/m² 9,2 °C 27,4 °C 11,3 km/h (2 Bft)
29.05.2017 16:31 27,4 °C 27,5 °C 32 % 1011,4 hPa 0,0 mm 5,1 km/h (1 Bft) NO 36 ° 0 min 0,000 mm 2,1 UV-I 62 W/m² 9,2 °C 27,4 °C 8,0 km/h (2 Bft)
29.05.2017 16:32 27,5 °C 27,5 °C 31 % 1011,3 hPa 0,0 mm 6,5 km/h (2 Bft) N-NO 29 ° 0 min 0,000 mm 2,1 UV-I 63 W/m² 8,8 °C 27,5 °C 8,0 km/h (2 Bft)
29.05.2017 16:33 27,5 °C 27,5 °C 30 % 1011,3 hPa 0,0 mm 5,3 km/h (1 Bft) N 11 ° 0 min 0,000 mm 2,1 UV-I 62 W/m² 8,4 °C 27,5 °C 8,0 km/h (2 Bft)
29.05.2017 16:34 27,5 °C 27,5 °C 31 % 1011,3 hPa 0,0 mm 3,1 km/h (1 Bft) NO 44 ° 0 min 0,000 mm 2,1 UV-I 62 W/m² 8,8 °C 27,5 °C 4,8 km/h (1 Bft)
29.05.2017 16:35 27,5 °C 27,5 °C 32 % 1011,4 hPa 0,0 mm 5,3 km/h (1 Bft) O-NO 69 ° 0 min 0,000 mm 2,1 UV-I 62 W/m² 9,3 °C 27,5 °C 8,0 km/h (2 Bft)
29.05.2017 16:36 27,6 °C 27,6 °C 32 % 1011,4 hPa 0,0 mm 4,6 km/h (1 Bft) N-NO 29 ° 0 min 0,000 mm 2,1 UV-I 62 W/m² 9,4 °C 27,6 °C 8,0 km/h (2 Bft)
29.05.2017 16:37 27,6 °C 27,6 °C 32 % 1011,3 hPa 0,0 mm 5,0 km/h (1 Bft) N-NO 30 ° 0 min 0,000 mm 2,1 UV-I 62 W/m² 9,4 °C 27,6 °C 6,4 km/h (2 Bft)
29.05.2017 16:38 27,6 °C 27,6 °C 30 % 1011,4 hPa 0,0 mm 7,1 km/h (2 Bft) N-NO 26 ° 0 min 0,000 mm 2,1 UV-I 62 W/m² 8,4 °C 27,6 °C 12,9 km/h (3 Bft)
29.05.2017 16:39 27,6 °C 27,6 °C 32 % 1011,3 hPa 0,0 mm 9,6 km/h (2 Bft) N-NO 14 ° 0 min 0,000 mm 2,0 UV-I 62 W/m² 9,4 °C 27,6 °C 16,1 km/h (3 Bft)
29.05.2017 16:40 27,6 °C 27,6 °C 31 % 1011,3 hPa 0,0 mm 6,9 km/h (2 Bft) N-NO 19 ° 0 min 0,000 mm 2,0 UV-I 62 W/m² 8,9 °C 27,6 °C 11,3 km/h (2 Bft)
29.05.2017 16:41 27,6 °C 27,6 °C 31 % 1011,3 hPa 0,0 mm 4,6 km/h (1 Bft) N-NO 12 ° 0 min 0,000 mm 2,0 UV-I 62 W/m² 8,9 °C 27,6 °C 8,0 km/h (2 Bft)
29.05.2017 16:42 27,6 °C 27,6 °C 32 % 1011,3 hPa 0,0 mm 7,2 km/h (2 Bft) N-NW 333 ° 0 min 0,000 mm 2,0 UV-I 62 W/m² 9,4 °C 27,6 °C 9,7 km/h (2 Bft)
29.05.2017 16:43 27,6 °C 27,7 °C 32 % 1011,3 hPa 0,0 mm 6,5 km/h (2 Bft) N 351 ° 0 min 0,000 mm 2,0 UV-I 62 W/m² 9,4 °C 27,6 °C 9,7 km/h (2 Bft)
29.05.2017 16:44 27,6 °C 27,6 °C 31 % 1011,3 hPa 0,0 mm 8,7 km/h (2 Bft) N-NO 15 ° 0 min 0,000 mm 2,0 UV-I 60 W/m² 8,9 °C 27,6 °C 14,5 km/h (3 Bft)
29.05.2017 16:45 27,6 °C 27,6 °C 32 % 1011,4 hPa 0,0 mm 9,7 km/h (2 Bft) O-NO 78 ° 0 min 0,000 mm 2,0 UV-I 62 W/m² 9,4 °C 27,6 °C 16,1 km/h (3 Bft)
29.05.2017 16:46 27,6 °C 27,6 °C 33 % 1011,4 hPa 0,0 mm 10,3 km/h (2 Bft) O-NO 61 ° 0 min 0,000 mm 2,0 UV-I 62 W/m² 9,9 °C 27,6 °C 14,5 km/h (3 Bft)
29.05.2017 16:47 27,5 °C 27,6 °C 32 % 1011,4 hPa 0,0 mm 8,4 km/h (2 Bft) N-NO 24 ° 0 min 0,000 mm 2,0 UV-I 60 W/m² 9,3 °C 27,5 °C 12,9 km/h (3 Bft)
29.05.2017 16:48 27,5 °C 27,5 °C 34 % 1011,4 hPa 0,0 mm 4,7 km/h (1 Bft) N-NO 14 ° 0 min 0,000 mm 2,0 UV-I 62 W/m² 10,2 °C 27,5 °C 9,7 km/h (2 Bft)
29.05.2017 16:49 27,5 °C 27,5 °C 31 % 1011,4 hPa 0,0 mm 8,8 km/h (2 Bft) N-NW 339 ° 0 min 0,000 mm 2,0 UV-I 62 W/m² 8,8 °C 27,5 °C 16,1 km/h (3 Bft)
29.05.2017 16:50 27,4 °C 27,5 °C 31 % 1011,4 hPa 0,0 mm 3,3 km/h (1 Bft) NW 313 ° 0 min 0,000 mm 2,0 UV-I 63 W/m² 8,8 °C 27,4 °C 6,4 km/h (2 Bft)
29.05.2017 16:51 27,4 °C 27,4 °C 32 % 1011,4 hPa 0,0 mm 5,2 km/h (1 Bft) N 5 ° 0 min 0,000 mm 2,0 UV-I 62 W/m² 9,2 °C 27,4 °C 9,7 km/h (2 Bft)
29.05.2017 16:52 27,3 °C 27,4 °C 33 % 1011,4 hPa 0,0 mm 6,7 km/h (2 Bft) N-NO 32 ° 0 min 0,000 mm 2,0 UV-I 60 W/m² 9,6 °C 27,3 °C 9,7 km/h (2 Bft)
29.05.2017 16:53 27,3 °C 27,3 °C 32 % 1011,3 hPa 0,0 mm 7,5 km/h (2 Bft) NO 41 ° 0 min 0,000 mm 1,9 UV-I 60 W/m² 9,1 °C 27,3 °C 11,3 km/h (2 Bft)
29.05.2017 16:54 27,3 °C 27,3 °C 34 % 1011,3 hPa 0,0 mm 10,4 km/h (2 Bft) N-NO 30 ° 0 min 0,000 mm 1,9 UV-I 60 W/m² 10,0 °C 27,3 °C 14,5 km/h (3 Bft)
29.05.2017 16:55 27,4 °C 27,4 °C 32 % 1011,4 hPa 0,0 mm 9,9 km/h (2 Bft) N-NO 28 ° 0 min 0,000 mm 1,9 UV-I 62 W/m² 9,2 °C 27,4 °C 19,3 km/h (3 Bft)
29.05.2017 16:56 27,4 °C 27,4 °C 32 % 1011,4 hPa 0,0 mm 7,1 km/h (2 Bft) N-NO 29 ° 0 min 0,000 mm 1,9 UV-I 60 W/m² 9,2 °C 27,4 °C 12,9 km/h (3 Bft)
29.05.2017 16:57 27,4 °C 27,4 °C 32 % 1011,3 hPa 0,0 mm 3,0 km/h (1 Bft) N 355 ° 0 min 0,000 mm 1,9 UV-I 60 W/m² 9,2 °C 27,4 °C 6,4 km/h (2 Bft)
29.05.2017 16:58 27,3 °C 27,4 °C 33 % 1011,3 hPa 0,0 mm 3,1 km/h (1 Bft) N-NW 339 ° 0 min 0,000 mm 1,9 UV-I 60 W/m² 9,6 °C 27,3 °C 6,4 km/h (2 Bft)
29.05.2017 16:59 27,3 °C 27,3 °C 36 % 1011,3 hPa 0,0 mm 4,9 km/h (1 Bft) NO 54 ° 0 min 0,000 mm 1,9 UV-I 60 W/m² 10,9 °C 27,3 °C 6,4 km/h (2 Bft)
29.05.2017 17:00 27,3 °C 27,3 °C 32 % 1011,3 hPa 0,0 mm 4,3 km/h (1 Bft) O 82 ° 0 min 0,000 mm 1,9 UV-I 60 W/m² 9,1 °C 27,3 °C 6,4 km/h (2 Bft)
29.05.2017 17:01 27,2 °C 27,3 °C 32 % 1011,3 hPa 0,0 mm 5,6 km/h (1 Bft) O 87 ° 0 min 0,178 mm 1,9 UV-I 60 W/m² 9,1 °C 27,2 °C 11,3 km/h (2 Bft)
29.05.2017 17:02 27,2 °C 27,2 °C 33 % 1011,2 hPa 0,0 mm 2,4 km/h (1 Bft) O 94 ° 0 min 0,000 mm 1,9 UV-I 60 W/m² 9,5 °C 27,2 °C 6,4 km/h (2 Bft)
29.05.2017 17:03 27,2 °C 27,2 °C 32 % 1011,2 hPa 0,0 mm 2,7 km/h (1 Bft) NO 36 ° 0 min 0,000 mm 1,9 UV-I 60 W/m² 9,1 °C 27,2 °C 6,4 km/h (2 Bft)
29.05.2017 17:04 27,2 °C 27,2 °C 35 % 1011,2 hPa 0,0 mm 3,8 km/h (1 Bft) N 9 ° 0 min 0,000 mm 1,8 UV-I 60 W/m² 10,4 °C 27,2 °C 6,4 km/h (2 Bft)
29.05.2017 17:05 27,2 °C 27,2 °C 32 % 1011,1 hPa 0,0 mm 7,8 km/h (2 Bft) NO 52 ° 0 min 0,000 mm 1,8 UV-I 60 W/m² 9,1 °C 27,2 °C 11,3 km/h (2 Bft)
29.05.2017 17:06 27,2 °C 27,2 °C 34 % 1011,2 hPa 0,0 mm 5,8 km/h (2 Bft) O-NO 75 ° 0 min 0,000 mm 1,8 UV-I 58 W/m² 10,0 °C 27,2 °C 11,3 km/h (2 Bft)
29.05.2017 17:07 27,3 °C 27,3 °C 33 % 1011,1 hPa 0,0 mm 7,2 km/h (2 Bft) O 86 ° 0 min 0,000 mm 1,8 UV-I 58 W/m² 9,6 °C 27,3 °C 11,3 km/h (2 Bft)
29.05.2017 17:08 27,3 °C 27,3 °C 35 % 1011,1 hPa 0,0 mm 9,4 km/h (2 Bft) O-NO 74 ° 0 min 0,000 mm 1,8 UV-I 58 W/m² 10,5 °C 27,3 °C 14,5 km/h (3 Bft)
29.05.2017 17:09 27,3 °C 27,3 °C 35 % 1011,1 hPa 0,0 mm 7,2 km/h (2 Bft) O 82 ° 0 min 0,000 mm 1,8 UV-I 58 W/m² 10,5 °C 27,3 °C 9,7 km/h (2 Bft)
29.05.2017 17:10 27,2 °C 27,3 °C 32 % 1011,1 hPa 0,0 mm 8,3 km/h (2 Bft) NO 52 ° 0 min 0,000 mm 1,8 UV-I 62 W/m² 9,1 °C 27,2 °C 14,5 km/h (3 Bft)
29.05.2017 17:11 27,2 °C 27,3 °C 31 % 1011,1 hPa 0,0 mm 2,0 km/h (1 Bft) N-NO 22 ° 0 min 0,000 mm 1,8 UV-I 58 W/m² 8,6 °C 27,2 °C 4,8 km/h (1 Bft)
29.05.2017 17:12 27,2 °C 27,2 °C 33 % 1011,1 hPa 0,0 mm 5,8 km/h (2 Bft) N 355 ° 0 min 0,000 mm 1,8 UV-I 58 W/m² 9,5 °C 27,2 °C 8,0 km/h (2 Bft)
29.05.2017 17:13 27,2 °C 27,2 °C 34 % 1011,1 hPa 0,0 mm 7,2 km/h (2 Bft) N-NO 12 ° 0 min 0,000 mm 1,8 UV-I 62 W/m² 10,0 °C 27,2 °C 14,5 km/h (3 Bft)
29.05.2017 17:14 27,2 °C 27,2 °C 33 % 1011,1 hPa 0,0 mm 4,3 km/h (1 Bft) N-NO 15 ° 0 min 0,000 mm 1,8 UV-I 83 W/m² 9,5 °C 27,2 °C 9,7 km/h (2 Bft)
29.05.2017 17:15 27,2 °C 27,2 °C 32 % 1011,0 hPa 0,0 mm 2,7 km/h (1 Bft) O-NO 75 ° 0 min 0,000 mm 1,8 UV-I 62 W/m² 9,1 °C 27,2 °C 4,8 km/h (1 Bft)
29.05.2017 17:16 27,2 °C 27,2 °C 32 % 1011,1 hPa 0,0 mm 5,7 km/h (1 Bft) O 89 ° 0 min 0,000 mm 1,7 UV-I 60 W/m² 9,1 °C 27,2 °C 11,3 km/h (2 Bft)
29.05.2017 17:17 27,2 °C 27,2 °C 32 % 1011,1 hPa 0,0 mm 5,5 km/h (1 Bft) O-NO 75 ° 0 min 0,000 mm 1,7 UV-I 58 W/m² 9,1 °C 27,2 °C 8,0 km/h (2 Bft)
29.05.2017 17:18 27,1 °C 27,2 °C 33 % 1011,1 hPa 0,0 mm 10,5 km/h (2 Bft) O-NO 66 ° 0 min 0,000 mm 1,7 UV-I 58 W/m² 9,4 °C 27,1 °C 17,7 km/h (3 Bft)
29.05.2017 17:19 27,1 °C 27,1 °C 32 % 1011,1 hPa 0,0 mm 7,8 km/h (2 Bft) O-NO 62 ° 0 min 0,000 mm 1,7 UV-I 56 W/m² 9,0 °C 27,1 °C 12,9 km/h (3 Bft)
29.05.2017 17:20 27,1 °C 27,1 °C 33 % 1011,0 hPa 0,0 mm 6,3 km/h (2 Bft) O-NO 63 ° 0 min 0,000 mm 1,7 UV-I 56 W/m² 9,4 °C 27,1 °C 9,7 km/h (2 Bft)
29.05.2017 17:21 27,1 °C 27,1 °C 32 % 1011,0 hPa 0,0 mm 5,8 km/h (2 Bft) N-NO 32 ° 0 min 0,000 mm 1,7 UV-I 58 W/m² 9,0 °C 27,1 °C 12,9 km/h (3 Bft)
29.05.2017 17:22 27,1 °C 27,1 °C 34 % 1011,0 hPa 0,0 mm 3,6 km/h (1 Bft) NO 53 ° 0 min 0,000 mm 1,7 UV-I 60 W/m² 9,9 °C 27,1 °C 6,4 km/h (2 Bft)
29.05.2017 17:23 27,1 °C 27,1 °C 32 % 1011,0 hPa 0,0 mm 3,8 km/h (1 Bft) NO 54 ° 0 min 0,000 mm 1,7 UV-I 62 W/m² 9,0 °C 27,1 °C 6,4 km/h (2 Bft)
29.05.2017 17:24 27,2 °C 27,2 °C 31 % 1011,0 hPa 0,0 mm 5,4 km/h (1 Bft) N-NO 22 ° 0 min 0,000 mm 1,7 UV-I 62 W/m² 8,6 °C 27,2 °C 8,0 km/h (2 Bft)
29.05.2017 17:25 27,2 °C 27,2 °C 30 % 1011,0 hPa 0,0 mm 4,7 km/h (1 Bft) N-NO 31 ° 0 min 0,000 mm 1,7 UV-I 70 W/m² 8,1 °C 27,2 °C 9,7 km/h (2 Bft)
29.05.2017 17:26 27,2 °C 27,2 °C 32 % 1010,9 hPa 0,0 mm 5,4 km/h (1 Bft) N-NO 27 ° 0 min 0,000 mm 1,7 UV-I 60 W/m² 9,1 °C 27,2 °C 8,0 km/h (2 Bft)
29.05.2017 17:27 27,2 °C 27,2 °C 32 % 1010,9 hPa 0,0 mm 7,8 km/h (2 Bft) N-NW 329 ° 0 min 0,000 mm 1,6 UV-I 56 W/m² 9,1 °C 27,2 °C 14,5 km/h (3 Bft)
29.05.2017 17:28 27,2 °C 27,2 °C 32 % 1010,9 hPa 0,0 mm 6,8 km/h (2 Bft) N-NO 29 ° 0 min 0,000 mm 1,6 UV-I 56 W/m² 9,1 °C 27,2 °C 12,9 km/h (3 Bft)
29.05.2017 17:29 27,2 °C 27,2 °C 34 % 1010,9 hPa 0,0 mm 5,2 km/h (1 Bft) O 94 ° 0 min 0,000 mm 1,6 UV-I 56 W/m² 10,0 °C 27,2 °C 9,7 km/h (2 Bft)
29.05.2017 17:30 27,2 °C 27,2 °C 33 % 1010,9 hPa 0,0 mm 7,5 km/h (2 Bft) N-NO 32 ° 0 min 0,000 mm 1,6 UV-I 56 W/m² 9,5 °C 27,2 °C 12,9 km/h (3 Bft)
29.05.2017 17:31 27,2 °C 27,3 °C 34 % 1010,9 hPa 0,0 mm 5,5 km/h (1 Bft) O 84 ° 0 min 0,000 mm 1,6 UV-I 56 W/m² 10,0 °C 27,2 °C 11,3 km/h (2 Bft)
29.05.2017 17:32 27,2 °C 27,2 °C 33 % 1011,0 hPa 0,0 mm 6,9 km/h (2 Bft) N 355 ° 0 min 0,000 mm 1,6 UV-I 56 W/m² 9,5 °C 27,2 °C 12,9 km/h (3 Bft)
29.05.2017 17:33 27,2 °C 27,2 °C 31 % 1011,0 hPa 0,0 mm 3,3 km/h (1 Bft) N 9 ° 0 min 0,000 mm 1,6 UV-I 56 W/m² 8,6 °C 27,2 °C 4,8 km/h (1 Bft)
29.05.2017 17:34 27,3 °C 27,3 °C 32 % 1010,9 hPa 0,0 mm 1,1 km/h (1 Bft) N-NO 23 ° 0 min 0,000 mm 1,6 UV-I 56 W/m² 9,1 °C 27,3 °C 3,2 km/h (1 Bft)
29.05.2017 17:35 27,3 °C 27,3 °C 33 % 1010,9 hPa 0,0 mm 5,4 km/h (1 Bft) O 86 ° 0 min 0,000 mm 1,6 UV-I 56 W/m² 9,6 °C 27,3 °C 8,0 km/h (2 Bft)
29.05.2017 17:36 27,2 °C 27,3 °C 32 % 1011,0 hPa 0,0 mm 3,6 km/h (1 Bft) O 80 ° 0 min 0,000 mm 1,6 UV-I 60 W/m² 9,1 °C 27,2 °C 8,0 km/h (2 Bft)
29.05.2017 17:37 27,2 °C 27,2 °C 33 % 1010,9 hPa 0,0 mm 3,1 km/h (1 Bft) O-NO 57 ° 0 min 0,000 mm 1,6 UV-I 58 W/m² 9,5 °C 27,2 °C 4,8 km/h (1 Bft)
29.05.2017 17:38 27,1 °C 27,2 °C 36 % 1010,9 hPa 0,0 mm 1,3 km/h (1 Bft) O-NO 57 ° 0 min 0,000 mm 1,6 UV-I 58 W/m² 10,7 °C 27,1 °C 1,6 km/h (1 Bft)
29.05.2017 17:39 27,1 °C 27,1 °C 34 % 1010,9 hPa 0,0 mm 7,4 km/h (2 Bft) O-NO 74 ° 0 min 0,000 mm 1,5 UV-I 56 W/m² 9,9 °C 27,1 °C 11,3 km/h (2 Bft)
29.05.2017 17:40 27,1 °C 27,1 °C 31 % 1010,8 hPa 0,0 mm 4,0 km/h (1 Bft) NO 50 ° 0 min 0,000 mm 1,5 UV-I 56 W/m² 8,5 °C 27,1 °C 8,0 km/h (2 Bft)
29.05.2017 17:41 27,1 °C 27,1 °C 33 % 1010,8 hPa 0,0 mm 2,3 km/h (1 Bft) NO 53 ° 0 min 0,000 mm 0,0 UV-I 54 W/m² 9,4 °C 27,1 °C 4,8 km/h (1 Bft)
29.05.2017 17:42 27,1 °C 27,1 °C 32 % 1010,8 hPa 0,0 mm 5,6 km/h (1 Bft) O-NO 71 ° 0 min 0,000 mm 0,0 UV-I 54 W/m² 9,0 °C 27,1 °C 8,0 km/h (2 Bft)
29.05.2017 17:43 27,1 °C 27,1 °C 32 % 1010,7 hPa 0,0 mm 2,6 km/h (1 Bft) NO 48 ° 0 min 0,000 mm 0,0 UV-I 54 W/m² 9,0 °C 27,1 °C 4,8 km/h (1 Bft)
29.05.2017 17:44 27,0 °C 27,1 °C 32 % 1010,7 hPa 0,0 mm 3,9 km/h (1 Bft) NO 55 ° 0 min 0,000 mm 1,5 UV-I 58 W/m² 8,9 °C 27,0 °C 6,4 km/h (2 Bft)
29.05.2017 17:45 27,1 °C 27,1 °C 35 % 1010,8 hPa 0,0 mm 3,9 km/h (1 Bft) O 81 ° 0 min 0,000 mm 1,5 UV-I 56 W/m² 10,3 °C 27,1 °C 6,4 km/h (2 Bft)
29.05.2017 17:46 27,1 °C 27,1 °C 33 % 1010,8 hPa 0,0 mm 5,6 km/h (1 Bft) O-NO 66 ° 0 min 0,000 mm 1,5 UV-I 56 W/m² 9,4 °C 27,1 °C 9,7 km/h (2 Bft)
29.05.2017 17:47 27,1 °C 27,1 °C 34 % 1010,8 hPa 0,0 mm 7,8 km/h (2 Bft) O-NO 58 ° 0 min 0,000 mm 1,5 UV-I 56 W/m² 9,9 °C 27,1 °C 12,9 km/h (3 Bft)
29.05.2017 17:48 27,1 °C 27,1 °C 34 % 1010,8 hPa 0,0 mm 4,7 km/h (1 Bft) O 92 ° 0 min 0,000 mm 0,0 UV-I 54 W/m² 9,9 °C 27,1 °C 6,4 km/h (2 Bft)
29.05.2017 17:49 27,1 °C 27,1 °C 33 % 1010,8 hPa 0,0 mm 8,0 km/h (2 Bft) O 79 ° 0 min 0,000 mm 0,0 UV-I 54 W/m² 9,4 °C 27,1 °C 12,9 km/h (3 Bft)
29.05.2017 17:50 27,1 °C 27,1 °C 33 % 1010,8 hPa 0,0 mm 8,6 km/h (2 Bft) O-NO 76 ° 0 min 0,000 mm 0,0 UV-I 54 W/m² 9,4 °C 27,1 °C 11,3 km/h (2 Bft)
29.05.2017 17:51 27,1 °C 27,1 °C 33 % 1010,8 hPa 0,0 mm 4,7 km/h (1 Bft) NO 49 ° 0 min 0,000 mm 0,0 UV-I 54 W/m² 9,4 °C 27,1 °C 6,4 km/h (2 Bft)
29.05.2017 17:52 27,1 °C 27,1 °C 32 % 1010,8 hPa 0,0 mm 7,1 km/h (2 Bft) O 86 ° 0 min 0,000 mm 0,0 UV-I 54 W/m² 9,0 °C 27,1 °C 14,5 km/h (3 Bft)
29.05.2017 17:53 27,0 °C 27,1 °C 33 % 1010,8 hPa 0,0 mm 3,8 km/h (1 Bft) O 86 ° 0 min 0,000 mm 0,0 UV-I 54 W/m² 9,3 °C 27,0 °C 6,4 km/h (2 Bft)
29.05.2017 17:54 26,9 °C 27,0 °C 32 % 1010,8 hPa 0,0 mm 6,0 km/h (2 Bft) O-NO 78 ° 0 min 0,000 mm 0,0 UV-I 54 W/m² 8,8 °C 26,9 °C 8,0 km/h (2 Bft)
29.05.2017 17:55 26,9 °C 27,0 °C 33 % 1010,8 hPa 0,0 mm 6,6 km/h (2 Bft) O-NO 73 ° 0 min 0,000 mm 0,0 UV-I 54 W/m² 9,3 °C 26,9 °C 11,3 km/h (2 Bft)
29.05.2017 17:56 26,9 °C 26,9 °C 33 % 1010,8 hPa 0,0 mm 3,7 km/h (1 Bft) NO 50 ° 0 min 0,000 mm 0,0 UV-I 54 W/m² 9,3 °C 26,9 °C 8,0 km/h (2 Bft)
29.05.2017 17:57 27,0 °C 27,0 °C 33 % 1010,8 hPa 0,0 mm 1,5 km/h (1 Bft) O 82 ° 0 min 0,000 mm 0,0 UV-I 54 W/m² 9,3 °C 27,0 °C 4,8 km/h (1 Bft)
29.05.2017 17:58 27,0 °C 27,0 °C 34 % 1010,8 hPa 0,0 mm 3,2 km/h (1 Bft) N-NW 338 ° 0 min 0,000 mm 1,4 UV-I 56 W/m² 9,8 °C 27,0 °C 8,0 km/h (2 Bft)
29.05.2017 17:59 27,0 °C 27,1 °C 35 % 1010,7 hPa 0,0 mm 3,6 km/h (1 Bft) N-NO 20 ° 0 min 0,000 mm 0,0 UV-I 54 W/m² 10,2 °C 27,0 °C 6,4 km/h (2 Bft)
29.05.2017 18:00 27,0 °C 27,1 °C 33 % 1010,7 hPa 0,0 mm 5,6 km/h (1 Bft) NO 53 ° 0 min 0,000 mm 0,0 UV-I 54 W/m² 9,3 °C 27,0 °C 9,7 km/h (2 Bft)
29.05.2017 18:01 27,1 °C 27,1 °C 32 % 1010,8 hPa 0,0 mm 8,2 km/h (2 Bft) O-NO 67 ° 0 min 0,101 mm 0,0 UV-I 62 W/m² 9,0 °C 27,1 °C 14,5 km/h (3 Bft)
29.05.2017 18:02 27,0 °C 27,1 °C 32 % 1010,8 hPa 0,0 mm 6,2 km/h (2 Bft) O 79 ° 0 min 0,000 mm 1,3 UV-I 65 W/m² 8,9 °C 27,0 °C 11,3 km/h (2 Bft)
29.05.2017 18:03 26,9 °C 27,0 °C 33 % 1010,8 hPa 0,0 mm 6,6 km/h (2 Bft) O-NO 68 ° 0 min 0,000 mm 1,3 UV-I 56 W/m² 9,3 °C 26,9 °C 11,3 km/h (2 Bft)
29.05.2017 18:04 26,9 °C 27,0 °C 33 % 1010,7 hPa 0,0 mm 4,6 km/h (1 Bft) NO 41 ° 0 min 0,000 mm 0,0 UV-I 54 W/m² 9,3 °C 26,9 °C 8,0 km/h (2 Bft)
29.05.2017 18:05 26,9 °C 26,9 °C 38 % 1010,7 hPa 0,0 mm 9,1 km/h (2 Bft) NO 44 ° 0 min 0,000 mm 0,0 UV-I 54 W/m² 11,4 °C 26,9 °C 14,5 km/h (3 Bft)
29.05.2017 18:06 27,1 °C 27,1 °C 33 % 1010,7 hPa 0,0 mm 7,7 km/h (2 Bft) NO 39 ° 0 min 0,000 mm 1,3 UV-I 56 W/m² 9,4 °C 27,1 °C 11,3 km/h (2 Bft)
29.05.2017 18:07 27,1 °C 27,1 °C 33 % 1010,8 hPa 0,0 mm 6,1 km/h (2 Bft) O 82 ° 0 min 0,000 mm 1,3 UV-I 56 W/m² 9,4 °C 27,1 °C 9,7 km/h (2 Bft)
29.05.2017 18:08 27,0 °C 27,1 °C 33 % 1010,7 hPa 0,0 mm 5,2 km/h (1 Bft) NO 55 ° 0 min 0,000 mm 0,0 UV-I 54 W/m² 9,3 °C 27,0 °C 8,0 km/h (2 Bft)
29.05.2017 18:09 27,1 °C 27,1 °C 32 % 1010,7 hPa 0,0 mm 4,9 km/h (1 Bft) O-NO 74 ° 0 min 0,000 mm 0,0 UV-I 54 W/m² 9,0 °C 27,1 °C 8,0 km/h (2 Bft)
29.05.2017 18:10 27,0 °C 27,1 °C 33 % 1010,7 hPa 0,0 mm 3,7 km/h (1 Bft) NO 48 ° 0 min 0,000 mm 0,0 UV-I 54 W/m² 9,3 °C 27,0 °C 8,0 km/h (2 Bft)
29.05.2017 18:11 26,9 °C 27,0 °C 32 % 1010,7 hPa 0,0 mm 3,0 km/h (1 Bft) N-NO 22 ° 0 min 0,000 mm 1,3 UV-I 56 W/m² 8,8 °C 26,9 °C 8,0 km/h (2 Bft)
29.05.2017 18:12 26,9 °C 26,9 °C 33 % 1010,7 hPa 0,0 mm 4,1 km/h (1 Bft) N 355 ° 0 min 0,000 mm 0,0 UV-I 54 W/m² 9,3 °C 26,9 °C 8,0 km/h (2 Bft)
29.05.2017 18:13 27,0 °C 27,0 °C 34 % 1010,7 hPa 0,0 mm 5,6 km/h (1 Bft) NO 56 ° 0 min 0,000 mm 0,0 UV-I 54 W/m² 9,8 °C 27,0 °C 11,3 km/h (2 Bft)
29.05.2017 18:14 27,1 °C 27,1 °C 34 % 1010,7 hPa 0,0 mm 5,0 km/h (1 Bft) NO 37 ° 0 min 0,000 mm 0,0 UV-I 54 W/m² 9,9 °C 27,1 °C 8,0 km/h (2 Bft)
29.05.2017 18:15 27,1 °C 27,1 °C 31 % 1010,7 hPa 0,0 mm 3,6 km/h (1 Bft) N-NO 16 ° 0 min 0,000 mm 0,0 UV-I 54 W/m² 8,5 °C 27,1 °C 6,4 km/h (2 Bft)
29.05.2017 18:16 27,1 °C 27,1 °C 31 % 1010,6 hPa 0,0 mm 3,5 km/h (1 Bft) NO 52 ° 0 min 0,000 mm 0,0 UV-I 54 W/m² 8,5 °C 27,1 °C 8,0 km/h (2 Bft)
29.05.2017 18:17 27,0 °C 27,1 °C 33 % 1010,6 hPa 0,0 mm 3,3 km/h (1 Bft) N-NO 31 ° 0 min 0,000 mm 0,0 UV-I 54 W/m² 9,3 °C 27,0 °C 6,4 km/h (2 Bft)
29.05.2017 18:18 26,9 °C 27,0 °C 34 % 1010,6 hPa 0,0 mm 3,2 km/h (1 Bft) O-NO 63 ° 0 min 0,000 mm 0,0 UV-I 53 W/m² 9,7 °C 26,9 °C 6,4 km/h (2 Bft)
29.05.2017 18:19 27,0 °C 27,0 °C 33 % 1010,6 hPa 0,0 mm 4,0 km/h (1 Bft) NO 40 ° 0 min 0,000 mm 1,2 UV-I 56 W/m² 9,3 °C 27,0 °C 4,8 km/h (1 Bft)
29.05.2017 18:20 27,1 °C 27,1 °C 34 % 1010,6 hPa 0,0 mm 3,6 km/h (1 Bft) NO 43 ° 0 min 0,000 mm 0,0 UV-I 53 W/m² 9,9 °C 27,1 °C 8,0 km/h (2 Bft)
29.05.2017 18:21 27,1 °C 27,1 °C 34 % 1010,6 hPa 0,0 mm 3,6 km/h (1 Bft) NO 41 ° 0 min 0,000 mm 0,0 UV-I 53 W/m² 9,9 °C 27,1 °C 8,0 km/h (2 Bft)
29.05.2017 18:22 27,1 °C 27,1 °C 32 % 1010,5 hPa 0,0 mm 4,4 km/h (1 Bft) N-NO 22 ° 0 min 0,000 mm 1,2 UV-I 56 W/m² 9,0 °C 27,1 °C 8,0 km/h (2 Bft)
29.05.2017 18:23 27,1 °C 27,1 °C 34 % 1010,6 hPa 0,0 mm 7,4 km/h (2 Bft) O-NO 65 ° 0 min 0,000 mm 0,0 UV-I 53 W/m² 9,9 °C 27,1 °C 11,3 km/h (2 Bft)
29.05.2017 18:24 27,0 °C 27,1 °C 32 % 1010,6 hPa 0,0 mm 4,4 km/h (1 Bft) NO 46 ° 0 min 0,000 mm 0,0 UV-I 53 W/m² 8,9 °C 27,0 °C 6,4 km/h (2 Bft)
29.05.2017 18:25 26,9 °C 27,0 °C 34 % 1010,6 hPa 0,0 mm 3,0 km/h (1 Bft) O 85 ° 0 min 0,000 mm 1,2 UV-I 62 W/m² 9,7 °C 26,9 °C 11,3 km/h (2 Bft)
29.05.2017 18:26 26,9 °C 26,9 °C 34 % 1010,6 hPa 0,0 mm 5,5 km/h (1 Bft) O-NO 58 ° 0 min 0,000 mm 1,2 UV-I 60 W/m² 9,7 °C 26,9 °C 8,0 km/h (2 Bft)
29.05.2017 18:27 26,9 °C 26,9 °C 34 % 1010,6 hPa 0,0 mm 6,2 km/h (2 Bft) N-NO 26 ° 0 min 0,000 mm 0,0 UV-I 54 W/m² 9,7 °C 26,9 °C 8,0 km/h (2 Bft)
29.05.2017 18:28 26,9 °C 26,9 °C 34 % 1010,6 hPa 0,0 mm 3,5 km/h (1 Bft) N 11 ° 0 min 0,000 mm 0,0 UV-I 54 W/m² 9,7 °C 26,9 °C 6,4 km/h (2 Bft)
29.05.2017 18:29 26,9 °C 26,9 °C 34 % 1010,6 hPa 0,0 mm 4,1 km/h (1 Bft) N-NO 23 ° 0 min 0,000 mm 0,0 UV-I 54 W/m² 9,7 °C 26,9 °C 6,4 km/h (2 Bft)
29.05.2017 18:30 26,9 °C 26,9 °C 34 % 1010,6 hPa 0,0 mm 6,4 km/h (2 Bft) NW 310 ° 0 min 0,000 mm 0,0 UV-I 63 W/m² 9,7 °C 26,9 °C 9,7 km/h (2 Bft)
29.05.2017 18:31 26,9 °C 26,9 °C 34 % 1010,5 hPa 0,0 mm 4,2 km/h (1 Bft) N 9 ° 0 min 0,000 mm 0,0 UV-I 53 W/m² 9,7 °C 26,9 °C 8,0 km/h (2 Bft)
29.05.2017 18:32 26,9 °C 26,9 °C 38 % 1010,5 hPa 0,0 mm 6,2 km/h (2 Bft) O-NO 57 ° 0 min 0,000 mm 0,0 UV-I 54 W/m² 11,4 °C 26,9 °C 9,7 km/h (2 Bft)
29.05.2017 18:33 26,8 °C 26,9 °C 34 % 1010,5 hPa 0,0 mm 4,7 km/h (1 Bft) O 79 ° 0 min 0,000 mm 0,0 UV-I 53 W/m² 9,6 °C 26,8 °C 12,9 km/h (3 Bft)
29.05.2017 18:34 26,8 °C 26,8 °C 34 % 1010,5 hPa 0,0 mm 3,8 km/h (1 Bft) O 99 ° 0 min 0,000 mm 0,0 UV-I 54 W/m² 9,6 °C 26,8 °C 6,4 km/h (2 Bft)
29.05.2017 18:35 26,7 °C 26,8 °C 34 % 1010,5 hPa 0,0 mm 2,5 km/h (1 Bft) O 83 ° 0 min 0,000 mm 0,0 UV-I 53 W/m² 9,5 °C 26,7 °C 4,8 km/h (1 Bft)
29.05.2017 18:36 26,7 °C 26,7 °C 34 % 1010,5 hPa 0,0 mm 9,4 km/h (2 Bft) O 94 ° 0 min 0,000 mm 0,0 UV-I 53 W/m² 9,5 °C 26,7 °C 14,5 km/h (3 Bft)
29.05.2017 18:37 26,7 °C 26,7 °C 33 % 1010,5 hPa 0,0 mm 4,0 km/h (1 Bft) O-NO 76 ° 0 min 0,000 mm 0,0 UV-I 53 W/m² 9,1 °C 26,7 °C 9,7 km/h (2 Bft)
29.05.2017 18:38 26,7 °C 26,7 °C 34 % 1010,5 hPa 0,0 mm 4,6 km/h (1 Bft) NO 43 ° 0 min 0,000 mm 0,0 UV-I 54 W/m² 9,5 °C 26,7 °C 6,4 km/h (2 Bft)
29.05.2017 18:39 26,8 °C 26,8 °C 32 % 1010,5 hPa 0,0 mm 4,1 km/h (1 Bft) O-NO 67 ° 0 min 0,000 mm 1,0 UV-I 58 W/m² 8,7 °C 26,8 °C 4,8 km/h (1 Bft)
29.05.2017 18:40 26,8 °C 26,8 °C 34 % 1010,5 hPa 0,0 mm 3,2 km/h (1 Bft) NO 52 ° 0 min 0,000 mm 1,0 UV-I 56 W/m² 9,6 °C 26,8 °C 6,4 km/h (2 Bft)
29.05.2017 18:41 26,8 °C 26,8 °C 33 % 1010,5 hPa 0,0 mm 4,6 km/h (1 Bft) NO 47 ° 0 min 0,000 mm 1,0 UV-I 62 W/m² 9,2 °C 26,8 °C 6,4 km/h (2 Bft)
29.05.2017 18:42 26,8 °C 26,8 °C 33 % 1010,5 hPa 0,0 mm 4,4 km/h (1 Bft) O-NO 61 ° 0 min 0,000 mm 1,0 UV-I 67 W/m² 9,2 °C 26,8 °C 6,4 km/h (2 Bft)
29.05.2017 18:43 26,8 °C 26,8 °C 34 % 1010,5 hPa 0,0 mm 4,8 km/h (1 Bft) O 88 ° 0 min 0,000 mm 1,0 UV-I 65 W/m² 9,6 °C 26,8 °C 6,4 km/h (2 Bft)
29.05.2017 18:44 26,8 °C 26,8 °C 33 % 1010,5 hPa 0,0 mm 4,0 km/h (1 Bft) O-NO 58 ° 0 min 0,000 mm 1,1 UV-I 90 W/m² 9,2 °C 26,8 °C 6,4 km/h (2 Bft)
29.05.2017 18:45 26,8 °C 26,8 °C 34 % 1010,5 hPa 0,0 mm 2,7 km/h (1 Bft) O-NO 61 ° 0 min 0,000 mm 1,1 UV-I 72 W/m² 9,6 °C 26,8 °C 4,8 km/h (1 Bft)
29.05.2017 18:46 26,8 °C 26,8 °C 35 % 1010,5 hPa 0,0 mm 2,1 km/h (1 Bft) O 84 ° 0 min 0,000 mm 1,0 UV-I 56 W/m² 10,0 °C 26,8 °C 4,8 km/h (1 Bft)
29.05.2017 18:47 26,6 °C 26,8 °C 33 % 1010,5 hPa 0,0 mm 3,1 km/h (1 Bft) NO 40 ° 0 min 0,000 mm 0,0 UV-I 58 W/m² 9,0 °C 26,6 °C 6,4 km/h (2 Bft)
29.05.2017 18:48 26,6 °C 26,6 °C 34 % 1010,5 hPa 0,0 mm 3,9 km/h (1 Bft) NO 53 ° 0 min 0,000 mm 1,0 UV-I 58 W/m² 9,4 °C 26,6 °C 8,0 km/h (2 Bft)
29.05.2017 18:49 26,6 °C 26,6 °C 33 % 1010,5 hPa 0,0 mm 3,6 km/h (1 Bft) O-NO 61 ° 0 min 0,000 mm 1,0 UV-I 81 W/m² 9,0 °C 26,6 °C 8,0 km/h (2 Bft)
29.05.2017 18:50 26,7 °C 26,7 °C 34 % 1010,5 hPa 0,0 mm 7,2 km/h (2 Bft) N 355 ° 0 min 0,000 mm 1,0 UV-I 88 W/m² 9,5 °C 26,7 °C 9,7 km/h (2 Bft)
29.05.2017 18:51 26,7 °C 26,7 °C 35 % 1010,5 hPa 0,0 mm 4,6 km/h (1 Bft) N-NO 22 ° 0 min 0,000 mm 1,0 UV-I 95 W/m² 10,0 °C 26,7 °C 8,0 km/h (2 Bft)
29.05.2017 18:52 26,7 °C 26,8 °C 38 % 1010,5 hPa 0,0 mm 4,3 km/h (1 Bft) NO 40 ° 0 min 0,000 mm 0,9 UV-I 76 W/m² 11,2 °C 26,7 °C 9,7 km/h (2 Bft)
29.05.2017 18:53 26,8 °C 26,8 °C 34 % 1010,5 hPa 0,0 mm 5,5 km/h (1 Bft) O-NO 62 ° 0 min 0,000 mm 1,0 UV-I 86 W/m² 9,6 °C 26,8 °C 9,7 km/h (2 Bft)
29.05.2017 18:54 26,8 °C 26,8 °C 35 % 1010,5 hPa 0,0 mm 2,5 km/h (1 Bft) O-NO 62 ° 0 min 0,000 mm 0,9 UV-I 83 W/m² 10,0 °C 26,8 °C 4,8 km/h (1 Bft)
29.05.2017 18:55 26,7 °C 26,8 °C 36 % 1010,5 hPa 0,0 mm 3,0 km/h (1 Bft) N 11 ° 0 min 0,000 mm 0,0 UV-I 53 W/m² 10,4 °C 26,7 °C 4,8 km/h (1 Bft)
29.05.2017 18:56 26,8 °C 26,8 °C 35 % 1010,5 hPa 0,0 mm 0,9 km/h (0 Bft) N 11 ° 0 min 0,000 mm 0,0 UV-I 51 W/m² 10,0 °C 26,8 °C 3,2 km/h (1 Bft)
29.05.2017 18:57 26,7 °C 26,8 °C 36 % 1010,5 hPa 0,0 mm 4,5 km/h (1 Bft) NO 45 ° 0 min 0,000 mm 0,0 UV-I 51 W/m² 10,4 °C 26,7 °C 6,4 km/h (2 Bft)
29.05.2017 18:58 26,5 °C 26,7 °C 41 % 1010,5 hPa 0,0 mm 5,2 km/h (1 Bft) O 82 ° 0 min 0,000 mm 0,0 UV-I 54 W/m² 12,2 °C 26,5 °C 9,7 km/h (2 Bft)
29.05.2017 18:59 26,4 °C 26,5 °C 34 % 1010,5 hPa 0,0 mm 7,5 km/h (2 Bft) O-NO 71 ° 0 min 0,000 mm 0,0 UV-I 53 W/m² 9,3 °C 26,4 °C 9,7 km/h (2 Bft)
29.05.2017 19:00 26,4 °C 26,5 °C 39 % 1010,5 hPa 0,0 mm 2,6 km/h (1 Bft) O-NO 69 ° 0 min 0,000 mm 0,9 UV-I 58 W/m² 11,3 °C 26,4 °C 4,8 km/h (1 Bft)
29.05.2017 19:01 26,4 °C 26,5 °C 38 % 1010,5 hPa 0,0 mm 5,7 km/h (1 Bft) O-NO 67 ° 0 min 0,102 mm 0,8 UV-I 60 W/m² 10,9 °C 26,4 °C 9,7 km/h (2 Bft)
29.05.2017 19:02 26,4 °C 26,4 °C 35 % 1010,5 hPa 0,0 mm 4,2 km/h (1 Bft) NO 45 ° 0 min 0,000 mm 0,0 UV-I 51 W/m² 9,7 °C 26,4 °C 4,8 km/h (1 Bft)
29.05.2017 19:03 26,5 °C 26,5 °C 35 % 1010,5 hPa 0,0 mm 5,0 km/h (1 Bft) NO 43 ° 0 min 0,000 mm 0,0 UV-I 53 W/m² 9,8 °C 26,5 °C 8,0 km/h (2 Bft)
29.05.2017 19:04 26,6 °C 26,6 °C 37 % 1010,5 hPa 0,0 mm 6,0 km/h (2 Bft) O 92 ° 0 min 0,000 mm 0,0 UV-I 51 W/m² 10,7 °C 26,6 °C 9,7 km/h (2 Bft)
29.05.2017 19:05 26,6 °C 26,6 °C 36 % 1010,5 hPa 0,0 mm 3,4 km/h (1 Bft) O-NO 71 ° 0 min 0,000 mm 0,0 UV-I 83 W/m² 10,3 °C 26,6 °C 4,8 km/h (1 Bft)
29.05.2017 19:06 26,5 °C 26,6 °C 38 % 1010,5 hPa 0,0 mm 5,4 km/h (1 Bft) N-NO 19 ° 0 min 0,000 mm 0,0 UV-I 53 W/m² 11,0 °C 26,5 °C 8,0 km/h (2 Bft)
29.05.2017 19:07 26,5 °C 26,5 °C 35 % 1010,5 hPa 0,0 mm 2,8 km/h (1 Bft) NO 40 ° 0 min 0,000 mm 0,8 UV-I 74 W/m² 9,8 °C 26,5 °C 4,8 km/h (1 Bft)
29.05.2017 19:08 26,4 °C 26,5 °C 36 % 1010,5 hPa 0,0 mm 4,3 km/h (1 Bft) NO 54 ° 0 min 0,000 mm 0,9 UV-I 74 W/m² 10,1 °C 26,4 °C 9,7 km/h (2 Bft)
29.05.2017 19:09 26,4 °C 26,4 °C 37 % 1010,5 hPa 0,0 mm 6,6 km/h (2 Bft) O-NO 73 ° 0 min 0,000 mm 0,9 UV-I 144 W/m² 10,5 °C 26,4 °C 11,3 km/h (2 Bft)
29.05.2017 19:10 26,4 °C 26,5 °C 37 % 1010,5 hPa 0,0 mm 5,8 km/h (2 Bft) O-NO 67 ° 0 min 0,000 mm 0,9 UV-I 192 W/m² 10,5 °C 26,4 °C 8,0 km/h (2 Bft)
29.05.2017 19:11 26,4 °C 26,5 °C 36 % 1010,5 hPa 0,0 mm 3,0 km/h (1 Bft) NO 51 ° 0 min 0,000 mm 0,9 UV-I 211 W/m² 10,1 °C 26,4 °C 6,4 km/h (2 Bft)
29.05.2017 19:12 26,4 °C 26,4 °C 36 % 1010,5 hPa 0,0 mm 8,7 km/h (2 Bft) O-NO 77 ° 0 min 0,000 mm 0,8 UV-I 211 W/m² 10,1 °C 26,4 °C 12,9 km/h (3 Bft)
29.05.2017 19:13 26,5 °C 26,5 °C 36 % 1010,5 hPa 0,0 mm 4,5 km/h (1 Bft) O-NO 75 ° 0 min 0,000 mm 0,0 UV-I 211 W/m² 10,2 °C 26,5 °C 8,0 km/h (2 Bft)
29.05.2017 19:14 26,4 °C 26,5 °C 37 % 1010,6 hPa 0,0 mm 4,6 km/h (1 Bft) NO 34 ° 0 min 0,000 mm 0,8 UV-I 102 W/m² 10,5 °C 26,4 °C 8,0 km/h (2 Bft)
29.05.2017 19:15 26,4 °C 26,5 °C 37 % 1010,5 hPa 0,0 mm 4,0 km/h (1 Bft) O-NO 62 ° 0 min 0,000 mm 0,8 UV-I 125 W/m² 10,5 °C 26,4 °C 6,4 km/h (2 Bft)
29.05.2017 19:16 26,4 °C 26,4 °C 38 % 1010,6 hPa 0,0 mm 7,2 km/h (2 Bft) O-NO 70 ° 0 min 0,000 mm 0,8 UV-I 156 W/m² 10,9 °C 26,4 °C 12,9 km/h (3 Bft)
29.05.2017 19:17 26,4 °C 26,4 °C 38 % 1010,5 hPa 0,0 mm 6,0 km/h (2 Bft) NO 35 ° 0 min 0,000 mm 0,8 UV-I 132 W/m² 10,9 °C 26,4 °C 11,3 km/h (2 Bft)
29.05.2017 19:18 26,4 °C 26,4 °C 37 % 1010,5 hPa 0,0 mm 3,0 km/h (1 Bft) O-NO 63 ° 0 min 0,000 mm 0,7 UV-I 74 W/m² 10,5 °C 26,4 °C 9,7 km/h (2 Bft)
29.05.2017 19:19 26,4 °C 26,4 °C 37 % 1010,5 hPa 0,0 mm 8,2 km/h (2 Bft) O-NO 75 ° 0 min 0,000 mm 0,7 UV-I 142 W/m² 10,5 °C 26,4 °C 14,5 km/h (3 Bft)
29.05.2017 19:20 26,4 °C 26,4 °C 37 % 1010,6 hPa 0,0 mm 9,0 km/h (2 Bft) NO 56 ° 0 min 0,000 mm 0,7 UV-I 139 W/m² 10,5 °C 26,4 °C 16,1 km/h (3 Bft)
29.05.2017 19:21 26,4 °C 26,4 °C 36 % 1010,6 hPa 0,0 mm 7,0 km/h (2 Bft) O 86 ° 0 min 0,000 mm 0,7 UV-I 181 W/m² 10,1 °C 26,4 °C 11,3 km/h (2 Bft)
29.05.2017 19:22 26,4 °C 26,4 °C 37 % 1010,5 hPa 0,0 mm 8,5 km/h (2 Bft) O-NO 72 ° 0 min 0,000 mm 0,7 UV-I 158 W/m² 10,5 °C 26,4 °C 12,9 km/h (3 Bft)
29.05.2017 19:23 26,4 °C 26,4 °C 38 % 1010,5 hPa 0,0 mm 6,7 km/h (2 Bft) O 93 ° 0 min 0,000 mm 0,7 UV-I 172 W/m² 10,9 °C 26,4 °C 8,0 km/h (2 Bft)
29.05.2017 19:24 26,3 °C 26,4 °C 38 % 1010,5 hPa 0,0 mm 6,1 km/h (2 Bft) O 80 ° 0 min 0,000 mm 0,7 UV-I 169 W/m² 10,8 °C 26,3 °C 9,7 km/h (2 Bft)
29.05.2017 19:25 26,3 °C 26,3 °C 37 % 1010,5 hPa 0,0 mm 3,0 km/h (1 Bft) N-NO 17 ° 0 min 0,000 mm 0,7 UV-I 167 W/m² 10,4 °C 26,3 °C 4,8 km/h (1 Bft)
29.05.2017 19:26 26,2 °C 26,3 °C 38 % 1010,5 hPa 0,0 mm 9,9 km/h (2 Bft) O 85 ° 0 min 0,000 mm 0,7 UV-I 165 W/m² 10,7 °C 26,2 °C 16,1 km/h (3 Bft)
29.05.2017 19:27 26,2 °C 26,2 °C 37 % 1010,6 hPa 0,0 mm 4,1 km/h (1 Bft) N-NW 338 ° 0 min 0,000 mm 0,7 UV-I 162 W/m² 10,3 °C 26,2 °C 11,3 km/h (2 Bft)
29.05.2017 19:28 26,2 °C 26,2 °C 39 % 1010,6 hPa 0,0 mm 4,9 km/h (1 Bft) O 88 ° 0 min 0,000 mm 0,6 UV-I 160 W/m² 11,1 °C 26,2 °C 9,7 km/h (2 Bft)
29.05.2017 19:29 26,2 °C 26,2 °C 38 % 1010,6 hPa 0,0 mm 9,4 km/h (2 Bft) NO 53 ° 0 min 0,000 mm 0,6 UV-I 155 W/m² 10,7 °C 26,2 °C 14,5 km/h (3 Bft)
29.05.2017 19:30 26,2 °C 26,2 °C 38 % 1010,5 hPa 0,0 mm 7,6 km/h (2 Bft) NO 43 ° 0 min 0,000 mm 0,6 UV-I 151 W/m² 10,7 °C 26,2 °C 14,5 km/h (3 Bft)
29.05.2017 19:31 26,2 °C 26,2 °C 38 % 1010,5 hPa 0,0 mm 6,4 km/h (2 Bft) NO 56 ° 0 min 0,000 mm 0,6 UV-I 149 W/m² 10,7 °C 26,2 °C 9,7 km/h (2 Bft)
29.05.2017 19:32 26,2 °C 26,2 °C 38 % 1010,6 hPa 0,0 mm 5,5 km/h (1 Bft) O-NO 59 ° 0 min 0,000 mm 0,6 UV-I 148 W/m² 10,7 °C 26,2 °C 11,3 km/h (2 Bft)
29.05.2017 19:33 26,2 °C 26,2 °C 39 % 1010,5 hPa 0,0 mm 2,9 km/h (1 Bft) O-NO 73 ° 0 min 0,000 mm 0,6 UV-I 144 W/m² 11,1 °C 26,2 °C 4,8 km/h (1 Bft)
29.05.2017 19:34 26,2 °C 26,2 °C 39 % 1010,5 hPa 0,0 mm 1,2 km/h (1 Bft) O-NO 72 ° 0 min 0,000 mm 0,6 UV-I 139 W/m² 11,1 °C 26,2 °C 3,2 km/h (1 Bft)
29.05.2017 19:35 26,1 °C 26,2 °C 39 % 1010,6 hPa 0,0 mm 4,5 km/h (1 Bft) NO 40 ° 0 min 0,000 mm 0,6 UV-I 137 W/m² 11,0 °C 26,1 °C 8,0 km/h (2 Bft)
29.05.2017 19:36 26,1 °C 26,1 °C 40 % 1010,5 hPa 0,0 mm 3,2 km/h (1 Bft) O-NO 76 ° 0 min 0,000 mm 0,6 UV-I 137 W/m² 11,4 °C 26,1 °C 6,4 km/h (2 Bft)
29.05.2017 19:37 26,0 °C 26,1 °C 39 % 1010,6 hPa 0,0 mm 2,4 km/h (1 Bft) O-NO 65 ° 0 min 0,000 mm 0,5 UV-I 134 W/m² 11,0 °C 26,0 °C 4,8 km/h (1 Bft)
29.05.2017 19:38 25,9 °C 26,0 °C 41 % 1010,6 hPa 0,0 mm 2,5 km/h (1 Bft) NO 55 ° 0 min 0,000 mm 0,5 UV-I 132 W/m² 11,6 °C 25,9 °C 6,4 km/h (2 Bft)
29.05.2017 19:39 25,8 °C 25,9 °C 43 % 1010,5 hPa 0,0 mm 3,0 km/h (1 Bft) O-NO 63 ° 0 min 0,000 mm 0,5 UV-I 130 W/m² 12,3 °C 25,8 °C 4,8 km/h (1 Bft)
29.05.2017 19:40 25,8 °C 25,8 °C 41 % 1010,6 hPa 0,0 mm 4,8 km/h (1 Bft) N-NO 26 ° 0 min 0,000 mm 0,5 UV-I 127 W/m² 11,5 °C 25,8 °C 6,4 km/h (2 Bft)
29.05.2017 19:41 25,8 °C 25,8 °C 42 % 1010,6 hPa 0,0 mm 3,0 km/h (1 Bft) NO 56 ° 0 min 0,000 mm 0,5 UV-I 125 W/m² 11,9 °C 25,8 °C 4,8 km/h (1 Bft)
29.05.2017 19:42 25,8 °C 25,8 °C 41 % 1010,6 hPa 0,0 mm 4,8 km/h (1 Bft) O 101 ° 0 min 0,000 mm 0,5 UV-I 121 W/m² 11,5 °C 25,8 °C 9,7 km/h (2 Bft)
29.05.2017 19:43 25,8 °C 25,8 °C 43 % 1010,6 hPa 0,0 mm 2,9 km/h (1 Bft) O-SO 117 ° 0 min 0,000 mm 0,5 UV-I 116 W/m² 12,3 °C 25,8 °C 6,4 km/h (2 Bft)
29.05.2017 19:44 25,7 °C 25,8 °C 42 % 1010,6 hPa 0,0 mm 1,1 km/h (1 Bft) O-SO 117 ° 0 min 0,000 mm 0,5 UV-I 107 W/m² 11,8 °C 25,7 °C 1,6 km/h (1 Bft)
29.05.2017 19:45 25,7 °C 25,7 °C 42 % 1010,6 hPa 0,0 mm 2,9 km/h (1 Bft) N-NO 19 ° 0 min 0,000 mm 0,5 UV-I 98 W/m² 11,8 °C 25,7 °C 4,8 km/h (1 Bft)
29.05.2017 19:46 25,7 °C 25,7 °C 43 % 1010,6 hPa 0,0 mm 2,6 km/h (1 Bft) NO 52 ° 0 min 0,000 mm 0,5 UV-I 84 W/m² 12,2 °C 25,7 °C 4,8 km/h (1 Bft)
29.05.2017 19:47 25,6 °C 25,7 °C 42 % 1010,6 hPa 0,0 mm 1,0 km/h (0 Bft) NO 52 ° 0 min 0,000 mm 0,0 UV-I 84 W/m² 11,7 °C 25,6 °C 3,2 km/h (1 Bft)
29.05.2017 19:48 25,6 °C 25,7 °C 43 % 1010,6 hPa 0,0 mm 4,2 km/h (1 Bft) NO 51 ° 0 min 0,000 mm 0,0 UV-I 88 W/m² 12,1 °C 25,6 °C 8,0 km/h (2 Bft)
29.05.2017 19:49 25,6 °C 25,6 °C 43 % 1010,6 hPa 0,0 mm 2,8 km/h (1 Bft) O-NO 67 ° 0 min 0,000 mm 0,0 UV-I 86 W/m² 12,1 °C 25,6 °C 4,8 km/h (1 Bft)
29.05.2017 19:50 25,4 °C 25,6 °C 45 % 1010,6 hPa 0,0 mm 4,3 km/h (1 Bft) O 85 ° 0 min 0,000 mm 0,0 UV-I 83 W/m² 12,6 °C 25,4 °C 6,4 km/h (2 Bft)
29.05.2017 19:51 25,3 °C 25,4 °C 44 % 1010,6 hPa 0,0 mm 0,3 km/h (0 Bft) O-NO 76 ° 0 min 0,000 mm 0,0 UV-I 79 W/m² 12,2 °C 25,3 °C 3,2 km/h (1 Bft)
29.05.2017 19:52 25,2 °C 25,3 °C 44 % 1010,6 hPa 0,0 mm 0,3 km/h (0 Bft) O-NO 76 ° 0 min 0,000 mm 0,0 UV-I 76 W/m² 12,1 °C 25,2 °C 1,6 km/h (1 Bft)
29.05.2017 19:53 25,0 °C 25,2 °C 45 % 1010,6 hPa 0,0 mm 3,5 km/h (1 Bft) O 99 ° 0 min 0,000 mm 0,0 UV-I 72 W/m² 12,2 °C 25,0 °C 4,8 km/h (1 Bft)
29.05.2017 19:54 24,8 °C 25,0 °C 46 % 1010,6 hPa 0,0 mm 0,5 km/h (0 Bft) O 98 ° 0 min 0,000 mm 0,0 UV-I 72 W/m² 12,4 °C 24,8 °C 1,6 km/h (1 Bft)
29.05.2017 19:55 24,7 °C 24,8 °C 47 % 1010,5 hPa 0,0 mm 1,7 km/h (1 Bft) O-NO 78 ° 0 min 0,000 mm 0,0 UV-I 70 W/m² 12,6 °C 24,7 °C 3,2 km/h (1 Bft)
29.05.2017 19:56 24,7 °C 24,7 °C 51 % 1010,6 hPa 0,0 mm 1,4 km/h (1 Bft) O 92 ° 0 min 0,000 mm 0,0 UV-I 67 W/m² 13,9 °C 24,7 °C 4,8 km/h (1 Bft)
29.05.2017 19:57 24,4 °C 24,7 °C 48 % 1010,6 hPa 0,0 mm 2,4 km/h (1 Bft) O 92 ° 0 min 0,000 mm 0,0 UV-I 63 W/m² 12,7 °C 24,4 °C 3,2 km/h (1 Bft)
29.05.2017 19:58 24,4 °C 24,4 °C 45 % 1010,6 hPa 0,0 mm 0,0 km/h (0 Bft) O 92 ° 0 min 0,000 mm 0,0 UV-I 60 W/m² 11,7 °C 24,4 °C 0,0 km/h (0 Bft)
29.05.2017 19:59 24,3 °C 24,4 °C 47 % 1010,6 hPa 0,0 mm 0,0 km/h (0 Bft) O 92 ° 0 min 0,000 mm 0,0 UV-I 53 W/m² 12,3 °C 24,3 °C 0,0 km/h (0 Bft)
29.05.2017 20:00 24,2 °C 24,3 °C 49 % 1010,6 hPa 0,0 mm 0,7 km/h (0 Bft) O 92 ° 0 min 0,000 mm 0,0 UV-I 47 W/m² 12,8 °C 24,2 °C 1,6 km/h (1 Bft)
29.05.2017 20:01 24,1 °C 24,2 °C 50 % 1010,6 hPa 0,0 mm 2,5 km/h (1 Bft) O 92 ° 0 min 0,127 mm 0,0 UV-I 44 W/m² 13,0 °C 24,1 °C 3,2 km/h (1 Bft)
29.05.2017 20:02 24,1 °C 24,1 °C 48 % 1010,6 hPa 0,0 mm 4,0 km/h (1 Bft) O-NO 72 ° 0 min 0,000 mm 0,0 UV-I 42 W/m² 12,4 °C 24,1 °C 8,0 km/h (2 Bft)
29.05.2017 20:03 23,9 °C 24,1 °C 49 % 1010,6 hPa 0,0 mm 1,1 km/h (1 Bft) O-NO 72 ° 0 min 0,000 mm 0,0 UV-I 42 W/m² 12,5 °C 23,9 °C 3,2 km/h (1 Bft)
29.05.2017 20:04 23,8 °C 23,9 °C 48 % 1010,6 hPa 0,0 mm 0,0 km/h (0 Bft) O-NO 72 ° 0 min 0,000 mm 0,0 UV-I 42 W/m² 12,1 °C 23,8 °C 0,0 km/h (0 Bft)
29.05.2017 20:05 23,8 °C 23,8 °C 46 % 1010,6 hPa 0,0 mm 2,1 km/h (1 Bft) O 96 ° 0 min 0,000 mm 0,0 UV-I 40 W/m² 11,5 °C 23,8 °C 4,8 km/h (1 Bft)
29.05.2017 20:06 23,8 °C 23,8 °C 48 % 1010,6 hPa 0,0 mm 0,6 km/h (0 Bft) O 94 ° 0 min 0,000 mm 0,0 UV-I 40 W/m² 12,1 °C 23,8 °C 3,2 km/h (1 Bft)
29.05.2017 20:07 23,8 °C 23,8 °C 47 % 1010,5 hPa 0,0 mm 0,0 km/h (0 Bft) O 94 ° 0 min 0,000 mm 0,0 UV-I 40 W/m² 11,8 °C 23,8 °C 0,0 km/h (0 Bft)
29.05.2017 20:08 23,8 °C 23,8 °C 49 % 1010,5 hPa 0,0 mm 0,6 km/h (0 Bft) O 94 ° 0 min 0,000 mm 0,0 UV-I 39 W/m² 12,4 °C 23,8 °C 3,2 km/h (1 Bft)
29.05.2017 20:09 23,7 °C 23,8 °C 48 % 1010,6 hPa 0,0 mm 0,7 km/h (0 Bft) O 94 ° 0 min 0,000 mm 0,0 UV-I 32 W/m² 12,0 °C 23,7 °C 3,2 km/h (1 Bft)
29.05.2017 20:10 23,7 °C 23,7 °C 48 % 1010,6 hPa 0,0 mm 2,6 km/h (1 Bft) O-SO 110 ° 0 min 0,000 mm 0,0 UV-I 30 W/m² 12,0 °C 23,7 °C 4,8 km/h (1 Bft)
29.05.2017 20:11 23,7 °C 23,7 °C 47 % 1010,5 hPa 0,0 mm 1,5 km/h (1 Bft) O-SO 110 ° 0 min 0,000 mm 0,0 UV-I 30 W/m² 11,7 °C 23,7 °C 3,2 km/h (1 Bft)
29.05.2017 20:12 23,6 °C 23,7 °C 50 % 1010,6 hPa 0,0 mm 0,1 km/h (0 Bft) O-SO 110 ° 0 min 0,000 mm 0,0 UV-I 32 W/m² 12,6 °C 23,6 °C 1,6 km/h (1 Bft)
29.05.2017 20:13 23,4 °C 23,6 °C 50 % 1010,6 hPa 0,0 mm 0,1 km/h (0 Bft) O-SO 110 ° 0 min 0,000 mm 0,0 UV-I 32 W/m² 12,4 °C 23,4 °C 1,6 km/h (1 Bft)
29.05.2017 20:14 23,3 °C 23,4 °C 50 % 1010,6 hPa 0,0 mm 0,0 km/h (0 Bft) O-SO 110 ° 0 min 0,000 mm 0,0 UV-I 30 W/m² 12,3 °C 23,3 °C 0,0 km/h (0 Bft)
29.05.2017 20:15 23,3 °C 23,3 °C 48 % 1010,6 hPa 0,0 mm 0,0 km/h (0 Bft) O-SO 110 ° 0 min 0,000 mm 0,0 UV-I 25 W/m² 11,7 °C 23,3 °C 0,0 km/h (0 Bft)
29.05.2017 20:16 23,3 °C 23,3 °C 50 % 1010,7 hPa 0,0 mm 0,0 km/h (0 Bft) O-SO 110 ° 0 min 0,000 mm 0,0 UV-I 21 W/m² 12,3 °C 23,3 °C 0,0 km/h (0 Bft)
29.05.2017 20:17 23,2 °C 23,3 °C 50 % 1010,6 hPa 0,0 mm 0,0 km/h (0 Bft) O-SO 110 ° 0 min 0,000 mm 0,0 UV-I 19 W/m² 12,2 °C 23,2 °C 0,0 km/h (0 Bft)
29.05.2017 20:18 23,1 °C 23,2 °C 51 % 1010,7 hPa 0,0 mm 1,0 km/h (0 Bft) O-SO 110 ° 0 min 0,000 mm 0,0 UV-I 19 W/m² 12,4 °C 23,1 °C 3,2 km/h (1 Bft)
29.05.2017 20:19 23,0 °C 23,1 °C 50 % 1010,7 hPa 0,0 mm 0,0 km/h (0 Bft) O-SO 110 ° 0 min 0,000 mm 0,0 UV-I 18 W/m² 12,0 °C 23,0 °C 0,0 km/h (0 Bft)
29.05.2017 20:20 22,9 °C 23,0 °C 53 % 1010,7 hPa 0,0 mm 0,6 km/h (0 Bft) O-SO 110 ° 0 min 0,000 mm 0,0 UV-I 18 W/m² 12,8 °C 22,9 °C 1,6 km/h (1 Bft)
29.05.2017 20:21 22,7 °C 22,9 °C 52 % 1010,7 hPa 0,0 mm 0,0 km/h (0 Bft) O-SO 110 ° 0 min 0,000 mm 0,0 UV-I 19 W/m² 12,3 °C 22,7 °C 0,0 km/h (0 Bft)
29.05.2017 20:22 22,6 °C 22,7 °C 54 % 1010,6 hPa 0,0 mm 0,1 km/h (0 Bft) O-SO 110 ° 0 min 0,000 mm 0,0 UV-I 19 W/m² 12,8 °C 22,6 °C 1,6 km/h (1 Bft)
29.05.2017 20:23 22,4 °C 22,6 °C 52 % 1010,6 hPa 0,0 mm 1,0 km/h (0 Bft) O-SO 110 ° 0 min 0,000 mm 0,0 UV-I 21 W/m² 12,1 °C 22,4 °C 1,6 km/h (1 Bft)
29.05.2017 20:24 22,4 °C 22,4 °C 51 % 1010,7 hPa 0,0 mm 0,1 km/h (0 Bft) O-SO 110 ° 0 min 0,000 mm 0,0 UV-I 21 W/m² 11,8 °C 22,4 °C 1,6 km/h (1 Bft)
29.05.2017 20:25 22,4 °C 22,4 °C 51 % 1010,6 hPa 0,0 mm 0,8 km/h (0 Bft) O-SO 110 ° 0 min 0,000 mm 0,0 UV-I 21 W/m² 11,8 °C 22,4 °C 1,6 km/h (1 Bft)
29.05.2017 20:26 22,5 °C 22,6 °C 52 % 1010,7 hPa 0,0 mm 0,3 km/h (0 Bft) O-SO 110 ° 0 min 0,000 mm 0,0 UV-I 19 W/m² 12,1 °C 22,5 °C 1,6 km/h (1 Bft)
29.05.2017 20:27 22,4 °C 22,5 °C 51 % 1010,6 hPa 0,0 mm 0,7 km/h (0 Bft) O-SO 110 ° 0 min 0,000 mm 0,0 UV-I 16 W/m² 11,8 °C 22,4 °C 3,2 km/h (1 Bft)
29.05.2017 20:28 22,3 °C 22,4 °C 54 % 1010,7 hPa 0,0 mm 0,2 km/h (0 Bft) O-SO 110 ° 0 min 0,000 mm 0,0 UV-I 14 W/m² 12,5 °C 22,3 °C 1,6 km/h (1 Bft)
29.05.2017 20:29 22,1 °C 22,3 °C 55 % 1010,7 hPa 0,0 mm 0,6 km/h (0 Bft) O-SO 110 ° 0 min 0,000 mm 0,0 UV-I 14 W/m² 12,6 °C 22,1 °C 1,6 km/h (1 Bft)
29.05.2017 20:30 22,1 °C 22,1 °C 52 % 1010,7 hPa 0,0 mm 0,7 km/h (0 Bft) O-SO 110 ° 0 min 0,000 mm 0,0 UV-I 12 W/m² 11,8 °C 22,1 °C 1,6 km/h (1 Bft)
29.05.2017 20:31 22,1 °C 22,1 °C 53 % 1010,7 hPa 0,0 mm 0,7 km/h (0 Bft) O-SO 110 ° 0 min 0,000 mm 0,0 UV-I 12 W/m² 12,1 °C 22,1 °C 1,6 km/h (1 Bft)
29.05.2017 20:32 21,9 °C 22,1 °C 54 % 1010,7 hPa 0,0 mm 0,9 km/h (0 Bft) O-SO 110 ° 0 min 0,000 mm 0,0 UV-I 12 W/m² 12,2 °C 21,9 °C 3,2 km/h (1 Bft)
29.05.2017 20:33 22,0 °C 22,0 °C 52 % 1010,8 hPa 0,0 mm 0,6 km/h (0 Bft) O-SO 110 ° 0 min 0,000 mm 0,0 UV-I 11 W/m² 11,7 °C 22,0 °C 3,2 km/h (1 Bft)
29.05.2017 20:34 22,1 °C 22,1 °C 53 % 1010,8 hPa 0,0 mm 0,4 km/h (0 Bft) O-SO 110 ° 0 min 0,000 mm 0,0 UV-I 11 W/m² 12,1 °C 22,1 °C 1,6 km/h (1 Bft)
29.05.2017 20:35 22,0 °C 22,1 °C 54 % 1010,7 hPa 0,0 mm 1,7 km/h (1 Bft) O-SO 110 ° 0 min 0,000 mm 0,0 UV-I 11 W/m² 12,3 °C 22,0 °C 3,2 km/h (1 Bft)
29.05.2017 20:36 22,1 °C 22,1 °C 52 % 1010,7 hPa 0,0 mm 0,7 km/h (0 Bft) O-SO 110 ° 0 min 0,000 mm 0,0 UV-I 9 W/m² 11,8 °C 22,1 °C 1,6 km/h (1 Bft)
29.05.2017 20:37 22,1 °C 22,1 °C 51 % 1010,7 hPa 0,0 mm 0,7 km/h (0 Bft) O-SO 110 ° 0 min 0,000 mm 0,0 UV-I 9 W/m² 11,5 °C 22,1 °C 1,6 km/h (1 Bft)
29.05.2017 20:38 22,0 °C 22,1 °C 54 % 1010,7 hPa 0,0 mm 1,9 km/h (1 Bft) O-SO 110 ° 0 min 0,000 mm 0,0 UV-I 9 W/m² 12,3 °C 22,0 °C 3,2 km/h (1 Bft)
29.05.2017 20:39 21,9 °C 22,0 °C 52 % 1010,7 hPa 0,0 mm 0,0 km/h (0 Bft) O-SO 110 ° 0 min 0,000 mm 0,0 UV-I 9 W/m² 11,6 °C 21,9 °C 0,0 km/h (0 Bft)
29.05.2017 20:40 21,9 °C 21,9 °C 54 % 1010,7 hPa 0,0 mm 0,0 km/h (0 Bft) O-SO 110 ° 0 min 0,000 mm 0,0 UV-I 9 W/m² 12,2 °C 21,9 °C 0,0 km/h (0 Bft)
29.05.2017 20:41 21,9 °C 21,9 °C 53 % 1010,8 hPa 0,0 mm 0,0 km/h (0 Bft) O-SO 110 ° 0 min 0,000 mm 0,0 UV-I 9 W/m² 11,9 °C 21,9 °C 0,0 km/h (0 Bft)
29.05.2017 20:42 21,9 °C 21,9 °C 52 % 1010,7 hPa 0,0 mm 0,0 km/h (0 Bft) O-SO 110 ° 0 min 0,000 mm 0,0 UV-I 7 W/m² 11,6 °C 21,9 °C 0,0 km/h (0 Bft)
29.05.2017 20:43 21,9 °C 21,9 °C 54 % 1010,7 hPa 0,0 mm 0,0 km/h (0 Bft) O-SO 110 ° 0 min 0,000 mm 0,0 UV-I 7 W/m² 12,2 °C 21,9 °C 0,0 km/h (0 Bft)
29.05.2017 20:44 21,7 °C 21,9 °C 56 % 1010,8 hPa 0,0 mm 0,0 km/h (0 Bft) O-SO 110 ° 0 min 0,000 mm 0,0 UV-I 7 W/m² 12,5 °C 21,7 °C 0,0 km/h (0 Bft)
29.05.2017 20:45 21,4 °C 21,7 °C 54 % 1010,8 hPa 0,0 mm 0,0 km/h (0 Bft) O-SO 110 ° 0 min 0,000 mm 0,0 UV-I 7 W/m² 11,7 °C 21,4 °C 0,0 km/h (0 Bft)
29.05.2017 20:46 21,3 °C 21,4 °C 56 % 1010,7 hPa 0,0 mm 0,0 km/h (0 Bft) O-SO 110 ° 0 min 0,000 mm 0,0 UV-I 5 W/m² 12,2 °C 21,3 °C 0,0 km/h (0 Bft)
29.05.2017 20:47 21,2 °C 21,3 °C 55 % 1010,7 hPa 0,0 mm 0,0 km/h (0 Bft) O-SO 110 ° 0 min 0,000 mm 0,0 UV-I 5 W/m² 11,8 °C 21,2 °C 0,0 km/h (0 Bft)
29.05.2017 20:48 21,1 °C 21,2 °C 55 % 1010,8 hPa 0,0 mm 0,0 km/h (0 Bft) O-SO 110 ° 0 min 0,000 mm 0,0 UV-I 5 W/m² 11,7 °C 21,1 °C 0,0 km/h (0 Bft)
29.05.2017 20:49 21,1 °C 21,1 °C 56 % 1010,9 hPa 0,0 mm 0,0 km/h (0 Bft) O-SO 110 ° 0 min 0,000 mm 0,0 UV-I 5 W/m² 12,0 °C 21,1 °C 0,0 km/h (0 Bft)
29.05.2017 20:50 21,1 °C 21,1 °C 55 % 1010,8 hPa 0,0 mm 0,9 km/h (0 Bft) O-SO 110 ° 0 min 0,000 mm 0,0 UV-I 5 W/m² 11,7 °C 21,1 °C 3,2 km/h (1 Bft)
29.05.2017 20:51 21,1 °C 21,1 °C 55 % 1010,8 hPa 0,0 mm 0,3 km/h (0 Bft) O-SO 110 ° 0 min 0,000 mm 0,0 UV-I 5 W/m² 11,7 °C 21,1 °C 1,6 km/h (1 Bft)
29.05.2017 20:52 21,2 °C 21,2 °C 54 % 1010,8 hPa 0,0 mm 0,7 km/h (0 Bft) O-SO 110 ° 0 min 0,000 mm 0,0 UV-I 5 W/m² 11,5 °C 21,2 °C 1,6 km/h (1 Bft)
29.05.2017 20:53 21,2 °C 21,2 °C 54 % 1010,8 hPa 0,0 mm 1,1 km/h (1 Bft) O-SO 110 ° 0 min 0,000 mm 0,0 UV-I 5 W/m² 11,5 °C 21,2 °C 3,2 km/h (1 Bft)
29.05.2017 20:54 21,2 °C 21,2 °C 54 % 1010,9 hPa 0,0 mm 2,0 km/h (1 Bft) O-SO 110 ° 0 min 0,000 mm 0,0 UV-I 0 W/m² 11,5 °C 21,2 °C 4,8 km/h (1 Bft)
29.05.2017 20:55 21,2 °C 21,2 °C 54 % 1010,9 hPa 0,0 mm 2,7 km/h (1 Bft) O-SO 110 ° 0 min 0,000 mm 0,0 UV-I 0 W/m² 11,5 °C 21,2 °C 3,2 km/h (1 Bft)
29.05.2017 20:56 21,2 °C 21,2 °C 54 % 1010,9 hPa 0,0 mm 1,0 km/h (0 Bft) O-SO 110 ° 0 min 0,000 mm 0,0 UV-I 0 W/m² 11,5 °C 21,2 °C 3,2 km/h (1 Bft)
29.05.2017 20:57 21,2 °C 21,2 °C 54 % 1010,8 hPa 0,0 mm 0,8 km/h (0 Bft) O-SO 110 ° 0 min 0,000 mm 0,0 UV-I 0 W/m² 11,5 °C 21,2 °C 3,2 km/h (1 Bft)
29.05.2017 20:58 21,1 °C 21,2 °C 55 % 1010,9 hPa 0,0 mm 0,1 km/h (0 Bft) O-SO 110 ° 0 min 0,000 mm 0,0 UV-I 0 W/m² 11,7 °C 21,1 °C 1,6 km/h (1 Bft)
29.05.2017 20:59 20,9 °C 21,1 °C 57 % 1010,9 hPa 0,0 mm 0,9 km/h (0 Bft) O-SO 110 ° 0 min 0,000 mm 0,0 UV-I 0 W/m² 12,1 °C 20,9 °C 1,6 km/h (1 Bft)
29.05.2017 21:00 20,7 °C 20,9 °C 56 % 1011,0 hPa 0,0 mm 0,0 km/h (0 Bft) O-SO 110 ° 0 min 0,000 mm 0,0 UV-I 0 W/m² 11,6 °C 20,7 °C 0,0 km/h (0 Bft)
29.05.2017 21:01 20,6 °C 20,8 °C 57 % 1010,9 hPa 0,0 mm 0,0 km/h (0 Bft) O-SO 110 ° 0 min 0,025 mm 0,0 UV-I 0 W/m² 11,8 °C 20,6 °C 0,0 km/h (0 Bft)
29.05.2017 21:02 20,5 °C 20,6 °C 58 % 1011,0 hPa 0,0 mm 0,0 km/h (0 Bft) O-SO 110 ° 0 min 0,000 mm 0,0 UV-I 0 W/m² 11,9 °C 20,5 °C 0,0 km/h (0 Bft)
29.05.2017 21:03 20,3 °C 20,5 °C 58 % 1011,0 hPa 0,0 mm 0,1 km/h (0 Bft) O-SO 110 ° 0 min 0,000 mm 0,0 UV-I 0 W/m² 11,8 °C 20,3 °C 1,6 km/h (1 Bft)
29.05.2017 21:04 20,2 °C 20,3 °C 58 % 1011,0 hPa 0,0 mm 0,0 km/h (0 Bft) O-SO 110 ° 0 min 0,000 mm 0,0 UV-I 0 W/m² 11,7 °C 20,2 °C 0,0 km/h (0 Bft)
29.05.2017 21:05 20,2 °C 20,2 °C 57 % 1011,0 hPa 0,0 mm 0,1 km/h (0 Bft) O-SO 110 ° 0 min 0,000 mm 0,0 UV-I 0 W/m² 11,4 °C 20,2 °C 1,6 km/h (1 Bft)
29.05.2017 21:06 20,3 °C 20,3 °C 57 % 1011,0 hPa 0,0 mm 0,1 km/h (0 Bft) O-SO 110 ° 0 min 0,000 mm 0,0 UV-I 0 W/m² 11,5 °C 20,3 °C 1,6 km/h (1 Bft)
29.05.2017 21:07 20,3 °C 20,3 °C 56 % 1010,9 hPa 0,0 mm 0,0 km/h (0 Bft) O-SO 110 ° 0 min 0,000 mm 0,0 UV-I 0 W/m² 11,2 °C 20,3 °C 0,0 km/h (0 Bft)
29.05.2017 21:08 20,3 °C 20,4 °C 58 % 1011,0 hPa 0,0 mm 1,5 km/h (1 Bft) O-SO 110 ° 0 min 0,000 mm 0,0 UV-I 0 W/m² 11,8 °C 20,3 °C 3,2 km/h (1 Bft)
29.05.2017 21:09 20,3 °C 20,3 °C 57 % 1011,0 hPa 0,0 mm 1,5 km/h (1 Bft) O-SO 110 ° 0 min 0,000 mm 0,0 UV-I 0 W/m² 11,5 °C 20,3 °C 3,2 km/h (1 Bft)
29.05.2017 21:10 20,2 °C 20,3 °C 58 % 1010,9 hPa 0,0 mm 1,0 km/h (0 Bft) O-SO 110 ° 0 min 0,000 mm 0,0 UV-I 0 W/m² 11,7 °C 20,2 °C 3,2 km/h (1 Bft)
29.05.2017 21:11 20,2 °C 20,2 °C 59 % 1011,0 hPa 0,0 mm 0,2 km/h (0 Bft) O-SO 110 ° 0 min 0,000 mm 0,0 UV-I 0 W/m² 11,9 °C 20,2 °C 1,6 km/h (1 Bft)
29.05.2017 21:12 20,1 °C 20,2 °C 59 % 1011,0 hPa 0,0 mm 0,8 km/h (0 Bft) O-SO 110 ° 0 min 0,000 mm 0,0 UV-I 0 W/m² 11,8 °C 20,1 °C 3,2 km/h (1 Bft)
29.05.2017 21:13 19,8 °C 20,1 °C 60 % 1011,0 hPa 0,0 mm 0,1 km/h (0 Bft) O-SO 110 ° 0 min 0,000 mm 0,0 UV-I 0 W/m² 11,8 °C 19,8 °C 1,6 km/h (1 Bft)
29.05.2017 21:14 19,6 °C 19,8 °C 61 % 1011,0 hPa 0,0 mm 0,0 km/h (0 Bft) O-SO 110 ° 0 min 0,000 mm 0,0 UV-I 0 W/m² 11,9 °C 19,6 °C 0,0 km/h (0 Bft)
29.05.2017 21:15 19,3 °C 19,6 °C 62 % 1011,0 hPa 0,0 mm 0,0 km/h (0 Bft) O-SO 110 ° 0 min 0,000 mm 0,0 UV-I 0 W/m² 11,8 °C 19,3 °C 0,0 km/h (0 Bft)
29.05.2017 21:16 19,2 °C 19,3 °C 62 % 1011,1 hPa 0,0 mm 0,0 km/h (0 Bft) O-SO 110 ° 0 min 0,000 mm 0,0 UV-I 0 W/m² 11,7 °C 19,2 °C 0,0 km/h (0 Bft)
29.05.2017 21:17 19,1 °C 19,2 °C 64 % 1011,0 hPa 0,0 mm 0,0 km/h (0 Bft) O-SO 110 ° 0 min 0,000 mm 0,0 UV-I 0 W/m² 12,1 °C 19,1 °C 0,0 km/h (0 Bft)
29.05.2017 21:18 18,9 °C 19,1 °C 64 % 1011,1 hPa 0,0 mm 0,0 km/h (0 Bft) O-SO 110 ° 0 min 0,000 mm 0,0 UV-I 0 W/m² 11,9 °C 18,9 °C 0,0 km/h (0 Bft)
29.05.2017 21:19 18,7 °C 18,9 °C 65 % 1011,1 hPa 0,0 mm 0,0 km/h (0 Bft) O-SO 110 ° 0 min 0,000 mm 0,0 UV-I 0 W/m² 12,0 °C 18,7 °C 0,0 km/h (0 Bft)
29.05.2017 21:20 18,6 °C 18,7 °C 65 % 1011,1 hPa 0,0 mm 0,0 km/h (0 Bft) O-SO 110 ° 0 min 0,000 mm 0,0 UV-I 0 W/m² 11,9 °C 18,6 °C 0,0 km/h (0 Bft)
29.05.2017 21:21 18,5 °C 18,6 °C 66 % 1011,1 hPa 0,0 mm 0,0 km/h (0 Bft) O-SO 110 ° 0 min 0,000 mm 0,0 UV-I 0 W/m² 12,0 °C 18,5 °C 0,0 km/h (0 Bft)
29.05.2017 21:22 18,4 °C 18,5 °C 66 % 1011,1 hPa 0,0 mm 0,0 km/h (0 Bft) O-SO 110 ° 0 min 0,000 mm 0,0 UV-I 0 W/m² 11,9 °C 18,4 °C 0,0 km/h (0 Bft)
29.05.2017 21:23 18,3 °C 18,4 °C 66 % 1011,1 hPa 0,0 mm 0,0 km/h (0 Bft) O-SO 110 ° 0 min 0,000 mm 0,0 UV-I 0 W/m² 11,8 °C 18,3 °C 0,0 km/h (0 Bft)
29.05.2017 21:24 18,3 °C 18,3 °C 66 % 1011,1 hPa 0,0 mm 0,0 km/h (0 Bft) O-SO 110 ° 0 min 0,000 mm 0,0 UV-I 0 W/m² 11,8 °C 18,3 °C 0,0 km/h (0 Bft)
29.05.2017 21:25 18,4 °C 18,4 °C 66 % 1011,1 hPa 0,0 mm 0,0 km/h (0 Bft) O-SO 110 ° 0 min 0,000 mm 0,0 UV-I 0 W/m² 11,9 °C 18,4 °C 0,0 km/h (0 Bft)
29.05.2017 21:26 18,3 °C 18,4 °C 66 % 1011,1 hPa 0,0 mm 0,0 km/h (0 Bft) O-SO 110 ° 0 min 0,000 mm 0,0 UV-I 0 W/m² 11,8 °C 18,3 °C 0,0 km/h (0 Bft)
29.05.2017 21:27 18,3 °C 18,4 °C 65 % 1011,1 hPa 0,0 mm 0,0 km/h (0 Bft) O-SO 110 ° 0 min 0,000 mm 0,0 UV-I 0 W/m² 11,6 °C 18,3 °C 0,0 km/h (0 Bft)
29.05.2017 21:28 18,3 °C 18,4 °C 65 % 1011,2 hPa 0,0 mm 0,0 km/h (0 Bft) O-SO 110 ° 0 min 0,000 mm 0,0 UV-I 0 W/m² 11,6 °C 18,3 °C 0,0 km/h (0 Bft)
29.05.2017 21:29 18,3 °C 18,3 °C 66 % 1011,2 hPa 0,0 mm 0,0 km/h (0 Bft) O-SO 110 ° 0 min 0,000 mm 0,0 UV-I 0 W/m² 11,8 °C 18,3 °C 0,0 km/h (0 Bft)
29.05.2017 21:30 18,2 °C 18,3 °C 66 % 1011,2 hPa 0,0 mm 0,0 km/h (0 Bft) O-SO 110 ° 0 min 0,000 mm 0,0 UV-I 0 W/m² 11,7 °C 18,2 °C 0,0 km/h (0 Bft)
29.05.2017 21:31 18,2 °C 18,2 °C 67 % 1011,2 hPa 0,0 mm 0,0 km/h (0 Bft) O-SO 110 ° 0 min 0,000 mm 0,0 UV-I 0 W/m² 12,0 °C 18,2 °C 0,0 km/h (0 Bft)
29.05.2017 21:32 18,2 °C 18,2 °C 66 % 1011,2 hPa 0,0 mm 0,0 km/h (0 Bft) O-SO 110 ° 0 min 0,000 mm 0,0 UV-I 0 W/m² 11,7 °C 18,2 °C 0,0 km/h (0 Bft)
29.05.2017 21:33 18,2 °C 18,2 °C 67 % 1011,2 hPa 0,0 mm 0,0 km/h (0 Bft) O-SO 110 ° 0 min 0,000 mm 0,0 UV-I 0 W/m² 12,0 °C 18,2 °C 0,0 km/h (0 Bft)
29.05.2017 21:34 18,2 °C 18,2 °C 67 % 1011,2 hPa 0,0 mm 0,0 km/h (0 Bft) O-SO 110 ° 0 min 0,000 mm 0,0 UV-I 0 W/m² 12,0 °C 18,2 °C 0,0 km/h (0 Bft)
29.05.2017 21:35 18,2 °C 18,2 °C 65 % 1011,2 hPa 0,0 mm 0,0 km/h (0 Bft) O-SO 110 ° 0 min 0,000 mm 0,0 UV-I 0 W/m² 11,5 °C 18,2 °C 0,0 km/h (0 Bft)
29.05.2017 21:36 18,2 °C 18,2 °C 65 % 1011,2 hPa 0,0 mm 0,0 km/h (0 Bft) O-SO 110 ° 0 min 0,000 mm 0,0 UV-I 0 W/m² 11,5 °C 18,2 °C 0,0 km/h (0 Bft)
29.05.2017 21:37 18,2 °C 18,2 °C 65 % 1011,2 hPa 0,0 mm 0,0 km/h (0 Bft) O-SO 110 ° 0 min 0,000 mm 0,0 UV-I 0 W/m² 11,5 °C 18,2 °C 0,0 km/h (0 Bft)
29.05.2017 21:38 18,2 °C 18,2 °C 64 % 1011,2 hPa 0,0 mm 0,0 km/h (0 Bft) O-SO 110 ° 0 min 0,000 mm 0,0 UV-I 0 W/m² 11,3 °C 18,2 °C 0,0 km/h (0 Bft)
29.05.2017 21:39 18,2 °C 18,3 °C 64 % 1011,3 hPa 0,0 mm 0,0 km/h (0 Bft) O-SO 110 ° 0 min 0,000 mm 0,0 UV-I 0 W/m² 11,3 °C 18,2 °C 0,0 km/h (0 Bft)
29.05.2017 21:40 18,3 °C 18,3 °C 63 % 1011,3 hPa 0,0 mm 0,0 km/h (0 Bft) O-SO 110 ° 0 min 0,000 mm 0,0 UV-I 0 W/m² 11,1 °C 18,3 °C 0,0 km/h (0 Bft)
29.05.2017 21:41 18,2 °C 18,3 °C 64 % 1011,2 hPa 0,0 mm 0,0 km/h (0 Bft) O-SO 110 ° 0 min 0,000 mm 0,0 UV-I 0 W/m² 11,3 °C 18,2 °C 0,0 km/h (0 Bft)
29.05.2017 21:42 18,2 °C 18,2 °C 64 % 1011,3 hPa 0,0 mm 0,0 km/h (0 Bft) O-SO 110 ° 0 min 0,000 mm 0,0 UV-I 0 W/m² 11,3 °C 18,2 °C 0,0 km/h (0 Bft)
29.05.2017 21:43 18,2 °C 18,2 °C 64 % 1011,2 hPa 0,0 mm 0,0 km/h (0 Bft) O-SO 110 ° 0 min 0,000 mm 0,0 UV-I 0 W/m² 11,3 °C 18,2 °C 0,0 km/h (0 Bft)
29.05.2017 21:44 18,1 °C 18,2 °C 62 % 1011,2 hPa 0,0 mm 0,0 km/h (0 Bft) O-SO 110 ° 0 min 0,000 mm 0,0 UV-I 0 W/m² 10,7 °C 18,1 °C 0,0 km/h (0 Bft)
29.05.2017 21:45 18,1 °C 18,1 °C 63 % 1011,2 hPa 0,0 mm 0,0 km/h (0 Bft) O-SO 110 ° 0 min 0,000 mm 0,0 UV-I 0 W/m² 10,9 °C 18,1 °C 0,0 km/h (0 Bft)
29.05.2017 21:46 18,1 °C 18,1 °C 63 % 1011,2 hPa 0,0 mm 0,0 km/h (0 Bft) O-SO 110 ° 0 min 0,000 mm 0,0 UV-I 0 W/m² 10,9 °C 18,1 °C 0,0 km/h (0 Bft)
29.05.2017 21:47 18,1 °C 18,1 °C 64 % 1011,2 hPa 0,0 mm 0,0 km/h (0 Bft) O-SO 110 ° 0 min 0,000 mm 0,0 UV-I 0 W/m² 11,2 °C 18,1 °C 0,0 km/h (0 Bft)
29.05.2017 21:48 18,0 °C 18,1 °C 65 % 1011,2 hPa 0,0 mm 0,0 km/h (0 Bft) O-SO 110 ° 0 min 0,000 mm 0,0 UV-I 0 W/m² 11,3 °C 18,0 °C 0,0 km/h (0 Bft)
29.05.2017 21:49 17,9 °C 18,0 °C 65 % 1011,2 hPa 0,0 mm 0,0 km/h (0 Bft) O-SO 110 ° 0 min 0,000 mm 0,0 UV-I 0 W/m² 11,2 °C 17,9 °C 0,0 km/h (0 Bft)
29.05.2017 21:50 17,9 °C 17,9 °C 64 % 1011,3 hPa 0,0 mm 0,0 km/h (0 Bft) O-SO 110 ° 0 min 0,000 mm 0,0 UV-I 0 W/m² 11,0 °C 17,9 °C 0,0 km/h (0 Bft)
29.05.2017 21:51 17,9 °C 17,9 °C 63 % 1011,3 hPa 0,0 mm 0,0 km/h (0 Bft) O-SO 110 ° 0 min 0,000 mm 0,0 UV-I 0 W/m² 10,8 °C 17,9 °C 0,0 km/h (0 Bft)
29.05.2017 21:52 17,8 °C 17,9 °C 63 % 1011,2 hPa 0,0 mm 0,0 km/h (0 Bft) O-SO 110 ° 0 min 0,000 mm 0,0 UV-I 0 W/m² 10,7 °C 17,8 °C 0,0 km/h (0 Bft)
29.05.2017 21:53 17,8 °C 17,8 °C 63 % 1011,3 hPa 0,0 mm 0,0 km/h (0 Bft) O-SO 110 ° 0 min 0,000 mm 0,0 UV-I 0 W/m² 10,7 °C 17,8 °C 0,0 km/h (0 Bft)
29.05.2017 21:54 17,8 °C 17,8 °C 62 % 1011,3 hPa 0,0 mm 0,0 km/h (0 Bft) O-SO 110 ° 0 min 0,000 mm 0,0 UV-I 0 W/m² 10,4 °C 17,8 °C 0,0 km/h (0 Bft)
29.05.2017 21:55 17,8 °C 17,8 °C 63 % 1011,2 hPa 0,0 mm 0,0 km/h (0 Bft) O-SO 110 ° 0 min 0,000 mm 0,0 UV-I 0 W/m² 10,7 °C 17,8 °C 0,0 km/h (0 Bft)
29.05.2017 21:56 17,8 °C 17,8 °C 63 % 1011,2 hPa 0,0 mm 0,0 km/h (0 Bft) O-SO 110 ° 0 min 0,000 mm 0,0 UV-I 0 W/m² 10,7 °C 17,8 °C 0,0 km/h (0 Bft)
29.05.2017 21:57 17,8 °C 17,8 °C 63 % 1011,2 hPa 0,0 mm 0,0 km/h (0 Bft) O-SO 110 ° 0 min 0,000 mm 0,0 UV-I 0 W/m² 10,7 °C 17,8 °C 0,0 km/h (0 Bft)
29.05.2017 21:58 17,8 °C 17,8 °C 63 % 1011,2 hPa 0,0 mm 0,0 km/h (0 Bft) O-SO 110 ° 0 min 0,000 mm 0,0 UV-I 0 W/m² 10,7 °C 17,8 °C 0,0 km/h (0 Bft)
29.05.2017 21:59 17,7 °C 17,8 °C 63 % 1011,3 hPa 0,0 mm 0,0 km/h (0 Bft) O-SO 110 ° 0 min 0,000 mm 0,0 UV-I 0 W/m² 10,6 °C 17,7 °C 0,0 km/h (0 Bft)
29.05.2017 22:00 17,8 °C 17,8 °C 63 % 1011,2 hPa 0,0 mm 0,0 km/h (0 Bft) O-SO 110 ° 0 min 0,000 mm 0,0 UV-I 0 W/m² 10,7 °C 17,8 °C 0,0 km/h (0 Bft)
29.05.2017 22:01 17,8 °C 17,8 °C 62 % 1011,2 hPa 0,0 mm 0,0 km/h (0 Bft) O-SO 110 ° 0 min 0,000 mm 0,0 UV-I 0 W/m² 10,4 °C 17,8 °C 0,0 km/h (0 Bft)
29.05.2017 22:02 17,8 °C 17,8 °C 62 % 1011,2 hPa 0,0 mm 0,0 km/h (0 Bft) O-SO 110 ° 0 min 0,000 mm 0,0 UV-I 0 W/m² 10,4 °C 17,8 °C 0,0 km/h (0 Bft)
29.05.2017 22:03 17,8 °C 17,8 °C 62 % 1011,3 hPa 0,0 mm 0,0 km/h (0 Bft) O-SO 110 ° 0 min 0,000 mm 0,0 UV-I 0 W/m² 10,4 °C 17,8 °C 0,0 km/h (0 Bft)
29.05.2017 22:04 17,7 °C 17,8 °C 64 % 1011,3 hPa 0,0 mm 0,0 km/h (0 Bft) O-SO 110 ° 0 min 0,000 mm 0,0 UV-I 0 W/m² 10,8 °C 17,7 °C 0,0 km/h (0 Bft)
29.05.2017 22:05 17,6 °C 17,7 °C 64 % 1011,3 hPa 0,0 mm 0,0 km/h (0 Bft) O-SO 110 ° 0 min 0,000 mm 0,0 UV-I 0 W/m² 10,7 °C 17,6 °C 0,0 km/h (0 Bft)
29.05.2017 22:06 17,5 °C 17,6 °C 64 % 1011,3 hPa 0,0 mm 0,0 km/h (0 Bft) O-SO 110 ° 0 min 0,000 mm 0,0 UV-I 0 W/m² 10,6 °C 17,5 °C 0,0 km/h (0 Bft)
29.05.2017 22:07 17,5 °C 17,5 °C 64 % 1011,3 hPa 0,0 mm 0,0 km/h (0 Bft) O-SO 110 ° 0 min 0,000 mm 0,0 UV-I 0 W/m² 10,6 °C 17,5 °C 0,0 km/h (0 Bft)
29.05.2017 22:08 17,3 °C 17,5 °C 65 % 1011,3 hPa 0,0 mm 0,0 km/h (0 Bft) O-SO 110 ° 0 min 0,000 mm 0,0 UV-I 0 W/m² 10,7 °C 17,3 °C 0,0 km/h (0 Bft)
29.05.2017 22:09 17,2 °C 17,3 °C 65 % 1011,3 hPa 0,0 mm 0,0 km/h (0 Bft) O-SO 110 ° 0 min 0,000 mm 0,0 UV-I 0 W/m² 10,6 °C 17,2 °C 0,0 km/h (0 Bft)
29.05.2017 22:10 17,1 °C 17,2 °C 67 % 1011,3 hPa 0,0 mm 0,0 km/h (0 Bft) O-SO 110 ° 0 min 0,000 mm 0,0 UV-I 0 W/m² 10,9 °C 17,1 °C 0,0 km/h (0 Bft)
29.05.2017 22:11 17,1 °C 17,1 °C 66 % 1011,3 hPa 0,0 mm 0,0 km/h (0 Bft) O-SO 110 ° 0 min 0,000 mm 0,0 UV-I 0 W/m² 10,7 °C 17,1 °C 0,0 km/h (0 Bft)
29.05.2017 22:12 17,1 °C 17,1 °C 65 % 1011,3 hPa 0,0 mm 0,0 km/h (0 Bft) O-SO 110 ° 0 min 0,000 mm 0,0 UV-I 0 W/m² 10,5 °C 17,1 °C 0,0 km/h (0 Bft)
29.05.2017 22:13 17,0 °C 17,1 °C 66 % 1011,3 hPa 0,0 mm 0,0 km/h (0 Bft) O-SO 110 ° 0 min 0,000 mm 0,0 UV-I 0 W/m² 10,6 °C 17,0 °C 0,0 km/h (0 Bft)
29.05.2017 22:14 17,0 °C 17,0 °C 65 % 1011,3 hPa 0,0 mm 0,0 km/h (0 Bft) O-SO 110 ° 0 min 0,000 mm 0,0 UV-I 0 W/m² 10,4 °C 17,0 °C 0,0 km/h (0 Bft)
29.05.2017 22:15 17,0 °C 17,1 °C 66 % 1011,4 hPa 0,0 mm 0,0 km/h (0 Bft) O-SO 110 ° 0 min 0,000 mm 0,0 UV-I 0 W/m² 10,6 °C 17,0 °C 0,0 km/h (0 Bft)
29.05.2017 22:16 17,0 °C 17,0 °C 67 % 1011,4 hPa 0,0 mm 0,0 km/h (0 Bft) O-SO 110 ° 0 min 0,000 mm 0,0 UV-I 0 W/m² 10,8 °C 17,0 °C 0,0 km/h (0 Bft)
29.05.2017 22:17 16,9 °C 17,0 °C 66 % 1011,4 hPa 0,0 mm 0,0 km/h (0 Bft) O-SO 110 ° 0 min 0,000 mm 0,0 UV-I 0 W/m² 10,5 °C 16,9 °C 0,0 km/h (0 Bft)
29.05.2017 22:18 16,8 °C 16,9 °C 67 % 1011,4 hPa 0,0 mm 0,0 km/h (0 Bft) O-SO 110 ° 0 min 0,000 mm 0,0 UV-I 0 W/m² 10,6 °C 16,8 °C 0,0 km/h (0 Bft)
29.05.2017 22:19 16,7 °C 16,8 °C 68 % 1011,4 hPa 0,0 mm 0,0 km/h (0 Bft) O-SO 110 ° 0 min 0,000 mm 0,0 UV-I 0 W/m² 10,8 °C 16,7 °C 0,0 km/h (0 Bft)
29.05.2017 22:20 16,6 °C 16,7 °C 68 % 1011,4 hPa 0,0 mm 0,0 km/h (0 Bft) O-SO 110 ° 0 min 0,000 mm 0,0 UV-I 0 W/m² 10,7 °C 16,6 °C 0,0 km/h (0 Bft)
29.05.2017 22:21 16,6 °C 16,6 °C 68 % 1011,5 hPa 0,0 mm 0,0 km/h (0 Bft) O-SO 110 ° 0 min 0,000 mm 0,0 UV-I 0 W/m² 10,7 °C 16,6 °C 0,0 km/h (0 Bft)
29.05.2017 22:22 16,7 °C 16,7 °C 68 % 1011,4 hPa 0,0 mm 0,0 km/h (0 Bft) O-SO 110 ° 0 min 0,000 mm 0,0 UV-I 0 W/m² 10,8 °C 16,7 °C 0,0 km/h (0 Bft)
29.05.2017 22:23 16,6 °C 16,7 °C 68 % 1011,5 hPa 0,0 mm 0,0 km/h (0 Bft) O-SO 110 ° 0 min 0,000 mm 0,0 UV-I 0 W/m² 10,7 °C 16,6 °C 0,0 km/h (0 Bft)
29.05.2017 22:24 16,6 °C 16,6 °C 68 % 1011,4 hPa 0,0 mm 0,2 km/h (0 Bft) O-SO 110 ° 0 min 0,000 mm 0,0 UV-I 0 W/m² 10,7 °C 16,6 °C 1,6 km/h (1 Bft)
29.05.2017 22:25 16,4 °C 16,6 °C 68 % 1011,5 hPa 0,0 mm 0,0 km/h (0 Bft) O-SO 110 ° 0 min 0,000 mm 0,0 UV-I 0 W/m² 10,5 °C 16,4 °C 0,0 km/h (0 Bft)
29.05.2017 22:26 16,3 °C 16,4 °C 68 % 1011,5 hPa 0,0 mm 0,7 km/h (0 Bft) O-SO 110 ° 0 min 0,000 mm 0,0 UV-I 0 W/m² 10,4 °C 16,3 °C 3,2 km/h (1 Bft)
29.05.2017 22:27 16,3 °C 16,3 °C 69 % 1011,4 hPa 0,0 mm 1,6 km/h (1 Bft) O-SO 110 ° 0 min 0,000 mm 0,0 UV-I 0 W/m² 10,6 °C 16,3 °C 3,2 km/h (1 Bft)
29.05.2017 22:28 16,3 °C 16,3 °C 69 % 1011,4 hPa 0,0 mm 2,3 km/h (1 Bft) O-SO 110 ° 0 min 0,000 mm 0,0 UV-I 0 W/m² 10,6 °C 16,3 °C 3,2 km/h (1 Bft)
29.05.2017 22:29 16,3 °C 16,3 °C 69 % 1011,5 hPa 0,0 mm 1,3 km/h (1 Bft) O-SO 110 ° 0 min 0,000 mm 0,0 UV-I 0 W/m² 10,6 °C 16,3 °C 3,2 km/h (1 Bft)
29.05.2017 22:30 16,2 °C 16,3 °C 69 % 1011,5 hPa 0,0 mm 0,0 km/h (0 Bft) O-SO 110 ° 0 min 0,000 mm 0,0 UV-I 0 W/m² 10,5 °C 16,2 °C 0,0 km/h (0 Bft)
29.05.2017 22:31 16,2 °C 16,2 °C 69 % 1011,4 hPa 0,0 mm 0,0 km/h (0 Bft) O-SO 110 ° 0 min 0,000 mm 0,0 UV-I 0 W/m² 10,5 °C 16,2 °C 0,0 km/h (0 Bft)
29.05.2017 22:32 16,2 °C 16,2 °C 70 % 1011,5 hPa 0,0 mm 0,2 km/h (0 Bft) O-SO 110 ° 0 min 0,000 mm 0,0 UV-I 0 W/m² 10,7 °C 16,2 °C 1,6 km/h (1 Bft)
29.05.2017 22:33 16,2 °C 16,2 °C 70 % 1011,4 hPa 0,0 mm 0,0 km/h (0 Bft) O-SO 110 ° 0 min 0,000 mm 0,0 UV-I 0 W/m² 10,7 °C 16,2 °C 0,0 km/h (0 Bft)
29.05.2017 22:34 16,2 °C 16,2 °C 70 % 1011,5 hPa 0,0 mm 1,3 km/h (1 Bft) O-SO 110 ° 0 min 0,000 mm 0,0 UV-I 0 W/m² 10,7 °C 16,2 °C 3,2 km/h (1 Bft)
29.05.2017 22:35 16,2 °C 16,2 °C 69 % 1011,5 hPa 0,0 mm 2,3 km/h (1 Bft) O-SO 110 ° 0 min 0,000 mm 0,0 UV-I 0 W/m² 10,5 °C 16,2 °C 3,2 km/h (1 Bft)
29.05.2017 22:36 16,2 °C 16,2 °C 69 % 1011,5 hPa 0,0 mm 0,7 km/h (0 Bft) O-SO 110 ° 0 min 0,000 mm 0,0 UV-I 0 W/m² 10,5 °C 16,2 °C 1,6 km/h (1 Bft)
29.05.2017 22:37 16,2 °C 16,2 °C 69 % 1011,5 hPa 0,0 mm 0,3 km/h (0 Bft) O-SO 110 ° 0 min 0,000 mm 0,0 UV-I 0 W/m² 10,5 °C 16,2 °C 1,6 km/h (1 Bft)
29.05.2017 22:38 16,2 °C 16,2 °C 69 % 1011,5 hPa 0,0 mm 0,0 km/h (0 Bft) O-SO 110 ° 0 min 0,000 mm 0,0 UV-I 0 W/m² 10,5 °C 16,2 °C 0,0 km/h (0 Bft)
29.05.2017 22:39 16,2 °C 16,2 °C 69 % 1011,5 hPa 0,0 mm 0,0 km/h (0 Bft) O-SO 110 ° 0 min 0,000 mm 0,0 UV-I 0 W/m² 10,5 °C 16,2 °C 0,0 km/h (0 Bft)
29.05.2017 22:40 16,3 °C 16,3 °C 69 % 1011,5 hPa 0,0 mm 0,0 km/h (0 Bft) O-SO 110 ° 0 min 0,000 mm 0,0 UV-I 0 W/m² 10,6 °C 16,3 °C 0,0 km/h (0 Bft)
29.05.2017 22:41 16,3 °C 16,3 °C 69 % 1011,5 hPa 0,0 mm 0,0 km/h (0 Bft) O-SO 110 ° 0 min 0,000 mm 0,0 UV-I 0 W/m² 10,6 °C 16,3 °C 0,0 km/h (0 Bft)
29.05.2017 22:42 16,3 °C 16,3 °C 69 % 1011,5 hPa 0,0 mm 0,0 km/h (0 Bft) O-SO 110 ° 0 min 0,000 mm 0,0 UV-I 0 W/m² 10,6 °C 16,3 °C 0,0 km/h (0 Bft)
29.05.2017 22:43 16,3 °C 16,3 °C 69 % 1011,5 hPa 0,0 mm 0,0 km/h (0 Bft) O-SO 110 ° 0 min 0,000 mm 0,0 UV-I 0 W/m² 10,6 °C 16,3 °C 0,0 km/h (0 Bft)
29.05.2017 22:44 16,2 °C 16,3 °C 69 % 1011,5 hPa 0,0 mm 0,0 km/h (0 Bft) O-SO 110 ° 0 min 0,000 mm 0,0 UV-I 0 W/m² 10,5 °C 16,2 °C 0,0 km/h (0 Bft)
29.05.2017 22:45 16,2 °C 16,2 °C 69 % 1011,5 hPa 0,0 mm 0,0 km/h (0 Bft) O-SO 110 ° 0 min 0,000 mm 0,0 UV-I 0 W/m² 10,5 °C 16,2 °C 0,0 km/h (0 Bft)
29.05.2017 22:46 16,2 °C 16,2 °C 69 % 1011,5 hPa 0,0 mm 0,0 km/h (0 Bft) O-SO 110 ° 0 min 0,000 mm 0,0 UV-I 0 W/m² 10,5 °C 16,2 °C 0,0 km/h (0 Bft)
29.05.2017 22:47 16,2 °C 16,2 °C 68 % 1011,5 hPa 0,0 mm 0,0 km/h (0 Bft) O-SO 110 ° 0 min 0,000 mm 0,0 UV-I 0 W/m² 10,3 °C 16,2 °C 0,0 km/h (0 Bft)
29.05.2017 22:48 16,3 °C 16,3 °C 68 % 1011,6 hPa 0,0 mm 0,0 km/h (0 Bft) O-SO 110 ° 0 min 0,000 mm 0,0 UV-I 0 W/m² 10,4 °C 16,3 °C 0,0 km/h (0 Bft)
29.05.2017 22:49 16,3 °C 16,3 °C 68 % 1011,6 hPa 0,0 mm 0,0 km/h (0 Bft) O-SO 110 ° 0 min 0,000 mm 0,0 UV-I 0 W/m² 10,4 °C 16,3 °C 0,0 km/h (0 Bft)
29.05.2017 22:50 16,4 °C 16,4 °C 68 % 1011,6 hPa 0,0 mm 0,0 km/h (0 Bft) O-SO 110 ° 0 min 0,000 mm 0,0 UV-I 0 W/m² 10,5 °C 16,4 °C 0,0 km/h (0 Bft)
29.05.2017 22:51 16,5 °C 16,5 °C 67 % 1011,6 hPa 0,0 mm 0,0 km/h (0 Bft) O-SO 110 ° 0 min 0,000 mm 0,0 UV-I 0 W/m² 10,4 °C 16,5 °C 0,0 km/h (0 Bft)
29.05.2017 22:52 16,6 °C 16,6 °C 67 % 1011,6 hPa 0,0 mm 0,0 km/h (0 Bft) O-SO 110 ° 0 min 0,000 mm 0,0 UV-I 0 W/m² 10,4 °C 16,6 °C 0,0 km/h (0 Bft)
29.05.2017 22:53 16,4 °C 16,6 °C 69 % 1011,6 hPa 0,0 mm 0,0 km/h (0 Bft) O-SO 110 ° 0 min 0,000 mm 0,0 UV-I 0 W/m² 10,7 °C 16,4 °C 0,0 km/h (0 Bft)
29.05.2017 22:54 16,4 °C 16,5 °C 69 % 1011,6 hPa 0,0 mm 0,0 km/h (0 Bft) O-SO 110 ° 0 min 0,000 mm 0,0 UV-I 0 W/m² 10,7 °C 16,4 °C 0,0 km/h (0 Bft)
29.05.2017 22:55 16,3 °C 16,4 °C 69 % 1011,7 hPa 0,0 mm 0,3 km/h (0 Bft) O-SO 110 ° 0 min 0,000 mm 0,0 UV-I 0 W/m² 10,6 °C 16,3 °C 1,6 km/h (1 Bft)
29.05.2017 22:56 16,3 °C 16,3 °C 68 % 1011,6 hPa 0,0 mm 0,5 km/h (0 Bft) O-SO 110 ° 0 min 0,000 mm 0,0 UV-I 0 W/m² 10,4 °C 16,3 °C 1,6 km/h (1 Bft)
29.05.2017 22:57 16,4 °C 16,4 °C 67 % 1011,6 hPa 0,0 mm 0,9 km/h (0 Bft) O-SO 110 ° 0 min 0,000 mm 0,0 UV-I 0 W/m² 10,3 °C 16,4 °C 1,6 km/h (1 Bft)
29.05.2017 22:58 16,4 °C 16,4 °C 66 % 1011,6 hPa 0,0 mm 0,2 km/h (0 Bft) O-SO 110 ° 0 min 0,000 mm 0,0 UV-I 0 W/m² 10,0 °C 16,4 °C 1,6 km/h (1 Bft)
29.05.2017 22:59 16,6 °C 16,6 °C 67 % 1011,6 hPa 0,0 mm 0,0 km/h (0 Bft) O-SO 110 ° 0 min 0,000 mm 0,0 UV-I 0 W/m² 10,4 °C 16,6 °C 0,0 km/h (0 Bft)
29.05.2017 23:00 16,6 °C 16,6 °C 66 % 1011,7 hPa 0,0 mm 0,0 km/h (0 Bft) O-SO 110 ° 0 min 0,000 mm 0,0 UV-I 0 W/m² 10,2 °C 16,6 °C 0,0 km/h (0 Bft)
29.05.2017 23:01 16,7 °C 16,7 °C 66 % 1011,6 hPa 0,0 mm 0,0 km/h (0 Bft) O-SO 110 ° 0 min 0,026 mm 0,0 UV-I 0 W/m² 10,3 °C 16,7 °C 0,0 km/h (0 Bft)
29.05.2017 23:02 16,7 °C 16,7 °C 67 % 1011,6 hPa 0,0 mm 0,0 km/h (0 Bft) O-SO 110 ° 0 min 0,000 mm 0,0 UV-I 0 W/m² 10,5 °C 16,7 °C 0,0 km/h (0 Bft)
29.05.2017 23:03 16,6 °C 16,7 °C 68 % 1011,6 hPa 0,0 mm 0,0 km/h (0 Bft) O-SO 110 ° 0 min 0,000 mm 0,0 UV-I 0 W/m² 10,7 °C 16,6 °C 0,0 km/h (0 Bft)
29.05.2017 23:04 16,6 °C 16,6 °C 68 % 1011,6 hPa 0,0 mm 0,0 km/h (0 Bft) O-SO 110 ° 0 min 0,000 mm 0,0 UV-I 0 W/m² 10,7 °C 16,6 °C 0,0 km/h (0 Bft)
29.05.2017 23:05 16,4 °C 16,6 °C 68 % 1011,6 hPa 0,0 mm 0,0 km/h (0 Bft) O-SO 110 ° 0 min 0,000 mm 0,0 UV-I 0 W/m² 10,5 °C 16,4 °C 0,0 km/h (0 Bft)
29.05.2017 23:06 16,3 °C 16,4 °C 69 % 1011,6 hPa 0,0 mm 0,0 km/h (0 Bft) O-SO 110 ° 0 min 0,000 mm 0,0 UV-I 0 W/m² 10,6 °C 16,3 °C 0,0 km/h (0 Bft)
29.05.2017 23:07 16,3 °C 16,3 °C 69 % 1011,5 hPa 0,0 mm 0,0 km/h (0 Bft) O-SO 110 ° 0 min 0,000 mm 0,0 UV-I 0 W/m² 10,6 °C 16,3 °C 0,0 km/h (0 Bft)
29.05.2017 23:08 16,3 °C 16,3 °C 68 % 1011,6 hPa 0,0 mm 0,0 km/h (0 Bft) O-SO 110 ° 0 min 0,000 mm 0,0 UV-I 0 W/m² 10,4 °C 16,3 °C 0,0 km/h (0 Bft)
29.05.2017 23:09 16,3 °C 16,3 °C 68 % 1011,6 hPa 0,0 mm 0,0 km/h (0 Bft) O-SO 110 ° 0 min 0,000 mm 0,0 UV-I 0 W/m² 10,4 °C 16,3 °C 0,0 km/h (0 Bft)
29.05.2017 23:10 16,2 °C 16,3 °C 68 % 1011,6 hPa 0,0 mm 0,0 km/h (0 Bft) O-SO 110 ° 0 min 0,000 mm 0,0 UV-I 0 W/m² 10,3 °C 16,2 °C 0,0 km/h (0 Bft)
29.05.2017 23:11 16,2 °C 16,2 °C 68 % 1011,6 hPa 0,0 mm 0,0 km/h (0 Bft) O-SO 110 ° 0 min 0,000 mm 0,0 UV-I 0 W/m² 10,3 °C 16,2 °C 0,0 km/h (0 Bft)
29.05.2017 23:12 16,2 °C 16,2 °C 68 % 1011,6 hPa 0,0 mm 0,0 km/h (0 Bft) O-SO 110 ° 0 min 0,000 mm 0,0 UV-I 0 W/m² 10,3 °C 16,2 °C 0,0 km/h (0 Bft)
29.05.2017 23:13 16,1 °C 16,2 °C 69 % 1011,6 hPa 0,0 mm 0,0 km/h (0 Bft) O-SO 110 ° 0 min 0,000 mm 0,0 UV-I 0 W/m² 10,4 °C 16,1 °C 0,0 km/h (0 Bft)
29.05.2017 23:14 16,1 °C 16,1 °C 69 % 1011,6 hPa 0,0 mm 0,0 km/h (0 Bft) O-SO 110 ° 0 min 0,000 mm 0,0 UV-I 0 W/m² 10,4 °C 16,1 °C 0,0 km/h (0 Bft)
29.05.2017 23:15 15,9 °C 16,1 °C 70 % 1011,6 hPa 0,0 mm 0,0 km/h (0 Bft) O-SO 110 ° 0 min 0,000 mm 0,0 UV-I 0 W/m² 10,4 °C 15,9 °C 0,0 km/h (0 Bft)
29.05.2017 23:16 15,9 °C 15,9 °C 70 % 1011,6 hPa 0,0 mm 0,0 km/h (0 Bft) O-SO 110 ° 0 min 0,000 mm 0,0 UV-I 0 W/m² 10,4 °C 15,9 °C 0,0 km/h (0 Bft)
29.05.2017 23:17 15,8 °C 15,9 °C 70 % 1011,6 hPa 0,0 mm 0,2 km/h (0 Bft) O-SO 110 ° 0 min 0,000 mm 0,0 UV-I 0 W/m² 10,3 °C 15,8 °C 1,6 km/h (1 Bft)
29.05.2017 23:18 15,9 °C 15,9 °C 69 % 1011,6 hPa 0,0 mm 0,4 km/h (0 Bft) O-SO 110 ° 0 min 0,000 mm 0,0 UV-I 0 W/m² 10,2 °C 15,9 °C 1,6 km/h (1 Bft)
29.05.2017 23:19 15,9 °C 15,9 °C 69 % 1011,6 hPa 0,0 mm 0,3 km/h (0 Bft) O-SO 110 ° 0 min 0,000 mm 0,0 UV-I 0 W/m² 10,2 °C 15,9 °C 1,6 km/h (1 Bft)
29.05.2017 23:20 16,0 °C 16,0 °C 68 % 1011,6 hPa 0,0 mm 0,1 km/h (0 Bft) O-SO 110 ° 0 min 0,000 mm 0,0 UV-I 0 W/m² 10,1 °C 16,0 °C 1,6 km/h (1 Bft)
29.05.2017 23:21 16,2 °C 16,2 °C 67 % 1011,6 hPa 0,0 mm 0,0 km/h (0 Bft) O-SO 110 ° 0 min 0,000 mm 0,0 UV-I 0 W/m² 10,1 °C 16,2 °C 0,0 km/h (0 Bft)
29.05.2017 23:22 16,3 °C 16,3 °C 67 % 1011,6 hPa 0,0 mm 0,0 km/h (0 Bft) O-SO 110 ° 0 min 0,000 mm 0,0 UV-I 0 W/m² 10,2 °C 16,3 °C 0,0 km/h (0 Bft)
29.05.2017 23:23 16,4 °C 16,4 °C 67 % 1011,6 hPa 0,0 mm 0,0 km/h (0 Bft) O-SO 110 ° 0 min 0,000 mm 0,0 UV-I 0 W/m² 10,3 °C 16,4 °C 0,0 km/h (0 Bft)
29.05.2017 23:24 16,4 °C 16,4 °C 66 % 1011,6 hPa 0,0 mm 0,0 km/h (0 Bft) O-SO 110 ° 0 min 0,000 mm 0,0 UV-I 0 W/m² 10,0 °C 16,4 °C 0,0 km/h (0 Bft)
29.05.2017 23:25 16,5 °C 16,5 °C 67 % 1011,6 hPa 0,0 mm 0,1 km/h (0 Bft) O-SO 110 ° 0 min 0,000 mm 0,0 UV-I 0 W/m² 10,4 °C 16,5 °C 1,6 km/h (1 Bft)
29.05.2017 23:26 16,5 °C 16,5 °C 67 % 1011,6 hPa 0,0 mm 0,4 km/h (0 Bft) O-SO 110 ° 0 min 0,000 mm 0,0 UV-I 0 W/m² 10,4 °C 16,5 °C 1,6 km/h (1 Bft)
29.05.2017 23:27 16,5 °C 16,5 °C 67 % 1011,6 hPa 0,0 mm 0,1 km/h (0 Bft) O-SO 110 ° 0 min 0,000 mm 0,0 UV-I 0 W/m² 10,4 °C 16,5 °C 1,6 km/h (1 Bft)
29.05.2017 23:28 16,6 °C 16,6 °C 67 % 1011,6 hPa 0,0 mm 0,0 km/h (0 Bft) O-SO 110 ° 0 min 0,000 mm 0,0 UV-I 0 W/m² 10,4 °C 16,6 °C 0,0 km/h (0 Bft)
29.05.2017 23:29 16,6 °C 16,6 °C 67 % 1011,6 hPa 0,0 mm 0,5 km/h (0 Bft) O-SO 110 ° 0 min 0,000 mm 0,0 UV-I 0 W/m² 10,4 °C 16,6 °C 1,6 km/h (1 Bft)
29.05.2017 23:30 16,6 °C 16,6 °C 67 % 1011,6 hPa 0,0 mm 0,0 km/h (0 Bft) O-SO 110 ° 0 min 0,000 mm 0,0 UV-I 0 W/m² 10,4 °C 16,6 °C 0,0 km/h (0 Bft)
29.05.2017 23:31 16,6 °C 16,6 °C 67 % 1011,6 hPa 0,0 mm 0,0 km/h (0 Bft) O-SO 110 ° 0 min 0,000 mm 0,0 UV-I 0 W/m² 10,4 °C 16,6 °C 0,0 km/h (0 Bft)
29.05.2017 23:32 16,6 °C 16,6 °C 67 % 1011,6 hPa 0,0 mm 0,0 km/h (0 Bft) O-SO 110 ° 0 min 0,000 mm 0,0 UV-I 0 W/m² 10,4 °C 16,6 °C 0,0 km/h (0 Bft)
29.05.2017 23:33 16,6 °C 16,6 °C 67 % 1011,6 hPa 0,0 mm 0,0 km/h (0 Bft) O-SO 110 ° 0 min 0,000 mm 0,0 UV-I 0 W/m² 10,4 °C 16,6 °C 0,0 km/h (0 Bft)
29.05.2017 23:34 16,6 °C 16,6 °C 67 % 1011,6 hPa 0,0 mm 0,0 km/h (0 Bft) O-SO 110 ° 0 min 0,000 mm 0,0 UV-I 0 W/m² 10,4 °C 16,6 °C 0,0 km/h (0 Bft)
29.05.2017 23:35 16,4 °C 16,6 °C 69 % 1011,6 hPa 0,0 mm 0,0 km/h (0 Bft) O-SO 110 ° 0 min 0,000 mm 0,0 UV-I 0 W/m² 10,7 °C 16,4 °C 0,0 km/h (0 Bft)
29.05.2017 23:36 16,3 °C 16,4 °C 69 % 1011,6 hPa 0,0 mm 0,0 km/h (0 Bft) O-SO 110 ° 0 min 0,000 mm 0,0 UV-I 0 W/m² 10,6 °C 16,3 °C 0,0 km/h (0 Bft)
29.05.2017 23:37 16,1 °C 16,3 °C 69 % 1011,6 hPa 0,0 mm 0,0 km/h (0 Bft) O-SO 110 ° 0 min 0,000 mm 0,0 UV-I 0 W/m² 10,4 °C 16,1 °C 0,0 km/h (0 Bft)
29.05.2017 23:38 15,9 °C 16,1 °C 71 % 1011,6 hPa 0,0 mm 0,0 km/h (0 Bft) O-SO 110 ° 0 min 0,000 mm 0,0 UV-I 0 W/m² 10,6 °C 15,9 °C 0,0 km/h (0 Bft)
29.05.2017 23:39 15,8 °C 15,9 °C 72 % 1011,6 hPa 0,0 mm 0,0 km/h (0 Bft) O-SO 110 ° 0 min 0,000 mm 0,0 UV-I 0 W/m² 10,8 °C 15,8 °C 0,0 km/h (0 Bft)
29.05.2017 23:40 15,7 °C 15,8 °C 71 % 1011,6 hPa 0,0 mm 0,0 km/h (0 Bft) O-SO 110 ° 0 min 0,000 mm 0,0 UV-I 0 W/m² 10,5 °C 15,7 °C 0,0 km/h (0 Bft)
29.05.2017 23:41 15,7 °C 15,7 °C 72 % 1011,6 hPa 0,0 mm 0,0 km/h (0 Bft) O-SO 110 ° 0 min 0,000 mm 0,0 UV-I 0 W/m² 10,7 °C 15,7 °C 0,0 km/h (0 Bft)
29.05.2017 23:42 15,7 °C 15,7 °C 71 % 1011,6 hPa 0,0 mm 0,0 km/h (0 Bft) O-SO 110 ° 0 min 0,000 mm 0,0 UV-I 0 W/m² 10,5 °C 15,7 °C 0,0 km/h (0 Bft)
29.05.2017 23:43 15,7 °C 15,7 °C 72 % 1011,6 hPa 0,0 mm 0,0 km/h (0 Bft) O-SO 110 ° 0 min 0,000 mm 0,0 UV-I 0 W/m² 10,7 °C 15,7 °C 0,0 km/h (0 Bft)
29.05.2017 23:44 15,6 °C 15,7 °C 73 % 1011,6 hPa 0,0 mm 0,0 km/h (0 Bft) O-SO 110 ° 0 min 0,000 mm 0,0 UV-I 0 W/m² 10,8 °C 15,6 °C 0,0 km/h (0 Bft)
29.05.2017 23:45 15,6 °C 15,6 °C 73 % 1011,6 hPa 0,0 mm 0,0 km/h (0 Bft) O-SO 110 ° 0 min 0,000 mm 0,0 UV-I 0 W/m² 10,8 °C 15,6 °C 0,0 km/h (0 Bft)
29.05.2017 23:46 15,6 °C 15,6 °C 73 % 1011,6 hPa 0,0 mm 0,0 km/h (0 Bft) O-SO 110 ° 0 min 0,000 mm 0,0 UV-I 0 W/m² 10,8 °C 15,6 °C 0,0 km/h (0 Bft)
29.05.2017 23:47 15,6 °C 15,6 °C 73 % 1011,6 hPa 0,0 mm 0,0 km/h (0 Bft) O-SO 110 ° 0 min 0,000 mm 0,0 UV-I 0 W/m² 10,8 °C 15,6 °C 0,0 km/h (0 Bft)
29.05.2017 23:48 15,6 °C 15,6 °C 73 % 1011,6 hPa 0,0 mm 0,0 km/h (0 Bft) O-SO 110 ° 0 min 0,000 mm 0,0 UV-I 0 W/m² 10,8 °C 15,6 °C 0,0 km/h (0 Bft)
29.05.2017 23:49 15,6 °C 15,6 °C 73 % 1011,6 hPa 0,0 mm 0,0 km/h (0 Bft) O-SO 110 ° 0 min 0,000 mm 0,0 UV-I 0 W/m² 10,8 °C 15,6 °C 0,0 km/h (0 Bft)
29.05.2017 23:50 15,6 °C 15,7 °C 72 % 1011,6 hPa 0,0 mm 0,0 km/h (0 Bft) O-SO 110 ° 0 min 0,000 mm 0,0 UV-I 0 W/m² 10,6 °C 15,6 °C 0,0 km/h (0 Bft)
29.05.2017 23:51 15,7 °C 15,7 °C 72 % 1011,6 hPa 0,0 mm 0,0 km/h (0 Bft) O-SO 110 ° 0 min 0,000 mm 0,0 UV-I 0 W/m² 10,7 °C 15,7 °C 0,0 km/h (0 Bft)
29.05.2017 23:52 15,7 °C 15,7 °C 72 % 1011,6 hPa 0,0 mm 0,0 km/h (0 Bft) O-SO 110 ° 0 min 0,000 mm 0,0 UV-I 0 W/m² 10,7 °C 15,7 °C 0,0 km/h (0 Bft)
29.05.2017 23:53 15,8 °C 15,8 °C 72 % 1011,6 hPa 0,0 mm 0,0 km/h (0 Bft) O-SO 110 ° 0 min 0,000 mm 0,0 UV-I 0 W/m² 10,8 °C 15,8 °C 0,0 km/h (0 Bft)
29.05.2017 23:54 15,8 °C 15,8 °C 72 % 1011,6 hPa 0,0 mm 0,0 km/h (0 Bft) O-SO 110 ° 0 min 0,000 mm 0,0 UV-I 0 W/m² 10,8 °C 15,8 °C 0,0 km/h (0 Bft)
29.05.2017 23:55 15,8 °C 15,8 °C 72 % 1011,6 hPa 0,0 mm 0,0 km/h (0 Bft) O-SO 110 ° 0 min 0,000 mm 0,0 UV-I 0 W/m² 10,8 °C 15,8 °C 0,0 km/h (0 Bft)
29.05.2017 23:56 15,8 °C 15,8 °C 72 % 1011,6 hPa 0,0 mm 0,0 km/h (0 Bft) O-SO 110 ° 0 min 0,000 mm 0,0 UV-I 0 W/m² 10,8 °C 15,8 °C 0,0 km/h (0 Bft)
29.05.2017 23:57 15,8 °C 15,8 °C 72 % 1011,5 hPa 0,0 mm 0,0 km/h (0 Bft) O-SO 110 ° 0 min 0,000 mm 0,0 UV-I 0 W/m² 10,8 °C 15,8 °C 0,0 km/h (0 Bft)
29.05.2017 23:58 15,8 °C 15,8 °C 72 % 1011,6 hPa 0,0 mm 0,0 km/h (0 Bft) O-SO 110 ° 0 min 0,000 mm 0,0 UV-I 0 W/m² 10,8 °C 15,8 °C 0,0 km/h (0 Bft)
29.05.2017 23:59 15,7 °C 15,8 °C 72 % 1011,6 hPa 0,0 mm 0,0 km/h (0 Bft) O-SO 110 ° 0 min 0,000 mm 0,0 UV-I 0 W/m² 10,7 °C 15,7 °C 0,0 km/h (0 Bft)
_ Min-Zeit 05:35 05:36 15:06 20:11 - 23:59 - - - - - - 15:06 05:35 23:59
Minimum _ 11,9 °C 12,0 °C 27 % 1010,5 hPa - 0,0 km/h (0 Bft) - - - - - - 7,0 °C 11,9 °C 0,0 km/h (0 Bft)
_ Max-Zeit 16:06 16:07 05:35 00:09 23:59 12:04 - - 09:03 15:01 13:35 13:33 09:23 16:06 16:55
Maximum _ 27,8 °C 27,8 °C 84 % 1016,7 hPa 0,0 mm 11,6 km/h
N-NO (2 Bft)
- - 2 min 0,635 mm 7,5 UV-I 902 W/m² 16,6 °C 27,8 °C 19,3 km/h
N-NO (3 Bft)
Durchschnitt _ 20,6 °C 20,6 °C 57 % 1013,0 hPa #0,0 mm 2,2 km/h (1 Bft) O-NO - #8:03 h #4,928 mm 4,2 UV-I 276 W/m² 10,8 °C 20,6 °C 3,8 km/h (1 Bft)